GFSMA_sfc_wetblb_000.txt.gz
Wetbulb
78.36 77.55 78.03 77.49 76.62 78.00 77.84 76.41 76.25 75.89 75.33 74.79 74.65 73.66 72.64 72.76 73.32 73.15 73.84 74.97 73.44 74.34 75.44 75.74 75.31 75.49 75.25 74.83 75.28 74.96 74.67 74.23 73.78 73.61 73.70 73.85 73.75 74.19 73.59 73.09 73.06 73.71 73.51
78.84 76.27 76.44 76.19 76.43 77.77 77.37 76.58 76.03 75.24 74.76 74.03 72.76 72.74 72.40 72.08 72.65 73.39 73.04 74.49 73.94 73.52 74.49 75.31 75.99 75.57 75.41 75.50 74.54 75.07 75.55 75.54 75.46 74.66 74.93 75.30 75.24 75.12 74.36 73.71 73.60 73.52 73.59
77.55 76.82 76.44 75.43 76.00 78.06 76.81 76.15 76.06 75.80 73.82 73.42 72.37 71.95 72.46 72.60 72.20 72.64 73.05 72.84 74.63 75.04 74.64 74.66 76.57 76.63 75.62 75.65 75.61 75.82 75.75 76.03 76.01 75.44 75.72 75.53 75.37 74.92 75.10 75.10 74.69 74.49 74.64
78.07 77.30 76.44 75.59 76.22 75.93 75.83 75.39 74.79 73.31 72.70 72.16 71.19 71.65 72.01 71.87 72.07 72.25 72.98 73.20 72.88 72.28 75.86 75.26 74.89 76.63 76.46 75.36 75.51 75.29 75.41 75.16 75.59 75.58 75.86 75.83 75.58 75.33 75.64 75.54 75.56 75.27 75.02
77.51 77.14 75.86 75.98 76.90 75.30 76.14 74.58 73.70 73.18 71.23 70.73 70.41 70.52 71.98 71.66 72.28 71.75 73.14 74.32 74.06 73.80 72.50 75.53 74.08 74.15 75.36 75.42 76.07 75.99 75.90 75.43 74.93 75.21 75.41 75.79 75.71 75.36 75.01 75.24 75.42 75.47 75.54
77.37 77.39 76.50 76.16 75.88 75.83 74.25 74.53 73.41 72.62 71.82 70.54 69.40 69.49 72.04 72.90 72.72 72.07 71.61 71.28 71.43 73.31 74.01 75.67 75.55 75.41 74.43 73.57 75.08 75.87 76.25 75.71 75.58 75.21 75.04 75.24 75.37 75.47 75.39 75.27 75.19 75.42 75.29
77.86 77.48 75.89 76.08 76.05 75.02 74.53 73.66 71.94 71.39 69.16 72.41 68.48 69.51 70.10 71.67 71.24 72.18 70.68 67.89 68.51 69.66 71.65 73.79 74.48 74.82 75.33 74.07 73.84 73.98 74.18 74.62 75.70 75.83 75.51 75.07 74.99 74.94 75.12 74.92 75.16 75.36 75.26
78.03 77.11 76.92 76.07 76.34 74.02 74.04 72.26 71.65 69.42 70.16 71.54 67.99 67.41 65.05 67.63 69.98 70.29 69.41 66.27 66.42 67.22 68.61 70.68 72.09 73.29 73.69 74.13 72.77 72.09 71.54 72.33 72.92 73.51 74.43 75.34 74.94 74.64 74.39 74.54 74.68 74.90 74.88
78.38 78.07 77.40 76.51 75.56 72.81 69.90 72.20 71.31 69.88 67.37 71.57 70.87 67.38 63.89 63.59 65.79 68.71 69.01 67.07 66.54 65.64 67.19 68.42 69.46 69.90 69.90 70.06 70.93 70.45 68.51 68.94 69.95 71.44 72.50 72.97 73.77 74.17 74.62 74.22 74.21 74.23 74.55
78.11 77.61 77.36 76.13 73.55 71.69 72.51 71.59 71.97 70.37 70.28 68.14 69.90 70.39 70.17 68.76 63.76 63.89 66.78 66.48 68.17 66.29 66.10 66.31 67.66 68.02 68.79 67.87 67.61 66.73 66.93 66.44 66.51 67.04 67.80 68.85 69.92 71.64 73.12 73.82 74.17 74.29 74.21
78.04 76.40 77.28 74.53 73.12 71.49 72.47 72.57 71.61 70.91 70.73 68.39 67.96 69.06 69.70 68.41 68.86 63.96 60.86 63.95 66.68 67.13 67.27 67.48 66.48 67.18 67.90 68.20 67.29 66.35 65.35 65.29 65.10 65.12 65.11 65.60 66.61 67.62 69.64 71.71 73.32 73.95 74.37
75.73 76.63 76.74 74.57 73.10 71.67 72.22 71.65 71.35 71.02 70.36 69.91 69.18 69.09 66.53 65.35 65.31 64.05 61.95 63.07 63.15 65.51 67.37 66.51 66.60 65.82 66.57 67.41 65.05 63.73 63.89 65.40 64.17 63.89 63.79 64.51 64.94 65.53 66.57 67.46 69.64 71.88 73.24
72.89 74.97 76.42 74.11 72.19 73.02 72.08 71.25 71.02 70.86 70.17 69.23 69.82 68.13 68.52 67.46 67.18 65.64 64.13 63.20 62.66 65.01 65.44 67.37 67.75 66.52 66.01 66.54 67.01 64.47 67.19 66.28 65.37 64.95 64.35 63.75 63.97 63.98 64.72 65.19 66.34 67.94 70.41
72.06 74.24 75.66 73.88 72.94 72.46 71.87 70.88 69.46 69.11 69.89 69.06 69.64 69.98 68.09 68.07 67.59 66.91 65.09 64.14 62.27 62.91 64.52 66.22 67.19 66.99 66.60 66.50 67.47 65.83 67.63 65.87 64.86 64.08 63.85 64.26 64.02 63.64 63.94 64.19 64.53 64.87 65.63
72.53 74.26 74.29 73.16 72.07 72.33 71.13 70.67 68.70 69.04 68.96 69.33 68.96 69.49 69.00 67.48 67.23 67.34 67.35 66.77 64.21 60.15 60.50 63.92 63.74 67.27 66.87 66.97 68.23 68.11 68.24 66.93 64.78 64.14 63.52 63.01 63.12 63.53 63.72 63.89 64.36 64.65 64.79
74.96 73.63 72.98 71.70 71.40 71.29 70.59 70.91 69.50 69.94 69.13 67.25 66.68 68.44 69.09 67.80 67.94 67.70 67.43 66.88 66.09 63.82 60.81 63.88 64.09 66.22 67.53 67.30 68.42 68.20 68.05 67.17 65.85 64.83 63.89 62.90 63.06 63.36 63.71 63.78 63.89 63.98 64.20
74.33 73.21 72.77 70.74 70.89 70.27 70.49 70.34 70.09 69.09 68.44 68.53 68.38 68.80 69.25 70.47 67.92 66.80 66.79 66.23 65.41 64.82 62.07 63.48 64.94 67.09 67.72 67.74 68.03 68.47 68.18 67.68 67.06 64.85 63.99 63.08 62.39 62.38 62.68 62.68 62.66 62.81 63.03
73.04 72.48 71.48 70.60 70.51 70.34 70.16 70.00 68.93 68.36 68.07 67.47 68.06 69.02 69.11 68.56 69.51 69.70 67.38 68.32 66.86 66.96 64.47 63.60 65.87 65.17 67.27 67.58 67.44 67.64 66.87 66.70 66.53 65.30 63.25 62.04 61.40 61.14 60.89 61.02 60.93 60.91 60.53
70.73 69.45 69.38 70.24 70.39 70.58 70.14 70.34 70.19 69.45 68.54 68.16 68.69 68.85 68.89 69.15 68.39 67.84 67.93 66.26 65.99 65.79 66.13 63.74 63.26 64.91 64.99 65.50 66.05 66.89 67.74 67.37 65.84 65.40 62.93 62.17 61.35 61.01 60.61 59.82 59.59 58.75 57.28
69.87 68.34 69.36 68.90 69.54 70.53 70.50 70.22 69.95 69.53 68.40 67.98 69.02 69.11 69.08 69.12 68.90 68.41 67.21 68.15 67.42 65.85 66.38 63.32 63.19 62.80 63.24 65.18 64.92 62.05 61.97 64.09 63.39 64.59 64.82 62.91 62.67 62.62 62.29 60.43 59.87 59.64 57.27
69.60 66.42 67.19 66.67 68.23 70.17 68.62 70.18 69.39 68.56 68.34 68.48 69.30 69.75 70.03 69.74 67.14 66.86 66.53 68.13 67.35 65.32 63.11 62.10 61.76 61.85 60.73 60.64 62.43 63.00 61.88 62.90 63.60 64.69 63.37 63.14 62.71 63.88 64.35 62.67 63.44 62.89 60.43
69.44 67.67 67.07 67.38 67.58 68.01 64.19 63.71 67.13 68.59 68.98 69.07 69.01 69.80 70.10 68.43 67.35 64.60 63.88 63.44 64.25 64.53 63.08 61.74 61.11 61.24 63.89 63.52 63.65 62.36 61.56 60.26 58.86 64.39 63.19 60.99 63.74 63.13 63.70 63.56 62.16 60.83 59.68
69.69 69.30 68.49 68.57 67.50 69.09 62.31 62.32 63.97 67.97 68.47 69.53 69.89 69.64 67.99 66.39 66.33 68.05 64.78 62.53 61.98 61.03 61.12 63.99 63.06 63.05 63.68 63.84 63.77 62.50 61.67 60.75 59.58 61.35 62.23 60.11 62.95 61.37 63.29 63.02 60.33 59.65 58.53
68.32 69.00 68.98 68.58 68.24 68.68 62.25 61.10 63.34 68.71 69.91 70.11 69.27 67.71 67.02 65.56 65.62 67.12 67.05 65.77 65.37 65.62 66.08 64.99 64.60 63.91 63.96 63.59 62.17 61.35 60.88 60.30 60.47 61.18 63.19 58.97 61.49 59.90 62.18 62.92 59.75 58.82 57.95
69.30 69.70 69.88 69.45 69.03 69.49 58.54 58.60 62.89 68.50 68.63 68.71 66.81 66.24 65.35 65.62 62.30 59.22 63.63 63.85 64.69 64.72 62.25 58.83 57.45 56.48 55.87 55.70 57.06 59.24 58.40 57.04 56.56 57.83 61.11 59.30 59.33 59.19 60.26 59.95 60.46 59.06 57.80
69.28 68.39 68.63 69.48 66.06 69.81 57.97 56.76 61.11 67.57 67.10 65.32 65.40 64.75 60.06 61.89 56.37 56.14 62.16 63.24 62.26 62.76 63.07 62.15 61.88 60.52 58.70 60.72 57.45 60.26 58.07 55.61 56.04 55.68 59.24 58.03 57.78 56.66 52.94 56.56 59.40 60.10 59.74

GFSMA_sfc_wetblb_003.txt.gz
Wetbulb
77.99 78.17 76.97 76.33 76.90 77.83 76.12 75.96 75.84 75.32 75.18 75.08 74.22 73.15 72.52 71.66 71.27 71.01 72.35 75.61 74.57 74.19 74.95 76.10 75.47 75.39 75.54 75.36 75.62 75.36 75.21 74.39 73.94 74.10 74.49 73.80 74.11 73.96 74.30 73.63 73.02 73.32 73.12
76.91 76.93 78.55 76.45 75.82 76.70 76.87 75.34 75.95 75.13 75.02 74.49 72.89 72.97 72.34 72.09 72.20 72.08 71.75 74.33 75.66 74.58 74.32 75.57 75.96 75.65 75.54 75.61 75.33 75.70 75.54 75.23 74.49 74.19 74.11 74.78 75.22 74.40 74.27 73.84 73.39 73.26 73.67
77.68 77.83 77.56 76.42 76.02 76.74 77.10 76.14 75.47 74.99 74.06 71.85 71.77 71.60 71.87 72.03 71.46 72.13 71.88 71.47 74.66 75.62 74.70 75.04 76.42 76.13 75.96 75.93 75.83 75.83 76.36 75.77 75.52 75.69 75.62 75.84 75.72 75.62 75.49 75.09 74.37 74.39 74.65
78.37 78.27 76.18 75.60 76.79 76.21 77.09 75.41 73.36 72.18 71.22 70.60 70.42 70.88 71.06 71.51 71.71 71.82 72.14 71.76 71.29 71.80 75.90 76.15 75.23 76.67 75.33 75.47 75.58 75.39 75.80 75.81 76.04 75.72 75.85 75.22 75.82 75.69 75.50 75.43 75.33 75.35 75.00
78.78 77.73 76.29 76.59 77.65 76.10 75.54 74.56 73.88 73.30 70.00 69.96 69.89 70.11 71.67 71.12 71.05 70.96 71.05 71.90 72.88 72.73 71.99 75.87 75.74 75.28 75.46 75.40 75.61 75.52 75.08 75.33 75.25 75.15 75.53 75.75 75.66 75.70 75.53 75.48 75.56 75.48 75.53
78.40 77.92 76.62 76.80 76.52 76.71 74.42 73.26 73.57 71.52 70.59 70.20 68.89 68.28 70.66 71.64 71.24 70.09 69.92 69.63 71.17 72.13 73.32 74.05 75.13 75.00 75.54 75.05 75.03 75.36 75.34 75.50 75.43 75.63 75.28 75.28 75.48 75.51 75.56 75.38 75.23 75.28 75.18
78.45 77.85 76.65 77.12 75.94 75.63 74.95 73.34 71.65 71.19 69.44 70.91 67.76 68.76 69.85 70.68 70.44 70.41 68.50 67.97 68.07 68.93 71.17 72.58 73.25 74.60 75.07 74.06 74.10 74.36 74.00 74.05 74.38 74.62 75.48 74.88 75.01 75.31 75.31 75.13 75.15 75.25 75.46
78.59 77.48 78.32 76.32 76.36 74.91 74.71 72.97 71.65 68.97 69.28 70.58 67.52 66.63 65.57 68.04 68.98 69.51 68.72 66.88 66.71 67.34 68.85 70.83 72.16 72.92 73.58 74.02 73.46 71.16 71.04 72.07 72.95 73.19 73.36 73.74 74.11 74.68 74.87 74.62 74.81 74.91 74.97
78.50 78.32 77.47 77.23 77.08 74.56 69.01 72.65 71.18 69.83 67.07 70.74 71.00 67.37 63.90 63.99 66.55 69.29 69.28 67.41 67.14 66.12 67.20 68.66 69.38 69.43 70.13 70.81 71.66 69.74 67.93 68.05 68.63 69.30 70.43 70.92 71.48 72.37 73.07 74.20 74.47 74.41 74.66
78.11 78.11 77.76 76.74 76.49 72.12 73.66 71.69 71.03 70.56 70.35 68.27 69.24 69.10 69.38 68.50 64.28 63.51 68.26 67.35 67.01 66.32 66.38 66.15 66.85 68.12 68.14 67.58 67.84 66.65 65.85 65.42 65.57 66.14 66.09 66.26 66.98 68.21 69.82 71.38 73.36 73.65 74.31
77.40 76.42 76.29 76.75 74.85 71.25 72.80 72.22 71.16 71.31 71.03 68.69 67.99 67.54 69.41 66.97 67.46 63.85 61.21 64.20 66.03 66.46 66.86 66.03 65.91 65.71 66.99 67.04 66.57 65.76 65.12 64.78 64.18 64.08 64.39 64.85 65.51 65.87 66.60 67.79 69.41 70.98 72.79
75.96 76.30 75.57 76.55 74.72 71.82 72.02 71.71 71.63 71.42 70.95 70.48 69.21 69.40 66.90 64.92 64.92 63.95 62.08 63.49 63.11 65.40 66.37 67.11 66.57 66.84 65.94 65.98 65.74 64.92 64.49 64.71 64.82 63.80 63.33 63.83 64.29 64.76 65.20 65.70 66.45 67.39 68.89
73.38 76.68 76.42 76.63 73.92 73.19 72.43 72.11 72.07 71.90 70.76 69.70 70.37 68.43 70.40 67.89 67.73 65.95 64.11 63.10 62.57 64.46 65.68 67.98 67.39 67.69 66.62 66.45 66.82 66.00 66.76 66.93 66.37 64.98 64.50 63.83 64.09 63.97 63.87 64.00 64.55 65.33 66.36
73.48 76.26 75.76 75.80 74.72 72.68 72.55 72.51 70.23 69.48 71.95 69.69 69.68 71.55 68.33 68.14 68.46 67.30 66.58 66.53 62.06 62.88 64.70 67.68 68.38 68.27 66.93 66.93 68.35 67.91 67.15 67.74 66.99 65.06 63.85 64.05 64.39 64.06 63.95 63.71 63.92 64.23 64.47
73.98 73.81 74.91 75.26 74.53 72.83 72.86 72.85 69.43 71.58 70.11 70.08 70.56 71.85 69.32 67.71 67.37 67.03 66.86 67.71 63.76 59.83 61.36 65.13 63.56 69.33 67.29 67.58 68.60 68.07 68.38 68.62 67.23 65.18 64.01 63.71 63.80 64.40 64.55 64.58 64.55 64.60 64.82
76.14 75.90 74.46 74.26 73.76 73.71 73.63 73.31 71.55 72.02 70.99 68.81 67.62 71.47 71.59 68.19 67.87 67.36 67.31 66.81 65.59 63.11 60.22 63.82 64.51 67.63 68.52 67.40 68.55 68.66 68.01 68.26 66.44 65.39 64.83 63.91 63.69 63.95 64.36 64.29 64.34 64.13 64.22
77.31 75.96 75.52 74.45 73.08 72.55 71.96 71.94 71.60 70.77 71.28 71.31 71.06 69.71 70.71 72.32 67.85 67.07 66.78 66.54 65.20 64.78 62.03 64.56 65.51 67.97 70.09 69.87 69.02 69.41 68.77 69.66 67.51 65.74 65.16 64.27 63.38 63.15 63.33 63.33 63.22 63.29 63.12
77.30 75.71 75.10 73.47 72.10 71.70 70.95 71.47 69.88 69.48 69.38 68.42 68.58 70.49 69.48 68.63 71.64 72.14 67.79 70.59 68.79 68.92 64.59 65.19 66.36 65.35 67.90 70.19 70.49 70.03 67.55 66.29 67.13 65.69 64.80 63.66 62.53 61.83 61.74 61.59 61.22 61.03 60.68
76.55 74.38 74.14 73.11 71.66 71.49 71.81 71.73 71.40 70.14 69.18 69.02 68.71 69.99 69.59 71.05 71.33 69.22 70.20 68.10 67.23 68.19 67.31 64.04 63.45 64.82 65.53 65.78 66.35 69.20 68.73 67.38 66.03 65.70 63.47 62.68 62.08 61.57 60.90 60.01 59.30 58.61 57.35
75.38 73.44 73.17 72.10 71.64 71.29 70.81 70.65 70.33 69.84 70.22 69.72 70.08 70.36 70.36 70.34 70.33 70.33 69.82 70.52 69.35 67.45 66.72 64.66 63.24 63.16 64.47 63.70 65.87 63.77 63.24 63.95 63.70 65.01 65.49 63.13 62.82 63.64 62.11 60.23 59.93 59.78 57.44
74.17 72.65 71.88 71.31 71.13 70.01 70.34 71.13 70.26 69.97 70.82 69.67 69.44 69.43 70.43 70.57 68.26 67.48 69.26 65.33 68.71 66.43 65.30 64.28 63.16 63.12 62.85 62.66 62.47 64.17 63.03 63.60 62.51 64.82 63.93 64.35 65.11 65.07 64.42 63.37 64.21 63.57 60.60
73.49 72.43 69.94 69.73 69.41 68.29 64.48 65.13 68.89 68.66 70.03 69.89 68.93 69.71 69.89 69.06 67.71 65.21 64.92 64.43 64.34 63.96 64.59 63.04 62.15 62.23 63.76 64.19 64.83 64.03 63.01 60.46 58.36 64.24 63.42 62.46 63.77 63.15 64.46 65.61 63.77 61.74 60.27
73.27 72.18 69.45 69.74 69.19 69.97 62.52 62.76 64.51 68.58 68.09 69.62 70.03 69.25 69.35 68.08 67.13 67.81 65.52 63.34 63.02 62.54 62.09 64.35 63.40 64.00 63.68 64.35 64.94 63.71 62.88 61.12 59.53 61.08 62.04 59.61 62.30 62.29 64.71 64.86 60.84 59.71 58.84
73.11 71.98 70.22 71.25 70.19 70.08 61.43 61.25 64.04 67.72 67.49 69.11 69.78 69.76 69.83 69.34 68.75 65.99 67.11 65.49 65.54 67.49 66.79 64.59 64.94 65.49 65.45 64.73 62.86 61.76 61.62 61.37 61.32 61.91 63.43 57.96 61.21 60.99 63.69 64.56 60.32 59.42 58.63
73.76 70.90 69.82 69.91 70.29 69.90 59.55 59.14 63.47 67.86 67.63 69.34 69.79 69.92 69.55 67.45 64.09 61.03 63.23 62.79 65.01 66.19 64.30 61.80 59.58 57.55 56.34 56.22 57.60 59.25 57.83 56.74 55.68 57.02 59.94 59.20 59.81 58.97 60.27 60.93 62.73 60.02 57.37
72.63 70.32 69.49 69.76 67.74 70.91 57.91 57.19 61.96 66.45 65.36 66.84 71.74 70.12 61.79 63.68 58.49 58.26 64.33 64.33 63.85 64.82 64.59 64.47 63.88 60.61 58.66 60.61 56.96 59.78 59.82 56.41 55.94 55.12 58.27 55.28 55.93 56.79 56.70 60.20 61.19 60.57 58.22

GFSMA_sfc_wetblb_006.txt.gz
Wetbulb
76.13 73.63 78.05 78.23 78.18 77.05 75.76 76.54 75.13 74.78 75.97 75.43 73.51 73.25 71.88 71.78 71.57 70.51 73.09 76.55 75.44 74.37 75.12 75.56 75.35 71.94 74.19 75.61 75.19 75.35 75.08 74.31 74.29 74.57 74.65 74.86 75.05 74.88 74.68 74.43 74.56 74.20 73.14
78.98 74.12 77.69 75.75 76.16 75.78 77.91 76.13 76.57 75.91 74.32 73.70 74.33 72.22 72.10 72.34 72.14 72.31 71.23 75.01 76.20 75.73 74.91 75.08 76.05 75.30 75.31 75.31 75.91 75.46 75.40 75.38 75.28 74.32 74.93 75.27 74.97 75.08 74.95 75.16 74.57 74.03 74.11
79.38 79.88 78.10 77.98 76.77 76.54 78.12 76.18 76.47 73.58 71.44 72.14 72.24 72.31 72.00 71.80 72.12 71.32 71.44 71.22 74.66 76.44 75.98 75.86 75.74 76.43 75.93 75.70 75.96 76.07 75.83 75.13 75.35 75.45 75.26 75.16 75.47 75.42 75.30 75.22 74.74 74.23 74.30
80.23 80.21 77.29 74.48 72.48 76.83 76.66 74.25 73.93 74.04 70.84 70.99 70.50 71.82 71.58 71.70 71.42 71.57 71.44 70.41 71.93 73.08 75.84 76.31 76.21 75.84 75.85 75.67 75.34 75.57 75.49 76.31 76.00 75.74 75.74 75.40 75.82 75.97 75.85 75.60 75.22 75.17 74.90
78.96 78.03 77.17 74.99 76.55 75.98 76.47 73.53 70.75 73.12 70.20 70.87 69.49 70.37 70.85 71.17 70.73 70.11 70.45 70.84 71.85 72.68 73.53 75.71 76.10 76.16 75.51 75.25 75.47 75.77 75.32 75.03 74.87 75.17 75.37 75.45 75.43 75.33 75.28 75.50 75.45 75.35 75.42
78.88 78.50 77.31 76.87 78.39 77.91 74.52 75.04 73.38 73.07 71.34 70.18 69.65 68.17 70.57 71.01 71.07 69.33 69.49 69.76 70.16 71.39 71.73 73.41 73.84 74.00 75.08 74.04 75.02 74.95 74.61 75.23 75.34 75.27 75.10 75.00 75.10 75.22 75.12 75.20 75.20 75.35 75.30
79.01 78.89 77.28 77.30 75.28 77.23 72.04 73.08 73.04 71.07 70.64 71.36 69.22 67.92 69.56 70.17 70.27 69.93 68.08 67.00 67.92 68.85 70.60 71.41 72.44 73.66 73.42 74.10 74.20 74.18 73.68 73.14 73.76 74.83 75.15 74.85 74.87 75.00 74.72 74.64 74.81 75.26 75.19
79.16 76.60 77.52 76.30 75.19 74.65 74.67 73.48 72.49 70.10 70.00 71.64 67.78 67.90 64.64 67.86 67.51 69.09 67.70 65.55 66.46 67.20 68.18 70.14 71.22 71.48 72.68 72.87 71.54 71.22 70.93 71.89 72.79 73.05 73.27 73.70 74.00 74.47 74.54 74.48 74.54 74.87 75.00
78.59 75.59 77.12 77.75 77.02 75.75 72.95 73.61 72.43 71.09 68.24 72.12 70.71 67.90 64.70 64.10 66.51 69.22 68.66 66.19 66.97 65.55 66.85 68.77 68.43 68.76 68.19 70.66 70.98 68.06 67.37 67.82 68.20 69.33 70.09 70.36 70.69 71.43 72.41 73.02 73.86 74.24 74.51
78.49 78.46 78.46 78.17 77.18 74.46 74.52 73.13 72.45 70.98 71.52 68.21 70.74 69.88 69.32 67.73 64.03 63.23 68.37 65.97 66.25 64.99 65.44 65.23 66.11 67.53 66.69 67.68 68.06 67.02 66.15 65.90 65.53 65.94 66.01 66.39 66.64 67.26 68.33 69.76 71.55 72.57 73.50
77.78 76.89 77.61 77.46 76.06 74.40 74.64 72.66 71.89 71.20 71.99 69.93 68.68 69.21 69.81 68.44 67.18 63.76 61.71 63.24 65.72 65.85 66.30 65.41 64.89 64.84 66.76 65.47 66.96 65.66 66.34 65.82 64.23 63.84 63.99 64.13 64.70 65.22 65.60 66.19 67.27 68.08 69.25
77.20 78.17 76.87 76.51 75.95 74.00 73.80 72.86 72.99 73.04 71.70 71.43 70.05 70.03 68.15 66.83 64.03 65.56 62.64 62.80 63.35 65.71 65.08 66.07 66.28 66.61 65.90 65.92 67.51 67.24 66.98 66.05 66.14 65.49 64.52 63.98 64.10 64.10 64.34 64.71 65.18 66.05 66.66
75.02 75.89 76.82 76.18 74.62 74.33 74.18 73.59 72.98 73.06 71.70 70.76 71.03 69.51 69.31 68.46 68.00 66.30 65.09 62.84 62.05 64.29 65.42 65.53 67.02 67.59 66.89 66.40 66.26 67.88 67.75 67.23 66.82 65.47 65.10 64.79 64.47 64.46 64.08 63.84 64.38 64.77 65.47
75.18 74.96 75.68 76.24 75.96 73.19 73.26 73.03 71.93 70.95 71.59 70.64 69.55 70.32 69.41 69.41 69.02 67.37 65.33 63.85 61.35 62.84 63.11 64.65 67.05 68.32 67.92 66.80 68.36 68.73 66.11 67.13 66.97 66.03 64.87 64.37 64.53 64.86 64.94 64.58 64.26 64.15 64.04
76.32 75.84 75.21 75.70 74.80 73.70 73.11 73.33 70.19 70.57 71.30 71.70 70.93 70.32 69.12 68.17 68.59 68.44 67.38 66.79 62.45 60.00 59.75 63.92 63.55 66.83 65.36 66.98 68.00 67.45 66.84 68.82 68.14 66.76 65.03 64.16 64.45 64.81 65.16 65.24 65.27 65.22 65.11
76.61 74.45 75.24 74.32 74.48 72.71 73.40 72.71 70.88 71.76 70.51 70.24 69.72 69.73 69.30 68.80 69.18 68.49 65.86 66.96 64.75 63.32 59.86 63.87 64.51 66.33 67.78 67.68 68.14 67.33 67.68 68.72 67.71 66.41 64.85 63.88 63.83 64.36 64.67 64.95 64.94 64.88 64.83
75.48 75.18 74.18 74.21 73.80 72.83 72.90 71.67 70.98 70.38 69.95 70.14 69.93 69.76 69.15 70.80 68.95 67.95 68.71 67.01 65.40 65.04 62.69 63.52 65.01 66.19 65.94 66.30 66.79 67.39 68.34 67.01 66.84 65.75 64.94 64.36 63.79 63.80 64.09 64.01 63.78 63.63 63.84
76.13 74.66 74.82 74.11 73.56 71.59 72.25 70.98 69.66 68.73 70.02 69.10 69.66 69.60 68.93 68.79 69.59 68.98 68.56 67.47 67.15 67.09 64.72 63.20 64.92 65.09 65.36 66.77 67.05 66.66 66.94 66.17 65.12 65.90 65.64 64.47 63.73 62.88 62.68 62.22 62.02 61.59 61.17
76.23 75.73 74.46 73.81 72.22 70.97 71.10 70.53 70.05 69.68 69.82 69.11 68.85 68.97 68.78 68.75 68.89 68.97 68.51 67.73 66.91 66.19 65.28 63.38 62.44 64.73 64.12 64.10 63.67 64.76 64.30 66.44 67.21 66.74 64.16 63.03 62.75 62.31 61.44 60.54 59.98 59.05 57.63
76.22 75.99 74.53 73.60 72.04 70.79 70.50 70.35 70.22 69.87 69.70 69.50 70.27 70.11 69.99 68.71 68.62 68.86 67.78 67.98 67.75 66.54 64.64 62.83 62.37 62.56 63.86 64.00 64.65 62.21 61.27 64.09 64.03 65.03 65.42 63.73 63.53 63.16 62.30 60.59 60.36 59.92 57.41
77.36 76.66 74.46 73.31 71.97 70.37 70.19 70.17 70.14 69.57 69.44 69.53 68.51 70.15 69.81 70.06 68.26 68.25 67.95 66.92 67.51 65.50 63.42 61.34 60.01 60.50 60.93 61.79 61.02 62.16 61.20 61.65 61.90 63.06 62.61 62.11 61.68 61.93 62.16 62.27 63.30 63.52 60.42
76.92 75.87 72.87 71.72 69.83 69.46 66.22 66.52 69.65 69.45 69.73 69.32 67.34 69.61 70.32 67.78 67.10 65.01 64.83 64.99 66.85 64.94 62.75 60.36 60.29 59.48 60.42 62.16 62.69 61.58 61.06 59.20 57.55 62.27 61.05 59.06 61.11 60.33 60.59 60.82 61.98 61.61 60.66
75.90 74.15 71.87 70.17 68.20 69.63 62.48 63.90 66.47 69.12 68.54 69.07 67.76 69.25 67.95 67.71 67.37 68.05 65.11 63.83 63.64 62.96 62.85 61.96 60.20 60.93 61.30 62.57 62.33 61.06 60.58 59.38 57.80 59.52 59.27 56.46 59.19 58.86 60.59 61.89 61.08 60.89 59.77
74.12 73.50 71.72 69.09 68.53 69.28 61.94 61.82 64.54 66.74 67.74 69.02 68.32 68.58 66.18 67.73 68.63 68.54 66.97 66.77 64.59 64.43 64.66 64.10 62.89 62.31 63.79 64.88 63.05 60.80 59.10 58.48 58.66 59.07 59.50 55.54 56.96 56.08 58.65 59.96 58.87 58.64 58.08
73.14 72.48 71.12 69.24 69.04 69.49 59.67 59.74 62.14 65.62 66.57 66.72 68.18 68.23 67.82 69.07 65.78 61.23 65.09 63.78 63.62 65.05 64.51 61.12 62.51 60.77 58.44 56.80 58.11 59.08 56.37 55.29 54.49 55.77 58.38 55.65 56.10 53.79 54.14 54.37 56.11 58.93 57.81
73.25 73.29 70.75 70.29 66.80 70.71 58.88 57.54 61.55 66.41 66.27 66.81 68.12 68.16 62.54 65.11 60.92 58.90 63.77 64.13 63.59 64.02 64.67 64.28 63.14 60.46 57.98 59.41 57.61 58.25 57.88 55.32 55.29 54.57 57.04 53.19 52.21 51.19 48.10 54.25 58.07 59.32 58.94

GFSMA_sfc_wetblb_009.txt.gz
Wetbulb
70.98 71.74 71.68 71.72 72.54 72.41 72.23 71.26 73.17 72.91 71.55 72.73 71.30 69.99 67.70 67.39 67.11 68.25 72.24 75.69 75.17 75.27 76.04 75.76 74.80 71.99 75.03 75.73 75.42 75.20 74.96 74.53 74.85 74.78 74.24 74.27 74.47 74.27 74.66 73.90 74.00 74.33 73.37
72.84 72.20 72.20 71.85 73.30 73.48 74.35 73.43 71.92 71.70 71.05 70.54 70.98 68.63 67.91 69.53 68.22 68.46 69.59 72.97 75.63 74.82 75.18 76.21 75.41 73.29 73.30 75.89 75.61 75.63 75.51 75.39 74.71 74.26 75.00 74.01 75.17 74.77 75.01 74.25 73.90 73.64 73.89
72.89 73.58 72.94 71.64 73.03 72.92 73.35 71.68 72.32 69.49 68.53 69.25 67.03 67.04 68.40 67.54 67.83 67.02 67.41 68.46 73.41 76.02 74.74 75.92 76.30 75.11 74.39 75.66 75.66 75.75 75.78 76.12 75.76 75.35 75.14 74.85 75.28 75.23 75.25 74.88 75.10 74.62 74.35
74.66 73.78 72.59 72.13 71.31 73.49 72.56 71.28 70.67 69.82 68.81 66.87 64.58 67.49 66.78 67.52 67.27 68.43 69.75 66.29 70.77 72.39 75.15 75.36 76.02 75.99 75.76 75.61 75.34 75.67 76.14 75.91 75.40 75.53 75.35 75.00 74.98 75.28 75.68 75.43 75.31 74.76 74.78
75.10 72.88 72.86 71.96 71.97 72.15 71.13 69.67 68.48 69.91 65.19 64.24 64.84 65.78 66.33 65.56 66.93 67.44 66.55 68.66 67.84 70.32 72.41 74.61 75.01 74.91 74.48 74.65 74.97 75.21 74.67 75.92 75.81 75.91 75.63 75.53 75.23 75.11 75.11 75.11 75.10 75.38 75.25
73.90 73.51 72.77 72.12 72.96 71.58 69.51 69.46 69.17 67.07 65.09 65.26 67.19 64.25 65.16 65.09 66.14 64.46 65.08 66.44 65.93 71.69 71.99 72.48 71.36 72.42 75.03 75.15 75.26 74.74 74.70 75.11 75.14 75.02 75.11 75.11 75.26 75.18 75.05 75.25 74.93 74.98 74.72
74.52 73.35 73.15 72.59 72.66 72.39 69.84 70.60 67.30 64.32 65.10 66.48 62.53 64.18 65.72 66.00 66.77 64.63 62.22 61.65 64.22 66.49 68.06 69.83 70.04 71.01 73.12 74.00 74.11 74.13 73.25 72.96 73.67 74.34 74.58 74.73 75.18 74.80 74.42 74.67 74.79 74.95 74.95
74.33 73.58 73.08 72.36 71.84 72.05 69.25 67.14 65.71 63.73 64.98 65.16 61.33 61.70 60.90 64.65 65.26 64.88 61.30 61.76 61.87 64.04 64.85 67.79 67.28 69.90 70.69 70.36 70.07 71.30 71.06 71.65 72.68 73.29 73.49 73.09 72.83 73.01 73.81 73.57 73.52 73.59 74.23
75.18 73.43 73.61 72.52 71.21 69.76 68.76 66.86 65.82 64.28 61.96 65.92 64.41 62.32 59.96 58.79 63.32 65.02 62.47 61.42 60.86 60.74 62.24 64.75 65.11 64.40 68.44 68.84 67.83 66.90 67.38 67.90 67.99 68.80 69.28 69.31 69.36 69.73 70.69 71.92 72.74 73.28 73.82
75.03 73.09 73.33 73.41 71.82 69.26 68.16 66.32 66.99 64.78 64.90 62.59 66.04 65.13 63.24 61.95 59.41 58.63 63.09 62.25 61.05 61.13 59.97 60.76 63.50 63.48 63.23 66.44 67.93 66.60 66.97 66.89 65.76 65.34 65.46 65.69 65.87 66.06 66.59 67.60 69.51 70.40 71.35
74.28 74.68 73.84 73.33 70.57 66.94 67.92 67.77 65.78 64.26 66.34 63.95 63.71 64.39 64.11 62.72 60.10 58.80 57.77 59.11 62.86 61.61 60.67 60.04 60.21 61.34 62.17 63.08 61.77 64.51 67.62 66.31 65.69 64.53 64.06 64.14 64.59 65.11 65.25 65.68 66.23 66.69 67.47
73.38 74.11 73.91 72.35 70.32 69.02 67.21 66.64 66.43 65.73 65.76 65.39 64.08 63.91 62.46 61.39 59.45 59.98 56.97 57.54 58.83 61.40 62.99 61.61 60.76 60.78 62.17 61.96 66.43 66.65 67.88 66.53 65.52 65.06 64.93 63.76 63.90 63.84 64.04 64.16 64.46 64.99 65.70
72.28 72.91 73.26 71.59 69.51 68.93 68.41 67.34 66.17 66.13 65.43 64.45 62.89 63.12 64.04 62.02 61.60 60.29 58.21 56.99 56.73 59.03 61.23 63.32 62.88 62.13 62.67 61.33 63.31 67.30 68.24 66.17 65.69 64.80 64.42 64.76 64.76 64.48 64.58 64.40 64.51 64.51 64.48
72.87 72.45 72.81 71.98 70.17 68.93 69.07 68.85 66.89 66.62 66.33 65.06 64.61 63.58 63.75 63.60 63.00 61.34 60.62 59.14 56.10 57.82 58.01 58.80 62.59 64.35 62.72 62.34 63.73 69.08 64.05 66.53 66.37 66.00 64.70 64.66 64.84 65.36 65.86 65.86 65.44 65.13 64.89
72.48 72.40 73.03 72.19 71.01 68.82 68.75 67.77 66.72 65.20 66.40 65.56 63.43 63.89 63.83 63.32 63.69 63.73 63.55 61.14 57.64 54.18 54.94 58.30 58.12 62.53 63.25 63.76 64.28 64.16 62.55 66.00 66.53 66.53 65.30 64.13 64.46 64.84 65.56 65.76 65.72 65.70 65.73
72.52 71.54 72.78 73.01 71.52 69.07 68.50 67.58 65.73 66.87 65.47 65.76 65.26 64.70 63.92 63.50 63.47 64.03 63.38 61.74 61.09 59.69 55.57 58.73 60.02 61.16 64.18 64.78 65.68 65.36 63.92 67.80 67.15 66.48 65.31 64.05 63.86 64.43 64.86 65.42 65.48 65.17 65.22
72.05 72.29 72.02 72.53 71.22 69.43 69.30 67.93 65.72 65.46 66.34 63.76 64.64 63.59 64.68 64.78 63.48 63.48 63.92 62.36 62.35 61.70 57.60 59.50 60.08 61.89 61.29 61.51 63.21 63.98 65.16 64.92 64.66 65.56 65.17 64.36 63.40 63.40 64.07 64.68 64.56 64.47 64.54
72.33 72.45 72.39 71.06 71.35 69.98 69.16 68.60 66.30 66.65 64.82 65.34 64.31 63.44 63.26 64.50 63.82 63.71 65.21 64.23 63.07 62.30 60.19 58.43 60.88 61.24 61.32 61.53 62.32 63.16 65.11 66.45 63.90 65.75 65.55 64.30 63.16 62.87 62.70 62.77 62.64 62.46 61.91
73.09 71.65 71.13 70.96 70.64 70.04 69.05 68.78 66.90 65.45 66.09 65.85 65.65 65.48 64.98 64.10 63.29 64.23 65.28 64.94 64.08 63.80 61.69 60.05 59.55 61.84 62.61 61.83 61.57 61.04 61.27 61.68 63.99 66.17 63.88 63.16 62.55 62.37 61.78 61.15 60.77 59.79 58.28
73.21 71.57 71.30 71.11 71.01 69.83 68.96 68.36 67.27 65.67 65.88 66.01 65.42 66.29 65.81 64.83 64.54 64.61 64.44 64.24 64.19 63.47 62.13 61.37 59.64 60.08 60.99 61.86 61.92 59.74 58.19 60.11 60.40 64.00 64.54 63.52 63.35 63.32 62.77 61.05 60.49 60.30 57.76
73.77 73.36 71.42 71.45 70.45 69.27 68.92 67.25 67.33 66.25 65.90 65.44 65.75 67.07 66.56 67.46 67.42 65.56 64.93 64.76 64.46 63.58 62.12 60.07 57.98 57.44 58.24 57.82 59.37 58.67 58.68 58.94 59.49 59.84 59.78 59.45 58.54 58.06 58.83 60.61 62.82 63.53 60.96
74.07 73.69 72.18 71.13 69.69 69.47 66.01 66.23 67.54 66.79 66.10 65.57 66.06 66.82 65.60 68.01 67.00 65.23 65.23 65.36 65.56 63.08 59.31 58.38 57.50 57.24 57.31 59.31 58.65 58.05 57.86 56.84 55.28 59.20 56.40 56.52 56.92 56.40 56.91 57.46 60.64 60.44 59.70
74.83 73.89 72.11 70.77 69.07 67.82 63.66 64.30 66.57 66.66 65.99 66.05 66.86 66.58 66.08 67.00 66.05 64.96 63.72 63.54 63.30 63.48 62.61 60.10 58.26 57.05 57.45 58.63 58.67 56.89 56.28 56.20 55.14 57.28 54.32 53.85 54.68 54.35 57.55 58.44 59.10 59.13 58.55
74.27 72.86 71.15 69.75 68.08 67.36 61.56 61.87 64.42 66.33 65.95 65.91 67.10 66.56 64.86 64.02 65.42 63.72 63.92 62.74 63.51 62.61 61.94 62.08 60.27 60.93 60.07 60.82 59.93 58.87 57.13 54.99 54.53 55.62 55.66 52.38 54.12 52.59 53.50 53.67 56.59 57.06 56.10
72.91 72.02 70.56 68.02 66.84 66.79 60.40 59.13 61.69 64.04 65.03 65.11 65.71 65.68 64.33 64.30 63.35 61.17 62.53 61.66 60.97 60.90 62.39 60.79 61.36 61.12 59.58 58.36 58.98 55.92 53.76 51.65 50.80 51.26 53.59 51.87 52.56 48.75 48.91 48.95 49.32 54.81 55.17
71.42 71.55 69.82 67.66 65.21 66.83 59.55 58.65 60.18 63.84 63.09 63.05 63.52 64.98 62.43 63.24 60.96 59.46 60.94 59.73 58.79 60.18 57.82 58.18 58.54 57.98 57.09 56.65 57.41 55.24 55.98 53.67 50.59 50.52 53.52 48.64 47.20 46.08 45.42 46.33 50.03 53.29 55.46

GFSMA_sfc_wetblb_012.txt.gz
Wetbulb
69.99 69.70 70.58 71.19 70.69 71.92 71.10 71.26 72.56 72.01 71.77 71.51 70.45 68.89 66.48 67.38 67.42 70.45 70.81 75.52 75.28 76.53 75.89 74.91 72.79 73.97 75.32 75.35 75.13 75.14 74.99 73.96 73.75 73.74 74.22 74.04 73.65 73.77 73.50 73.42 73.19 73.12 73.20
70.41 70.51 70.03 70.99 71.34 71.64 72.59 71.94 71.12 70.85 68.70 68.33 68.35 69.90 67.50 68.14 66.60 67.48 70.67 72.20 75.27 76.07 76.60 75.74 74.89 73.03 74.38 75.76 75.48 75.18 75.13 74.59 74.69 74.64 74.46 74.42 74.51 74.26 73.18 73.79 73.85 73.75 73.25
71.25 71.27 71.24 70.64 71.84 71.71 72.02 70.55 69.64 68.71 67.48 68.33 65.38 65.84 66.69 66.49 67.35 66.17 67.16 70.22 72.13 75.39 75.95 75.51 75.62 73.94 73.39 75.43 75.90 75.55 75.53 75.66 75.60 74.91 74.93 74.48 74.18 74.46 73.92 74.18 74.08 74.01 73.86
72.64 72.23 71.78 71.85 71.38 71.19 71.06 70.37 69.73 68.62 69.16 64.84 63.07 64.36 65.02 66.05 66.84 67.87 67.57 68.31 70.53 71.74 74.76 76.03 76.56 75.50 74.43 74.50 74.63 75.70 76.00 75.24 74.79 75.09 75.06 74.61 73.79 74.05 74.61 74.77 74.29 74.64 74.57
74.22 72.47 71.73 71.45 70.45 71.82 70.06 68.99 68.16 68.24 65.32 62.43 64.17 63.98 64.38 64.24 65.04 66.74 65.87 67.82 67.71 70.15 71.23 74.11 74.43 74.67 74.52 73.94 74.51 74.84 74.97 75.11 75.49 75.52 74.97 74.79 74.64 74.57 74.67 74.84 74.91 74.98 74.69
74.16 71.82 72.16 71.09 70.71 70.52 69.21 68.23 67.47 65.89 63.55 63.95 66.45 63.32 63.78 64.03 63.67 63.29 63.61 65.92 69.43 71.31 71.63 71.85 70.64 71.87 74.81 73.71 74.04 74.52 74.62 74.39 74.86 74.89 74.47 74.92 74.69 74.54 74.47 74.81 74.83 74.68 74.53
73.25 71.94 71.56 72.04 71.50 70.26 68.76 68.18 66.43 63.05 62.92 65.05 60.80 62.53 63.85 64.24 62.91 61.88 60.46 63.15 65.53 67.70 68.64 69.05 70.02 71.15 73.21 73.96 74.32 73.76 73.41 72.98 73.57 73.89 74.74 74.22 73.97 74.09 73.82 73.42 73.51 74.05 74.55
72.99 72.56 71.78 71.40 71.34 70.66 68.77 66.43 64.50 62.16 63.48 63.24 59.88 60.45 59.20 63.78 64.72 60.67 59.63 62.22 62.11 64.92 66.79 67.75 69.14 69.60 69.88 69.25 70.06 71.91 71.74 71.58 72.46 73.05 72.63 72.70 72.75 72.17 72.59 73.15 73.40 73.73 73.81
73.54 73.05 72.23 71.69 70.83 70.20 67.84 65.80 64.48 63.29 60.93 63.79 62.78 61.24 58.97 57.67 61.49 63.57 59.26 59.95 59.96 60.90 62.59 64.09 64.90 66.95 69.30 67.90 67.94 67.52 68.31 69.28 69.23 69.51 69.38 69.19 69.15 69.30 69.75 70.53 71.62 71.85 72.55
73.67 72.95 72.43 71.39 69.89 68.70 67.05 65.88 65.60 63.48 62.50 61.15 64.22 64.03 61.89 61.41 58.43 58.72 61.79 59.61 59.10 59.55 58.73 60.20 62.80 63.00 68.04 66.96 66.91 66.04 67.22 67.48 67.08 65.86 65.68 65.48 65.61 65.95 66.33 66.74 67.98 69.26 69.75
73.82 72.94 72.34 71.86 69.21 67.84 66.87 65.73 64.70 63.09 64.82 61.47 62.48 62.54 62.08 61.34 58.26 58.27 56.49 58.44 60.63 59.09 59.06 58.68 61.51 61.63 63.48 65.45 64.70 64.72 67.85 66.78 66.58 65.74 64.51 63.90 64.27 64.48 64.72 64.75 64.96 65.35 66.19
73.03 72.98 72.83 72.65 68.97 66.64 66.82 65.69 64.42 62.96 65.11 64.98 63.06 62.53 61.36 59.23 58.55 58.27 55.71 56.38 57.04 59.62 60.63 60.15 59.12 59.21 61.04 61.64 65.29 65.65 68.63 66.62 65.87 66.04 66.04 65.05 64.40 64.41 64.22 64.15 64.21 64.42 64.75
71.28 72.71 72.53 71.65 68.73 67.09 66.23 65.22 64.96 64.25 64.14 63.63 61.67 62.25 62.40 60.28 59.87 58.85 56.56 55.42 55.00 57.25 59.26 61.55 60.87 59.91 61.20 60.60 63.70 67.78 69.02 66.73 65.74 64.99 64.64 65.51 66.16 65.81 65.13 65.07 64.96 65.22 65.11
72.78 72.45 72.79 71.19 68.29 67.49 66.68 65.65 64.65 64.78 64.69 63.50 64.10 62.69 62.18 62.57 60.75 59.49 57.62 56.50 54.35 55.88 56.54 57.24 60.68 61.57 61.93 60.11 62.27 69.43 63.83 66.31 65.84 65.11 64.76 64.71 65.08 65.92 66.56 66.71 66.85 66.65 65.86
72.71 72.21 72.70 70.49 68.84 68.07 67.34 66.52 64.76 64.36 65.65 63.50 62.78 61.93 62.53 61.76 62.41 62.34 61.45 59.04 55.73 52.92 53.32 56.86 56.60 60.51 62.40 63.44 63.84 64.13 63.66 64.55 66.35 65.83 65.00 64.10 64.41 65.32 65.91 65.99 66.27 66.48 66.49
72.16 71.91 71.73 70.87 69.26 67.48 68.13 66.65 64.91 64.14 64.82 64.61 63.68 62.14 62.38 61.88 61.60 62.71 60.91 60.54 58.76 57.49 54.11 57.05 57.98 59.36 61.08 63.27 64.82 65.45 63.12 66.00 65.86 65.54 65.12 64.50 64.38 64.75 65.18 65.55 65.79 65.74 65.80
70.97 71.59 71.30 71.07 69.66 67.94 67.20 66.29 64.89 64.98 63.48 63.96 64.42 63.35 62.91 62.49 61.64 61.72 61.79 61.09 60.23 59.19 56.61 57.72 59.10 59.68 61.09 60.08 60.98 61.55 63.54 63.51 63.76 65.05 64.88 64.65 63.79 64.01 64.53 64.66 64.82 64.87 65.18
71.36 71.56 71.27 71.59 70.55 68.97 67.14 67.01 64.78 65.09 64.76 63.39 62.67 62.64 62.13 64.38 64.19 62.06 62.67 62.07 61.60 60.35 58.76 57.48 58.91 60.21 60.48 61.32 61.32 61.32 62.87 64.55 63.60 65.17 64.03 63.46 63.09 62.89 62.82 62.57 62.59 62.51 62.25
70.95 71.17 70.85 71.38 70.97 69.55 67.96 67.23 66.28 64.97 64.07 64.78 63.95 62.60 62.54 63.46 62.06 61.84 62.55 61.61 62.21 62.80 61.55 59.39 58.74 60.54 60.72 60.46 60.34 60.37 60.48 60.72 62.28 65.65 64.03 63.02 62.41 61.97 61.50 60.92 60.13 59.15 57.73
71.41 70.97 71.17 70.75 71.20 70.31 68.56 68.25 66.86 65.35 64.91 64.69 64.67 64.49 63.81 64.24 64.01 63.46 63.11 63.64 63.36 62.36 62.70 61.55 60.90 59.92 58.86 59.68 59.41 58.70 58.56 58.25 58.76 62.00 63.56 62.77 62.95 62.91 61.60 60.44 60.76 60.62 58.00
72.26 71.48 70.01 70.54 70.13 70.11 69.42 68.07 67.56 65.95 64.84 64.40 64.55 64.63 64.81 65.97 66.05 64.67 64.54 62.82 61.94 62.53 62.51 61.14 59.61 57.90 56.92 56.58 56.56 57.24 57.26 57.48 58.13 58.82 57.91 57.85 56.84 55.96 56.46 58.93 61.18 62.74 60.62
73.45 71.25 70.20 69.51 69.53 70.21 66.50 65.87 67.67 66.71 65.84 64.59 63.77 64.02 64.96 67.12 66.26 65.73 64.76 63.90 63.95 63.13 61.73 59.87 57.20 56.04 56.46 56.14 56.84 56.80 56.22 54.92 53.64 57.51 55.37 54.93 53.92 53.99 55.12 55.18 59.17 60.06 59.03
72.54 71.91 70.44 70.16 69.70 69.67 64.20 64.09 65.98 67.04 65.80 65.11 64.07 64.13 65.07 66.39 65.27 65.38 63.51 62.99 62.75 63.17 63.02 60.79 57.99 57.42 56.34 56.66 56.86 56.20 55.58 55.12 54.52 56.74 53.50 51.32 53.18 52.92 55.09 56.67 58.62 58.31 57.75
72.89 72.64 71.35 70.86 70.10 69.64 62.91 62.32 64.89 66.96 66.14 65.20 64.98 65.00 65.85 65.51 64.41 63.67 63.08 63.07 62.42 62.10 63.03 62.67 60.69 60.50 58.85 59.56 58.56 58.41 57.06 55.30 53.84 54.45 53.99 50.78 52.56 52.62 53.31 52.92 55.88 56.60 55.70
73.74 73.18 71.98 70.67 70.00 69.51 60.21 59.86 63.46 66.38 65.95 64.47 64.73 65.49 66.29 65.36 61.58 60.61 63.19 60.63 60.36 61.12 61.20 59.66 59.63 59.41 58.71 58.18 58.98 56.74 54.71 51.72 50.82 50.73 52.23 51.84 51.52 49.64 48.29 47.75 49.20 53.45 53.82
73.80 72.22 70.82 70.27 66.99 67.95 58.03 57.93 60.91 63.65 63.97 63.75 64.80 64.89 61.60 62.41 59.29 58.23 62.00 59.96 59.25 59.90 59.12 56.86 56.47 56.65 57.60 56.81 57.38 56.20 54.15 51.44 49.75 49.65 52.28 50.52 46.93 45.37 43.79 43.84 45.44 48.50 49.53

GFSMA_sfc_wetblb_015.txt.gz
Wetbulb
69.99 69.19 68.33 70.52 69.95 70.78 70.36 71.13 71.89 72.19 71.64 70.17 69.07 67.35 65.30 68.90 69.79 69.94 69.76 75.05 74.95 75.69 75.47 74.20 74.82 75.14 75.12 74.84 74.72 74.55 74.30 74.52 74.22 73.92 73.47 73.77 72.94 72.48 72.47 72.86 72.80 72.62 72.67
70.00 69.19 68.31 69.99 70.28 70.69 71.32 71.62 70.59 70.74 68.27 68.00 69.21 68.78 66.16 67.37 67.69 69.26 69.69 70.20 74.99 75.31 75.83 74.56 74.34 73.44 75.04 75.22 74.89 74.91 74.71 73.90 73.60 73.64 74.00 73.98 74.49 73.28 72.87 73.12 73.24 73.42 73.35
70.18 69.76 69.33 69.95 70.85 71.30 71.29 70.50 70.22 67.69 66.99 66.85 64.08 64.67 65.97 65.72 67.08 66.41 68.00 69.62 71.22 74.80 74.94 75.22 74.87 73.48 73.23 75.10 74.91 75.00 75.19 75.18 74.57 74.72 74.37 74.24 74.12 73.85 73.99 73.43 73.51 73.64 73.27
71.04 70.46 70.80 70.22 70.62 70.54 70.94 69.44 68.93 67.96 67.50 64.65 62.53 63.63 64.42 64.97 65.53 66.92 66.19 67.34 69.43 70.62 73.06 74.20 74.77 74.36 73.99 73.71 74.34 75.25 74.86 74.87 74.75 74.77 75.15 73.94 74.15 74.12 74.18 74.00 73.65 73.66 73.96
72.35 71.49 71.26 71.04 70.24 70.61 69.12 68.64 67.55 67.04 62.49 62.07 63.47 63.60 63.30 63.40 64.11 65.50 65.50 66.95 67.78 70.08 70.24 72.76 74.63 74.83 74.29 73.98 74.02 74.18 74.76 75.04 74.65 74.15 74.05 74.35 74.45 74.60 74.60 74.60 74.50 74.72 74.18
73.29 71.84 71.04 70.67 70.03 70.09 68.63 67.53 66.43 65.34 62.44 62.85 65.62 62.14 63.05 63.11 62.67 62.58 63.58 68.13 68.83 71.18 71.07 71.04 69.81 71.19 73.94 74.69 73.98 73.38 73.51 73.50 73.20 74.02 74.98 74.88 74.55 74.70 74.50 74.52 74.42 74.45 74.32
73.54 71.55 71.13 70.39 69.92 69.66 68.35 67.43 65.93 62.91 61.44 63.54 59.64 61.69 63.20 63.08 61.23 60.10 62.10 64.76 67.38 68.21 68.36 69.07 69.82 70.72 71.63 73.92 74.05 73.39 72.67 72.31 73.22 73.21 72.66 72.76 74.03 73.88 73.71 73.63 73.80 74.05 74.07
72.62 71.43 70.83 70.76 70.40 69.78 68.06 67.17 63.90 61.77 62.14 62.92 59.22 59.30 58.44 61.85 62.36 59.04 60.28 63.14 64.03 65.97 66.69 68.16 68.46 69.05 68.49 68.91 70.12 72.26 71.87 72.13 72.55 72.58 72.19 72.64 72.89 72.39 72.66 72.58 72.98 73.15 73.15
71.95 71.98 71.34 70.92 70.41 69.85 68.05 65.79 63.97 61.76 60.69 62.98 61.85 60.21 57.79 56.99 59.49 62.63 58.48 59.32 60.19 61.59 63.07 64.80 67.70 68.65 67.71 66.90 67.49 67.21 68.53 70.37 69.82 69.93 69.75 69.40 69.02 68.99 69.39 69.83 70.36 70.60 70.59
72.45 72.34 72.03 71.27 70.36 69.56 67.46 65.73 64.76 61.93 61.32 60.61 63.47 62.70 60.90 60.74 57.68 55.69 59.61 58.86 58.21 58.67 59.74 61.53 62.39 64.00 67.89 66.50 66.90 65.95 68.03 68.22 67.83 65.78 65.94 65.72 65.40 65.50 65.88 66.28 66.88 67.85 68.04
72.68 72.70 71.71 70.95 69.35 68.16 67.51 65.78 63.97 63.23 62.40 60.78 61.91 61.16 60.43 59.94 57.96 57.98 54.68 56.64 58.96 58.62 57.99 57.96 61.66 61.17 65.69 66.50 64.94 64.02 67.76 66.93 66.93 66.10 64.32 63.83 64.05 64.29 64.63 64.77 64.95 65.21 65.45
72.32 72.38 72.17 71.22 69.34 67.46 66.63 65.39 64.55 62.80 64.17 62.91 62.71 62.15 60.85 58.32 57.57 56.74 55.52 55.70 55.74 57.60 59.13 58.74 58.01 59.93 60.55 63.99 67.21 67.25 68.30 67.11 65.83 66.06 66.31 65.53 64.69 64.47 64.42 64.43 64.35 64.67 64.73
70.80 71.56 71.39 71.03 69.34 66.92 66.56 65.25 63.54 62.06 64.10 63.30 61.95 61.94 61.16 59.44 59.15 57.49 55.89 54.38 54.81 56.09 57.98 59.82 59.95 58.90 59.24 60.10 62.46 68.44 68.42 67.71 66.04 64.93 64.77 65.59 66.44 66.43 65.58 65.38 65.34 65.74 66.34
71.76 72.38 72.16 71.66 70.13 66.73 66.14 64.88 63.89 63.18 63.42 63.24 61.14 61.18 62.11 60.75 59.28 58.72 56.42 56.06 53.78 54.42 55.62 56.97 58.79 60.42 59.35 59.62 61.34 66.77 65.34 67.49 66.20 65.16 64.87 64.88 65.07 66.15 66.93 67.33 67.42 67.30 66.94
72.33 71.99 72.29 71.71 69.95 67.58 65.84 64.59 63.72 63.64 63.92 62.48 62.68 62.70 61.27 61.16 61.98 60.25 59.58 57.00 54.69 52.28 52.80 55.86 56.79 58.70 61.07 60.98 61.97 62.06 64.70 64.66 66.07 65.31 64.60 64.08 64.58 65.17 65.97 66.40 66.65 66.62 66.81
71.49 71.28 71.95 71.38 69.59 67.34 66.15 65.23 63.83 63.21 64.12 63.06 62.29 61.36 61.03 60.53 60.73 60.65 60.48 60.02 56.84 55.42 54.05 56.59 57.71 58.46 59.77 61.66 62.95 63.89 62.84 66.09 65.69 65.20 64.97 64.41 64.52 65.05 65.46 65.80 66.00 66.00 66.01
71.23 71.53 71.53 71.05 69.61 67.46 66.77 65.78 64.68 63.80 63.13 63.47 63.48 61.98 61.23 61.23 60.49 60.79 60.42 59.76 58.46 57.04 55.52 58.17 58.30 58.59 59.75 60.64 60.59 60.79 61.71 61.31 62.11 64.37 64.70 64.22 63.86 64.37 64.81 65.18 65.03 65.01 65.12
70.97 71.30 71.14 70.99 69.81 68.17 66.87 66.06 65.39 65.25 63.31 61.96 63.25 62.67 62.29 63.03 61.31 61.52 60.60 60.87 59.55 59.14 57.83 56.24 58.87 60.74 60.28 61.43 60.39 60.53 61.71 63.37 62.44 64.48 63.61 62.96 62.42 62.39 62.60 62.80 62.71 62.56 62.03
70.53 71.03 70.75 70.54 69.82 68.56 66.71 66.63 65.76 65.34 64.95 63.66 62.41 62.35 62.34 61.62 60.56 61.01 60.83 61.21 60.45 61.03 59.47 58.47 59.15 59.47 60.03 60.28 60.66 59.46 59.47 59.90 61.41 64.72 63.26 62.61 62.21 61.76 61.21 60.21 59.48 58.69 57.28
70.98 70.38 70.51 70.78 70.74 69.74 68.54 67.20 66.36 65.34 64.80 64.77 64.57 63.25 62.16 62.03 61.38 61.14 60.62 60.88 60.97 60.28 60.44 59.38 60.08 59.14 59.09 60.46 58.94 57.75 57.38 57.49 58.09 61.17 62.49 61.92 61.78 61.81 60.79 59.28 59.18 59.88 57.74
71.61 70.87 70.01 70.29 70.77 70.31 69.38 67.86 67.17 66.06 65.34 64.65 64.45 64.23 63.41 64.04 64.85 63.53 62.59 61.74 61.33 60.03 59.85 59.81 60.27 58.75 58.12 57.54 55.90 56.46 56.20 56.44 57.02 57.96 57.79 57.12 56.51 54.63 54.49 57.47 58.88 60.63 58.85
71.73 70.46 70.03 69.70 69.30 70.35 66.47 65.79 67.98 66.97 66.10 65.27 64.10 64.24 64.00 66.05 65.57 64.50 63.97 64.08 62.93 60.83 60.45 58.67 58.87 57.45 56.90 56.08 55.70 56.00 55.10 54.04 53.94 56.70 55.56 55.70 54.16 53.42 53.73 54.45 58.58 59.40 58.83
72.09 70.17 69.73 69.56 69.25 69.43 64.61 63.98 65.96 67.33 66.25 65.56 65.65 65.20 63.83 65.38 65.10 65.30 63.80 63.32 62.78 62.68 62.36 59.97 58.68 58.74 57.72 58.66 56.58 54.73 54.40 54.50 54.03 55.92 55.01 52.68 52.25 52.53 54.06 55.56 58.11 58.44 57.33
72.46 70.48 69.84 69.31 69.45 69.52 61.85 62.15 64.97 67.31 66.72 66.79 66.10 65.21 63.26 63.11 64.00 64.79 63.78 62.66 61.25 61.65 62.28 61.76 60.25 61.25 60.45 59.14 57.68 57.42 56.12 54.86 53.84 54.30 53.85 50.71 51.67 51.90 53.25 53.52 56.36 57.19 56.24
72.13 71.81 70.99 70.26 69.99 69.66 60.46 60.44 62.86 67.10 66.74 66.41 66.41 63.93 63.93 63.70 62.44 60.80 62.65 61.09 60.61 61.37 61.24 59.80 59.18 58.54 57.93 57.69 58.61 58.39 56.82 54.33 50.95 50.92 51.58 50.91 50.88 50.10 48.77 48.69 49.64 53.70 53.59
73.09 72.68 72.01 71.41 68.54 69.89 58.57 58.57 62.75 67.33 66.45 64.66 62.39 63.48 62.40 64.47 58.51 58.15 63.04 60.81 59.09 60.24 60.04 58.03 56.93 54.65 54.83 54.74 57.04 55.94 54.70 52.18 48.96 48.83 51.42 50.26 47.68 45.41 42.92 44.32 43.59 45.57 45.74

GFSMA_sfc_wetblb_018.txt.gz
Wetbulb
71.69 70.70 70.31 71.67 71.68 72.29 72.38 72.49 72.71 73.39 72.20 71.38 70.73 68.72 68.69 71.58 72.17 72.14 72.03 73.72 74.68 74.71 74.05 74.03 74.12 74.91 74.88 74.77 74.37 74.44 74.28 73.77 73.98 73.77 73.70 73.51 72.57 72.66 72.14 72.28 72.55 72.69 71.97
71.68 71.47 70.42 70.99 71.74 71.96 72.71 72.92 72.45 71.56 70.16 69.46 70.64 70.25 68.60 69.33 71.30 71.46 71.70 71.98 73.87 74.46 74.66 73.97 74.03 74.25 74.54 74.51 74.65 74.48 74.46 74.03 74.28 74.13 73.45 74.14 73.54 72.93 72.46 72.90 73.13 72.92 73.07
71.85 71.39 70.43 70.74 72.22 72.79 73.13 72.73 71.46 70.69 68.77 67.90 67.03 67.85 68.43 68.24 68.70 70.07 70.52 71.51 72.18 73.82 74.26 74.00 73.78 73.70 73.34 74.34 74.40 74.75 75.06 75.21 74.09 73.70 74.69 74.07 74.08 73.88 73.65 73.24 72.96 73.42 73.46
72.54 71.47 71.26 71.61 72.68 72.45 72.93 71.63 71.22 70.26 68.21 66.49 64.95 66.63 67.45 67.98 67.69 68.88 68.97 69.15 70.62 72.26 73.71 74.64 75.14 73.42 73.49 73.26 74.03 74.34 74.32 74.70 74.58 74.73 74.91 74.58 74.51 74.11 73.99 73.94 73.83 73.96 73.39
73.36 71.96 72.19 72.55 72.73 72.00 71.59 71.14 70.02 69.36 65.90 65.87 66.57 65.98 66.04 66.35 67.53 67.54 68.25 70.01 70.45 72.08 72.39 73.68 74.11 73.96 73.30 73.72 73.80 73.75 74.38 74.67 74.73 74.73 74.31 74.51 74.49 74.56 74.49 74.74 74.71 74.69 74.51
73.47 72.30 72.12 72.51 71.76 71.55 70.45 69.72 69.32 67.27 65.84 65.81 65.24 65.44 65.60 65.92 65.82 65.83 68.98 70.47 71.97 72.13 72.37 72.80 72.97 72.94 74.01 73.02 72.90 72.28 72.72 73.32 73.43 73.55 74.44 74.81 74.44 74.36 74.21 74.26 74.31 74.06 73.96
73.61 72.82 72.54 72.43 71.23 71.25 70.83 69.94 68.24 66.67 64.86 65.95 64.12 65.21 66.26 65.82 63.57 63.26 66.65 69.38 70.33 70.05 70.91 71.59 72.23 73.00 73.35 73.45 72.83 72.98 72.70 72.27 72.23 72.68 73.24 73.41 73.17 73.12 73.47 72.55 72.70 73.24 73.66
73.70 73.23 72.49 72.13 71.62 71.34 70.15 69.35 67.78 64.87 64.66 65.11 62.97 62.51 62.93 65.41 65.35 62.70 64.74 66.42 67.70 68.59 68.95 70.48 71.31 71.21 71.19 71.58 72.62 72.66 72.22 72.29 72.82 72.52 72.42 72.45 72.45 72.53 71.73 72.10 72.32 72.69 72.89
73.49 73.43 72.49 72.36 71.96 71.66 70.42 69.29 67.12 65.43 64.04 65.45 64.58 63.51 61.10 61.63 62.25 64.59 62.91 62.89 64.23 66.01 66.61 68.38 70.25 70.93 69.97 69.94 68.92 68.14 68.36 70.14 70.14 70.18 70.07 69.67 69.22 68.97 69.22 69.40 69.57 69.91 69.59
72.81 73.15 72.81 72.31 72.09 71.60 70.67 69.36 67.14 65.52 65.18 64.85 65.68 64.70 64.29 63.96 61.88 61.38 62.76 62.82 62.77 62.70 64.86 65.96 66.37 67.72 70.60 69.43 68.25 66.68 67.71 67.77 67.54 65.75 65.72 65.49 65.36 65.57 65.84 66.27 66.97 67.82 68.07
72.93 72.88 72.99 72.54 72.04 71.29 70.99 69.02 66.72 65.52 64.95 64.73 65.08 63.75 63.24 62.27 62.34 60.83 58.52 60.37 62.42 62.86 62.60 62.90 64.30 65.54 68.38 69.37 68.45 66.61 67.88 67.25 67.37 66.55 64.42 63.86 63.87 64.19 64.57 64.79 64.96 65.25 65.54
72.53 73.09 72.97 72.52 72.06 70.87 70.36 68.85 67.57 66.50 65.91 64.92 65.33 65.07 63.92 62.80 60.93 61.13 60.32 59.96 60.35 62.23 63.15 63.26 62.85 64.44 65.44 66.97 68.43 68.57 68.06 67.68 66.32 66.14 66.50 65.88 64.94 64.68 64.66 64.54 64.35 64.60 64.95
71.83 72.53 72.80 72.00 71.21 70.39 69.71 68.86 67.17 66.17 66.66 65.64 65.62 65.27 64.57 63.62 62.77 61.54 60.93 59.21 59.83 60.88 62.49 63.62 64.41 63.93 63.71 64.69 66.17 68.72 69.44 68.08 66.87 65.39 65.30 65.65 66.40 66.52 66.16 66.26 66.08 66.23 66.58
72.05 73.19 72.82 72.63 71.93 70.17 69.46 68.16 66.68 65.48 66.21 66.52 65.48 64.99 64.80 63.44 62.70 62.38 61.26 60.44 58.67 59.21 60.36 63.52 63.01 64.43 64.72 63.81 64.50 65.72 67.96 67.04 67.23 65.65 64.86 65.05 65.30 65.91 66.89 67.62 67.89 67.67 67.27
72.27 72.78 72.99 72.44 72.05 70.10 69.28 67.88 66.45 65.74 65.79 65.95 65.66 64.64 64.88 64.49 63.98 62.72 62.06 61.51 61.08 57.62 58.53 61.57 61.94 63.65 65.10 64.57 64.88 66.01 66.68 66.53 66.31 66.19 64.73 64.09 64.66 65.39 66.07 66.64 67.03 67.02 67.16
72.71 72.67 72.87 72.70 71.99 70.43 68.86 67.70 66.56 66.30 66.22 65.15 65.00 65.24 64.56 64.05 64.31 64.31 64.10 63.24 60.83 61.06 59.57 60.91 62.30 63.72 64.55 65.36 65.64 67.33 66.44 65.80 65.94 65.33 64.64 64.31 64.56 65.06 65.63 65.91 66.13 66.33 66.48
72.02 72.44 72.62 72.45 71.59 70.11 68.85 67.51 66.79 66.23 65.90 66.02 65.35 64.45 64.62 64.84 63.42 63.39 63.83 63.36 62.26 61.11 60.24 62.30 62.30 63.98 64.43 65.62 66.01 65.86 65.70 65.99 65.99 64.05 64.38 64.16 63.84 64.13 64.84 65.18 65.22 65.15 65.24
72.03 72.30 72.33 72.38 71.71 70.35 69.11 68.09 67.02 66.70 65.78 65.15 65.40 64.91 64.49 64.00 64.47 64.05 63.70 64.16 63.25 63.25 63.39 62.51 62.88 63.73 63.98 65.06 65.78 65.80 65.33 65.69 65.96 64.81 63.50 62.97 62.61 62.34 62.35 62.52 62.24 62.16 61.47
71.59 72.01 72.15 71.92 71.45 70.67 69.27 68.87 68.15 67.30 66.46 66.01 65.61 65.66 65.48 65.00 64.71 64.38 64.44 63.76 64.27 63.94 63.40 63.03 62.75 63.72 63.76 64.03 64.56 64.70 64.18 64.59 64.20 64.87 62.98 62.47 61.95 61.59 60.78 59.78 58.93 58.13 56.93
71.58 71.75 71.82 71.89 71.70 71.10 70.04 69.30 68.44 67.64 67.32 66.84 65.77 65.48 65.17 64.89 64.64 64.09 64.23 64.59 64.68 64.55 63.98 63.45 63.28 63.91 63.79 63.28 63.21 62.26 61.93 62.57 62.64 63.73 64.10 62.72 62.57 62.18 60.43 58.79 58.89 59.63 57.64
72.14 71.60 71.70 71.66 71.87 71.16 70.38 69.21 68.77 67.77 67.17 66.79 66.13 65.79 65.42 65.24 65.08 64.46 64.25 64.50 64.68 63.91 63.66 63.56 63.17 62.86 61.81 61.72 61.51 61.83 60.83 61.32 61.80 62.51 63.29 63.22 62.91 62.30 62.01 59.64 60.29 60.58 58.47
72.31 71.56 71.16 71.30 71.09 71.31 67.02 65.75 68.35 68.44 67.86 67.17 66.18 65.84 66.78 66.38 65.75 63.50 63.35 63.85 64.93 64.52 64.00 63.71 63.23 62.39 63.06 61.46 61.45 60.65 59.95 59.11 59.42 62.33 61.64 61.86 61.19 61.58 61.94 60.57 59.46 59.13 58.79
72.08 71.32 71.24 71.17 71.13 71.57 64.28 64.48 66.15 69.45 68.52 67.72 67.27 66.49 66.02 66.73 65.80 66.61 63.75 63.20 63.04 62.56 63.84 65.37 63.84 62.71 62.10 62.02 61.77 59.80 58.91 60.33 60.20 61.84 60.82 59.70 60.92 59.85 61.40 60.44 58.39 58.44 57.89
71.60 71.47 71.15 71.02 70.87 70.78 63.01 62.43 64.95 70.24 68.84 67.67 67.33 67.35 67.14 66.87 66.44 66.51 66.86 65.84 65.51 65.17 65.15 65.44 65.35 65.07 64.37 63.98 63.45 62.69 61.63 60.66 59.38 60.34 59.99 57.04 59.40 57.95 59.53 59.70 57.27 57.28 56.48
71.73 71.63 71.75 70.80 70.64 70.70 61.55 60.27 63.79 69.36 68.15 67.27 67.70 67.60 67.18 66.96 62.30 61.23 66.31 65.64 64.84 64.42 60.75 59.93 60.53 59.31 58.22 58.22 61.33 60.83 58.84 57.36 57.14 57.78 57.56 57.36 57.88 56.45 56.59 55.69 56.45 54.11 52.98
72.45 72.58 71.60 71.20 68.67 71.11 59.15 58.38 63.72 68.58 67.00 66.48 67.40 67.36 62.06 64.86 58.33 58.15 66.44 65.55 62.57 62.18 63.69 62.17 60.39 57.97 57.53 57.22 57.89 61.25 59.57 57.03 56.42 54.96 57.33 55.44 55.24 53.65 49.92 52.93 52.63 54.19 54.42

GFSMA_sfc_wetblb_024.txt.gz
Wetbulb
78.50 78.74 78.09 78.00 77.87 77.66 76.98 76.73 76.28 75.08 75.65 75.85 75.70 72.87 71.18 71.74 72.07 72.93 73.66 73.91 73.52 72.79 72.89 73.94 74.55 74.91 74.55 74.61 74.38 74.03 72.56 72.56 73.84 73.31 73.47 73.41 73.22 73.02 72.60 71.88 71.98 72.50 71.88
78.50 78.30 77.94 77.78 78.22 78.17 77.04 77.17 76.38 76.63 73.93 74.98 73.83 73.24 72.07 71.84 72.04 73.20 72.77 73.89 73.66 73.00 72.72 74.26 73.88 75.22 74.81 74.50 74.73 74.47 74.40 73.84 73.85 73.83 73.68 74.25 73.68 72.69 72.35 72.20 72.90 72.82 72.97
78.31 78.97 78.16 77.08 77.66 78.77 76.86 77.46 76.63 76.37 74.12 72.68 72.51 72.71 72.85 71.72 71.16 72.12 74.16 73.53 73.83 73.77 72.97 73.69 73.98 74.33 74.22 74.60 74.91 74.64 74.32 74.32 74.56 74.49 74.40 74.14 74.10 73.78 73.96 73.32 72.72 72.92 73.47
78.83 78.59 78.50 76.46 78.27 78.34 77.39 76.63 76.09 74.17 75.48 74.32 72.33 72.55 72.01 71.25 72.11 71.99 71.79 73.48 74.40 73.61 73.53 73.39 73.60 74.01 74.00 73.47 74.32 74.32 74.72 74.39 74.63 74.62 74.51 74.49 74.27 74.29 74.37 74.17 74.12 74.00 73.90
78.36 78.31 78.40 76.81 78.10 77.37 77.46 76.26 76.55 75.07 73.46 73.00 72.15 72.18 72.44 71.17 71.33 71.65 72.44 73.38 72.84 73.93 73.82 73.41 73.03 72.96 73.36 73.19 73.46 73.94 74.27 74.35 74.58 74.12 74.40 74.95 74.70 74.63 75.00 74.78 74.58 74.51 74.44
78.22 78.56 77.82 77.40 76.80 77.91 77.13 76.59 76.50 75.37 73.34 70.43 69.61 70.36 71.21 71.41 71.50 71.79 71.69 71.56 72.89 73.32 73.85 74.90 74.62 73.02 72.95 72.89 73.00 72.64 73.06 73.47 74.14 74.32 74.47 74.60 74.53 74.76 75.04 74.64 74.49 74.51 74.24
79.21 79.29 78.01 77.30 76.68 76.57 77.08 75.95 75.44 74.12 72.27 72.17 69.82 69.58 70.37 71.21 70.81 71.54 71.60 70.17 70.32 71.93 73.06 73.45 73.82 74.52 73.96 73.64 73.36 73.09 73.01 72.80 72.50 72.57 72.72 72.68 73.21 74.09 73.67 73.32 73.17 73.47 73.22
79.64 79.19 80.07 77.94 77.20 77.55 76.79 76.14 75.95 73.66 73.19 71.02 70.01 70.06 66.20 67.80 69.37 71.02 71.83 70.74 69.89 69.51 70.15 72.08 73.36 74.12 74.72 73.67 72.47 71.53 72.51 73.08 73.20 73.13 72.66 72.27 72.57 72.56 72.12 71.64 71.39 71.95 71.88
79.21 79.59 79.13 78.75 78.68 77.26 78.24 76.92 76.09 74.71 71.89 71.08 71.72 69.42 65.87 65.62 67.51 69.50 70.29 70.73 71.22 69.93 70.46 71.12 71.12 72.33 72.95 70.42 70.24 68.42 69.10 70.29 69.35 69.73 69.66 69.10 69.27 69.31 69.31 68.87 68.71 68.97 69.27
78.64 78.96 79.36 79.02 79.20 77.28 77.79 78.02 76.41 75.60 74.82 70.24 70.39 70.70 71.92 71.14 66.62 65.08 69.02 69.63 69.94 69.68 70.75 70.54 70.33 71.01 71.53 70.39 68.58 67.46 66.95 67.67 66.67 65.97 65.67 65.59 65.79 66.00 66.18 66.58 66.69 66.74 66.92
78.94 78.49 79.07 78.96 78.74 78.60 78.13 77.97 76.89 76.45 74.80 72.32 68.85 70.02 70.55 69.85 70.41 67.08 65.14 67.07 69.03 69.44 69.88 70.10 70.93 70.61 71.36 71.65 70.70 68.27 66.70 65.37 65.29 65.17 64.61 64.30 64.44 64.74 64.65 64.64 64.61 64.88 65.03
77.34 78.55 78.74 78.45 78.57 78.60 78.37 78.15 77.94 76.82 76.00 74.19 70.69 71.09 69.24 68.02 67.66 67.44 66.15 67.90 67.19 68.54 69.74 69.92 70.20 69.92 70.62 70.87 70.78 69.88 68.79 68.42 67.05 65.86 65.38 65.30 65.18 65.13 65.71 65.72 65.48 65.72 65.91
75.72 78.70 78.68 78.74 78.27 79.24 78.74 78.87 78.22 77.01 76.46 74.34 73.75 69.78 70.52 70.43 70.34 68.97 67.32 67.87 66.19 68.46 68.54 69.85 70.03 70.13 70.01 70.67 71.45 70.73 71.16 69.89 68.67 67.84 66.90 66.86 66.69 66.74 66.87 66.93 67.38 67.65 67.68
76.54 77.96 78.06 78.53 78.60 78.85 78.87 78.86 77.63 76.81 76.62 75.29 74.13 72.73 69.92 70.97 71.13 69.96 68.11 67.12 65.40 66.08 67.44 68.85 69.95 69.92 70.06 70.65 71.62 70.67 70.17 69.31 69.06 67.98 67.60 67.32 66.68 66.89 67.89 68.35 68.57 68.68 68.67
77.31 77.73 78.10 78.35 78.40 78.54 78.80 78.91 77.19 77.03 76.49 75.76 74.61 73.45 71.37 70.28 71.30 70.65 69.98 68.82 66.43 63.94 64.27 68.21 66.72 70.51 70.41 70.24 71.63 71.28 70.91 69.67 68.63 67.72 66.70 66.08 66.46 66.78 67.02 67.43 67.80 67.92 68.34
79.15 78.21 77.99 78.07 78.19 78.44 78.66 78.70 77.66 77.67 76.65 75.25 74.11 73.43 72.87 70.56 71.29 70.90 69.87 69.16 68.20 66.43 64.40 67.59 67.72 69.84 70.25 70.16 70.37 70.93 71.14 69.80 67.78 66.59 66.44 65.78 65.69 65.79 66.09 66.40 66.89 66.94 67.16
79.97 78.99 78.84 77.93 77.61 77.93 78.39 78.36 78.38 77.55 76.59 76.01 74.82 73.67 73.00 73.33 70.03 70.16 70.30 69.61 68.55 68.01 65.51 67.07 68.78 70.91 71.61 71.55 70.85 71.01 71.74 71.36 70.52 66.80 66.04 65.20 64.71 65.11 65.50 65.83 65.90 65.70 65.41
80.08 79.74 79.02 78.41 77.84 77.56 78.65 78.05 77.46 76.71 76.53 75.73 74.96 74.02 73.22 71.80 72.10 73.01 70.40 72.08 70.94 71.07 67.49 68.00 70.02 68.74 70.83 72.07 72.37 72.05 71.11 70.35 70.31 67.46 66.51 64.74 64.38 64.34 64.62 64.67 64.25 63.72 62.95
79.98 78.40 79.31 79.55 78.68 77.90 78.29 78.26 78.13 77.57 76.80 76.45 75.93 74.93 73.90 72.52 71.60 70.94 70.88 70.11 69.74 69.44 69.84 67.49 67.39 69.52 69.57 70.56 70.94 71.82 71.53 71.77 70.43 68.01 64.50 64.41 64.29 64.16 63.35 62.62 62.01 60.75 58.28
80.01 79.74 79.94 80.18 79.32 78.64 78.22 77.73 77.75 77.66 77.50 76.94 76.84 75.96 74.97 73.16 72.15 71.49 70.60 70.89 70.75 69.10 70.12 67.90 67.24 67.19 68.57 70.72 69.48 67.47 68.27 70.36 68.93 69.18 68.44 65.37 66.69 65.00 63.87 62.47 61.25 60.52 58.47
79.78 80.12 79.95 80.00 79.92 78.29 77.07 78.72 78.42 77.44 77.87 77.52 77.37 76.74 75.94 73.50 69.48 70.11 70.59 72.04 72.91 69.39 67.54 67.52 66.95 67.07 66.95 67.39 67.64 67.82 66.91 67.40 69.07 69.23 68.05 67.82 67.80 68.00 67.14 62.52 64.68 62.96 61.30
79.76 79.76 79.39 79.66 79.37 77.92 70.60 68.67 75.59 78.31 78.48 78.25 77.16 76.95 76.49 71.27 69.89 66.00 65.88 66.69 71.06 71.32 70.78 67.46 67.12 67.54 69.31 68.77 68.73 67.51 66.70 65.60 63.85 69.13 67.84 67.05 67.91 66.75 67.66 67.74 62.23 60.76 59.74
79.57 79.38 79.34 79.48 79.51 79.68 66.63 66.11 68.69 77.65 78.25 78.00 78.19 77.35 75.81 74.96 71.28 72.72 66.00 64.77 65.18 65.07 66.80 71.24 69.62 69.61 69.67 70.38 71.05 70.19 67.97 67.06 65.74 67.54 68.89 65.29 67.14 65.49 66.53 66.42 61.63 59.88 59.22
78.85 78.74 79.00 79.36 79.40 79.26 66.15 63.76 66.74 76.88 78.33 78.45 77.71 77.23 77.07 76.40 74.35 73.09 72.89 69.49 69.75 70.15 69.78 69.48 70.48 71.53 72.59 71.99 71.56 70.29 69.45 68.46 68.48 68.13 68.80 62.89 65.13 63.01 64.48 64.51 59.90 58.55 57.61
78.69 78.58 78.95 79.21 79.19 79.17 64.54 61.91 66.21 75.95 76.10 78.27 77.84 77.65 77.40 76.76 69.73 64.01 72.86 72.10 71.23 70.60 65.12 63.06 64.20 62.57 63.22 63.52 65.60 68.53 66.33 64.83 63.87 64.18 66.89 63.70 62.22 61.42 62.16 61.60 61.74 57.30 54.38
78.36 77.51 78.25 79.09 75.16 79.03 65.71 60.24 65.91 74.90 75.24 75.15 77.74 78.58 66.21 74.02 62.80 60.80 71.83 72.85 71.31 70.83 70.19 70.55 69.60 65.05 63.19 64.47 60.66 68.17 67.11 64.36 63.07 60.72 64.74 61.68 59.60 59.41 57.15 59.57 59.20 58.57 58.30

GFSMA_sfc_wetblb_027.txt.gz
Wetbulb
77.32 76.97 77.18 76.80 77.30 76.17 74.26 75.22 76.15 75.42 75.24 74.06 73.32 72.12 71.44 71.05 72.04 72.93 73.40 75.38 74.52 73.72 74.33 74.37 75.22 74.44 74.45 74.50 74.54 73.41 71.95 73.29 73.73 72.95 73.29 73.37 73.15 73.03 72.31 71.72 71.64 72.42 72.17
77.56 76.83 76.69 75.83 75.89 76.17 75.37 75.93 76.07 75.39 74.26 74.08 72.94 71.85 71.72 71.81 71.21 72.79 72.93 73.89 75.35 74.32 73.64 74.64 74.91 75.55 75.01 74.83 75.01 74.46 73.97 72.20 73.25 73.99 73.54 74.03 73.38 72.49 72.38 71.70 72.04 72.59 72.56
78.46 78.65 76.88 76.52 75.91 78.17 77.57 76.80 76.46 72.28 73.65 72.13 71.46 72.34 72.63 71.40 71.36 71.58 72.73 72.54 73.79 74.81 74.37 75.03 74.47 75.35 75.14 74.91 75.18 74.87 74.75 74.53 74.70 74.44 74.08 73.88 74.02 73.91 73.59 73.43 72.83 72.69 72.70
78.65 78.76 77.82 77.17 75.87 77.53 76.48 75.17 76.86 72.92 73.38 71.91 70.78 71.10 70.81 71.13 71.37 71.13 71.49 73.31 72.44 72.81 74.34 74.69 74.33 74.76 74.30 74.62 74.76 74.96 74.95 74.70 74.59 74.59 74.55 74.52 74.52 73.96 74.23 74.16 74.16 73.99 73.94
78.68 78.49 76.85 77.73 78.01 76.12 76.24 75.46 74.65 74.44 71.61 70.74 70.54 70.72 71.49 70.26 73.29 71.16 70.97 72.54 72.47 72.28 72.45 74.59 74.76 74.18 74.23 73.28 73.71 73.87 74.39 74.53 74.72 74.62 74.54 74.35 74.37 74.38 74.51 74.61 74.38 74.56 74.43
78.55 78.61 77.51 77.52 77.46 74.11 76.29 76.17 75.96 73.85 72.15 69.56 68.95 70.08 70.48 70.32 71.85 71.24 71.08 71.46 71.84 72.61 73.31 74.07 73.48 73.46 73.87 73.45 72.74 72.80 72.97 73.64 74.21 74.41 74.46 74.58 74.45 74.23 74.01 73.62 73.99 74.09 74.34
78.71 79.33 77.40 77.61 77.27 77.58 76.61 75.76 74.95 74.02 70.60 72.09 69.52 69.38 69.83 70.57 71.02 70.80 70.58 69.75 69.91 71.40 71.94 73.30 73.92 73.61 72.96 74.14 73.39 73.04 72.66 72.64 72.61 72.57 72.03 72.19 72.89 73.20 73.54 73.69 73.10 73.42 73.94
79.10 79.45 78.92 77.64 77.91 76.27 76.69 76.29 75.86 73.56 70.78 70.81 70.14 69.03 66.35 67.69 68.83 69.67 69.95 69.50 69.77 69.63 69.68 71.78 73.25 74.31 73.32 73.77 73.11 72.55 73.18 73.58 73.86 73.47 73.07 72.59 72.82 72.91 72.47 71.98 71.54 71.81 71.93
78.72 79.80 78.47 78.07 78.36 78.40 77.74 77.02 75.97 75.28 71.25 69.95 73.05 69.63 66.03 65.79 66.87 69.81 70.03 70.15 70.69 69.28 70.25 70.92 71.31 72.04 72.60 70.36 69.91 69.07 70.11 70.90 69.85 69.94 69.50 69.04 69.32 69.57 69.51 69.00 68.99 69.21 69.54
78.46 79.09 79.19 78.13 80.03 77.27 77.93 77.65 76.10 76.56 75.24 70.69 69.53 70.73 72.63 71.72 67.70 66.81 69.88 69.56 70.42 69.80 70.38 70.27 70.33 70.82 71.10 70.36 68.70 69.42 68.76 68.93 67.90 66.62 66.44 66.48 66.50 66.87 66.89 66.91 66.68 67.05 66.81
79.13 78.34 79.93 79.83 79.38 77.46 79.78 77.83 77.71 77.25 75.17 73.58 69.61 69.38 71.18 68.85 70.36 68.63 65.15 68.58 69.57 69.59 70.30 69.99 70.45 70.60 71.54 71.21 70.44 67.75 68.84 67.78 67.37 66.10 65.42 65.33 65.68 65.51 65.18 64.90 64.77 64.70 65.00
77.82 79.82 79.16 80.44 79.87 79.71 78.87 78.15 78.64 77.84 76.67 75.82 72.31 71.94 70.00 68.54 68.11 67.96 66.75 68.56 67.71 70.05 69.44 69.99 70.24 69.82 70.82 70.99 70.89 69.76 69.81 68.74 67.85 66.65 65.62 65.30 65.17 65.56 66.03 66.16 65.83 66.00 66.51
75.17 78.75 80.13 80.48 78.48 80.35 79.36 80.41 80.09 78.72 77.16 75.78 75.89 70.72 71.03 70.61 70.76 69.52 67.88 67.64 66.89 68.46 68.62 69.54 70.22 70.33 69.91 70.85 71.28 71.17 70.85 69.62 68.74 67.59 67.25 67.42 67.10 67.20 67.40 67.59 67.86 68.13 68.23
75.95 80.17 80.28 80.16 79.90 79.80 79.23 80.64 78.20 77.27 78.69 76.08 75.63 75.11 71.04 71.23 71.54 70.74 68.86 67.68 66.00 66.68 68.07 69.61 70.13 70.00 70.71 70.60 71.82 71.71 70.32 69.60 69.34 68.57 68.09 68.01 67.33 67.56 68.28 68.82 68.83 68.92 68.78
76.91 80.15 80.39 79.87 79.99 80.06 80.47 80.52 77.31 78.62 78.71 77.63 76.62 75.94 72.52 70.85 71.63 71.41 70.59 69.48 67.33 64.79 66.34 68.98 67.33 73.12 70.55 70.75 71.69 71.24 71.15 69.34 69.67 68.38 67.19 66.68 67.01 67.45 67.80 68.11 68.06 68.01 68.26
80.63 80.59 79.54 79.64 79.58 80.07 80.38 80.57 78.62 79.35 79.22 77.14 75.41 77.08 75.61 71.23 72.17 71.42 70.46 69.76 68.96 66.92 64.57 68.75 69.02 71.52 71.82 70.17 70.56 70.70 70.77 69.60 69.25 67.92 66.91 66.31 66.34 66.52 66.67 66.95 67.11 67.17 67.50
81.65 80.15 80.91 79.94 79.81 79.69 80.26 80.26 79.66 79.34 78.66 78.57 77.92 77.59 76.06 76.51 70.79 70.61 70.61 69.89 69.14 68.33 65.78 67.57 69.57 73.23 74.28 72.27 71.33 71.73 71.43 72.63 70.34 66.28 66.68 66.23 65.51 65.67 65.79 66.16 66.50 66.39 66.21
81.13 81.70 80.98 80.62 80.32 79.66 80.08 79.83 79.05 77.56 78.77 77.65 76.97 77.06 75.47 73.24 75.22 75.60 71.01 74.88 71.54 73.28 67.93 71.95 72.37 70.26 72.44 74.06 74.27 74.63 71.46 70.33 71.54 67.02 67.56 66.14 65.13 64.72 64.92 65.50 65.50 64.95 64.06
81.06 80.76 80.92 80.94 80.43 79.75 79.78 80.09 79.80 79.21 79.08 78.66 78.07 77.43 76.19 75.70 75.15 71.46 72.18 71.80 70.25 71.03 71.21 68.31 68.00 69.63 70.21 71.19 72.50 73.47 73.92 73.00 71.25 67.82 65.79 64.90 64.33 64.48 64.24 63.51 62.73 61.92 59.56
80.84 80.82 80.82 80.87 80.58 80.41 79.65 79.68 79.58 79.46 79.23 78.84 78.67 78.51 77.69 76.42 75.27 74.91 73.93 73.48 73.52 71.08 70.62 68.82 67.72 67.54 68.84 72.36 70.71 68.89 69.44 70.45 69.57 69.71 68.94 67.04 66.11 64.81 64.17 62.61 62.44 61.68 59.11
80.82 80.97 80.72 80.68 81.14 80.60 79.23 79.38 79.21 79.21 79.39 78.95 78.88 79.12 78.72 76.58 71.93 73.03 72.28 73.07 72.62 71.02 67.56 67.60 67.41 67.40 67.07 68.62 69.04 69.04 67.40 69.59 69.11 70.11 70.28 69.89 68.71 66.62 66.27 63.65 65.64 64.04 61.96
80.73 80.85 80.48 80.13 80.15 79.94 72.12 69.21 76.26 78.81 79.26 79.28 78.71 79.32 79.34 73.28 71.07 67.62 67.09 67.94 71.63 72.82 70.80 67.77 67.14 67.52 72.48 71.05 69.64 68.34 68.50 66.78 66.08 69.91 69.33 67.99 69.81 69.25 68.72 68.31 64.19 64.98 62.72
80.94 80.54 80.21 80.36 79.95 80.49 68.41 66.45 68.71 78.70 79.08 79.06 79.39 79.13 78.33 76.82 73.64 74.59 67.05 65.85 65.28 66.33 68.33 73.11 70.96 71.40 72.61 73.46 73.52 70.59 71.85 69.12 66.81 70.11 71.30 65.83 68.22 66.42 66.82 63.17 61.76 62.05 59.97
80.20 80.23 80.15 80.63 80.21 80.08 68.39 64.08 66.76 77.18 78.36 79.34 79.22 79.33 79.11 77.84 76.66 75.74 74.63 72.03 71.84 71.59 71.73 70.47 72.64 73.43 74.09 74.77 73.50 72.52 72.55 71.41 69.62 68.90 70.98 64.06 66.76 64.86 65.26 65.36 61.39 60.49 58.79
80.01 79.81 80.37 80.28 79.90 80.12 66.22 63.23 65.39 76.32 77.02 77.87 79.24 79.52 79.06 78.74 71.54 66.23 75.29 74.32 72.69 71.67 66.33 64.33 64.87 64.54 64.09 65.66 69.31 71.68 67.16 65.98 64.39 65.67 69.56 65.40 64.72 62.62 62.85 62.92 62.97 58.87 57.45
80.01 79.67 79.87 80.31 76.38 80.09 67.87 62.14 64.82 76.67 76.18 76.66 77.84 79.22 68.09 76.14 64.55 62.48 74.50 74.64 72.97 71.73 71.32 69.37 66.66 64.60 65.07 65.46 62.05 71.95 68.64 65.68 64.57 64.20 66.62 63.26 63.00 61.31 58.22 62.29 61.69 60.52 59.97

GFSMA_sfc_wetblb_030.txt.gz
Wetbulb
76.89 77.64 77.93 73.51 73.22 72.81 72.41 73.36 75.54 75.37 75.34 71.89 73.63 73.04 70.45 71.27 72.36 71.96 72.54 76.12 75.74 75.70 74.94 75.21 74.97 74.82 74.77 74.58 73.38 72.17 73.40 73.94 73.53 73.21 73.62 73.29 73.09 72.73 72.23 71.72 71.56 72.36 72.30
77.72 79.33 78.05 74.15 75.91 73.78 72.54 73.39 71.96 72.03 72.61 72.41 74.42 72.53 70.67 71.05 71.64 73.03 72.19 74.03 75.75 75.64 76.00 75.41 75.58 74.84 74.64 74.49 74.61 74.05 72.69 72.49 73.23 73.70 73.39 73.88 73.88 72.72 72.59 71.72 71.72 72.50 72.60
79.67 76.32 77.37 76.07 77.32 78.21 77.86 76.78 74.57 72.85 70.56 72.11 71.94 72.82 70.69 72.33 71.22 70.99 71.43 71.53 73.87 75.71 75.54 76.19 76.10 76.26 74.97 74.51 74.92 74.53 74.55 74.44 74.05 74.46 73.78 73.81 74.60 74.38 73.69 73.52 73.31 72.69 73.13
80.73 80.01 75.82 74.37 73.39 76.85 75.96 75.52 75.44 72.06 72.11 71.09 71.36 70.27 70.85 70.43 70.93 71.33 71.68 72.51 71.97 72.00 75.09 76.18 75.75 75.98 74.73 74.62 74.34 74.59 74.56 75.15 75.11 74.94 74.97 74.97 74.63 74.44 74.72 74.81 74.32 74.51 74.38
79.73 79.79 78.72 76.72 77.50 73.52 76.14 75.72 75.61 75.34 71.29 70.89 70.70 70.70 71.52 69.85 68.71 70.02 71.00 72.17 72.33 71.56 71.73 75.73 75.48 75.36 74.49 74.17 74.20 73.94 74.46 75.32 75.18 74.90 74.78 74.43 74.31 74.68 74.66 74.49 74.64 74.99 74.72
79.54 80.23 78.57 78.96 77.05 73.69 76.88 76.78 76.47 74.70 73.13 70.71 69.12 70.63 70.17 70.45 71.40 70.90 70.51 71.45 72.99 72.25 71.70 72.19 73.52 73.16 74.94 74.44 74.12 73.24 73.40 73.95 74.58 74.51 74.25 74.83 74.79 74.79 74.52 74.32 74.22 74.27 74.42
79.69 80.56 79.11 74.11 78.02 75.54 77.21 76.86 76.07 74.96 71.92 72.06 70.19 70.16 70.35 70.15 70.55 70.68 68.63 69.19 70.40 70.75 71.39 72.39 72.62 71.64 72.90 74.98 74.57 74.25 73.29 72.96 72.88 72.90 72.86 72.99 73.74 73.68 73.51 73.47 73.25 72.95 73.54
78.77 79.24 78.92 77.47 77.45 76.88 77.34 77.46 77.03 74.07 71.88 71.37 70.94 67.49 65.58 67.79 68.66 69.35 70.17 68.59 69.68 69.14 69.60 72.77 72.54 72.64 72.58 72.75 73.12 74.02 74.13 74.01 73.69 73.44 72.93 72.84 73.05 73.40 72.88 72.48 72.03 71.81 72.03
78.57 78.84 78.42 78.78 77.89 77.52 76.24 77.22 76.97 75.85 72.55 71.34 73.78 71.22 65.05 63.69 67.49 69.23 69.09 69.25 69.42 69.23 68.97 70.42 71.87 72.78 72.98 67.92 69.65 70.06 72.02 72.03 71.90 70.99 70.30 70.17 70.97 70.95 70.47 70.28 69.94 69.80 69.82
78.76 79.04 78.95 78.84 79.27 77.97 76.39 76.62 77.89 76.96 75.38 70.67 70.56 71.39 72.65 71.45 66.59 64.25 69.15 69.16 69.97 68.80 69.92 69.77 69.76 69.79 70.94 69.48 70.22 69.56 69.65 69.25 69.64 68.93 67.25 67.20 69.00 69.05 68.31 68.24 68.44 68.67 68.70
78.12 78.56 78.54 79.08 79.18 78.39 77.38 76.75 78.21 77.22 77.25 73.88 70.65 70.26 71.21 70.87 70.90 67.75 65.63 67.44 69.26 69.87 70.04 69.51 69.36 69.47 70.94 68.11 66.04 67.62 68.94 68.34 68.33 68.71 68.66 68.42 67.89 66.78 66.11 65.62 65.39 66.39 66.00
77.33 78.74 79.41 78.57 79.12 77.87 78.21 77.82 78.13 78.63 77.21 76.76 74.53 73.71 70.21 68.73 68.36 68.18 66.42 66.80 66.78 68.80 69.85 69.58 68.87 69.90 70.69 70.04 69.15 69.37 69.15 68.31 68.17 68.40 68.02 68.33 68.45 67.74 66.50 66.33 66.29 66.57 67.61
76.37 76.97 78.70 78.63 77.66 78.43 78.86 77.79 78.38 78.59 77.73 76.58 75.95 73.42 72.91 72.58 72.44 70.99 68.78 67.16 66.68 68.16 68.70 70.04 70.12 70.41 70.27 70.70 68.28 68.82 69.58 68.13 67.52 66.84 66.86 67.38 68.11 68.71 69.18 68.81 68.37 68.34 68.66
75.36 78.32 77.44 78.45 78.45 78.35 78.29 79.30 77.49 77.33 77.56 76.50 76.90 74.78 72.97 72.79 72.88 71.45 69.99 68.79 65.80 65.97 68.78 68.37 70.12 70.68 70.54 70.75 68.41 70.44 68.15 68.10 67.69 66.91 66.55 66.42 66.95 67.46 68.38 68.99 69.21 69.45 69.57
77.34 78.87 77.76 77.72 77.62 78.46 78.22 78.38 77.03 77.36 77.99 76.77 75.96 76.27 74.01 72.10 72.85 72.41 71.82 70.53 68.13 64.84 65.11 68.88 67.65 70.07 71.54 69.61 70.21 69.21 68.85 68.56 68.36 68.04 67.22 66.72 67.05 67.36 67.63 68.03 68.12 67.95 67.91
77.43 80.59 77.97 77.95 78.13 78.20 78.85 78.31 77.65 77.80 76.94 77.15 75.78 74.99 74.17 71.11 71.45 72.72 71.82 71.14 70.22 67.57 64.84 67.72 68.97 69.02 69.62 71.05 70.32 70.74 70.56 69.34 68.71 68.30 67.20 66.36 66.33 66.71 67.07 67.11 67.19 67.33 67.31
80.11 77.67 79.62 78.35 78.03 77.83 78.09 78.18 77.29 76.85 77.30 76.35 76.36 75.73 73.87 72.97 71.89 71.87 71.35 71.34 70.08 69.50 65.70 67.60 70.65 71.38 70.56 69.28 68.95 69.91 70.13 69.09 67.97 66.63 66.61 66.38 65.76 66.10 65.99 66.20 66.19 66.35 66.62
77.93 79.66 78.85 78.41 78.18 77.73 78.00 77.54 77.18 76.08 76.53 76.38 75.91 75.72 74.31 73.28 73.25 73.57 73.37 70.50 70.33 70.81 68.38 68.00 70.10 70.11 69.99 71.04 71.89 71.54 70.16 69.36 69.74 67.99 66.27 65.92 65.42 64.97 65.06 65.15 65.34 65.34 64.84
79.29 78.05 79.36 78.66 77.82 77.77 77.39 77.98 77.50 77.16 75.91 77.13 76.62 75.57 74.78 73.68 72.62 70.99 71.56 72.00 70.82 71.78 72.23 68.33 68.34 70.80 70.60 71.27 70.52 71.29 71.69 70.88 71.02 67.98 64.87 64.81 64.45 64.32 63.69 63.19 63.14 62.07 60.74
77.76 78.57 78.40 78.47 78.79 78.06 77.86 77.63 77.55 77.48 76.99 76.59 77.26 76.68 75.81 74.03 73.12 72.75 71.61 70.01 71.83 69.28 69.38 69.51 67.81 67.34 69.92 70.26 70.14 67.97 68.60 69.94 69.26 69.91 67.37 66.22 65.17 64.68 63.76 62.21 62.14 61.52 59.56
78.23 78.19 78.22 78.37 78.48 78.63 78.33 77.51 77.40 77.17 77.30 76.72 76.74 77.32 76.72 75.32 71.98 72.33 71.43 71.71 69.33 71.23 69.14 67.11 66.72 67.57 67.24 68.30 67.44 68.28 67.81 67.94 69.08 69.16 67.04 66.21 65.65 64.69 64.36 63.41 64.68 64.09 61.92
78.48 78.69 78.25 78.21 78.05 78.40 72.52 70.16 75.24 77.05 77.24 76.87 76.45 76.57 77.10 73.57 72.03 68.77 68.27 68.74 70.56 68.64 67.93 66.63 66.37 65.66 66.49 68.33 69.06 67.47 67.00 66.02 64.00 70.29 67.69 66.77 68.36 67.31 64.92 65.51 65.13 64.88 62.57
78.70 78.29 78.46 78.54 77.73 78.22 69.04 67.78 69.62 77.14 76.76 76.86 76.76 76.87 76.65 76.75 73.37 73.49 67.67 67.02 66.58 66.78 67.87 68.59 66.69 67.31 68.57 69.92 69.63 69.49 68.51 67.85 66.15 68.41 66.97 64.58 67.05 65.98 65.60 62.71 62.21 61.78 62.60
78.68 78.30 78.36 78.78 78.42 78.36 68.20 65.23 67.30 75.88 76.63 76.84 76.94 77.07 76.74 76.39 75.96 74.48 72.59 70.31 70.10 69.41 68.33 69.92 70.18 69.61 71.81 72.85 72.48 71.36 69.64 69.26 68.85 68.51 68.38 62.84 66.07 65.07 64.76 61.20 60.72 61.01 59.18
78.43 78.72 78.70 78.76 78.52 78.43 65.95 63.69 65.19 74.67 75.33 75.93 76.96 77.26 77.22 76.71 71.91 66.27 73.22 70.75 70.04 70.04 66.19 64.31 65.14 66.49 65.48 65.15 69.91 69.70 67.81 66.25 64.56 65.04 67.47 65.05 64.87 63.92 61.79 61.85 59.76 59.06 57.50
78.84 78.94 78.71 79.01 75.20 78.82 68.42 61.81 64.58 75.75 74.54 74.81 75.84 76.69 68.44 74.88 67.22 61.98 73.15 72.80 70.67 70.21 70.02 68.53 67.52 64.55 64.62 65.98 64.35 70.00 68.18 64.89 64.38 63.54 66.33 64.39 63.66 61.24 57.19 60.74 60.52 56.09 55.15

GFSMA_sfc_wetblb_033.txt.gz
Wetbulb
71.39 72.46 74.23 72.29 72.19 71.89 68.02 68.19 71.97 69.98 71.46 70.73 69.55 68.72 71.00 71.05 70.89 71.04 72.09 75.92 76.19 76.34 75.87 75.26 75.32 74.77 74.36 73.30 73.21 73.85 73.80 73.79 73.69 73.70 73.73 73.39 73.13 73.56 72.65 71.61 71.69 72.30 72.43
72.14 73.41 73.03 71.44 71.07 71.16 69.58 70.54 70.48 67.78 68.91 69.96 69.78 69.38 67.63 70.46 70.20 70.45 72.15 73.73 76.06 76.14 75.92 76.00 75.26 75.03 74.68 74.81 74.16 72.62 72.46 73.83 73.87 73.41 73.48 74.12 74.23 73.69 72.92 71.90 71.61 72.31 72.71
73.24 72.65 71.76 73.01 73.17 72.28 71.12 72.35 70.67 69.28 68.58 69.81 69.39 68.91 66.72 69.00 70.19 69.62 71.52 72.43 73.79 75.47 76.48 76.25 76.53 75.82 75.38 74.97 74.84 74.59 74.11 73.55 72.96 73.49 73.87 73.34 73.97 73.89 73.56 73.33 73.33 72.82 73.11
74.56 72.73 73.29 72.51 71.54 74.11 74.23 71.99 71.33 71.02 69.43 70.02 66.63 68.55 67.85 66.53 69.33 69.87 70.20 70.36 71.40 71.66 75.33 76.24 76.06 76.22 75.18 74.79 74.98 74.77 74.63 75.04 74.60 74.67 74.57 74.32 74.39 74.24 74.32 74.20 74.08 74.31 74.13
74.62 74.38 72.72 73.20 73.28 72.31 71.80 71.95 71.23 72.19 68.77 67.07 67.83 66.62 66.18 67.13 66.87 70.22 69.22 69.83 69.53 71.19 72.18 75.83 75.42 75.57 74.94 74.72 74.69 74.72 74.71 75.17 74.66 74.58 74.68 74.56 74.41 74.51 74.76 74.31 74.04 74.44 74.33
75.05 74.61 73.51 72.76 72.37 71.34 71.52 72.32 69.93 67.90 65.47 65.20 68.05 66.47 65.13 67.30 67.20 67.22 70.63 70.57 69.95 70.49 71.36 71.95 72.43 73.34 74.30 74.99 74.64 74.08 74.24 74.21 74.47 74.80 75.13 74.93 74.63 74.78 74.68 74.38 73.81 73.99 73.94
75.12 74.91 74.31 72.35 73.61 71.26 72.18 71.29 69.64 69.10 64.88 66.62 63.78 63.83 63.73 64.33 66.73 67.02 69.01 69.22 69.70 69.41 69.74 70.68 70.50 70.96 71.87 74.71 74.19 74.49 73.53 73.31 74.08 73.91 73.44 73.01 73.78 73.56 73.49 73.46 73.01 72.52 73.04
75.66 75.26 73.69 72.68 73.47 72.77 72.09 71.35 71.04 69.14 66.59 64.99 65.78 64.71 60.67 62.38 64.54 65.23 64.01 65.76 67.25 68.38 70.07 70.45 69.69 70.17 70.80 70.79 71.99 74.75 74.88 74.15 73.90 73.52 73.19 73.19 73.51 73.53 73.11 72.22 71.95 71.85 71.85
75.88 74.63 74.41 73.73 73.70 73.42 72.42 72.00 71.92 70.09 66.29 65.65 67.52 65.74 59.43 58.47 61.73 65.48 64.32 63.23 65.25 64.83 68.27 70.16 70.45 70.03 69.86 69.37 71.18 71.51 73.14 73.09 73.04 72.24 71.45 71.07 71.36 71.19 70.57 70.11 69.69 69.32 69.39
74.99 75.43 74.59 74.02 73.84 72.62 71.56 72.29 73.15 70.70 69.28 63.30 64.44 67.28 67.16 66.71 60.35 59.62 63.82 63.87 65.42 64.86 65.11 67.92 69.05 70.10 66.34 65.85 68.55 69.11 70.47 69.82 70.17 69.12 67.44 67.55 67.98 68.24 67.66 67.61 68.51 68.47 68.52
74.90 76.26 75.43 74.81 73.95 74.21 72.55 71.43 72.26 71.81 71.89 68.23 63.47 63.78 64.75 65.32 65.45 62.85 59.30 63.16 64.54 64.57 65.52 65.57 65.83 67.04 66.06 65.97 64.74 66.60 69.70 68.69 68.52 69.19 69.39 68.50 67.74 67.07 66.63 66.13 66.34 67.02 67.62
73.90 74.61 75.45 75.11 74.89 73.85 73.10 72.68 73.28 72.95 71.01 71.67 68.70 66.84 63.31 62.47 62.97 62.37 62.37 62.52 61.67 63.90 64.76 64.10 65.86 65.48 65.82 63.69 65.77 68.55 69.43 68.32 67.83 67.71 67.93 68.71 69.27 68.09 66.82 66.69 66.55 66.71 67.15
73.23 73.81 75.14 74.58 75.11 73.90 74.53 73.78 73.23 74.08 72.37 71.35 70.72 67.20 67.35 65.05 66.75 64.42 63.85 62.16 62.10 63.68 64.21 64.59 64.89 65.83 67.66 64.02 63.84 68.73 69.48 67.94 67.20 66.74 66.82 67.40 67.90 68.54 69.09 68.70 68.28 68.34 68.69
73.65 74.34 75.09 75.48 74.63 74.85 74.85 73.82 73.85 73.42 73.85 71.82 72.19 69.30 66.84 67.64 67.05 65.09 63.37 63.18 59.71 60.77 62.87 61.39 65.52 65.11 65.84 65.98 66.07 69.54 66.27 67.14 66.72 65.70 65.65 66.02 66.51 66.95 67.70 68.45 68.96 69.25 69.37
72.85 74.59 75.09 75.86 75.18 75.01 74.53 75.04 74.41 73.31 74.09 72.82 71.59 71.74 68.95 67.58 67.45 66.92 65.58 64.86 62.13 58.91 60.76 63.16 63.40 65.77 65.98 66.83 66.84 65.99 64.02 67.06 66.61 65.97 65.26 65.35 65.95 66.70 66.98 67.26 67.49 67.58 67.72
72.68 73.42 74.73 74.64 75.30 75.61 75.23 74.50 74.36 74.46 73.52 73.61 72.82 71.73 70.72 68.74 66.99 66.90 66.32 64.66 64.25 61.61 58.67 64.06 63.88 65.05 67.02 67.03 68.09 65.55 65.43 67.06 67.23 66.61 66.00 65.55 65.77 66.41 66.76 66.88 67.05 66.78 66.85
73.50 73.19 74.96 74.48 74.88 74.78 75.66 74.58 73.65 73.74 73.92 73.07 72.80 72.24 70.91 69.58 66.44 66.33 66.08 66.09 63.83 63.34 59.75 61.34 64.41 64.76 64.93 65.90 66.31 66.42 67.96 66.85 65.52 66.05 66.09 65.77 65.46 65.62 66.22 66.37 66.19 66.12 66.16
73.80 75.53 75.88 75.22 75.32 75.18 75.11 75.30 74.55 74.71 73.37 73.30 73.29 71.96 71.65 71.63 67.77 67.63 68.35 64.61 64.47 64.71 61.77 59.52 65.13 66.22 64.50 64.26 64.67 64.29 66.82 67.91 65.96 66.37 65.35 65.08 64.59 64.08 64.48 64.74 64.57 64.85 65.32
75.32 74.11 75.68 75.70 75.61 75.54 75.36 75.19 75.18 74.96 73.66 73.83 73.97 73.38 72.57 71.09 68.95 68.71 67.78 67.18 65.19 65.23 65.20 62.41 63.97 65.28 65.44 66.42 66.19 66.27 66.16 65.81 67.08 68.47 65.24 64.23 64.21 63.33 63.09 62.34 61.89 61.58 61.64
74.16 76.15 74.19 75.57 75.80 75.81 75.44 75.62 75.24 74.93 74.86 73.67 74.29 74.61 73.79 72.08 70.82 69.69 68.18 66.97 66.78 65.60 65.42 63.39 62.47 63.04 65.44 66.46 65.74 65.59 65.13 67.44 66.90 68.64 66.85 65.24 64.71 64.46 63.64 61.87 61.36 61.12 59.29
75.13 75.17 75.82 74.78 76.04 75.70 75.94 75.28 75.35 75.19 74.78 74.48 73.68 74.81 74.73 73.77 71.15 70.52 70.30 67.83 66.15 66.21 65.00 64.57 62.97 62.33 62.02 64.84 65.87 65.40 64.48 65.47 66.35 66.46 63.36 62.66 62.54 62.54 63.39 63.48 63.73 63.88 60.64
74.25 75.46 75.01 75.15 75.40 76.39 71.31 69.27 74.01 75.30 75.10 74.65 74.31 73.90 75.20 72.61 71.16 68.06 67.84 68.03 68.35 65.66 66.41 65.15 64.41 63.90 64.23 62.95 65.25 66.10 65.67 63.54 62.33 65.94 65.00 63.97 63.08 62.00 63.00 62.48 63.52 62.93 60.92
75.86 74.72 74.69 75.45 74.89 75.87 68.09 67.04 69.13 75.66 75.00 75.04 74.83 74.77 74.34 75.54 72.18 73.21 67.57 66.82 66.81 65.96 65.89 67.33 65.12 64.46 64.31 65.42 65.89 65.16 65.40 64.20 61.87 63.71 64.01 62.50 64.65 63.18 64.55 64.81 62.57 61.52 60.44
75.70 75.94 75.68 75.33 76.03 75.92 67.02 65.25 66.86 74.81 75.29 75.14 75.34 75.26 74.96 74.57 74.39 73.59 72.84 70.06 69.98 68.77 68.06 67.22 67.21 66.53 66.37 66.55 67.43 67.21 66.22 65.08 65.03 65.32 63.95 60.00 63.58 62.65 61.91 60.01 60.94 60.88 59.64
75.94 76.13 76.48 76.18 75.94 76.23 64.53 63.80 64.94 73.06 74.67 74.90 75.32 75.39 75.55 75.20 71.01 65.58 73.34 71.85 70.14 70.23 65.90 63.37 64.35 63.93 64.22 65.16 67.89 68.18 65.47 63.86 61.54 63.14 64.63 62.00 62.75 62.43 60.05 58.10 59.00 59.76 58.00
76.26 76.81 76.27 76.88 73.29 76.55 66.36 61.59 64.37 74.38 73.97 74.43 75.04 75.12 67.69 72.57 66.34 62.36 72.27 72.67 70.69 70.12 69.74 68.83 65.96 63.66 64.17 65.06 64.70 68.69 66.98 64.25 62.09 61.86 64.57 62.17 62.33 61.04 55.91 58.04 57.27 56.88 55.57

GFSMA_sfc_wetblb_036.txt.gz
Wetbulb
70.93 71.69 72.45 71.98 71.82 71.32 69.96 67.08 71.21 70.37 69.84 68.81 68.40 71.73 70.11 69.53 69.47 71.37 72.19 76.19 76.68 76.25 75.33 75.15 74.34 73.38 73.16 73.82 73.92 73.61 73.64 73.79 74.04 73.45 73.32 73.16 72.83 72.88 71.80 71.35 71.39 71.95 72.23
71.41 72.27 71.94 71.17 71.82 71.17 69.34 68.43 70.16 67.23 66.38 68.10 68.76 70.80 68.83 68.96 69.63 70.75 71.51 73.22 76.00 76.29 76.07 75.17 75.23 74.73 74.46 73.42 72.80 73.20 73.71 73.59 72.96 72.77 73.15 73.29 73.15 73.16 72.80 71.81 71.21 71.94 72.61
71.90 71.84 71.44 70.40 70.61 70.53 69.86 70.14 70.14 68.19 69.06 68.45 67.89 67.38 68.18 68.55 69.02 69.98 71.47 71.47 73.72 76.26 76.29 76.07 75.48 75.16 74.60 74.86 74.78 73.42 72.44 72.76 72.88 73.43 73.58 73.14 73.59 73.56 73.06 72.97 73.00 73.02 72.72
73.24 72.49 71.15 71.45 71.94 71.46 71.49 70.52 70.03 69.35 69.25 69.22 66.31 67.31 66.44 68.28 68.40 69.32 69.95 70.91 71.21 71.43 75.60 76.32 76.00 75.86 74.98 74.90 74.85 74.46 74.33 74.10 74.11 74.09 74.20 73.95 73.92 73.70 73.70 73.70 73.81 73.86 73.61
74.03 72.77 72.22 71.65 70.95 70.99 70.47 70.41 69.67 70.14 67.65 68.25 68.13 65.31 66.08 65.81 68.23 69.22 68.27 69.08 69.60 70.56 72.36 74.95 75.35 74.56 74.62 74.40 74.55 74.67 74.74 74.59 74.63 74.28 74.18 74.23 74.18 74.08 73.86 73.86 73.76 73.78 73.49
73.98 73.11 71.86 72.35 71.75 69.81 70.88 70.66 68.32 66.02 62.69 63.69 66.61 65.12 63.81 65.98 67.54 66.89 68.37 69.36 69.05 70.10 71.05 71.73 71.83 72.29 74.71 74.65 73.85 73.97 74.38 74.62 74.57 74.40 74.58 74.58 74.58 74.21 74.03 73.80 73.11 72.89 72.94
73.68 73.28 72.97 71.97 71.25 69.99 70.80 69.54 68.46 66.93 62.60 64.81 62.95 61.67 61.73 64.14 65.47 65.76 68.30 67.83 68.32 69.03 69.97 70.77 70.44 71.21 71.73 74.52 74.13 74.20 73.19 73.30 73.58 73.55 73.75 74.38 73.68 73.36 73.09 72.09 72.51 72.24 71.99
73.92 73.61 72.74 71.65 71.96 70.78 70.07 69.56 69.50 67.29 63.87 64.05 63.81 60.97 58.41 60.51 63.07 64.50 65.92 67.90 67.25 68.07 68.82 69.97 69.55 69.36 70.50 70.14 70.96 74.27 74.50 73.44 73.24 73.27 73.09 72.99 73.04 73.16 72.53 71.91 71.69 71.06 70.79
74.45 74.04 72.76 72.58 72.38 71.91 70.89 70.63 70.16 67.66 62.83 64.88 65.90 62.46 58.27 56.52 59.34 63.08 62.17 64.19 65.89 66.17 67.86 68.74 68.94 69.47 69.42 69.21 72.08 72.38 73.80 73.45 72.88 72.30 71.89 71.58 71.46 71.11 70.32 69.51 69.40 69.30 69.32
74.27 74.05 73.42 73.08 72.32 71.91 71.41 71.16 71.71 69.42 65.87 61.79 63.72 66.84 65.01 63.70 57.72 57.48 61.92 62.15 63.90 64.61 66.39 68.50 69.03 68.98 68.89 67.95 69.74 70.11 72.56 71.74 71.77 69.69 68.39 67.90 67.84 67.67 67.04 66.90 67.80 68.65 68.65
74.20 74.15 73.34 72.80 72.24 72.11 70.58 71.06 71.59 70.51 68.76 65.96 61.13 63.17 63.23 63.73 63.70 60.29 57.87 60.20 63.05 62.70 64.82 67.94 68.66 68.46 66.43 64.94 65.01 66.92 70.50 69.49 69.09 69.51 69.24 68.20 67.50 67.17 66.10 65.76 65.43 65.95 66.19
72.74 73.71 74.16 73.01 72.53 72.96 72.02 70.47 70.64 71.45 70.06 68.34 65.23 63.39 62.41 61.91 61.39 61.45 60.17 60.47 59.99 61.84 63.37 64.11 64.76 67.22 65.30 64.11 66.30 67.68 69.88 68.59 68.08 68.12 68.45 69.11 69.38 68.14 67.33 67.06 66.88 66.86 67.23
70.44 72.49 73.96 73.22 73.10 72.87 72.65 71.68 71.03 71.83 70.27 70.39 68.56 66.20 63.94 62.48 63.87 62.19 61.64 61.38 60.83 61.85 62.12 62.74 64.18 64.51 66.58 63.56 64.46 68.24 70.00 68.08 67.26 66.83 66.69 67.28 68.06 68.97 69.32 68.86 68.52 68.60 68.76
71.62 72.37 74.11 74.10 73.72 73.55 72.99 72.11 71.69 71.83 71.99 70.39 70.23 67.33 65.85 66.42 66.27 64.17 61.90 61.51 58.25 59.53 61.04 61.35 63.82 63.79 65.18 63.56 63.97 69.66 65.87 67.12 66.67 65.72 65.50 66.12 66.87 67.23 67.77 68.47 68.81 69.18 69.05
73.16 72.81 73.55 74.33 73.86 74.10 72.96 72.84 71.85 71.69 72.87 71.52 69.94 70.28 67.22 65.96 66.17 66.05 63.56 62.97 60.82 57.98 58.42 61.63 61.80 64.00 64.99 64.99 64.73 66.34 63.39 66.65 66.58 65.87 64.81 64.59 65.03 65.97 66.80 66.95 67.23 67.43 67.48
71.85 73.37 73.14 74.43 74.08 73.68 73.52 73.20 72.84 72.04 72.06 72.28 71.20 69.79 69.37 68.46 66.46 65.51 65.21 62.75 62.16 59.86 57.57 61.34 62.87 63.67 64.66 66.88 66.29 65.57 63.23 66.14 66.56 65.68 64.69 63.99 64.50 65.34 66.11 66.62 66.88 66.85 66.78
71.14 71.63 73.21 73.39 74.21 73.95 73.61 73.02 72.91 73.58 72.30 72.36 72.30 70.86 69.58 68.88 67.65 65.41 64.79 64.31 62.33 60.98 58.69 59.34 62.84 63.40 63.96 64.26 64.48 65.31 63.85 63.14 63.29 65.39 64.87 64.46 64.05 64.67 65.51 65.81 65.71 65.73 65.79
72.44 71.28 73.29 73.24 73.74 74.26 74.23 73.43 72.49 73.28 73.61 72.19 72.68 71.74 71.05 71.03 68.11 66.14 64.73 64.13 63.58 62.20 59.99 58.47 59.63 64.05 63.09 63.91 63.92 65.14 64.66 65.97 65.24 65.56 64.47 64.16 63.66 63.46 63.72 63.75 63.59 63.77 63.18
71.67 72.73 73.93 73.45 73.39 73.78 73.88 74.55 73.63 73.16 72.95 73.51 72.98 72.51 72.14 70.92 70.23 68.55 65.33 65.71 63.90 63.24 61.89 59.27 59.45 63.51 62.74 63.81 62.41 63.24 63.28 64.66 65.73 67.01 64.55 63.68 63.46 63.17 62.51 61.90 61.47 60.76 59.55
70.36 72.20 73.43 74.56 74.03 74.18 73.95 73.95 74.36 74.12 73.55 73.21 73.39 73.45 72.99 72.07 71.36 70.08 67.60 65.91 65.33 64.30 62.83 61.87 60.26 62.45 62.93 63.96 63.33 62.78 62.56 64.53 64.38 66.75 67.35 65.81 64.93 64.45 63.64 61.58 61.28 60.71 58.58
73.70 71.69 72.70 73.13 75.00 74.83 74.88 74.28 74.15 73.96 73.99 73.79 73.31 73.80 73.85 73.21 71.26 70.69 70.40 68.46 65.37 65.08 63.26 63.26 60.99 60.44 61.94 63.01 63.36 63.39 62.96 64.05 65.50 65.69 64.82 63.59 62.86 62.69 63.30 63.31 64.11 63.75 60.22
72.34 73.53 73.16 74.06 73.16 75.07 70.26 68.95 73.11 74.27 74.01 73.41 73.21 73.12 73.58 72.10 71.01 68.08 67.24 68.02 68.42 66.87 65.02 64.57 64.21 62.69 63.55 62.48 63.89 64.75 64.11 61.33 61.19 65.07 65.37 65.24 62.46 61.69 63.45 63.38 63.46 62.41 60.73
73.73 71.98 72.59 73.73 73.66 74.28 67.08 66.87 68.84 74.44 74.07 73.91 73.71 73.56 73.66 74.04 71.53 73.24 67.52 66.13 66.28 65.30 66.77 66.56 65.32 64.82 64.37 64.81 64.32 63.77 64.98 64.21 64.24 64.26 65.41 64.64 63.37 63.87 64.69 64.07 61.74 61.31 60.27
74.73 74.30 72.93 72.95 74.01 74.28 65.74 64.49 66.80 73.80 74.51 74.27 74.37 74.20 73.88 73.76 73.63 73.00 73.48 70.09 69.52 70.11 67.40 67.00 67.04 66.94 66.95 66.92 65.81 65.55 65.82 65.68 64.24 63.57 64.85 62.77 62.76 64.00 63.48 63.70 61.29 61.16 59.55
74.36 74.66 75.14 74.30 73.37 73.87 63.76 63.14 64.95 72.13 73.66 74.45 74.99 74.78 74.74 74.37 69.75 64.89 72.64 72.43 71.16 70.43 68.16 63.48 64.38 63.42 61.90 61.39 64.06 65.32 64.31 63.42 63.07 63.60 64.14 64.12 60.93 61.77 61.19 60.84 60.90 60.29 58.44
74.86 75.10 74.69 75.46 72.08 74.78 63.85 61.68 64.43 73.89 73.31 73.80 74.66 75.23 67.41 71.69 65.40 62.59 70.87 72.70 71.77 72.34 71.44 71.28 67.76 64.97 62.26 63.18 61.52 66.77 66.62 63.85 63.47 61.16 63.88 62.79 60.67 60.47 57.69 58.78 59.00 60.30 59.04

GFSMA_sfc_wetblb_039.txt.gz
Wetbulb
70.31 71.28 71.16 70.06 70.42 70.50 69.61 66.31 69.76 68.98 68.51 68.01 68.50 70.99 70.69 69.21 69.52 71.56 72.10 75.69 76.13 75.54 74.98 73.61 73.05 73.72 74.13 73.93 73.66 73.58 73.98 73.70 73.55 72.98 72.68 72.81 72.37 72.35 71.57 71.09 71.27 71.95 72.33
69.64 70.24 70.84 70.68 70.53 70.50 69.58 67.70 69.31 65.76 66.20 67.44 67.99 70.28 68.40 68.77 69.79 71.15 71.63 72.84 76.39 75.72 74.87 74.96 74.16 73.26 72.93 73.31 73.58 73.55 73.41 73.11 72.61 72.76 72.80 72.83 72.71 72.76 72.64 72.46 71.46 71.76 72.35
70.71 71.56 70.96 70.14 70.00 70.13 68.95 69.62 69.91 69.10 66.12 67.72 68.00 67.74 68.01 68.26 68.85 69.81 70.95 71.38 73.21 75.58 74.92 74.82 75.04 74.69 74.43 73.80 72.59 72.27 72.29 73.28 73.01 73.15 73.20 73.00 73.33 73.31 72.90 73.01 73.19 73.51 73.14
71.33 70.57 70.57 69.89 70.41 70.21 70.19 69.84 69.17 69.22 67.23 67.31 66.31 65.17 66.88 67.58 67.93 69.12 70.49 70.72 71.26 72.28 74.78 75.32 74.68 75.18 74.43 74.31 74.43 74.46 73.72 72.54 72.38 72.80 73.68 73.71 73.48 73.46 73.24 73.44 73.24 73.12 73.19
73.03 71.57 71.07 71.02 71.12 70.04 70.52 70.27 69.57 69.42 67.23 67.08 67.73 64.18 65.35 66.76 67.21 68.68 68.72 69.61 69.41 69.98 71.99 74.54 75.09 75.09 74.52 74.09 74.11 73.96 74.28 74.25 74.04 74.26 73.94 73.91 73.89 73.62 73.49 73.57 73.19 72.87 72.52
73.03 71.78 71.38 70.41 71.00 69.42 69.32 69.32 67.08 65.41 62.08 64.14 65.98 63.29 63.55 65.07 66.71 66.52 66.87 68.60 68.36 69.24 71.01 71.41 71.09 71.93 74.09 74.20 74.01 73.99 74.15 74.23 74.36 74.26 74.16 73.71 73.84 73.27 73.29 73.22 72.75 72.48 72.30
73.25 71.63 70.83 71.24 70.72 68.89 69.99 68.78 67.50 63.84 62.69 62.96 61.20 60.09 61.71 62.79 65.13 65.87 66.84 66.86 67.95 68.72 69.53 70.31 70.09 70.48 71.06 74.50 74.43 73.79 72.83 72.97 73.21 73.45 73.61 73.72 73.02 72.37 72.52 71.78 71.95 71.88 72.07
72.92 72.54 71.95 71.47 71.03 69.62 70.09 69.10 68.16 65.87 62.05 63.71 61.19 58.32 57.09 59.61 62.14 63.12 65.73 67.06 66.71 67.73 68.57 69.67 69.34 69.26 69.29 69.68 69.94 72.95 73.32 72.98 72.83 73.03 72.90 72.77 72.77 72.62 72.04 71.59 71.05 70.38 69.92
72.96 73.16 72.23 71.28 70.97 70.48 69.61 69.14 69.02 65.21 61.06 64.31 64.68 60.86 56.73 55.55 58.13 61.49 62.35 64.51 66.38 65.95 66.43 67.76 68.57 68.57 69.04 68.44 70.89 71.61 73.54 73.23 72.69 72.19 71.83 71.81 71.53 71.12 70.33 68.98 68.72 68.59 68.34
72.79 73.71 72.26 71.79 71.57 71.71 70.43 69.98 70.52 67.96 62.53 62.41 62.80 66.22 63.24 61.13 56.94 56.44 60.48 61.81 64.56 64.96 65.37 67.10 68.12 68.20 68.72 68.00 70.33 70.88 72.89 72.04 72.47 71.21 69.75 69.07 68.52 67.90 67.13 66.74 67.38 68.05 67.80
72.55 73.64 72.91 71.99 71.29 71.31 70.68 70.65 70.21 68.93 66.67 61.73 60.37 63.41 62.45 63.06 61.16 58.29 56.32 59.51 62.38 62.66 63.30 66.69 67.85 67.88 68.07 67.54 65.87 67.05 71.42 70.87 70.35 70.07 69.50 68.21 67.43 67.00 66.51 66.36 66.12 65.96 66.07
71.80 72.74 72.79 71.83 71.35 71.48 70.41 69.99 70.70 69.98 69.14 66.42 62.34 62.23 61.95 61.32 61.26 60.40 58.72 58.84 59.17 60.86 62.51 64.47 66.34 67.57 67.54 65.40 66.25 67.96 70.33 69.40 68.59 68.57 68.91 69.41 69.40 68.27 67.58 67.09 66.94 67.00 67.49
69.91 71.45 72.44 71.74 71.20 71.33 71.95 70.58 69.51 70.37 69.50 69.45 66.15 64.66 62.62 61.39 62.20 61.30 60.20 59.93 59.43 60.50 61.69 62.21 64.31 65.33 67.72 64.56 64.27 69.04 69.65 68.48 67.66 67.04 67.12 68.04 68.77 69.73 70.09 69.87 69.23 69.02 69.15
70.76 71.76 72.75 72.77 72.23 72.15 72.32 71.32 70.25 70.17 70.58 69.23 69.20 66.02 65.64 63.38 63.83 62.92 62.05 60.91 58.37 58.58 60.18 61.08 62.01 63.42 64.91 64.86 64.93 68.91 64.79 67.56 66.86 65.90 65.73 66.11 66.92 67.90 68.62 69.08 69.60 69.99 69.96
71.07 70.88 72.56 73.10 72.91 72.75 72.25 71.66 70.41 70.49 71.48 70.58 68.92 69.21 66.16 65.08 65.45 65.11 62.13 61.87 59.70 56.76 57.42 60.96 60.66 62.77 63.86 64.50 65.21 65.36 64.67 65.87 66.69 65.90 64.66 64.36 65.19 66.27 66.98 67.48 67.44 67.23 67.48
71.19 71.27 71.42 72.38 72.74 72.96 72.41 71.86 71.05 70.55 70.69 71.04 70.70 68.76 68.74 67.48 65.22 64.85 64.70 62.35 60.67 59.55 57.53 60.00 61.60 62.27 63.07 65.27 65.43 64.94 64.83 65.86 66.62 65.77 64.83 64.18 64.50 65.11 65.69 66.11 66.49 66.60 66.57
70.51 71.54 71.57 71.93 72.59 72.64 72.56 72.06 71.90 71.47 70.49 70.58 71.19 70.11 68.80 68.26 67.68 65.37 63.98 63.51 61.71 59.73 57.96 59.03 60.80 62.26 62.63 62.67 64.69 65.82 64.70 62.45 62.52 65.16 64.79 64.18 63.66 63.81 64.60 65.17 65.31 65.51 65.80
70.42 70.80 71.99 71.99 72.46 72.76 72.65 72.16 71.81 72.82 71.76 70.75 71.03 70.90 70.71 70.34 67.66 66.38 64.44 63.06 62.64 61.42 59.62 58.25 58.73 62.19 61.69 62.89 63.34 63.52 65.13 64.55 62.46 63.85 64.13 63.76 63.11 62.76 62.98 63.31 63.24 63.41 63.14
70.49 70.56 71.17 71.59 72.02 72.85 72.98 72.83 72.56 72.02 72.54 72.72 72.36 71.58 71.67 70.40 69.55 68.22 66.31 64.14 63.20 63.15 60.93 58.91 59.49 60.29 62.90 62.09 61.88 62.54 63.06 63.44 63.61 65.84 63.75 63.22 63.00 62.74 62.23 61.74 61.33 60.40 59.27
70.05 71.08 71.63 72.05 72.30 72.53 73.10 73.24 73.09 72.63 72.06 72.50 73.26 73.13 72.77 72.00 71.37 70.53 69.29 67.48 65.18 63.29 61.59 60.70 59.35 60.69 61.62 62.65 62.12 60.94 60.79 61.98 63.51 65.12 66.35 65.36 64.87 64.45 63.35 61.63 61.56 60.88 58.37
71.46 71.14 71.51 72.39 72.93 72.79 73.19 72.93 73.12 73.03 72.51 72.14 72.50 72.95 73.13 72.92 71.08 70.66 71.37 70.03 66.78 65.47 63.88 63.30 62.67 59.47 60.86 61.65 61.79 61.84 62.43 63.34 62.82 64.17 63.99 65.04 64.54 64.57 64.67 63.53 64.51 64.10 60.59
72.92 72.19 70.73 71.32 72.35 73.77 69.40 68.35 71.99 72.79 73.02 72.67 72.23 72.60 72.90 71.45 70.87 67.99 67.65 68.34 69.71 68.28 66.77 65.27 65.77 63.81 63.38 62.59 64.39 63.17 62.14 59.29 59.84 64.39 64.13 64.31 65.66 64.69 65.03 63.81 64.10 62.76 61.12
71.46 71.76 72.31 71.59 71.39 71.98 66.35 66.38 68.30 73.66 73.07 72.84 72.59 72.77 72.96 73.64 71.10 72.91 68.22 66.41 66.25 65.51 67.87 70.23 66.27 67.07 65.46 65.54 64.40 62.64 62.65 62.76 62.53 63.09 64.88 63.56 64.47 64.54 66.02 64.67 61.97 61.49 60.48
71.67 71.39 71.18 71.70 72.32 72.75 65.74 64.11 66.54 72.98 73.66 73.57 73.44 73.34 72.94 73.01 72.82 72.19 72.47 71.85 70.35 71.08 69.28 68.21 70.40 71.51 69.67 68.99 66.12 64.82 64.54 64.91 65.11 65.63 64.09 62.34 63.10 63.81 65.12 64.62 61.43 61.23 60.02
73.37 73.14 72.81 71.75 71.21 72.08 63.43 62.67 64.77 71.79 72.88 73.42 73.96 73.99 73.94 73.64 69.31 64.61 72.02 71.82 72.07 71.77 68.16 64.23 64.30 64.63 63.77 62.06 64.98 65.79 63.55 62.45 62.27 63.66 64.72 63.95 63.70 63.00 62.34 63.72 63.89 61.21 58.86
73.67 74.06 74.03 74.25 70.49 72.38 63.50 60.99 63.33 72.08 72.04 72.63 73.64 74.14 66.63 71.31 65.15 62.42 70.91 72.45 71.61 72.55 73.29 72.36 70.37 66.25 64.10 66.24 60.51 65.84 67.41 64.16 63.26 63.76 65.68 63.24 64.16 62.24 59.96 60.45 62.66 61.76 60.33

GFSMA_sfc_wetblb_042.txt.gz
Wetbulb
71.66 72.32 72.28 71.37 72.22 72.16 70.58 69.24 71.96 69.55 70.11 70.00 69.92 72.32 72.19 71.45 71.30 73.00 74.04 74.65 74.67 74.38 73.29 73.24 74.51 74.19 74.13 73.93 73.83 73.93 73.41 73.45 72.95 72.08 72.04 72.85 72.30 72.52 71.89 71.71 71.55 72.14 72.63
71.10 71.61 72.19 72.42 71.91 71.83 71.40 70.47 71.18 68.42 68.69 69.91 71.54 71.92 71.23 70.92 71.76 72.80 73.44 74.94 74.87 74.50 74.65 73.93 73.10 72.99 73.37 73.22 73.13 72.94 73.10 73.09 73.04 72.75 72.96 72.72 72.67 72.83 72.35 72.59 72.41 72.65 72.74
71.14 72.02 71.89 71.96 71.70 72.38 70.83 72.25 71.79 70.88 69.50 69.70 70.43 70.71 70.44 70.64 71.29 72.25 72.70 73.59 74.66 74.39 73.83 74.58 74.48 73.85 73.38 72.97 72.71 72.75 72.95 73.23 72.91 72.83 73.32 73.13 73.21 73.24 73.14 73.44 73.29 72.94 72.79
72.16 72.00 71.71 71.69 72.34 72.23 72.46 72.35 71.29 70.64 69.57 68.40 68.62 68.99 69.72 69.88 70.35 71.22 72.48 72.92 73.56 73.77 74.46 74.19 74.21 74.88 74.50 74.12 74.15 73.22 72.59 72.11 72.17 72.26 72.97 72.94 73.32 73.15 73.24 73.12 73.09 72.64 72.57
72.83 72.33 71.81 71.65 72.82 72.75 72.86 72.47 71.29 71.38 69.86 69.67 68.51 67.14 69.01 69.38 69.49 70.36 71.49 72.01 72.15 72.50 73.99 74.02 74.64 74.45 74.35 73.90 74.07 74.06 73.98 74.27 74.26 74.04 73.89 73.84 73.77 73.24 73.02 72.82 72.62 72.55 72.60
73.68 72.66 71.64 71.86 72.43 72.04 72.09 71.97 69.96 66.68 66.38 67.55 66.36 64.87 66.20 67.77 69.45 69.13 69.82 70.61 70.56 71.67 72.91 73.87 73.49 73.58 74.33 74.14 74.35 73.62 74.27 74.41 74.23 74.06 74.04 73.97 73.49 72.90 72.97 72.75 72.08 72.06 72.08
74.26 73.02 72.38 71.72 71.88 71.02 72.07 71.30 69.50 66.84 66.13 65.97 65.16 64.72 64.81 65.79 68.11 68.79 69.36 69.62 70.11 70.98 72.00 72.85 72.55 72.59 72.64 73.77 74.51 73.74 73.34 73.36 73.32 73.38 73.88 74.04 73.27 72.77 72.33 72.13 71.88 71.46 71.59
74.15 73.41 72.16 72.28 71.26 71.45 72.20 71.31 70.59 68.45 65.50 66.64 63.71 62.72 62.02 64.79 65.38 65.97 68.58 69.27 69.42 70.35 71.07 71.81 71.88 71.98 72.08 72.60 72.35 72.63 72.87 72.81 72.70 72.86 72.58 72.55 72.62 72.42 71.90 71.40 70.84 69.67 69.57
73.60 74.16 73.49 72.95 72.80 71.93 71.41 71.44 70.97 68.01 65.20 67.24 66.96 64.22 61.23 61.09 61.68 64.81 66.06 68.04 69.43 69.09 69.72 70.40 71.19 71.12 71.42 71.81 71.69 72.58 73.61 73.15 72.47 72.11 71.70 71.79 71.81 71.27 70.38 69.20 68.57 68.55 68.19
73.20 74.14 73.97 73.12 72.74 72.78 72.15 72.19 71.78 70.21 66.81 66.74 66.50 67.47 65.95 64.58 62.21 62.48 64.34 65.65 66.05 68.32 69.04 69.43 70.30 70.79 71.02 71.27 70.75 71.50 71.88 72.40 72.44 71.57 70.61 69.90 69.38 68.39 67.12 66.64 67.38 67.97 67.66
72.76 74.10 74.05 73.25 72.79 73.07 72.63 72.76 72.23 71.52 68.34 66.26 65.85 66.78 66.35 65.90 63.97 62.29 61.74 63.69 65.80 66.98 67.99 68.45 69.88 70.79 71.02 70.95 70.68 69.43 70.22 71.41 70.95 70.92 69.56 67.78 66.86 66.54 65.93 66.00 65.93 66.12 66.33
72.10 73.31 74.13 73.50 73.40 73.08 72.76 72.67 72.85 71.94 71.13 68.79 66.07 66.64 66.58 66.33 65.10 64.24 62.60 63.16 63.12 66.05 66.94 66.99 68.31 70.16 71.02 70.95 70.53 69.58 69.11 70.11 69.23 68.72 68.71 69.40 69.35 68.13 67.52 67.25 66.79 66.78 67.19
71.16 72.12 73.33 73.11 72.80 73.04 73.49 72.51 72.15 72.63 71.78 71.42 69.78 67.12 66.21 66.15 65.91 65.39 64.82 63.76 63.49 64.62 65.87 66.92 67.39 68.96 70.40 70.78 70.09 70.14 69.84 68.88 68.13 67.17 67.20 68.05 69.04 69.84 70.35 70.00 69.39 68.94 69.23
71.34 72.81 73.00 73.47 73.34 73.30 73.32 73.27 71.91 71.70 72.67 71.66 71.97 69.83 68.33 67.07 66.24 66.29 66.27 65.15 64.11 63.34 64.45 67.10 66.74 67.02 68.99 70.43 70.11 69.33 69.21 67.55 67.45 66.22 65.66 66.20 67.09 67.99 68.82 69.67 69.97 70.14 70.06
71.64 72.35 73.02 73.51 73.68 73.51 73.72 73.53 72.57 72.38 72.74 72.64 71.75 71.93 70.03 68.88 67.63 67.65 66.58 66.32 65.96 63.00 63.21 66.23 66.08 67.40 67.43 68.39 70.01 70.24 69.59 67.56 67.04 66.18 64.99 64.69 65.19 66.27 67.18 67.73 67.55 67.48 67.49
71.76 72.20 72.49 73.19 73.78 73.84 73.80 73.44 72.84 72.73 72.35 72.83 72.71 71.55 71.51 70.88 69.26 68.04 67.80 66.21 65.08 65.03 63.06 65.00 66.67 67.34 67.45 67.17 68.10 69.74 68.95 67.86 66.39 65.91 65.08 64.35 64.28 65.17 65.89 66.40 66.55 66.55 66.47
71.37 71.72 71.98 72.39 73.18 73.54 73.91 73.44 73.44 73.16 72.21 72.52 72.83 72.48 72.28 71.71 70.87 69.91 67.74 67.38 66.04 64.24 63.45 65.55 64.79 67.43 67.79 67.69 68.21 69.38 68.37 68.64 68.40 64.77 65.01 64.41 63.66 64.14 64.84 65.26 65.10 65.24 65.82
71.33 71.93 72.31 72.20 72.65 73.18 73.44 73.53 73.09 73.61 72.74 72.26 72.36 72.56 72.51 72.32 71.58 71.17 69.42 68.39 67.18 66.16 64.99 64.98 65.86 66.25 66.83 67.90 67.97 67.68 67.94 67.67 67.73 65.84 63.69 63.66 63.20 62.94 62.98 62.92 62.90 63.01 63.00
71.01 71.55 72.16 72.33 72.35 72.98 73.34 73.54 73.51 73.34 73.51 73.45 73.18 72.65 72.60 72.82 72.44 72.11 71.03 69.62 68.07 67.14 65.48 64.19 65.29 65.12 66.23 66.78 66.60 66.31 67.25 68.01 68.08 66.49 63.53 62.74 62.68 62.52 61.98 61.23 60.86 60.11 59.00
71.64 71.55 71.84 72.18 72.70 73.20 73.71 73.76 73.61 73.51 73.38 73.88 74.08 73.63 73.36 73.17 72.85 73.22 71.83 71.23 70.64 68.77 66.97 65.32 65.48 65.07 66.11 67.19 66.06 65.91 65.46 65.74 66.63 67.81 66.97 65.59 64.89 64.00 63.00 61.34 60.99 60.93 58.30
71.31 71.57 71.83 72.17 72.72 73.02 73.13 73.76 73.94 73.61 73.43 73.08 73.64 74.10 74.38 73.66 71.25 71.65 73.27 72.71 71.80 70.24 70.00 67.74 67.12 65.78 65.10 65.46 65.23 67.63 65.23 66.92 67.48 67.54 67.45 67.45 67.54 67.42 67.41 63.93 65.50 64.13 61.14
72.15 71.76 71.59 71.84 71.98 72.47 68.26 67.60 72.12 73.76 74.02 73.53 73.00 73.35 73.97 71.76 71.17 67.95 67.37 68.37 71.82 71.46 70.68 69.77 69.15 68.76 69.28 68.12 67.51 66.46 65.63 65.15 64.50 68.05 66.23 66.08 67.91 67.09 67.60 68.39 65.72 63.66 61.52
72.84 72.31 71.79 72.01 72.00 72.86 66.07 65.65 67.68 73.73 73.77 73.80 73.82 73.78 73.66 73.90 71.58 74.04 69.09 66.20 66.52 65.74 68.01 72.75 70.84 70.24 70.07 71.27 70.48 67.88 66.46 66.18 66.32 68.72 66.75 65.24 68.13 66.25 67.80 67.43 62.98 62.34 61.44
71.50 72.39 72.72 72.55 71.75 72.23 64.90 63.84 66.12 72.71 73.57 73.82 74.21 74.24 74.06 74.19 74.21 73.54 73.92 73.80 73.60 73.01 70.95 70.02 71.69 72.80 73.84 74.23 72.87 71.17 69.62 68.73 67.75 68.04 67.47 64.00 67.62 66.25 67.59 67.96 62.62 62.09 61.08
71.74 71.46 71.90 72.28 72.52 72.74 62.43 62.24 64.44 72.08 73.21 73.48 74.39 74.67 74.59 74.31 69.23 64.57 73.46 73.25 73.42 74.06 69.23 64.93 65.36 65.41 63.90 62.81 66.15 71.66 68.28 64.45 63.70 65.87 68.64 65.53 66.64 66.46 66.35 66.66 67.54 61.39 60.38
73.16 73.26 72.58 72.86 69.43 72.40 63.40 60.92 63.09 71.91 71.86 72.45 74.01 74.71 66.28 71.75 64.97 62.15 71.38 73.22 72.64 73.48 73.99 74.07 73.08 67.73 64.71 67.73 62.57 66.39 69.09 67.80 67.19 65.53 69.36 65.19 66.51 66.01 64.21 66.84 68.13 68.33 65.59

GFSMA_sfc_wetblb_045.txt.gz
Wetbulb
75.86 76.07 75.66 75.37 75.92 76.57 75.53 75.64 75.19 74.19 74.18 73.40 74.41 74.88 74.69 74.37 73.49 74.37 75.73 73.88 74.09 73.36 72.99 74.56 74.86 74.40 73.78 73.85 74.15 73.77 73.38 73.37 72.48 71.89 72.36 72.48 72.26 72.59 72.24 72.57 72.15 72.26 72.45
76.66 77.00 77.05 75.64 76.21 76.99 76.55 76.04 74.19 73.40 73.69 74.57 74.52 74.91 74.80 74.60 73.93 74.16 74.94 75.62 73.98 73.58 73.87 72.69 72.98 73.27 73.66 73.25 72.87 72.86 73.33 73.57 73.12 72.90 72.93 72.66 72.75 72.82 72.85 72.62 73.15 73.43 73.01
76.20 76.57 76.73 77.36 76.10 76.00 75.44 76.98 75.64 74.83 73.34 74.05 74.60 74.55 74.66 74.33 73.72 73.69 74.91 75.61 75.38 74.07 73.41 73.30 73.59 73.08 72.73 72.57 72.86 72.99 73.15 73.08 72.73 72.63 73.11 73.53 73.15 72.67 72.91 73.19 73.24 72.81 72.69
75.97 77.47 76.83 76.38 76.24 75.83 76.24 76.21 75.42 73.61 71.53 72.85 73.37 73.72 74.09 74.28 73.70 73.63 74.58 74.76 75.35 75.17 74.80 73.59 73.72 74.17 73.97 73.83 73.71 72.91 72.42 72.31 72.00 72.29 72.67 73.52 72.88 73.23 73.14 72.69 72.71 72.67 72.62
76.19 77.36 76.95 76.54 76.75 76.51 76.29 75.94 75.64 75.76 72.91 72.21 71.95 72.96 73.78 73.87 73.62 73.00 74.25 74.53 75.01 75.36 75.71 74.36 73.81 73.77 73.90 73.56 73.99 73.96 74.15 74.13 74.24 74.21 73.94 73.84 73.69 73.14 72.56 72.69 72.47 72.32 72.33
76.67 76.94 76.78 76.79 76.71 77.30 75.53 75.27 73.14 71.83 74.17 73.37 69.77 68.73 72.85 73.87 74.46 73.66 74.13 74.29 74.56 74.69 75.60 75.96 75.83 74.85 73.36 73.84 73.91 73.68 73.75 74.17 73.79 73.77 73.76 73.70 73.45 72.79 72.44 72.60 71.66 71.91 72.09
77.00 77.40 76.68 76.40 76.47 75.87 76.04 75.53 73.04 71.92 70.59 71.68 70.25 69.86 70.50 72.18 72.87 73.41 74.45 74.47 73.91 74.59 75.05 75.66 75.36 75.13 74.47 72.81 73.55 73.51 73.16 73.30 73.24 73.42 73.45 73.57 73.00 72.63 71.86 71.84 71.59 71.40 71.59
77.58 77.61 77.07 76.41 76.38 75.55 76.25 75.46 74.36 71.03 71.22 71.50 69.67 69.57 66.52 68.42 71.27 72.54 73.18 73.18 73.93 74.93 74.88 74.60 75.19 75.05 75.20 74.85 73.58 72.53 72.77 72.96 72.91 73.09 72.53 72.24 72.43 72.26 71.77 71.27 70.32 69.57 69.50
77.31 78.07 77.21 76.55 76.30 77.51 77.78 76.51 74.78 72.34 69.65 71.99 70.95 69.69 65.68 65.22 68.78 70.77 71.13 72.44 73.54 73.45 74.31 74.47 74.38 74.71 74.70 74.82 73.41 72.68 72.81 72.21 72.40 72.03 71.88 71.62 71.62 71.45 70.78 69.28 67.79 67.41 67.09
76.72 77.50 78.09 77.29 77.81 76.33 77.12 76.03 75.76 74.08 72.54 70.30 71.46 72.03 70.97 70.16 66.93 66.02 69.61 71.07 72.19 72.47 73.28 73.50 73.42 73.68 74.40 74.00 72.60 71.78 71.05 72.10 71.69 71.62 71.06 70.68 70.47 69.70 68.17 66.69 66.68 66.44 66.34
76.64 76.81 77.58 77.40 77.77 77.25 77.45 76.71 76.21 75.42 72.73 71.47 71.40 72.13 72.59 71.29 70.29 68.21 66.74 68.80 70.00 71.10 72.06 73.16 72.88 73.22 74.44 74.19 73.82 72.82 70.51 71.71 71.39 71.05 69.77 68.63 67.91 67.37 67.06 66.80 66.59 66.57 66.59
75.64 76.66 77.03 77.51 77.56 77.08 76.93 76.72 77.48 76.61 75.38 73.72 71.66 72.24 71.62 70.94 70.30 69.05 67.77 69.48 68.82 71.20 71.66 72.34 72.54 72.61 73.53 74.16 74.34 72.51 69.95 70.31 70.18 69.70 69.50 69.83 69.27 68.09 67.74 67.66 67.52 67.37 67.48
74.41 75.78 76.94 77.03 76.89 77.68 77.66 77.26 77.25 76.74 76.15 74.89 74.65 71.50 71.49 70.98 71.91 71.68 69.83 69.50 68.51 71.41 71.11 71.77 72.33 72.73 72.85 74.03 74.25 72.64 71.74 69.22 69.01 68.01 67.69 68.29 69.24 70.48 70.65 70.12 69.47 69.28 69.31
74.06 76.61 76.83 77.03 77.19 77.47 77.47 77.47 76.39 76.15 76.63 75.80 75.77 75.69 74.01 72.97 71.33 70.87 69.90 68.75 67.31 69.37 70.75 71.70 73.29 72.65 72.91 73.45 74.44 72.39 72.81 68.75 68.06 66.95 66.23 66.68 67.43 68.35 69.26 70.07 70.64 71.10 70.95
74.13 76.01 76.68 76.75 76.95 77.14 77.41 77.66 76.20 76.65 76.42 76.56 76.32 76.37 75.25 74.62 73.58 72.62 71.41 70.72 69.06 66.44 67.16 71.30 70.99 73.59 73.08 73.33 73.69 74.38 74.22 70.64 67.63 67.02 65.51 65.00 65.63 66.72 67.56 68.14 68.32 68.53 68.66
75.03 75.40 76.47 76.75 76.97 77.14 77.30 77.40 76.58 77.19 77.06 76.52 75.93 76.16 76.09 74.97 74.75 73.89 72.96 72.06 71.17 69.26 67.19 71.10 71.20 72.68 73.37 72.15 72.81 72.78 73.47 70.78 68.39 66.76 65.80 64.89 64.65 65.46 66.18 66.72 66.86 67.17 67.26
75.44 75.75 76.44 76.61 76.55 76.72 77.16 77.24 76.97 76.89 76.59 76.88 76.91 76.18 76.32 76.95 75.37 74.79 74.13 73.24 72.06 70.91 68.41 69.94 71.70 72.68 73.04 73.42 73.25 72.89 72.87 73.29 72.52 66.46 65.70 65.11 64.09 64.23 65.00 65.37 65.47 65.60 66.08
75.67 76.00 76.22 76.21 76.52 76.56 76.80 76.68 76.06 76.15 76.45 76.13 76.54 76.60 76.12 75.82 76.22 76.36 75.27 74.88 73.59 73.70 70.67 71.26 72.56 71.58 72.62 73.99 73.96 73.70 72.67 72.16 72.54 69.33 65.33 64.32 63.86 63.48 63.22 63.54 63.46 63.48 63.18
75.68 75.32 75.61 75.85 76.04 76.33 76.38 76.67 76.59 76.60 76.47 76.55 76.75 76.71 76.57 76.71 76.04 75.70 75.86 75.07 74.84 74.45 73.48 71.34 71.03 72.21 71.66 71.58 72.39 73.14 72.58 73.44 72.49 69.65 65.34 63.86 63.22 62.87 62.46 61.72 61.41 60.47 59.37
75.83 75.57 75.77 75.91 76.00 76.30 76.47 76.41 76.55 76.59 76.74 76.69 77.00 77.03 77.03 76.97 76.64 76.64 76.18 76.14 76.02 75.19 75.11 73.09 72.31 72.41 72.90 74.52 72.75 70.66 70.72 72.30 71.48 72.04 70.29 67.79 66.88 64.89 63.13 61.67 61.48 60.96 58.49
75.98 76.18 75.82 75.77 75.83 75.79 75.57 76.19 76.64 76.63 76.67 76.71 77.14 77.31 77.36 76.25 72.33 73.77 76.24 77.30 76.74 75.05 73.94 72.97 72.28 72.19 72.07 72.21 71.97 72.55 71.72 72.46 73.48 73.38 72.06 72.32 72.36 71.58 70.26 63.91 65.59 63.89 61.20
75.91 76.01 75.51 75.60 75.44 74.95 68.97 67.90 73.84 76.18 77.00 76.85 76.38 77.02 77.41 73.85 73.12 68.46 67.64 68.46 73.82 77.00 74.91 73.90 73.51 73.21 75.78 74.94 74.85 73.81 73.07 71.98 71.15 75.97 73.53 71.50 72.35 71.60 72.24 72.38 67.96 64.07 61.96
75.61 75.75 75.11 75.39 75.87 76.51 66.27 65.49 67.84 75.45 76.27 76.50 76.90 77.02 76.80 76.69 74.27 76.80 70.77 66.72 67.12 66.03 68.36 75.62 75.56 75.80 76.22 76.52 76.86 75.50 75.72 74.85 73.52 75.03 74.22 72.01 73.78 72.75 72.91 72.70 64.56 63.37 62.65
76.18 75.70 75.51 76.04 75.80 76.43 65.36 63.70 65.58 74.41 76.52 77.31 77.56 77.31 77.63 77.61 77.11 76.14 76.67 76.33 76.77 77.06 75.67 73.58 74.59 75.99 77.47 78.20 78.53 76.88 75.67 74.00 73.10 74.14 75.46 69.57 73.17 72.81 74.49 74.27 65.23 62.64 62.16
74.96 75.40 75.77 75.91 75.97 76.31 63.46 62.67 65.83 74.35 74.96 76.63 77.31 77.59 77.25 77.26 71.02 65.49 75.86 75.54 76.15 76.72 71.82 66.21 67.21 66.25 63.99 62.70 66.07 71.81 70.71 70.59 69.39 71.07 75.50 71.33 72.22 72.79 73.68 73.15 73.82 62.82 60.72
74.95 74.97 74.98 75.94 72.34 76.50 65.17 60.51 64.40 73.86 74.49 74.30 77.01 77.41 67.60 73.00 65.87 62.48 74.72 75.23 75.07 76.06 77.11 77.90 78.04 72.77 68.17 70.52 63.18 68.18 70.86 68.95 68.90 69.14 74.60 72.37 70.89 69.54 67.64 72.93 72.69 71.85 71.74

GFSMA_sfc_wetblb_048.txt.gz
Wetbulb
76.27 76.42 76.34 77.53 77.37 76.83 76.32 76.50 75.45 75.57 75.66 75.39 75.57 75.22 74.76 73.97 73.45 74.54 74.87 74.67 74.31 73.16 74.30 75.08 74.93 74.51 73.74 73.92 74.32 73.78 73.72 73.23 72.26 71.97 72.50 72.32 72.25 72.55 72.50 72.85 72.81 73.37 73.16
78.08 75.69 75.60 77.02 78.06 78.08 76.85 76.38 75.21 74.09 73.32 74.22 75.30 75.15 74.71 74.58 74.50 74.87 74.62 75.35 74.08 73.75 73.16 72.75 73.51 73.64 73.69 73.22 72.86 73.32 73.68 73.51 73.04 72.90 72.86 72.53 72.86 73.04 72.96 73.22 73.32 73.20 72.93
78.40 76.85 75.96 75.87 77.09 77.35 76.99 76.13 75.15 74.63 72.96 73.02 74.68 74.94 74.42 74.94 74.37 74.31 75.28 75.26 74.84 74.27 73.87 73.87 73.05 72.64 72.64 72.53 72.69 73.02 73.05 73.04 72.86 72.69 72.55 73.00 73.24 72.99 72.96 73.25 73.41 72.98 73.02
77.98 78.18 76.03 75.98 77.54 76.24 75.85 74.34 73.24 73.25 73.68 71.65 72.96 73.22 73.59 74.10 74.24 74.42 74.49 75.35 74.53 75.50 74.59 73.82 73.72 73.93 73.70 74.03 73.85 73.12 72.60 72.64 72.50 72.54 72.68 73.78 73.80 73.40 72.82 72.79 72.57 72.94 72.79
78.33 78.70 77.30 77.92 77.50 77.23 77.00 74.40 74.14 73.17 72.58 70.97 71.15 72.30 73.05 73.11 73.98 73.25 74.17 75.04 74.09 74.86 75.22 74.59 73.91 73.77 73.65 73.29 73.56 74.05 74.03 74.19 73.93 73.90 73.90 73.89 73.61 73.21 72.73 72.73 72.55 72.40 72.31
78.18 78.27 77.49 77.16 77.07 75.22 75.60 75.67 75.02 74.82 73.92 72.68 70.19 71.42 72.42 73.00 74.65 74.32 73.39 73.62 73.34 74.71 75.03 76.11 75.60 73.82 73.82 73.32 73.94 73.46 73.47 73.88 73.97 73.90 73.91 73.82 73.24 72.86 72.49 72.50 71.64 71.97 72.05
78.55 79.11 77.82 76.22 76.46 75.14 75.36 76.08 74.12 74.34 72.34 73.43 70.46 69.22 70.39 72.71 73.38 74.85 75.22 74.78 73.26 74.05 74.41 74.63 74.66 75.49 74.47 74.07 73.86 73.26 72.79 72.70 72.88 72.94 72.96 73.06 73.07 72.40 71.86 71.80 71.58 71.51 71.26
78.77 78.37 77.85 76.97 77.41 76.26 75.30 75.18 75.68 72.28 72.01 72.78 70.10 69.68 66.30 69.17 71.54 73.43 74.76 74.02 74.20 74.81 74.39 74.50 74.56 75.04 74.35 74.25 73.59 72.34 72.46 72.44 72.57 72.84 72.43 72.07 72.17 72.15 71.91 71.24 70.42 69.48 68.68
78.75 78.97 77.72 77.67 76.35 76.89 74.73 75.85 75.85 74.38 70.56 72.43 73.45 70.88 66.89 66.39 69.32 71.47 72.47 72.74 73.89 73.14 74.91 74.70 74.71 74.27 75.02 74.84 73.22 73.14 72.46 71.71 71.81 71.81 71.93 71.59 71.61 71.78 71.38 69.92 68.06 67.57 66.92
78.33 78.78 78.98 77.84 77.33 78.90 76.81 76.20 76.08 74.62 74.61 70.98 71.76 72.55 72.99 72.19 67.06 66.98 70.66 71.86 72.92 72.65 73.26 73.66 74.07 73.75 74.72 73.87 73.34 71.77 71.02 71.98 71.48 71.55 71.37 70.94 70.87 70.80 69.67 67.72 67.10 66.86 66.92
78.62 78.12 78.87 77.85 77.35 76.29 77.57 77.87 77.41 76.50 73.50 73.13 71.96 71.38 72.63 72.33 72.77 68.57 67.30 69.28 71.41 72.11 72.84 73.40 73.62 73.76 74.19 74.20 74.22 74.29 71.92 71.78 71.71 71.11 70.76 69.34 68.64 68.10 67.44 67.01 66.78 66.79 67.19
77.20 78.42 78.53 78.85 77.84 77.06 77.78 77.15 77.36 77.71 76.42 74.66 73.17 73.61 71.68 71.00 70.98 71.26 69.66 70.71 69.94 72.59 73.66 73.44 73.30 73.28 73.71 74.21 75.20 73.07 71.78 70.55 70.84 70.92 70.72 70.56 69.38 68.55 68.26 67.93 67.74 67.88 68.05
74.65 77.01 78.76 78.88 78.11 78.56 78.41 78.66 77.75 77.57 77.37 75.73 76.15 72.15 72.26 71.96 72.98 71.91 70.91 70.30 70.33 72.98 73.15 73.39 73.57 73.93 73.65 74.02 74.51 73.76 72.42 70.02 69.65 69.00 68.65 68.99 69.91 70.64 70.81 70.43 69.88 69.53 69.64
74.55 76.83 78.24 78.37 78.83 78.93 78.70 78.77 78.34 77.12 77.82 76.83 76.86 76.76 73.68 73.68 73.79 72.33 70.91 70.12 68.42 70.57 72.20 73.10 74.22 74.06 74.49 74.70 75.58 73.33 73.79 69.87 68.81 67.65 66.98 67.18 67.92 68.74 69.82 70.75 71.19 71.51 71.74
75.33 76.27 76.84 77.76 77.89 78.40 78.75 78.95 76.93 77.78 77.84 77.62 77.60 77.59 76.46 74.59 75.24 74.28 73.72 72.48 70.20 67.57 68.97 72.72 71.15 74.96 74.39 74.53 75.32 75.61 75.61 71.26 68.79 67.58 66.22 65.49 65.96 67.01 67.66 68.53 69.04 69.26 69.57
77.15 76.44 76.61 76.79 77.25 78.04 78.34 78.87 77.57 78.15 77.97 77.53 76.53 77.30 77.61 75.35 75.39 75.21 74.52 73.75 72.89 70.85 68.18 71.65 72.11 74.16 75.33 74.74 74.68 75.31 75.13 72.18 69.09 67.70 66.47 65.38 65.01 65.77 66.30 66.94 67.30 67.31 67.71
77.41 77.43 76.81 76.55 77.16 77.88 78.34 78.25 78.22 77.60 77.80 77.96 78.03 77.31 77.51 78.54 76.11 75.20 75.00 74.45 73.72 73.02 70.12 71.17 72.21 74.57 76.07 75.74 75.77 76.24 75.57 75.43 74.26 67.58 67.00 65.97 64.82 64.64 65.08 65.55 65.76 65.84 66.02
77.42 77.60 77.43 77.04 76.97 77.09 78.27 78.16 77.65 77.05 77.25 77.15 77.66 77.77 77.15 76.76 77.58 77.84 75.97 77.01 75.87 76.38 72.36 74.04 75.12 73.16 76.22 77.32 76.11 75.61 75.09 74.55 74.34 70.72 66.38 65.35 64.65 64.19 63.79 63.59 63.60 63.61 63.40
77.36 77.41 77.28 77.25 77.03 76.84 77.79 78.30 78.14 77.76 77.50 77.56 77.77 77.65 77.60 77.98 77.61 77.03 76.81 75.94 75.86 76.08 76.23 74.47 73.81 74.52 74.57 75.49 76.17 77.66 76.73 76.97 75.20 71.72 66.31 65.13 64.15 63.77 63.07 62.41 61.67 60.81 59.73
77.16 77.37 77.75 77.29 77.36 76.93 76.95 77.67 77.76 77.76 77.53 77.70 78.27 78.24 78.16 78.42 78.31 78.47 78.14 77.97 77.76 76.96 76.94 74.94 73.82 73.23 73.42 76.29 75.30 73.93 73.74 75.33 75.06 75.97 73.36 69.44 68.38 66.56 64.20 62.30 61.88 61.65 58.92
77.55 77.88 77.62 77.36 77.66 76.78 76.13 77.03 77.06 76.93 77.38 77.64 78.14 78.65 78.78 77.42 73.25 74.72 77.89 79.79 80.02 77.31 75.42 74.18 73.39 73.60 73.55 74.08 75.31 75.41 74.88 75.65 77.31 77.30 76.56 77.04 76.65 76.09 75.06 64.53 66.85 64.58 61.91
77.93 77.80 77.54 77.53 77.08 76.53 69.23 67.60 73.28 76.22 77.13 77.21 77.38 78.09 79.00 75.20 74.27 69.20 68.40 68.75 73.04 77.64 78.67 75.75 74.44 74.20 78.20 77.14 76.55 75.46 74.95 74.12 73.59 78.83 78.27 76.65 78.03 76.96 77.20 77.20 69.96 65.57 62.72
78.13 77.76 77.53 77.80 78.29 78.35 66.77 65.41 67.77 75.92 75.94 77.03 78.06 77.55 77.28 76.61 75.45 78.30 70.86 67.61 68.28 66.92 67.95 75.36 75.68 76.44 77.69 78.45 79.44 78.59 77.87 77.56 76.37 77.89 78.07 75.40 77.03 76.55 77.63 77.35 66.54 64.24 62.43
78.46 77.98 77.58 78.73 79.00 78.60 66.25 63.90 65.90 76.17 76.91 77.58 78.05 78.05 78.59 78.52 77.92 77.03 77.73 77.44 77.63 78.20 77.00 75.39 76.49 76.95 77.09 78.36 79.28 79.34 78.65 77.82 77.31 76.74 77.17 73.07 76.33 75.86 77.37 77.82 68.05 65.02 62.68
77.95 77.85 77.80 78.74 78.85 79.10 63.99 63.06 66.51 75.92 75.91 77.59 77.66 78.47 79.14 78.93 72.08 65.58 77.08 76.63 76.94 77.36 71.90 65.26 66.66 66.85 65.67 64.53 68.40 75.47 73.05 73.37 72.36 75.20 77.68 74.85 76.02 76.11 76.55 76.42 76.54 67.40 62.09
77.55 77.44 77.49 78.56 74.18 78.54 65.34 61.02 66.57 75.82 76.14 75.43 78.49 79.65 68.04 73.47 66.14 62.21 76.58 76.19 75.86 76.02 77.37 78.50 79.96 71.62 67.48 73.56 64.35 73.33 75.12 72.01 72.58 71.37 76.92 73.56 74.07 73.64 70.74 74.18 73.82 73.78 73.73

GFSMA_sfc_wetblb_051.txt.gz
Wetbulb
75.33 75.42 76.18 74.21 74.27 75.76 74.62 74.80 74.23 75.74 73.86 74.02 74.74 73.84 72.98 73.25 74.11 73.75 74.25 75.06 74.08 74.88 75.58 75.22 75.29 74.15 73.78 74.17 74.09 73.58 73.63 72.81 72.29 72.59 72.90 72.81 72.87 73.05 73.15 73.05 73.31 73.42 73.06
78.30 76.08 75.90 75.73 76.50 72.14 74.31 74.97 75.19 74.45 74.68 73.03 73.66 72.73 73.80 73.43 74.18 73.86 74.98 74.91 75.41 74.39 73.45 73.84 73.59 73.89 73.64 73.34 73.04 73.52 73.87 73.41 72.99 72.60 72.57 72.76 72.86 72.68 72.92 73.18 73.41 73.25 73.13
77.70 78.02 76.50 76.10 75.86 76.75 76.31 75.29 74.50 74.99 72.76 73.98 71.44 74.43 72.93 74.65 73.67 74.06 73.81 73.41 74.67 75.04 75.15 74.11 73.23 72.74 72.74 72.55 72.55 72.71 72.80 72.70 72.62 72.28 71.96 72.03 73.01 73.16 73.08 73.24 72.92 72.95 72.95
77.44 77.97 75.97 75.02 76.78 76.88 75.78 73.80 71.51 73.58 73.56 72.51 72.25 71.47 73.50 73.43 73.63 74.01 74.07 74.59 75.18 74.78 74.47 75.01 74.74 74.19 73.77 73.88 73.91 73.50 72.90 72.62 72.66 72.73 72.95 73.41 73.82 73.52 73.40 72.86 72.98 72.92 72.83
77.92 75.88 75.48 76.47 77.38 76.71 74.02 75.14 72.65 72.18 73.47 71.79 70.27 72.08 73.63 72.49 73.97 72.48 73.40 73.92 73.33 74.25 74.97 75.58 74.87 74.43 74.21 73.81 73.67 73.88 74.21 74.39 74.27 74.08 73.81 73.73 73.51 73.43 73.30 72.82 72.70 72.41 72.49
78.06 78.64 76.64 76.64 76.95 74.70 74.68 73.75 75.48 72.71 72.32 70.29 69.57 70.84 72.17 72.55 72.58 72.70 72.20 72.48 72.70 73.32 74.11 75.69 74.52 74.31 75.04 74.06 74.21 73.99 73.71 73.95 74.17 74.11 74.26 74.18 73.59 73.00 72.68 72.49 71.76 71.85 71.89
77.98 78.49 75.92 76.83 77.01 75.90 77.02 75.55 73.82 73.87 71.54 72.90 70.20 68.86 69.89 71.26 72.03 71.84 73.15 72.38 72.30 72.56 73.22 73.33 74.57 75.22 73.74 75.20 74.26 74.01 73.40 73.06 73.08 73.10 73.34 72.93 73.31 72.69 72.33 71.85 71.66 71.29 70.83
78.38 77.24 77.74 77.28 74.71 75.86 76.51 75.66 76.20 73.28 70.93 74.09 72.81 68.48 66.66 71.06 70.95 72.06 72.52 72.18 72.53 72.96 72.99 73.76 73.02 73.51 74.50 74.31 75.60 73.39 72.41 72.35 71.75 72.11 72.44 72.10 71.91 71.97 71.81 71.64 70.82 69.43 68.22
78.47 78.63 77.66 78.30 77.28 77.64 74.22 76.22 75.64 76.87 71.31 71.54 74.33 72.12 67.69 64.82 69.60 70.80 72.07 71.99 73.12 72.48 73.41 73.40 73.74 73.53 73.87 74.28 73.20 73.12 72.83 71.60 70.94 71.21 71.73 71.67 71.65 71.56 71.39 70.65 68.94 67.71 66.83
78.32 78.27 78.30 77.95 77.64 76.59 77.73 76.63 76.49 76.94 75.49 71.61 70.84 71.84 74.81 72.37 69.56 67.88 70.21 71.37 72.49 72.08 73.09 73.01 73.35 73.66 74.43 73.77 74.00 73.66 73.35 72.03 71.36 71.20 71.25 71.26 71.11 71.42 71.07 69.39 67.74 67.52 67.23
78.53 78.17 78.21 78.36 78.29 76.55 77.85 77.38 77.35 77.17 73.75 75.22 72.49 70.66 72.72 71.24 73.74 69.83 67.93 69.23 71.52 71.80 72.53 73.56 73.07 73.25 74.71 74.09 73.83 74.49 72.28 72.41 72.41 71.90 71.57 70.69 69.82 69.50 69.04 68.06 67.47 67.50 67.74
76.98 78.69 78.39 78.65 78.60 78.14 78.06 77.50 77.81 77.65 77.69 75.96 74.51 73.94 71.58 69.92 69.80 69.85 69.26 70.60 69.50 71.56 72.65 72.83 73.31 73.18 73.54 74.40 75.17 72.58 72.46 71.05 70.96 71.55 71.90 72.00 71.39 69.85 69.05 68.64 68.24 68.28 68.58
74.25 78.81 79.91 79.63 77.98 78.55 78.53 78.62 78.76 78.20 77.27 75.98 76.68 72.86 72.38 72.37 72.33 71.60 70.19 69.54 69.49 71.66 72.33 73.29 73.51 74.10 73.71 74.33 74.84 74.57 73.01 70.51 69.68 69.48 69.56 69.95 70.47 71.04 71.19 71.08 70.60 70.07 69.74
74.59 80.38 78.68 78.45 78.78 78.97 78.27 79.61 77.44 76.76 78.51 76.52 76.96 78.07 74.35 72.93 73.27 72.71 70.98 70.34 69.04 70.23 72.11 72.99 73.64 74.08 74.60 74.83 75.23 73.31 74.03 69.84 69.15 67.99 67.69 67.97 68.42 69.12 70.05 70.83 71.05 71.06 71.29
75.20 77.87 78.33 78.14 78.26 78.22 79.35 80.34 76.63 77.63 79.03 78.02 78.25 77.90 76.17 74.41 74.33 73.91 73.04 72.56 70.50 68.04 69.43 73.83 70.67 75.99 74.05 73.88 75.55 75.87 76.70 71.85 69.14 68.09 66.73 66.23 66.53 67.10 67.92 68.65 69.21 69.55 70.24
79.21 77.64 77.94 77.49 77.88 78.78 78.94 80.68 78.62 79.44 79.02 77.41 75.95 79.86 79.18 76.26 75.81 75.15 74.42 73.76 72.76 70.78 68.43 71.44 72.34 75.06 75.94 74.59 75.61 75.79 75.37 72.46 69.37 68.16 67.18 66.04 65.67 65.92 66.31 66.85 67.30 67.51 68.00
79.99 79.39 78.75 78.21 77.89 77.76 79.12 80.22 79.76 78.94 77.75 79.11 78.84 78.21 78.72 80.16 75.84 74.69 74.84 74.27 73.59 73.01 70.48 71.73 72.84 76.44 79.54 78.62 77.91 77.76 76.24 77.49 75.13 67.70 67.04 66.27 65.33 65.18 65.36 65.44 65.48 65.64 65.97
79.29 79.51 79.26 78.98 78.42 78.08 79.59 79.56 77.83 77.37 77.47 77.46 77.86 78.80 77.14 76.67 79.19 79.54 76.65 79.65 76.82 77.92 73.03 74.91 75.10 74.59 77.65 79.01 78.75 79.12 75.74 75.87 75.99 72.18 66.76 65.77 65.17 64.55 64.30 64.10 63.67 63.47 63.15
79.74 77.85 79.46 79.56 78.58 78.33 79.17 79.80 79.72 78.67 78.30 78.24 78.33 78.64 78.32 78.93 79.38 77.57 79.02 76.31 75.58 76.68 76.80 74.72 74.62 76.07 76.18 76.47 77.28 79.39 79.04 78.26 77.41 73.29 68.90 65.63 64.91 64.70 64.29 63.29 62.26 61.24 59.87
79.65 79.48 80.03 79.90 79.10 78.78 78.56 78.40 78.94 79.12 79.06 78.21 79.17 79.26 79.13 79.13 79.69 80.16 78.70 79.92 78.61 77.45 76.48 74.97 74.48 75.20 75.66 78.28 76.76 75.32 75.66 77.06 77.27 77.57 75.21 72.03 70.01 66.67 64.78 62.96 62.53 62.37 59.31
79.81 80.33 80.11 80.01 79.75 77.97 76.78 78.27 79.13 79.16 79.26 78.68 79.07 79.13 79.29 78.22 73.51 75.96 77.76 79.37 79.52 77.97 75.45 74.70 74.13 74.22 73.90 74.54 75.63 76.33 75.51 77.15 78.21 77.74 77.37 78.76 78.37 78.74 75.24 65.63 67.28 65.31 62.17
79.86 80.12 79.91 79.86 79.14 76.92 69.92 68.01 75.13 78.11 78.96 79.11 78.94 79.69 80.05 75.14 74.34 69.71 69.05 69.27 73.50 77.61 78.93 75.72 74.34 74.11 76.67 76.55 76.84 75.75 75.45 74.21 73.97 78.84 78.96 78.40 78.63 77.43 78.59 78.17 72.07 65.51 62.88
79.98 79.97 79.84 80.04 79.53 79.69 66.72 65.59 68.05 76.63 77.88 78.48 79.17 79.45 78.62 76.64 75.94 79.49 71.38 68.80 69.13 67.16 68.44 76.33 76.06 76.39 76.45 78.13 78.78 77.94 76.47 77.28 77.22 78.11 78.35 75.84 78.17 77.03 78.83 78.05 69.73 66.64 62.64
79.35 79.41 80.00 80.25 80.03 79.94 66.91 63.50 66.02 77.06 77.15 78.07 79.45 79.68 79.77 79.36 79.60 78.61 79.45 78.97 78.42 79.07 77.58 75.55 76.74 77.57 78.80 79.62 79.50 78.54 79.00 78.83 78.27 77.87 79.52 74.19 77.13 76.96 78.20 78.61 69.50 65.67 63.80
79.57 79.56 80.17 80.34 80.20 80.18 65.11 62.99 66.26 76.75 76.42 77.93 78.81 79.04 79.24 79.58 73.17 66.45 77.96 77.41 78.08 78.61 72.20 65.36 65.80 66.52 65.83 64.00 67.85 75.18 75.09 74.65 73.94 75.25 78.20 76.33 76.58 76.12 76.19 75.00 75.62 67.09 63.51
79.77 78.91 79.43 80.53 76.21 80.50 65.84 61.54 66.29 76.31 76.38 75.93 78.50 79.35 69.08 74.37 67.41 62.53 77.54 78.09 77.23 78.15 78.26 78.48 79.22 74.99 68.60 73.05 64.75 72.93 75.57 73.62 73.82 72.65 78.66 74.53 75.09 74.40 71.23 74.03 74.36 74.35 73.46

GFSMA_sfc_wetblb_054.txt.gz
Wetbulb
76.24 77.81 72.38 72.30 75.59 72.86 73.79 72.36 75.44 73.75 73.73 73.23 73.74 72.37 72.25 73.18 73.75 72.93 73.10 76.38 76.56 76.38 75.41 75.33 74.49 74.00 74.02 74.37 73.88 73.86 73.50 72.52 72.78 72.97 73.09 73.01 73.25 73.29 73.28 73.43 73.54 73.65 73.28
77.26 78.18 77.34 72.98 74.36 72.82 74.49 70.88 75.31 74.87 71.43 73.35 72.45 72.22 71.69 73.92 74.23 73.48 73.74 74.13 75.57 75.97 76.28 75.39 74.36 73.98 74.43 73.92 73.53 74.01 73.80 73.04 72.77 72.10 72.15 72.98 73.37 73.30 73.41 73.43 73.47 73.25 73.34
79.90 77.20 78.02 72.25 71.73 75.59 77.85 77.12 75.77 70.63 74.04 72.64 71.84 72.38 74.54 73.99 73.88 73.79 73.10 73.57 74.58 75.61 75.59 75.20 74.31 73.79 73.24 72.67 72.64 72.58 72.44 72.51 72.31 72.16 72.21 72.39 73.32 73.42 73.47 73.04 73.22 73.27 73.08
79.94 77.39 76.56 76.45 76.06 76.39 72.10 70.05 70.97 73.38 70.83 72.67 73.00 71.10 71.33 73.23 73.56 73.66 73.93 73.62 73.79 73.95 75.65 75.96 75.42 74.66 73.84 73.89 73.87 73.45 72.95 72.81 73.14 73.17 73.45 73.67 73.98 73.90 73.48 73.18 72.97 72.75 72.71
76.48 74.84 73.97 77.89 72.46 71.58 73.36 75.04 74.15 73.25 74.04 71.07 69.48 71.16 72.97 71.40 70.67 72.06 73.35 73.90 74.64 73.33 73.60 75.92 76.10 75.79 74.67 74.42 74.22 74.16 74.30 74.22 74.56 74.42 73.85 73.83 73.65 73.74 73.59 73.19 72.90 72.31 72.42
76.22 75.14 75.21 77.73 78.15 71.72 71.86 74.76 71.91 71.22 73.35 70.52 68.99 71.79 71.50 72.13 72.28 72.68 71.97 72.20 73.00 74.54 73.61 73.51 74.21 73.47 75.41 75.19 74.79 74.19 73.86 73.90 74.35 74.69 74.87 74.86 74.68 73.59 73.21 72.85 72.07 71.70 71.53
77.51 73.35 74.96 77.09 76.01 75.26 72.72 77.51 74.41 73.73 72.36 70.47 70.70 69.57 70.49 71.69 71.37 72.43 72.34 71.06 71.67 73.47 73.93 74.81 74.01 74.54 73.42 75.61 75.14 74.80 73.72 73.20 72.96 72.65 72.75 73.16 73.21 72.97 72.60 71.92 71.75 71.16 70.54
79.21 78.01 76.67 77.35 73.12 75.78 77.83 76.96 75.07 74.79 72.01 74.13 71.23 71.44 66.18 69.40 69.95 69.73 72.49 71.76 71.18 72.46 72.51 72.90 74.10 74.47 73.85 72.36 73.55 75.06 73.96 73.48 72.45 72.25 71.96 72.10 71.81 71.93 72.10 72.01 71.34 70.39 69.38
79.10 78.15 78.58 77.99 79.40 77.57 76.50 77.34 77.21 73.97 72.59 71.51 72.12 72.07 65.36 64.61 67.43 71.08 71.23 71.92 71.67 71.55 72.65 72.33 73.03 72.81 72.34 73.37 74.93 74.04 73.40 72.71 72.79 71.60 71.73 71.93 71.99 72.00 72.03 71.74 71.17 70.07 69.09
78.06 79.32 79.36 78.64 78.13 75.85 75.32 77.73 77.48 75.04 71.63 72.74 71.79 73.67 73.06 71.73 66.23 66.40 70.85 71.54 71.51 71.33 71.96 73.12 72.21 73.02 73.52 72.78 75.06 73.55 73.18 72.50 72.46 72.33 71.96 71.85 71.87 71.94 72.02 71.61 70.65 69.63 69.21
79.83 79.03 79.13 79.75 78.95 77.70 78.10 78.13 78.17 77.49 76.94 74.47 71.53 71.80 72.12 72.04 73.36 69.26 65.87 69.18 71.03 72.15 72.75 72.49 72.69 72.69 73.45 73.12 73.12 72.38 72.72 71.76 71.68 72.22 72.64 72.74 72.14 71.15 71.06 70.70 69.83 69.54 69.10
78.05 79.05 78.40 79.81 80.17 78.54 77.68 77.86 78.92 78.60 77.86 76.63 74.01 74.69 68.48 70.86 71.17 70.28 69.20 70.18 69.79 70.86 72.31 72.79 72.30 72.17 73.73 73.38 74.58 73.98 72.70 71.42 71.00 71.07 71.56 72.33 72.54 71.84 70.43 69.99 69.45 68.91 68.72
75.32 77.42 78.63 79.00 78.30 79.31 78.89 78.84 78.87 78.79 78.43 77.13 76.54 75.29 71.52 71.55 70.13 72.29 70.20 70.37 68.93 71.27 71.76 73.03 73.69 73.66 73.56 73.73 74.17 73.14 72.75 70.62 69.73 69.33 69.43 70.22 71.14 71.49 71.71 71.66 71.53 70.80 70.16
75.71 77.74 78.55 77.89 79.03 79.20 78.96 79.15 77.49 77.25 77.95 77.49 77.61 77.72 76.10 75.16 73.57 73.60 71.79 70.84 68.67 70.60 73.01 72.02 73.85 74.18 74.42 74.18 75.42 73.90 72.25 69.72 68.97 68.03 67.77 68.11 68.73 69.31 69.96 70.60 70.80 70.96 71.17
76.71 77.76 78.27 78.88 78.80 78.59 78.23 78.88 77.15 77.32 78.46 78.38 77.54 78.21 77.27 75.44 75.31 74.50 74.48 72.88 71.46 67.42 68.94 72.22 71.27 74.20 73.56 73.64 75.40 73.12 73.42 71.04 68.99 67.91 66.84 66.54 66.75 67.39 67.82 68.36 68.75 69.18 69.74
78.16 77.65 78.09 77.96 78.46 78.96 78.75 78.95 77.66 77.70 78.32 77.24 76.96 77.17 77.42 75.89 76.50 76.31 75.54 75.25 73.72 71.17 68.52 71.98 73.32 74.61 74.60 73.83 75.38 74.94 74.77 72.99 69.58 68.25 67.06 65.98 65.89 66.27 66.56 66.78 67.14 67.32 67.70
80.21 79.08 79.50 78.58 77.78 77.70 78.90 78.95 77.74 77.71 77.23 77.43 78.38 78.38 77.37 77.88 76.86 76.73 76.24 74.88 74.01 74.22 71.09 72.03 74.60 74.57 76.32 76.48 74.84 75.59 76.29 75.10 74.26 67.93 67.00 66.42 65.66 65.66 66.24 66.06 65.72 65.79 66.12
77.99 80.71 78.71 79.58 78.12 77.87 78.11 77.90 77.33 75.95 76.43 76.79 77.24 77.33 77.57 77.28 77.80 77.53 76.72 76.56 76.80 77.76 74.88 72.52 74.18 73.73 74.03 75.38 76.52 77.05 76.09 75.15 74.46 72.84 67.06 65.89 65.13 64.87 64.94 65.03 64.37 64.19 63.42
78.08 77.45 79.19 77.81 78.10 77.09 77.37 77.93 77.82 76.91 76.86 77.31 77.11 77.32 77.00 77.84 77.53 77.41 77.41 75.59 75.13 75.81 75.29 74.14 73.34 76.16 75.99 76.12 74.88 77.25 76.84 75.30 75.49 73.41 69.74 66.81 65.02 64.54 63.99 63.39 63.06 61.80 59.90
77.05 77.48 77.56 78.22 78.01 77.40 76.95 77.74 78.03 77.44 77.20 76.98 77.94 77.30 77.78 77.52 77.34 77.86 77.24 77.17 77.25 76.45 75.58 74.96 73.67 73.46 74.44 75.08 76.37 74.72 74.59 76.29 74.95 76.90 74.55 71.43 69.06 67.25 64.89 63.16 62.78 62.56 59.63
77.06 77.75 77.46 78.09 78.15 77.48 76.80 76.76 77.01 77.55 77.29 77.08 77.36 77.84 77.96 77.32 74.02 75.45 77.56 77.41 77.22 76.58 75.56 74.70 73.96 73.92 73.02 74.23 73.39 74.28 73.88 74.92 74.63 75.11 74.33 78.15 77.68 77.31 74.59 65.91 66.60 66.07 62.94
76.91 77.37 77.56 77.63 77.72 77.39 71.07 68.84 74.53 76.20 77.58 76.97 76.52 77.14 78.30 73.91 73.22 69.59 68.65 69.58 73.11 76.14 75.16 75.49 75.01 73.54 73.53 74.29 74.71 73.51 73.48 72.59 71.33 76.85 77.09 75.90 77.76 76.65 77.35 76.87 70.09 65.32 63.66
76.71 76.94 77.43 77.90 77.51 77.75 67.80 66.62 68.69 75.83 76.15 76.94 77.52 77.24 77.35 77.19 74.08 77.56 70.53 67.95 68.39 67.46 68.96 74.34 73.48 73.44 73.24 74.29 75.21 75.11 74.80 74.46 74.48 77.07 76.19 74.58 76.71 75.83 77.25 77.64 69.35 66.20 64.04
76.23 76.79 77.31 77.84 77.90 78.12 67.78 63.78 66.40 74.12 75.65 76.52 77.06 76.90 77.09 76.97 77.15 77.51 77.35 76.92 75.77 76.06 74.84 72.67 73.02 74.56 75.86 76.86 77.15 76.71 76.18 75.93 75.96 76.53 77.00 73.00 75.60 75.25 77.09 75.82 69.23 66.00 63.30
76.74 76.73 77.46 77.85 77.73 78.01 65.62 64.03 64.91 72.94 74.15 74.76 75.37 75.97 77.25 77.93 72.01 67.90 74.64 74.70 75.18 75.98 71.82 66.86 68.76 68.05 67.66 66.36 68.63 72.22 71.80 71.91 73.12 74.41 76.42 74.67 75.18 74.49 74.38 74.22 74.08 64.86 61.95
76.92 77.33 77.26 77.98 74.69 78.06 66.28 63.02 64.97 74.73 74.00 74.10 75.60 76.29 67.75 72.46 66.95 63.48 74.44 76.04 74.81 75.18 76.26 76.76 76.80 74.56 68.00 70.84 62.97 69.18 72.84 72.68 73.29 72.65 75.49 73.48 73.99 73.76 69.51 71.74 69.16 69.10 68.57

GFSMA_sfc_wetblb_057.txt.gz
Wetbulb
72.46 72.70 72.19 71.58 71.91 72.45 72.28 71.21 70.12 69.28 70.78 72.04 72.33 70.79 70.84 71.18 70.93 72.33 73.15 76.41 76.47 76.02 75.20 74.61 74.59 74.05 74.07 74.07 73.85 73.73 73.01 72.52 73.13 73.24 72.89 72.97 73.08 72.96 73.04 73.14 73.40 73.23 73.17
73.56 72.11 71.01 72.54 72.07 70.87 70.81 70.53 71.75 70.71 70.93 71.65 70.28 70.20 71.02 71.47 71.49 71.48 72.51 74.10 76.72 76.58 76.01 75.32 74.25 74.22 74.98 74.60 73.95 73.81 73.57 72.86 72.57 71.96 72.05 72.50 73.14 73.43 73.50 73.18 73.10 73.03 73.02
73.39 73.55 71.15 71.22 70.01 71.97 72.69 72.12 70.96 70.89 70.37 70.09 69.13 70.06 70.70 71.48 71.73 72.47 72.51 71.84 73.71 76.71 76.74 75.09 74.96 74.81 73.73 73.25 72.81 72.58 72.54 72.57 72.01 71.91 72.55 72.67 73.30 73.93 73.51 73.23 72.91 72.87 72.66
73.30 72.72 72.15 72.05 70.47 72.61 70.12 68.54 67.16 70.06 68.82 68.24 68.64 69.02 69.12 70.61 71.31 71.35 71.84 72.24 72.34 72.20 75.16 75.79 75.39 75.20 73.92 73.55 73.46 73.47 73.31 73.59 73.53 73.52 73.81 73.76 73.71 73.64 73.46 73.15 72.75 72.28 72.29
73.19 71.51 71.47 73.21 71.05 71.82 70.57 69.90 69.05 69.02 69.10 67.63 67.41 68.01 68.61 69.89 71.04 72.29 71.01 71.58 71.48 72.31 72.70 75.64 75.42 75.36 74.63 74.69 74.75 74.48 74.35 75.05 75.02 74.95 74.24 73.74 73.39 73.47 73.32 73.30 72.50 71.82 71.87
72.12 69.43 70.82 72.71 71.03 69.99 68.80 70.10 69.68 68.91 69.91 67.50 68.62 68.61 70.17 68.05 68.19 68.40 70.69 72.70 72.32 71.63 71.33 72.50 73.65 73.85 75.63 75.42 75.25 74.91 74.22 74.34 74.60 74.94 74.95 74.85 74.70 74.43 73.78 73.56 72.91 71.52 71.38
74.13 72.49 71.70 72.61 71.10 69.55 67.49 71.51 68.56 68.00 68.12 68.72 63.78 65.42 64.66 67.69 68.53 68.25 68.81 68.93 71.26 71.95 70.98 71.03 71.78 71.08 72.61 75.60 75.31 75.38 74.27 73.84 73.81 73.49 73.74 73.38 73.48 73.68 73.38 72.91 72.49 71.35 70.69
73.66 71.93 71.54 72.90 71.60 71.35 71.92 71.03 70.92 68.70 69.25 67.25 65.11 67.05 63.03 63.73 68.09 66.74 67.49 68.19 68.21 71.50 71.81 72.49 71.60 71.34 70.01 71.41 72.21 75.32 75.30 74.25 72.87 72.63 73.32 73.30 72.94 72.76 72.74 72.60 72.23 71.53 70.42
74.76 75.20 74.08 73.95 72.16 72.10 70.95 70.88 71.16 70.49 66.45 66.92 67.94 66.25 61.36 61.75 63.39 66.55 65.17 67.00 66.22 67.72 68.78 69.89 72.13 71.79 70.88 70.31 72.44 74.08 74.78 72.74 73.51 72.23 72.35 72.66 72.84 72.71 72.64 72.48 72.13 71.23 70.00
74.71 75.09 73.50 73.43 73.24 73.56 72.48 71.91 73.03 70.95 67.62 67.38 65.59 69.10 67.34 66.70 63.00 60.91 66.34 66.78 66.63 68.47 67.98 68.03 69.28 69.50 68.90 70.46 73.86 73.45 73.28 72.05 72.56 73.06 72.58 72.45 72.65 72.14 72.29 72.22 72.23 70.98 70.05
74.70 74.89 74.54 74.28 73.05 71.99 71.63 72.18 72.49 71.52 71.54 69.52 65.85 66.43 65.11 66.48 68.47 65.58 61.78 63.85 66.05 66.90 67.65 67.62 68.57 69.02 69.27 69.15 70.00 71.40 72.63 71.94 71.65 72.29 73.00 73.34 73.02 71.94 71.47 71.62 71.60 70.65 69.34
74.88 75.60 74.97 74.35 73.66 73.18 73.06 72.45 73.31 71.90 71.46 71.98 70.04 70.16 65.74 65.89 66.97 66.22 64.27 64.26 63.67 65.33 67.87 67.92 67.69 69.68 70.06 69.38 72.39 72.73 73.28 71.62 70.53 70.69 71.26 72.10 72.98 72.67 71.41 71.17 71.03 70.51 69.59
72.77 73.93 74.03 74.95 74.48 73.97 73.33 73.44 73.13 73.02 72.77 71.67 71.61 70.90 69.74 67.88 66.84 68.22 65.73 64.61 64.54 65.71 66.05 67.77 68.70 67.73 70.42 70.29 70.40 73.54 73.21 70.76 69.53 68.67 68.84 69.76 70.91 71.77 72.56 72.66 72.42 72.01 71.33
73.17 74.40 74.35 74.53 73.66 74.63 74.60 74.09 72.74 72.84 73.26 72.10 71.76 72.36 71.12 70.86 70.48 67.69 65.81 64.68 63.02 64.67 67.70 65.36 68.93 69.22 68.95 70.12 71.60 73.36 70.69 69.71 68.86 67.83 67.33 67.80 68.36 69.18 70.03 70.76 71.16 71.23 71.49
73.42 73.80 75.27 74.55 74.98 74.55 74.69 74.55 72.56 73.27 73.39 73.33 71.75 71.47 72.29 71.66 71.37 70.79 68.56 66.73 65.66 61.91 62.76 67.29 67.77 69.78 69.90 70.31 71.73 71.28 69.83 70.09 68.83 67.88 66.50 66.06 66.57 67.44 68.11 68.73 68.87 69.19 69.36
71.89 74.15 75.54 74.71 75.38 74.68 73.76 74.74 72.44 73.48 72.90 73.29 73.47 72.85 72.16 72.13 71.24 72.81 69.88 69.95 68.30 65.47 63.02 67.02 67.71 70.30 71.08 71.64 72.55 70.52 70.29 71.47 70.07 67.90 66.86 66.04 66.07 66.56 67.11 67.65 67.49 67.47 67.87
74.25 75.13 75.48 74.83 75.10 74.85 74.67 73.98 72.80 73.75 72.82 73.09 73.65 72.46 72.79 72.91 72.25 72.39 73.73 72.19 69.16 68.77 65.74 66.88 69.93 70.61 70.54 71.08 72.04 71.37 71.66 71.54 71.21 68.02 67.28 66.38 65.78 65.82 66.24 66.58 66.72 66.42 66.37
71.97 74.73 75.46 74.88 74.20 73.78 74.57 73.92 73.63 73.57 72.91 73.39 73.21 72.74 72.74 74.84 72.84 72.31 73.10 71.95 72.07 72.39 69.99 67.24 69.18 69.64 70.49 71.87 71.78 71.94 73.89 75.29 72.69 72.04 68.24 66.45 65.30 64.80 64.62 64.56 64.89 64.54 63.68
71.58 73.97 74.66 74.55 74.53 74.43 73.66 74.04 74.19 73.89 73.15 73.35 73.48 73.53 73.14 72.61 72.90 73.65 72.47 72.17 71.69 71.96 72.12 70.48 69.78 71.77 72.74 72.90 72.12 71.82 73.73 74.28 74.58 72.52 68.70 67.47 66.74 65.35 64.25 62.79 62.31 61.67 60.29
74.30 73.40 75.10 74.31 74.50 73.74 74.18 74.20 74.70 74.37 73.70 73.52 74.55 74.15 74.18 74.14 73.39 73.46 73.86 73.34 73.09 72.51 71.85 71.09 70.69 70.49 70.71 72.46 72.12 71.63 70.56 71.91 72.17 75.16 73.17 70.33 70.69 69.77 66.05 63.23 62.69 62.31 59.92
72.48 74.06 73.98 74.84 74.52 74.77 74.43 73.61 74.78 74.85 74.25 73.88 73.32 74.18 74.43 74.23 73.39 73.05 74.90 73.99 74.04 73.05 72.57 72.05 71.12 70.89 70.09 70.35 70.01 71.62 70.34 69.97 71.00 71.87 71.48 75.47 75.35 75.95 75.03 70.10 67.83 66.59 63.09
74.09 73.45 73.69 74.06 74.61 75.65 70.52 69.13 72.73 74.32 74.90 74.45 73.96 73.64 74.60 73.03 72.31 69.67 69.41 70.45 73.73 73.60 72.60 71.94 71.30 70.88 70.33 70.33 71.26 70.46 69.86 70.29 68.80 73.28 74.86 74.60 74.82 74.83 75.72 75.88 69.79 66.23 63.78
71.75 73.83 74.30 74.48 74.34 75.25 67.99 67.38 69.08 73.83 73.41 74.55 74.49 74.27 74.23 75.67 72.51 74.30 69.75 67.54 67.47 66.81 68.53 72.07 70.61 70.94 70.78 70.96 71.40 70.97 71.46 71.69 71.81 74.40 74.46 72.90 74.06 73.43 74.93 75.72 69.40 64.63 61.03
72.02 72.42 73.68 74.55 74.55 75.17 67.69 65.49 67.07 72.16 73.23 73.40 74.60 74.88 74.38 74.18 73.48 72.96 73.45 73.56 72.32 71.65 71.03 70.49 70.33 72.33 72.94 73.46 73.24 73.61 73.40 73.54 74.52 72.86 74.04 70.99 72.89 73.05 74.70 73.95 66.64 62.44 59.69
73.25 73.03 74.08 74.48 74.82 75.16 65.78 64.60 64.91 68.54 71.47 72.47 73.60 74.24 74.52 74.27 70.40 66.82 72.07 72.41 72.91 74.15 71.39 66.13 66.98 66.77 66.33 65.53 68.55 71.19 71.56 72.36 69.49 71.82 73.85 72.46 72.40 72.11 72.96 70.86 66.42 62.52 60.08
73.01 74.15 73.59 74.66 72.61 75.21 66.13 63.60 64.56 72.25 69.38 70.88 71.86 72.00 67.00 71.88 67.63 64.82 71.70 72.20 70.70 71.50 71.67 72.51 72.66 68.10 65.20 67.43 63.70 68.23 71.57 69.05 69.62 71.16 73.28 72.31 72.56 71.53 65.91 67.52 64.95 64.90 63.19

GFSMA_sfc_wetblb_060.txt.gz
Wetbulb
70.25 71.59 71.60 69.99 70.43 70.91 70.02 70.11 68.69 68.26 69.89 70.64 70.68 69.56 70.88 71.47 71.87 72.82 72.70 75.51 75.91 75.45 75.17 74.57 74.74 73.98 73.63 73.64 73.50 73.55 72.36 71.94 72.81 72.85 71.88 72.56 72.70 72.75 72.88 73.10 72.91 73.01 73.04
71.50 70.63 71.43 71.19 70.37 70.24 71.06 69.76 70.89 69.51 68.96 71.27 69.16 69.47 69.51 70.02 71.61 72.24 72.60 73.88 76.37 76.08 75.15 74.17 73.95 73.99 74.43 74.13 73.64 73.68 73.63 72.91 72.42 71.80 71.79 71.86 72.32 73.31 72.98 72.98 73.01 72.94 72.82
72.21 70.19 70.31 70.47 70.39 70.83 70.21 68.73 70.71 69.79 69.30 69.90 68.38 70.35 70.13 69.80 70.76 71.18 72.05 72.33 74.63 76.07 75.72 75.19 74.21 74.38 74.47 73.96 73.31 73.49 73.15 72.91 72.56 72.23 72.14 72.42 72.91 73.84 73.49 73.22 72.87 72.63 72.43
72.86 71.87 69.96 70.33 68.91 70.42 68.40 66.83 68.20 68.97 68.40 68.34 67.62 69.16 69.85 70.31 70.46 70.71 71.14 71.17 71.72 73.39 75.57 75.70 75.39 75.24 73.77 73.26 73.15 73.20 73.25 73.21 73.00 73.29 73.96 73.81 73.51 73.59 73.42 73.07 72.40 72.04 71.99
72.61 71.27 71.19 71.66 70.45 70.05 69.70 68.14 68.34 67.63 67.13 66.77 66.56 66.71 68.52 69.21 70.17 71.20 70.63 70.99 70.78 70.90 71.27 74.79 75.49 75.29 74.15 74.18 74.29 74.61 74.51 74.77 74.89 74.54 74.24 73.54 73.54 73.27 73.20 72.75 72.11 71.54 71.57
71.34 70.60 71.07 70.75 70.73 69.02 67.31 68.99 68.13 67.06 69.32 66.40 68.46 67.77 66.90 67.37 68.74 69.49 69.65 71.12 70.45 71.32 71.11 71.31 72.81 73.29 75.29 75.04 75.36 74.95 74.52 74.39 74.63 73.98 74.69 74.69 74.10 73.90 73.25 72.75 72.36 71.45 71.27
70.65 69.66 71.17 71.23 68.96 67.51 66.44 69.94 68.12 66.13 67.98 67.43 63.63 63.72 65.00 67.98 66.63 67.08 69.06 69.73 70.50 71.05 70.47 70.66 71.47 72.04 72.15 75.87 75.67 75.54 74.65 74.32 73.80 73.78 74.11 73.62 72.66 73.25 73.22 73.04 72.01 71.52 70.78
72.17 70.98 71.02 71.60 70.26 69.68 68.08 69.81 69.01 68.38 66.74 65.71 64.03 64.29 58.88 62.00 65.08 66.29 66.76 68.67 68.13 70.90 70.98 70.36 70.23 70.60 69.87 70.59 72.07 75.04 75.32 74.32 73.23 72.84 73.29 73.80 72.61 72.58 72.50 72.22 71.96 71.54 70.41
72.70 72.26 72.42 72.12 70.49 70.80 69.81 69.66 69.49 68.89 63.76 65.39 65.71 64.53 58.47 58.41 62.12 65.37 64.48 65.39 65.77 68.82 70.46 70.65 70.92 70.67 70.20 69.04 71.29 73.22 74.92 74.06 73.65 72.64 72.84 73.51 72.98 72.28 71.99 72.20 72.20 71.70 70.80
73.07 73.90 73.11 72.67 70.71 71.17 70.17 69.96 72.25 68.42 66.38 65.13 64.24 68.01 65.20 64.19 60.19 59.68 64.35 65.72 64.65 67.37 67.59 67.73 70.68 70.95 70.34 69.85 71.32 72.50 73.51 73.48 72.85 72.88 72.82 73.29 73.47 72.33 72.01 72.01 72.57 71.91 70.90
73.12 73.77 72.33 72.47 71.89 72.15 70.72 70.56 71.34 70.78 69.48 68.04 64.18 65.15 63.66 64.74 65.38 62.62 60.62 63.04 64.72 65.20 66.18 66.88 67.42 68.31 68.04 68.67 69.54 71.91 73.71 72.66 71.90 72.06 73.12 73.68 73.78 72.56 72.01 71.68 71.90 71.89 71.22
73.01 72.96 72.93 72.75 72.06 71.46 70.75 71.09 71.23 69.60 69.89 70.35 68.24 67.79 65.18 64.77 64.95 65.55 61.90 62.06 61.98 63.83 66.28 66.38 66.11 67.49 67.86 67.75 70.62 72.79 72.65 72.28 71.24 70.77 71.00 71.67 72.90 73.47 72.27 72.17 71.92 71.84 71.75
72.26 73.04 72.85 72.43 71.98 71.99 72.59 71.48 71.50 72.07 70.83 70.49 70.27 68.36 68.19 67.40 65.60 66.03 63.55 63.30 62.94 64.64 64.89 66.76 66.95 66.98 69.08 68.34 68.92 73.07 73.40 71.46 70.66 69.32 68.88 69.53 70.53 71.44 72.63 73.14 73.21 72.89 72.60
73.06 73.94 73.10 73.29 73.36 72.77 72.32 72.12 71.65 71.21 72.01 70.72 70.34 70.93 69.85 69.01 69.51 67.30 64.13 62.78 61.63 62.70 65.24 65.00 67.15 67.39 67.12 68.26 70.18 72.04 71.19 70.26 69.73 68.50 67.43 67.60 68.35 69.30 69.95 70.86 71.30 71.71 71.84
72.35 73.84 73.27 73.19 72.83 73.19 72.75 72.30 71.03 71.01 71.74 71.80 70.86 69.80 70.52 70.55 69.48 69.37 67.56 64.92 63.64 60.38 60.99 65.73 66.93 68.18 68.29 68.52 70.04 70.01 70.68 69.90 69.14 68.41 67.10 66.36 66.68 67.79 68.31 68.84 69.00 69.07 69.42
71.91 72.68 73.47 73.23 72.94 73.07 72.99 72.42 71.17 71.80 71.75 71.41 72.18 71.58 70.12 70.57 69.82 71.41 70.39 67.63 66.36 63.57 61.58 65.13 65.94 68.42 70.37 70.36 70.67 70.74 69.99 70.23 69.24 68.02 67.30 66.54 66.29 66.84 67.17 67.67 67.64 67.76 67.89
70.46 71.74 73.82 73.27 73.37 73.10 72.38 72.87 71.35 71.39 71.68 71.28 71.65 71.27 71.44 71.14 70.64 70.68 71.70 71.28 69.73 67.00 64.11 65.74 67.22 69.69 69.96 69.48 70.23 70.68 71.07 69.58 70.17 68.50 67.88 66.99 65.95 65.95 66.52 66.70 66.70 66.61 66.65
71.83 73.19 74.07 73.42 73.25 73.84 73.01 72.03 72.06 72.36 71.97 71.16 71.60 71.98 71.89 73.60 71.70 70.84 70.99 70.70 70.23 69.95 67.93 66.60 66.79 68.35 69.37 71.49 71.81 71.75 73.15 74.36 73.35 71.86 67.73 66.36 65.59 65.04 64.95 64.58 64.22 64.02 63.57
69.47 73.23 73.63 73.75 73.52 73.72 73.50 73.16 72.70 72.30 71.77 71.79 72.23 72.10 71.85 71.21 71.73 71.93 71.25 71.01 70.83 71.38 70.48 69.18 69.59 70.21 71.44 71.06 70.77 70.92 71.24 72.72 74.18 72.58 69.41 67.44 66.40 66.05 65.36 63.16 62.04 60.77 58.98
68.38 70.61 73.54 73.50 73.52 73.47 73.32 73.55 72.93 72.24 71.99 72.09 72.52 72.68 72.75 72.49 71.26 71.46 72.21 72.09 72.04 71.07 70.41 69.27 68.75 69.30 69.95 71.34 70.83 70.54 69.91 70.27 70.52 73.82 72.32 69.65 70.18 70.17 69.13 66.60 64.80 63.10 59.73
69.56 70.43 72.08 73.29 73.67 73.46 73.41 72.48 72.80 72.52 72.19 72.12 72.37 72.84 73.31 72.93 71.47 71.32 72.78 72.22 71.87 71.14 70.78 70.38 69.73 69.82 69.82 70.22 69.74 70.33 69.18 69.28 70.52 71.87 71.45 74.77 74.45 74.92 74.60 71.37 71.91 66.71 62.13
70.83 70.09 72.35 73.25 72.90 74.10 69.23 68.70 71.83 72.70 72.53 72.34 72.28 72.24 72.53 71.92 71.22 68.89 68.69 69.51 71.84 72.12 71.27 70.76 70.79 70.47 70.35 69.43 69.25 69.18 68.48 68.37 68.06 72.39 73.23 73.47 73.87 74.07 74.38 75.01 64.38 61.75 59.98
67.91 71.13 70.36 72.56 73.43 73.45 67.05 66.45 68.75 73.01 73.17 73.26 72.94 72.97 72.81 74.64 71.76 73.31 69.03 66.78 67.02 67.25 69.39 72.33 71.13 70.18 69.28 69.98 69.61 68.84 69.07 69.14 69.79 73.07 73.91 73.11 73.00 72.76 74.06 73.36 61.66 60.15 59.09
68.35 67.99 71.88 71.30 72.32 73.72 66.40 64.98 66.89 72.37 72.35 72.53 73.86 73.78 73.31 73.45 72.36 72.37 72.25 72.11 71.87 71.28 69.41 68.69 69.59 71.50 71.71 72.05 71.55 72.30 71.03 70.89 73.45 74.83 73.33 69.75 72.18 72.89 73.51 67.49 60.77 59.95 58.43
71.09 69.02 70.69 73.08 72.55 72.65 64.62 63.73 65.20 71.39 72.03 71.85 72.23 73.27 73.80 73.45 68.78 65.53 71.90 71.61 71.76 72.45 70.31 64.33 64.89 64.64 63.89 63.30 66.35 71.08 70.94 71.15 70.90 69.84 72.67 72.14 71.89 72.67 71.39 66.60 63.84 59.36 57.43
71.70 72.11 70.91 71.10 70.46 73.72 64.75 62.52 64.30 72.71 70.92 71.07 71.91 72.10 66.13 71.58 65.23 63.29 71.02 71.75 70.59 70.97 70.36 70.22 71.17 67.72 64.03 67.18 63.70 68.44 71.32 70.18 69.95 69.82 72.02 72.64 72.39 69.15 64.61 66.46 63.57 61.66 59.68

GFSMA_sfc_wetblb_063.txt.gz
Wetbulb
69.01 69.73 69.27 68.76 69.08 70.03 68.83 68.92 67.28 68.31 69.14 70.11 69.23 69.11 69.77 70.66 71.23 72.05 72.35 74.97 75.69 75.12 74.40 74.02 74.08 73.66 73.28 73.52 72.94 73.05 71.90 71.67 72.54 72.65 71.84 72.55 73.04 73.07 73.17 72.86 72.94 73.09 72.88
70.08 70.61 69.92 69.39 69.94 69.78 70.01 69.05 69.13 68.12 68.02 69.66 69.20 69.04 69.59 70.68 71.28 72.12 72.19 72.78 75.25 75.29 74.63 74.05 74.09 73.58 73.59 73.24 73.13 73.14 73.13 72.82 72.61 72.13 72.01 72.09 72.31 73.32 73.22 73.17 72.89 73.05 72.61
70.93 69.54 69.62 69.76 69.86 69.30 69.64 69.74 69.63 68.98 68.52 69.23 67.60 68.39 68.70 69.88 70.87 71.77 72.11 72.38 73.26 75.11 75.02 74.12 73.69 73.67 74.66 74.37 73.38 73.24 73.61 72.95 72.42 72.37 72.33 72.73 73.19 73.75 73.37 73.25 72.60 72.43 72.26
71.98 69.86 69.59 69.18 68.61 70.33 69.16 67.47 68.08 68.54 67.71 67.17 66.37 68.24 68.52 69.07 69.55 70.49 71.19 71.46 72.22 73.45 74.42 75.82 74.97 74.26 73.82 73.38 73.01 72.94 73.15 73.34 73.17 73.20 73.79 74.20 73.49 73.44 73.07 73.10 72.41 71.82 71.84
72.61 70.81 69.80 69.98 69.24 68.84 66.84 66.39 66.89 67.40 66.40 66.11 66.18 67.22 68.70 68.92 69.21 70.26 69.96 69.97 70.20 71.32 70.95 73.97 75.85 75.42 74.25 74.04 74.11 74.08 74.39 74.39 74.89 74.42 74.19 73.84 73.45 73.70 73.62 72.68 72.19 71.54 71.32
71.42 70.44 70.66 69.97 69.86 67.44 67.30 67.23 66.64 66.26 66.67 65.57 67.43 66.89 66.31 67.32 68.75 68.83 69.26 70.41 69.80 69.93 70.13 70.04 70.90 72.49 74.67 74.21 75.16 74.99 74.52 74.34 74.45 74.28 74.17 74.30 73.55 73.13 73.45 72.85 72.36 71.50 71.10
70.19 69.73 70.52 70.57 69.19 67.50 66.25 68.17 65.78 66.33 66.88 65.30 62.92 63.16 63.46 66.03 66.04 67.74 68.90 68.79 69.68 70.11 70.37 70.18 70.07 71.33 71.70 74.34 75.72 75.39 74.85 74.21 74.10 73.69 74.27 74.22 72.76 72.36 72.87 72.72 71.93 71.52 71.07
70.09 70.06 70.24 70.36 67.81 66.69 67.31 69.19 67.42 67.16 65.80 64.38 62.22 62.16 59.38 60.26 63.90 65.25 66.08 68.06 68.34 70.08 70.33 70.26 70.00 70.27 70.44 69.73 71.01 73.92 75.32 74.90 73.51 73.10 73.79 73.92 73.47 72.53 72.52 72.24 71.94 71.58 71.19
71.92 70.73 70.61 70.54 69.67 68.80 69.13 68.82 68.50 66.38 62.45 64.04 64.68 62.15 57.12 57.08 60.77 63.66 63.73 65.34 66.20 67.19 69.32 69.97 69.92 69.57 69.36 69.07 70.78 71.62 74.37 74.11 74.16 73.28 73.24 73.77 73.77 73.05 71.99 72.27 72.11 71.84 71.38
72.13 71.53 71.60 71.74 69.88 70.20 69.04 69.10 70.31 68.25 64.41 63.21 63.18 66.17 63.47 62.83 59.21 58.71 62.50 64.25 64.32 64.76 66.81 68.28 69.52 70.22 69.99 69.48 71.20 71.94 72.57 72.83 73.97 74.11 73.02 73.71 73.81 73.48 72.15 72.11 72.71 72.37 71.60
71.95 72.99 72.10 72.05 70.12 70.79 69.94 69.61 70.52 69.17 67.14 66.75 62.40 63.84 62.90 63.75 63.74 61.03 59.55 61.70 63.45 64.37 65.68 66.57 67.26 67.80 69.30 69.45 69.02 69.78 72.49 72.86 72.92 73.54 73.32 73.46 73.95 73.35 72.54 72.50 72.62 72.61 72.14
71.33 72.26 71.70 71.39 71.36 70.50 70.08 69.41 70.24 69.23 68.96 68.64 66.57 65.30 63.26 63.94 64.07 63.28 61.43 61.00 60.97 63.13 64.45 65.56 65.58 66.06 66.93 67.19 69.31 72.10 72.61 72.26 72.18 71.92 71.76 71.94 72.60 72.89 72.44 72.88 72.99 73.54 72.80
71.22 71.92 71.51 71.38 70.62 70.89 70.31 70.39 70.31 69.71 69.37 69.47 67.68 66.44 66.03 66.27 64.66 65.06 62.33 62.53 61.88 63.65 64.19 65.19 66.02 65.84 67.21 67.07 67.73 71.39 72.33 71.49 70.74 69.91 69.69 70.27 70.73 71.39 71.57 72.06 72.67 72.92 73.45
72.04 72.26 71.67 72.14 71.72 71.31 71.76 70.60 70.84 70.25 71.11 69.47 69.71 69.88 68.28 68.13 68.54 66.68 63.17 61.91 60.79 61.51 62.70 65.52 66.54 66.52 66.61 66.73 68.53 71.62 69.95 69.55 69.50 68.76 68.30 68.43 68.97 69.47 70.10 70.68 71.16 71.46 71.91
72.11 72.55 72.09 71.90 72.37 72.10 71.35 70.95 70.60 70.13 70.46 70.69 69.81 68.83 69.14 69.35 69.03 68.38 66.69 63.74 62.40 59.57 60.42 63.71 65.74 67.38 68.16 67.22 68.67 68.43 68.43 69.50 69.11 68.44 67.55 67.03 67.17 67.72 68.38 68.93 69.00 68.94 69.42
71.29 71.91 72.30 71.70 72.05 72.10 71.88 71.07 70.16 70.26 69.71 70.48 71.08 70.31 68.96 69.42 69.28 69.37 69.35 66.67 64.94 62.58 61.22 62.99 65.26 66.59 69.97 70.69 70.86 70.60 70.62 70.31 69.18 67.93 67.18 66.60 66.68 67.06 67.32 67.60 67.87 68.02 68.10
70.76 70.76 72.34 71.91 71.36 71.80 71.89 71.49 70.59 70.36 70.70 70.20 70.16 70.40 70.08 69.98 69.80 69.80 70.23 70.12 68.41 65.55 63.89 65.66 65.72 69.19 69.22 68.76 70.75 71.26 71.96 71.27 70.92 68.78 68.10 67.35 66.26 66.13 66.53 66.88 66.62 66.55 66.71
68.96 69.80 71.12 72.28 71.79 72.03 71.76 71.60 71.37 71.71 70.19 70.18 70.46 70.24 70.55 71.66 70.71 70.23 69.85 69.40 68.88 68.39 67.09 65.62 66.49 68.45 69.05 70.86 70.94 71.32 72.26 73.32 72.91 71.42 68.21 66.89 65.73 64.97 64.84 64.80 64.08 63.36 62.47
68.31 70.72 71.50 72.09 71.77 71.99 72.19 71.65 71.53 71.46 71.34 71.31 71.16 70.59 70.57 70.75 70.36 70.48 69.98 70.05 69.90 70.56 68.80 68.17 69.16 69.23 70.17 69.97 70.74 70.80 71.04 71.51 72.43 71.22 68.69 68.92 67.65 67.04 66.42 64.71 62.78 61.00 58.42
67.53 68.49 72.01 72.62 72.59 72.23 72.62 72.56 72.02 71.28 70.99 71.22 71.47 71.42 71.73 71.45 70.53 70.13 70.48 70.88 70.59 70.21 69.49 68.48 67.81 67.99 68.91 70.45 70.14 69.61 70.61 69.97 70.36 72.70 72.14 69.98 68.86 69.67 69.37 66.13 64.34 62.09 58.52
67.82 67.55 69.52 72.63 72.68 72.85 72.95 72.15 72.33 72.10 71.44 71.17 71.33 71.60 71.99 72.09 70.63 70.15 71.24 70.46 70.30 69.77 69.41 68.93 68.44 68.44 68.89 69.18 69.52 69.29 68.73 69.04 69.31 70.82 71.02 72.87 73.43 73.37 73.69 67.31 64.08 62.19 59.21
68.76 67.22 67.99 69.39 71.95 73.17 68.84 67.99 71.15 71.96 71.77 71.34 70.72 70.86 71.72 71.15 70.59 68.01 67.40 68.38 70.81 70.48 69.51 69.11 69.07 69.50 69.40 69.16 68.78 68.10 67.51 67.06 67.06 71.36 73.15 72.65 73.06 72.38 73.63 63.80 62.10 60.11 58.84
68.21 68.31 68.73 69.67 69.73 71.80 66.23 65.99 67.73 72.02 71.27 71.44 71.48 71.34 71.19 73.10 70.48 72.08 68.59 66.60 66.28 65.92 68.12 71.70 70.64 70.48 69.74 69.42 68.50 67.65 67.83 67.63 67.92 71.60 73.20 72.85 72.47 71.50 69.29 62.24 60.26 59.23 57.91
67.97 67.19 67.67 68.82 70.39 71.20 65.59 64.27 66.21 71.34 72.03 71.84 72.08 72.04 71.74 71.87 71.59 71.87 71.89 71.40 71.15 70.91 69.13 68.89 70.48 72.53 71.99 72.07 70.27 70.35 69.89 69.18 70.56 73.20 74.31 70.22 71.41 72.25 65.82 60.80 59.58 58.67 57.17
68.16 68.12 67.40 67.56 68.76 69.94 63.57 62.94 64.44 70.32 71.17 71.44 71.66 71.95 72.73 72.59 68.37 64.73 71.41 70.70 71.03 71.41 68.67 63.77 64.70 64.51 63.28 62.57 65.14 69.56 68.75 68.23 69.07 71.56 71.99 72.07 71.48 72.39 68.16 62.69 59.36 57.95 55.96
69.69 69.76 68.52 67.66 66.40 69.62 62.14 61.82 63.72 71.59 71.08 71.42 71.87 71.17 65.17 70.15 64.40 62.05 69.62 70.88 70.38 71.40 70.96 70.15 69.29 65.87 62.89 66.30 62.10 68.46 70.33 70.27 69.39 69.27 71.83 71.13 71.26 69.96 65.88 65.40 61.52 59.50 57.20

GFSMA_sfc_wetblb_069.txt.gz
Wetbulb
74.55 74.98 74.66 74.86 74.95 74.56 73.86 73.39 74.45 74.29 74.77 74.74 74.85 74.88 74.36 73.67 74.27 74.67 75.11 74.56 74.51 74.25 73.80 73.58 73.81 73.42 73.21 73.33 73.19 73.24 72.86 72.75 72.70 72.68 72.50 72.76 72.95 73.31 74.05 73.29 73.01 72.77 72.53
75.45 75.32 74.40 75.09 75.44 76.10 74.95 74.65 74.41 74.42 74.51 74.61 74.33 74.51 74.01 74.03 74.70 75.11 75.23 75.34 74.01 74.02 74.47 73.53 73.69 73.34 73.64 73.54 73.16 73.42 73.91 73.59 72.81 72.76 72.89 73.03 73.49 73.97 73.69 73.61 72.97 72.63 72.19
76.44 74.31 75.60 75.12 75.39 76.10 75.86 76.34 75.67 75.31 74.53 74.29 73.90 74.24 74.75 74.64 74.53 75.11 75.66 76.16 76.05 74.29 74.60 74.42 73.65 73.33 73.59 74.46 73.81 73.26 73.00 73.07 73.20 73.47 73.63 74.19 74.52 73.64 73.47 73.22 72.98 72.24 71.80
76.61 76.40 75.69 76.20 75.48 76.23 75.33 74.90 75.08 73.98 73.82 73.64 74.02 74.88 75.02 75.04 74.68 75.05 75.68 75.70 75.97 75.36 75.41 74.56 75.60 74.97 74.14 74.09 74.04 73.80 73.80 74.17 74.56 74.49 74.31 74.34 73.87 73.60 73.85 73.83 72.76 72.30 71.60
76.36 75.77 75.41 75.69 75.69 74.94 74.29 74.42 74.28 74.80 73.61 73.33 73.90 74.75 75.47 75.54 75.39 74.89 75.12 75.34 75.58 75.33 75.77 73.92 74.43 74.96 74.87 74.24 74.11 74.41 74.67 74.82 74.82 74.28 74.14 74.10 74.00 73.73 73.18 73.09 73.04 72.54 71.78
76.43 75.88 75.57 75.77 75.81 74.44 73.88 74.36 74.68 74.16 74.36 73.95 72.28 73.34 75.17 75.54 75.78 75.31 75.43 75.49 75.98 75.02 74.91 75.25 75.68 75.39 73.09 74.21 74.44 74.51 74.85 75.13 75.09 74.69 74.72 74.28 73.98 73.26 72.39 72.49 73.06 72.72 72.40
76.54 76.41 76.90 75.33 75.42 74.46 74.86 74.59 73.91 73.86 73.23 74.17 72.70 72.59 73.02 73.40 73.29 73.51 74.72 75.05 74.89 75.08 75.42 75.72 75.84 75.74 75.69 73.96 74.03 74.18 74.37 74.53 74.86 74.95 74.90 74.78 74.33 73.51 72.84 72.17 72.27 72.10 71.98
76.49 76.15 76.17 75.19 75.38 73.67 75.16 74.75 74.68 73.41 73.73 73.16 71.24 71.24 67.41 69.76 72.32 73.68 74.27 73.77 73.85 74.68 74.64 75.13 75.62 76.06 76.22 75.92 75.68 73.54 74.10 74.42 74.75 75.02 75.27 75.00 74.45 74.36 73.90 73.23 72.66 71.78 71.85
74.99 75.62 76.36 75.91 75.24 74.77 74.51 75.39 74.53 74.03 71.48 72.36 72.66 70.71 67.38 66.08 69.53 72.98 73.12 73.85 74.13 74.31 74.41 74.77 74.98 75.58 76.27 75.96 75.92 75.63 74.19 73.26 73.64 74.45 75.13 75.83 75.06 74.46 74.48 73.75 73.03 72.78 72.38
76.02 75.55 76.04 76.15 75.83 74.64 75.58 75.60 75.92 74.89 73.44 71.13 72.72 73.36 72.92 71.91 68.12 67.93 72.00 73.33 74.35 73.88 74.65 74.59 74.87 75.41 75.80 75.77 76.39 75.29 73.63 73.07 73.55 74.20 74.76 75.62 76.03 75.33 74.95 74.68 73.90 73.27 73.02
76.85 76.27 76.18 76.41 76.07 75.83 76.29 76.35 76.18 72.95 74.31 73.07 72.38 72.76 72.77 72.42 73.10 70.77 68.16 70.51 73.59 74.55 74.72 75.03 74.73 75.16 75.55 75.81 75.51 75.14 73.45 72.72 72.52 73.25 73.71 74.66 75.10 75.65 75.61 75.37 74.95 74.51 74.00
78.02 76.93 76.55 76.87 76.83 76.41 76.36 76.13 76.96 76.51 76.44 75.95 75.01 74.33 72.36 71.28 71.79 71.20 70.73 71.88 71.24 73.16 74.40 74.76 75.15 75.25 75.51 75.30 75.21 73.03 72.79 72.09 71.72 71.81 72.10 72.83 73.50 73.98 74.82 75.22 75.78 75.56 75.32
75.62 76.97 77.31 77.14 76.66 76.83 76.98 76.82 76.65 76.78 76.36 75.69 76.27 74.64 74.36 74.62 74.86 74.10 72.01 70.78 70.70 73.04 74.06 75.25 75.81 76.35 75.89 76.51 76.43 72.71 73.64 71.15 70.25 69.30 69.34 70.14 71.15 72.13 72.75 73.39 73.86 74.12 74.33
75.52 77.61 77.47 77.46 76.92 76.94 76.61 76.72 75.97 75.88 76.27 75.66 75.95 76.88 75.56 75.88 76.19 75.68 74.08 71.42 70.35 71.69 73.28 73.42 76.49 76.00 77.40 77.23 76.36 73.09 77.60 71.35 69.70 68.81 68.46 68.53 69.33 69.71 70.38 71.29 71.88 72.00 71.97
75.56 76.86 77.47 77.19 77.01 77.02 76.96 76.84 75.45 76.02 76.84 76.52 75.93 76.25 76.11 76.48 76.41 76.03 76.28 74.58 71.98 68.86 69.85 73.08 73.77 76.68 77.38 78.39 76.75 78.54 79.17 72.48 70.44 69.63 68.31 67.76 68.05 68.90 69.35 69.55 69.74 69.63 69.79
76.41 76.34 76.80 77.19 77.28 77.27 77.08 76.87 76.27 76.63 76.17 75.63 75.69 76.29 75.93 75.56 75.49 76.32 76.03 75.99 75.32 73.63 70.24 74.51 74.89 76.16 77.88 78.33 77.22 78.99 79.47 73.41 72.77 70.20 68.88 67.62 67.47 68.29 69.10 69.12 68.54 68.21 68.20
76.50 76.52 76.83 76.80 77.19 76.96 77.31 77.03 76.65 76.33 76.06 76.16 76.25 76.07 76.17 77.11 75.09 75.53 76.37 76.17 75.27 74.60 72.10 73.89 75.65 77.02 78.22 78.22 78.47 79.31 79.13 79.08 77.20 70.92 68.70 67.31 66.60 67.49 68.13 67.73 66.36 66.00 65.96
76.44 76.83 77.08 76.90 77.19 77.03 77.30 76.84 76.56 75.87 75.67 75.62 75.77 75.92 75.50 75.64 76.79 76.87 75.86 76.75 75.86 76.49 74.24 73.80 75.95 75.72 76.95 78.46 78.72 78.81 78.03 77.41 78.48 73.15 68.43 66.99 66.74 66.83 65.96 64.77 63.39 62.78 62.08
75.86 75.95 76.94 76.80 76.93 76.94 77.04 77.24 77.02 76.76 76.41 76.05 75.91 76.13 76.00 76.33 76.22 75.85 76.69 76.02 75.90 76.27 76.29 74.96 74.21 75.87 76.56 77.14 77.46 78.05 78.34 78.80 77.87 73.20 69.63 68.31 68.17 66.68 63.98 61.65 60.19 58.63 56.81
74.47 75.05 75.66 76.41 76.91 77.17 77.31 77.19 76.97 76.99 76.94 76.71 76.63 76.55 76.52 76.41 76.65 77.19 76.41 76.83 76.72 75.94 76.12 75.27 74.33 74.58 75.23 77.18 77.12 75.69 74.93 76.47 76.78 77.98 74.77 72.00 71.13 65.20 62.60 60.54 60.12 58.38 56.04
74.14 74.97 74.47 74.94 75.62 75.67 75.59 76.64 76.92 76.80 76.69 76.55 76.72 76.72 76.79 75.77 72.20 73.37 75.77 76.72 77.04 76.05 75.04 74.35 73.77 73.97 74.07 74.14 74.42 75.72 74.92 75.91 77.49 78.16 76.50 77.61 78.68 79.72 69.47 63.63 62.89 59.81 57.88
74.02 74.56 73.83 73.97 74.28 73.88 68.19 68.16 73.87 76.45 76.61 76.45 76.18 76.58 77.14 73.14 72.55 68.01 67.59 68.25 72.57 76.33 75.82 74.45 73.67 73.53 74.99 75.58 75.83 75.10 75.02 74.45 72.24 77.95 76.77 76.51 78.88 79.33 76.35 73.42 60.55 59.16 57.96
74.37 73.67 73.82 74.13 74.31 75.39 65.51 65.93 68.34 75.71 76.30 76.83 76.81 76.66 76.22 75.97 74.01 76.91 69.69 66.67 67.03 66.00 68.37 76.10 74.86 74.75 75.05 76.19 76.96 76.16 76.29 75.75 74.41 75.71 76.62 75.26 78.65 78.14 74.70 65.93 59.60 58.63 57.68
73.76 73.82 73.61 74.37 74.38 74.25 64.47 63.76 66.18 74.86 76.28 76.37 76.82 77.05 76.83 76.90 76.63 76.16 76.48 76.13 76.33 76.56 75.53 74.16 75.48 76.49 77.33 78.20 78.18 77.67 77.25 76.71 76.39 76.48 78.60 74.70 77.38 77.32 73.47 69.95 59.15 58.53 57.45
72.71 73.25 73.39 74.00 73.77 74.22 62.40 61.77 65.40 73.73 74.09 76.27 76.74 76.71 77.22 76.97 71.16 65.56 75.58 75.39 76.05 76.21 70.34 66.45 66.67 66.34 66.09 64.41 68.68 76.07 74.58 73.42 72.16 73.10 77.65 76.69 76.28 77.42 73.66 71.22 65.18 58.03 56.80
72.89 72.79 72.60 73.49 70.32 74.27 63.99 59.97 63.75 71.93 72.79 72.83 75.58 76.84 66.75 73.35 65.73 62.49 74.24 75.24 74.75 75.14 75.62 75.79 76.51 71.18 66.67 71.79 62.30 73.91 75.48 73.39 72.76 72.37 76.95 75.57 75.46 77.25 73.87 74.39 69.29 65.70 62.33

GFSMA_sfc_wetblb_072.txt.gz
Wetbulb
75.57 75.53 75.67 75.60 75.75 75.89 75.41 75.91 75.90 76.47 76.34 75.82 75.65 75.18 74.33 74.65 74.35 74.22 74.00 74.63 74.88 74.18 74.09 73.87 73.68 73.48 73.07 73.17 73.19 73.46 73.74 73.61 72.74 72.95 73.14 73.21 73.51 74.17 74.02 73.58 73.12 72.79 72.47
76.35 75.88 75.73 75.62 75.71 75.99 76.06 75.97 76.10 75.82 75.02 75.23 75.27 75.37 74.58 74.97 75.49 76.18 75.50 75.07 74.42 74.00 74.38 73.49 73.51 73.23 73.86 74.51 73.66 73.20 73.42 73.35 73.34 73.60 73.79 74.13 74.86 73.75 73.72 73.40 73.28 72.59 72.13
77.50 77.18 76.38 76.32 75.75 76.79 76.96 76.80 76.65 76.38 74.42 74.89 75.21 75.26 75.02 75.29 75.22 75.42 76.10 75.94 75.38 74.38 75.03 74.51 73.79 73.44 73.28 73.75 73.73 73.73 73.61 73.87 74.08 74.31 74.65 74.50 74.22 73.72 73.68 73.76 73.11 72.60 71.91
77.22 76.75 75.61 75.54 76.65 76.85 76.22 75.95 76.07 74.21 74.01 74.01 74.39 74.46 74.61 74.60 75.15 75.59 75.63 76.25 75.82 76.01 74.81 75.10 75.10 74.93 74.36 74.02 74.38 74.33 74.47 74.41 74.67 74.41 74.26 74.22 73.97 73.73 73.33 73.24 73.50 72.65 71.93
76.73 76.38 76.23 76.01 77.43 76.04 75.79 75.04 75.27 75.44 73.46 73.46 73.18 74.07 74.99 74.75 75.44 74.82 75.95 76.73 75.40 76.26 75.33 74.74 74.48 74.90 74.84 74.59 74.19 74.15 74.72 75.06 75.07 74.50 74.33 74.09 73.75 73.61 72.88 72.36 72.83 72.96 72.41
77.57 77.24 75.85 76.65 76.68 75.12 74.80 75.03 75.39 75.51 74.62 73.97 72.32 72.75 75.14 74.77 76.07 76.16 75.47 75.40 75.73 76.82 76.61 76.83 76.75 75.44 74.57 73.62 74.19 74.50 74.78 74.97 75.12 75.07 74.67 74.75 74.05 73.63 73.11 72.24 72.30 72.81 72.66
78.00 78.31 76.76 76.39 76.74 75.11 75.95 76.63 75.08 74.61 72.40 74.75 72.02 71.34 72.30 74.04 73.71 74.87 75.92 75.76 74.89 76.21 76.48 77.42 76.39 75.88 75.59 75.22 74.71 74.37 74.49 74.86 75.13 75.20 75.70 75.77 75.07 74.67 74.23 73.53 72.34 72.16 72.16
77.74 76.87 77.34 76.49 76.45 74.59 76.30 76.14 76.34 72.79 72.97 74.79 70.86 71.30 68.79 70.21 72.08 73.51 75.10 74.93 74.81 76.07 76.18 76.09 76.85 77.43 77.05 76.84 76.16 74.41 74.71 74.80 75.00 75.43 75.81 76.55 75.93 75.03 74.70 74.28 73.50 72.39 72.34
77.56 78.04 78.01 76.53 77.36 76.10 73.88 76.11 75.57 75.15 70.80 74.28 74.67 70.74 68.20 66.67 70.51 72.28 73.21 73.05 74.64 75.13 75.76 75.69 76.22 76.87 77.84 77.33 76.89 77.43 75.81 74.29 74.14 74.95 75.51 76.22 76.33 75.90 75.13 74.58 74.15 73.43 72.83
77.44 77.35 77.99 77.87 77.76 75.89 76.70 76.18 76.22 76.13 75.35 70.63 72.99 74.34 75.34 73.47 69.12 67.78 70.92 72.34 73.52 73.15 74.21 74.94 74.36 75.13 77.58 76.90 77.99 76.28 75.14 74.05 74.10 74.15 74.75 75.17 75.98 76.43 76.53 75.53 74.73 74.03 73.02
77.54 77.39 77.93 78.08 77.61 76.56 77.24 77.22 77.27 77.07 74.30 73.02 72.58 73.68 74.69 74.77 75.09 70.84 67.25 69.30 71.67 73.09 74.03 75.20 75.66 76.45 77.55 77.95 77.04 76.20 73.60 72.79 72.86 73.43 73.73 73.85 74.35 74.89 75.36 76.37 76.38 75.43 75.02
76.73 77.78 77.57 78.22 78.06 77.66 77.23 76.73 77.80 77.20 77.00 75.89 74.26 74.67 73.11 72.08 71.68 71.83 69.86 71.01 70.85 72.74 74.34 75.37 76.36 77.31 77.57 77.96 78.03 73.81 74.06 73.06 72.34 71.88 71.71 72.04 72.88 73.91 74.58 75.27 75.29 75.69 76.30
75.18 77.00 78.12 78.32 76.98 78.24 77.21 76.96 78.43 77.03 77.70 75.67 76.52 74.46 75.43 75.84 75.69 74.78 72.69 71.46 71.30 73.21 74.13 75.37 76.67 77.70 77.19 78.12 78.09 74.50 75.48 72.52 71.21 70.05 70.09 70.71 71.41 72.10 72.62 73.23 73.73 73.88 74.30
76.04 77.82 77.74 77.22 77.69 77.63 77.35 77.32 76.30 75.78 76.63 76.22 75.91 77.14 75.79 76.70 77.24 75.97 73.65 72.19 70.44 71.36 73.52 75.44 77.40 77.54 78.59 78.62 77.27 76.05 78.00 73.04 71.48 70.14 69.14 69.21 69.96 70.83 71.48 71.55 71.68 71.47 71.40
76.12 77.98 77.28 76.99 77.05 78.00 78.03 78.37 76.50 76.51 76.77 76.96 76.35 76.61 75.95 76.60 77.04 77.03 76.87 75.42 72.30 70.31 71.55 74.37 74.79 78.16 77.76 78.49 77.24 78.83 79.10 72.80 72.31 71.15 69.11 68.32 68.54 69.92 70.58 70.56 70.20 69.73 69.59
77.42 77.41 78.08 77.79 77.09 77.78 78.58 78.48 76.55 77.36 76.87 75.82 75.15 76.61 77.06 75.58 76.15 76.12 75.67 76.14 75.33 72.74 70.36 75.72 75.53 76.84 78.81 78.59 78.24 79.05 78.54 75.18 75.16 71.42 69.11 68.33 68.18 69.27 70.28 69.87 68.62 68.15 68.39
77.41 77.91 78.04 78.18 77.61 77.22 77.96 78.64 77.69 77.04 77.21 76.88 76.68 76.36 77.05 77.80 75.30 75.02 75.75 75.54 74.76 74.46 71.71 73.38 76.33 78.36 79.22 79.19 79.29 79.89 78.70 78.30 76.74 71.45 69.83 68.37 68.15 68.50 69.05 67.71 66.91 66.76 66.20
77.25 78.03 78.76 78.23 78.21 77.82 78.31 77.95 76.72 76.53 76.28 76.18 76.60 76.65 76.16 75.61 77.44 77.45 75.70 76.77 76.27 76.51 74.12 74.23 76.63 76.08 77.92 79.12 79.08 79.45 78.01 77.59 78.30 72.58 68.96 68.56 68.09 67.66 65.40 64.49 64.01 62.93 62.13
76.84 77.09 77.60 77.99 78.06 77.91 78.39 78.59 77.57 76.96 77.28 76.90 77.06 76.70 76.82 76.64 76.35 75.69 76.71 75.51 75.56 76.04 76.26 74.93 74.36 75.76 76.50 77.62 77.97 79.50 78.65 79.07 77.40 73.26 69.61 69.06 67.75 64.95 63.00 61.48 60.44 58.58 56.64
76.27 76.60 77.15 77.63 77.81 77.10 77.76 78.05 78.26 77.40 77.44 77.12 77.79 77.50 77.09 76.87 77.08 77.48 76.98 77.51 77.33 76.11 76.71 74.86 74.35 74.39 75.27 77.54 77.20 75.21 74.48 75.93 76.49 77.46 75.30 72.87 70.29 64.19 62.12 60.49 59.77 58.20 56.14
76.20 76.39 76.28 76.74 77.38 77.21 76.30 77.37 78.14 78.10 77.73 77.64 78.01 78.30 77.92 75.80 72.57 74.06 76.68 78.23 78.80 76.52 74.77 73.89 73.63 74.03 74.15 74.27 75.68 74.62 74.32 74.70 77.62 76.72 77.14 76.30 77.68 73.06 67.74 62.46 63.83 60.16 58.30
76.44 76.44 75.77 75.53 75.57 75.22 69.38 68.22 74.35 77.62 77.82 77.64 77.28 78.25 78.45 74.10 73.42 68.95 68.85 68.88 72.59 76.93 76.12 75.00 73.94 74.06 77.49 76.23 75.89 74.33 74.30 73.00 72.15 76.99 76.64 74.40 76.76 78.45 79.90 77.25 63.22 60.00 58.55
76.35 76.70 76.04 76.00 76.07 76.38 66.05 65.16 68.55 75.87 76.29 76.99 77.41 77.24 77.34 76.89 75.18 77.57 70.22 67.30 67.77 66.43 68.01 76.03 75.51 75.99 76.53 76.85 77.80 76.56 77.68 75.49 74.62 76.08 76.24 73.22 76.21 77.65 79.79 68.35 60.21 59.37 58.50
75.48 76.11 76.41 77.31 77.21 76.62 65.38 63.71 65.83 75.50 76.20 77.34 77.43 77.50 78.11 78.33 77.66 77.03 77.35 76.64 76.99 77.30 76.20 75.32 75.89 76.35 77.79 78.27 78.96 78.82 78.55 78.19 77.12 76.73 78.87 73.51 76.08 75.57 80.17 76.84 59.61 59.49 58.43
75.29 75.30 75.62 76.56 77.13 77.46 63.07 62.70 66.09 74.55 74.28 76.37 77.54 78.40 78.87 78.63 71.98 65.71 76.91 76.41 76.88 76.99 70.83 66.49 67.15 66.57 64.70 64.81 69.32 75.78 73.71 72.48 71.08 71.72 75.37 73.47 74.99 75.65 79.37 77.00 71.59 58.88 57.67
75.19 75.05 75.39 76.19 72.13 76.53 65.37 60.28 65.09 73.67 74.09 73.03 76.16 77.89 67.84 74.32 66.42 62.93 76.76 76.80 75.83 75.87 75.39 75.72 76.57 72.97 69.09 73.81 65.03 74.98 75.57 72.43 71.14 70.28 75.73 73.74 74.45 75.06 74.09 78.52 77.14 67.10 63.95

GFSMA_sfc_wetblb_075.txt.gz
Wetbulb
75.86 76.96 76.95 74.38 75.83 74.70 75.28 75.61 76.02 75.94 75.71 75.12 74.61 74.14 73.57 73.62 73.45 73.35 72.80 75.44 74.48 74.17 73.74 73.88 73.38 73.40 73.30 73.37 73.03 73.19 74.05 73.73 73.32 73.44 73.73 73.79 74.65 73.77 73.62 73.84 73.16 72.49 71.98
78.24 75.29 75.58 74.82 75.54 76.55 77.07 76.17 74.56 75.50 74.21 74.58 74.41 74.76 75.15 74.55 75.21 75.69 74.46 74.26 75.01 74.95 74.40 73.52 73.25 73.08 73.54 74.71 74.15 73.49 73.35 73.35 73.74 73.99 74.21 74.75 74.20 73.77 73.42 73.38 73.01 72.27 71.76
77.45 76.98 74.98 74.69 74.65 76.96 77.17 76.47 75.90 76.52 74.77 74.65 75.46 75.10 74.20 75.32 74.49 76.05 74.96 75.28 74.65 75.12 75.10 74.32 73.66 73.35 73.05 73.24 73.73 73.68 73.69 73.94 74.25 74.22 73.88 73.94 74.07 73.62 73.32 73.66 73.65 72.47 71.70
77.64 77.85 75.47 75.86 75.71 76.70 74.73 76.33 74.71 74.62 75.67 74.09 74.90 74.31 73.71 74.00 74.57 74.62 74.29 75.67 76.10 75.99 75.48 75.65 75.50 75.07 74.37 73.87 74.01 73.98 74.38 74.59 74.75 74.12 73.92 73.67 73.49 73.26 73.22 72.54 72.75 72.87 72.32
77.42 77.07 75.88 76.01 78.54 78.50 78.11 74.10 75.49 74.75 73.08 73.83 73.18 75.16 74.35 73.92 74.51 73.58 74.28 75.04 74.47 75.03 75.82 75.94 75.87 75.27 75.17 74.86 74.37 74.20 74.32 74.75 74.98 74.97 74.50 74.14 73.88 73.33 73.16 72.49 72.01 72.80 72.63
76.88 76.79 76.18 76.50 77.66 76.09 73.72 75.54 75.91 72.61 74.43 73.28 70.75 72.37 73.81 73.20 74.13 73.74 73.85 74.38 74.76 75.19 74.68 75.60 76.59 75.52 75.65 75.03 74.70 74.73 74.96 75.14 75.26 75.27 75.57 75.62 75.07 74.18 73.47 72.91 72.15 71.98 72.38
77.19 77.38 75.70 76.17 77.51 76.89 76.68 76.05 74.61 74.60 72.77 74.18 72.37 71.68 71.61 72.75 72.75 72.97 74.16 74.10 73.85 74.70 74.50 75.09 75.86 75.48 75.49 76.52 75.74 74.97 74.98 75.20 75.49 75.85 76.41 76.64 76.47 75.67 75.22 74.72 73.82 72.18 72.05
77.71 77.28 77.74 76.68 77.27 75.28 76.59 75.76 76.81 75.60 72.83 73.61 73.66 71.38 68.05 69.83 71.25 72.27 73.00 72.76 73.75 73.99 73.89 74.95 74.91 76.06 76.50 76.39 77.58 76.69 75.98 75.63 75.65 75.64 76.38 76.64 76.62 76.55 75.80 74.82 74.49 74.15 73.08
77.21 77.61 77.96 78.58 76.73 77.93 74.21 76.20 75.54 76.41 74.16 71.95 75.23 71.59 69.03 67.27 69.72 72.15 72.46 72.49 73.84 73.21 73.64 74.08 74.54 75.56 76.79 76.92 77.16 77.90 76.70 75.52 75.20 75.36 75.75 76.46 76.40 76.47 76.50 75.97 74.92 74.27 73.95
77.30 77.51 77.64 77.52 77.70 76.29 76.93 75.81 74.89 77.53 75.52 71.77 71.47 72.48 75.45 74.28 71.20 66.42 70.53 71.50 72.48 72.79 73.66 73.58 73.98 74.67 76.42 77.19 76.77 76.66 75.73 74.82 74.41 74.28 74.64 74.87 75.69 75.80 76.05 76.27 76.16 75.31 74.49
77.72 77.17 77.95 77.99 77.76 76.75 78.12 77.38 77.35 77.37 73.83 72.85 72.47 72.45 74.37 72.82 74.12 71.04 66.67 68.85 71.39 72.28 73.21 74.19 74.36 74.75 76.49 77.00 76.53 74.93 74.71 73.33 73.22 73.45 73.80 74.12 74.74 75.39 75.91 76.12 76.50 76.42 76.39
76.35 77.68 77.53 77.95 78.11 78.30 77.80 76.63 77.86 77.23 77.33 76.86 74.79 74.43 73.84 70.27 72.33 70.57 68.73 71.98 70.28 72.48 73.37 74.34 75.30 75.97 76.32 77.19 77.63 75.78 75.04 73.43 72.58 72.42 72.35 72.73 73.62 74.49 75.39 75.32 75.36 75.59 75.64
74.49 77.53 77.97 78.15 76.90 77.88 77.22 78.22 78.64 77.89 76.01 75.86 77.45 75.07 75.41 73.84 74.61 72.80 73.53 71.28 70.90 72.02 73.34 74.95 75.67 76.85 76.78 77.54 78.17 76.92 77.19 73.42 72.10 71.03 70.90 71.43 72.21 72.89 73.65 74.24 74.24 74.02 74.07
73.45 79.13 77.58 77.10 77.32 77.58 77.51 77.79 76.63 75.46 78.40 75.93 75.93 78.09 75.68 74.24 74.20 74.79 74.43 72.39 69.79 70.82 72.65 75.93 75.56 76.22 77.61 78.20 77.44 76.23 77.22 74.47 72.48 71.04 70.47 70.19 70.69 71.33 72.35 72.48 72.08 71.63 71.52
73.99 78.05 77.67 77.23 77.49 77.67 77.83 78.73 75.63 77.03 78.17 77.20 76.58 77.20 76.34 74.95 74.42 75.17 74.38 73.74 72.55 69.59 69.99 74.43 73.30 78.46 77.51 77.55 76.97 78.82 78.96 73.45 73.48 72.22 70.49 69.76 69.18 70.44 71.57 71.14 70.13 69.83 69.90
77.27 74.49 77.55 77.63 77.33 77.46 77.58 78.30 78.03 78.20 77.47 76.00 74.53 78.39 78.43 75.87 75.30 74.67 74.48 74.60 74.06 72.56 70.39 73.62 74.22 77.05 78.96 78.51 78.42 79.22 79.03 74.93 73.60 73.14 70.20 69.95 69.75 70.10 70.84 69.50 68.96 68.77 69.08
77.62 77.48 79.47 78.08 77.79 77.26 77.39 78.43 78.82 77.59 76.64 77.45 78.10 76.84 77.70 79.85 75.47 74.44 74.45 74.38 74.10 74.04 71.56 72.92 75.19 79.08 79.59 80.45 79.83 80.69 79.10 80.05 77.78 71.63 70.24 70.47 69.51 69.85 69.31 68.23 67.68 67.05 66.26
77.41 77.73 78.12 77.86 77.77 77.42 78.28 77.98 76.76 76.09 76.47 76.05 76.56 77.83 75.93 75.46 79.17 79.20 75.73 80.22 76.75 78.28 74.23 76.96 76.66 74.65 79.03 81.20 81.52 81.81 78.54 77.34 78.36 72.82 69.12 69.13 69.33 68.34 65.70 65.46 64.61 63.34 61.44
77.87 76.35 77.58 77.97 77.25 77.13 78.43 78.79 78.31 77.09 76.95 76.55 76.64 77.04 76.72 77.68 78.28 76.64 78.09 75.71 75.53 76.06 76.22 74.40 74.52 75.47 75.95 77.13 78.48 80.54 81.31 80.67 78.51 73.03 68.58 69.17 68.30 66.12 63.88 62.14 60.92 58.97 57.13
78.03 77.64 78.09 78.82 78.05 77.03 77.34 77.45 77.99 77.74 77.83 77.49 77.50 77.81 77.53 77.54 78.42 79.09 77.15 79.23 77.50 76.65 76.33 74.01 73.35 73.65 74.90 78.62 76.99 75.43 74.89 75.42 75.32 76.25 75.09 74.16 70.97 65.75 63.16 61.28 60.06 58.31 56.36
78.35 78.15 78.11 78.37 78.21 77.24 75.97 78.21 78.31 77.73 77.92 77.82 78.27 77.95 78.65 76.72 72.98 74.97 76.06 78.22 78.96 77.14 74.26 73.24 72.70 73.19 73.45 74.16 76.46 75.84 74.43 75.05 78.13 76.01 75.14 76.50 75.89 72.64 67.46 61.76 63.73 60.87 58.50
78.82 79.09 77.54 77.80 77.56 75.39 69.50 68.02 74.77 78.09 78.77 79.12 78.74 79.59 79.88 74.37 73.59 69.19 68.92 69.42 72.60 77.15 78.81 74.90 73.75 73.79 78.67 76.81 75.25 74.36 73.98 72.35 70.86 76.48 76.40 74.88 75.51 74.77 75.95 73.92 67.38 61.72 59.32
78.15 78.96 78.39 77.83 78.06 78.26 67.44 65.29 68.35 75.94 77.74 79.11 78.93 79.62 77.96 75.97 75.40 78.22 70.34 68.38 69.06 67.10 67.81 76.32 76.53 76.59 76.67 78.46 78.77 78.49 76.71 76.52 74.41 75.49 76.21 73.19 75.31 75.33 77.65 68.01 61.92 60.23 59.02
76.16 77.52 77.69 78.87 78.84 78.37 66.66 63.88 65.82 77.25 77.16 77.76 78.69 79.37 79.21 79.16 79.07 78.43 78.46 77.50 76.89 77.47 76.85 74.88 75.76 76.79 78.02 79.02 79.26 78.49 79.02 79.23 77.79 77.48 78.74 73.16 75.58 74.92 76.74 70.19 60.34 59.92 58.77
75.82 75.87 76.81 78.30 78.61 78.94 64.71 63.30 65.52 74.79 74.88 76.77 77.97 78.13 78.65 79.30 73.13 67.13 77.39 78.27 78.31 78.69 71.20 67.75 69.11 68.79 68.12 66.22 69.43 75.63 73.72 72.32 70.62 71.72 74.49 72.70 73.30 73.75 75.25 75.23 66.76 59.56 58.06
75.87 75.66 76.05 77.18 73.68 78.32 67.84 61.44 64.48 74.76 74.48 74.89 76.25 77.18 68.24 73.88 67.05 64.26 77.29 77.52 76.65 77.55 78.66 76.70 76.40 72.06 68.46 73.01 65.06 74.40 75.33 72.93 71.76 70.77 74.04 72.24 72.52 73.43 72.51 76.07 72.09 64.16 63.00

GFSMA_sfc_wetblb_078.txt.gz
Wetbulb
75.87 74.88 72.77 76.30 71.96 72.82 72.72 74.20 74.51 75.93 72.93 73.29 74.22 74.07 72.53 73.27 71.78 72.67 74.30 76.31 75.65 74.92 74.11 73.81 73.51 73.20 73.28 73.63 73.01 73.12 73.21 73.27 73.43 73.65 73.81 74.46 74.34 73.75 73.35 73.22 72.95 72.21 71.56
77.92 76.12 72.91 76.53 75.78 72.45 75.86 73.33 75.65 73.23 73.40 73.95 73.67 74.00 73.45 73.85 75.20 71.49 72.84 74.58 75.92 75.85 74.73 74.20 73.26 73.01 73.48 73.80 73.82 73.42 73.14 73.39 73.77 73.96 74.03 73.90 73.93 73.47 72.86 73.30 72.95 72.11 71.44
75.68 73.83 76.08 72.70 74.53 78.40 77.86 75.02 75.89 77.19 73.60 73.87 74.83 75.26 73.69 74.89 73.92 74.50 73.14 72.82 74.29 76.43 75.85 75.24 74.74 73.18 73.15 73.12 73.61 73.72 73.90 74.12 74.04 74.08 73.92 73.74 73.57 73.30 73.04 72.74 73.28 72.50 71.81
76.08 71.48 75.82 73.79 75.09 77.50 76.36 71.14 75.46 70.40 74.22 70.84 73.97 75.11 73.34 74.41 74.51 75.17 74.55 74.45 73.17 73.54 75.80 76.55 76.11 75.44 74.61 74.10 74.18 74.00 74.30 74.80 75.02 74.99 74.74 74.18 73.72 73.31 72.95 72.51 72.16 72.83 72.39
78.19 75.83 74.81 73.80 75.96 76.01 75.76 71.78 73.90 75.03 73.95 73.26 72.68 73.84 73.44 73.50 73.57 73.29 73.66 74.55 74.58 74.31 74.39 76.27 76.52 76.18 75.45 75.15 74.98 74.67 74.71 75.34 75.81 75.97 75.92 75.62 75.12 74.71 74.26 73.59 72.72 72.41 73.03
78.71 78.57 74.03 78.15 78.42 77.08 74.26 74.42 75.77 73.47 70.41 70.06 70.23 71.63 72.79 73.13 73.92 73.30 73.42 74.09 74.14 74.33 74.44 74.27 74.67 74.29 76.27 76.58 76.27 75.73 75.37 75.73 76.26 76.45 76.38 76.51 76.44 75.86 75.18 74.63 73.98 73.20 72.98
78.98 79.40 77.43 78.41 76.01 73.47 70.87 78.14 76.89 73.96 74.66 72.85 74.60 72.51 72.89 72.36 72.11 73.29 73.38 73.10 73.96 74.49 74.38 74.52 75.97 74.89 73.76 76.86 76.52 76.44 76.34 76.51 76.53 76.86 76.83 76.89 76.67 76.49 76.19 75.34 74.74 74.16 73.17
79.07 78.83 76.12 77.31 75.59 75.90 77.35 77.55 76.10 73.23 74.75 72.53 72.07 71.80 66.35 70.04 71.14 71.19 73.09 73.01 73.59 73.25 73.76 74.80 74.34 75.20 75.77 74.81 74.98 76.59 76.83 76.82 76.98 76.92 77.07 76.79 76.69 76.41 76.18 76.03 75.21 74.64 74.39
78.28 78.20 77.87 79.10 72.82 77.77 76.58 77.14 75.60 71.56 74.36 72.79 74.06 73.00 67.26 65.82 70.20 71.04 71.79 72.07 72.35 73.59 72.53 73.34 75.01 75.38 75.69 76.61 77.80 77.02 76.97 75.76 76.47 75.96 76.37 76.29 76.04 75.89 75.88 76.00 75.96 75.36 74.70
77.45 76.44 78.98 79.10 77.03 73.45 71.61 77.27 76.48 74.62 74.51 73.00 73.07 73.22 73.35 73.36 70.43 67.13 71.14 70.94 73.48 71.62 72.99 73.72 73.34 74.92 75.60 76.39 78.17 77.05 76.56 75.16 73.98 74.48 75.01 75.63 75.96 76.11 76.39 76.49 76.08 75.89 75.85
77.58 76.43 78.03 79.40 76.68 73.44 72.27 76.37 77.78 77.19 76.87 73.21 69.22 74.20 73.70 74.11 73.59 72.66 66.56 68.54 71.72 72.07 72.88 73.70 74.22 73.79 75.59 75.87 75.39 74.04 74.13 73.04 73.05 73.50 74.29 74.44 75.09 75.84 76.82 76.92 76.44 76.14 76.28
77.50 77.13 77.12 79.16 77.74 72.81 75.51 73.56 78.15 77.86 77.82 77.77 75.81 75.17 74.23 71.95 71.40 70.87 69.54 69.49 69.96 72.11 72.88 73.20 73.57 75.27 75.97 77.16 76.85 75.74 74.49 73.51 72.84 72.87 72.80 73.13 73.91 74.94 76.12 76.34 76.12 75.66 75.41
75.59 76.95 79.27 79.37 77.04 78.45 76.33 78.34 79.25 78.31 77.19 76.59 78.09 75.02 75.56 73.12 74.95 72.36 73.43 71.21 70.24 71.47 74.06 74.86 75.02 75.77 76.36 77.57 76.48 76.72 77.84 73.86 72.62 71.43 71.42 71.90 72.49 73.17 74.01 74.64 74.50 74.26 73.99
74.40 78.44 78.20 78.24 78.87 78.05 78.43 78.58 77.84 77.18 77.61 76.57 76.43 76.79 76.27 74.34 75.71 72.30 74.28 72.14 70.47 71.81 73.15 75.19 75.45 76.53 77.48 77.82 76.85 76.45 74.81 76.01 73.94 71.52 71.22 70.61 70.84 71.54 72.60 72.40 71.69 71.46 71.40
75.89 76.27 77.32 77.57 78.14 76.40 78.53 78.08 75.50 76.42 77.39 75.64 77.72 76.67 76.08 73.95 75.28 74.47 75.06 74.78 72.12 69.52 70.13 74.44 72.65 77.39 77.54 78.17 76.08 78.33 78.03 75.43 75.51 72.89 71.95 70.18 69.61 70.74 71.64 70.40 69.96 70.03 70.23
72.41 72.24 72.17 75.30 77.60 76.28 77.10 77.87 77.36 74.26 75.51 74.67 75.33 76.55 77.26 72.65 76.04 75.50 74.65 75.33 74.72 73.12 69.21 72.50 75.11 77.59 78.21 78.16 78.56 79.34 79.22 75.09 73.70 73.29 72.45 70.46 69.91 70.59 70.72 69.68 69.23 68.91 68.26
72.81 70.82 67.27 68.37 74.40 77.49 78.42 78.02 76.47 75.11 75.83 76.17 77.98 76.72 76.35 77.36 74.68 76.38 75.13 75.40 74.61 75.01 72.66 73.56 75.52 79.63 78.74 78.80 77.99 79.27 79.27 78.09 76.68 72.12 73.29 70.84 69.93 70.44 69.55 68.69 67.73 66.49 65.40
78.88 74.26 70.13 70.25 74.86 76.70 76.85 77.43 75.94 76.39 75.27 75.76 76.52 75.97 76.37 76.03 77.01 77.42 76.18 75.76 76.31 76.26 74.78 72.92 74.68 74.55 74.63 76.29 79.52 78.57 78.91 77.49 76.85 72.59 70.65 69.31 69.16 68.63 66.88 66.47 64.88 63.12 61.64
78.58 77.73 77.92 78.44 78.37 77.19 77.75 76.68 77.27 77.03 76.02 75.86 77.43 77.05 76.40 77.10 76.47 75.77 77.31 76.54 75.28 75.92 76.01 74.08 72.84 75.77 76.20 76.53 76.54 78.47 78.46 78.47 78.93 73.38 68.83 69.09 67.95 66.79 64.74 63.22 61.72 59.53 57.68
78.04 77.74 78.05 78.10 77.64 77.79 77.70 77.17 76.89 77.16 76.83 76.77 77.13 77.69 77.39 76.74 76.59 76.63 76.15 76.38 75.71 75.82 75.00 74.68 73.22 72.58 73.47 74.68 77.17 75.05 75.14 74.99 74.39 76.74 74.61 72.45 69.57 66.73 64.19 61.86 60.53 58.91 56.38
77.81 77.99 77.82 77.38 77.49 76.88 76.31 76.86 77.38 76.80 75.83 75.28 76.32 76.98 77.45 77.50 74.33 75.17 75.75 76.33 75.96 75.42 74.33 72.94 72.09 72.52 72.70 75.16 75.07 75.94 73.97 74.78 74.75 75.51 73.55 75.81 71.99 68.20 64.57 62.53 62.93 61.72 58.40
77.95 77.63 77.32 77.04 76.41 76.50 70.25 68.60 74.73 76.58 76.92 76.63 75.52 76.96 77.85 75.22 73.10 69.14 68.86 69.11 73.12 76.14 75.12 74.44 74.04 72.75 73.24 75.24 75.32 74.84 73.74 71.76 69.31 75.27 74.15 73.05 74.32 73.19 72.02 65.86 65.06 62.00 59.50
77.85 77.30 77.06 77.07 76.74 76.85 68.40 65.21 67.39 75.64 76.67 76.96 76.72 76.36 76.69 75.67 73.94 75.83 69.03 67.72 68.06 66.82 68.98 73.24 72.28 73.43 73.55 74.39 75.49 75.15 74.43 74.50 73.64 74.07 73.73 71.07 73.75 73.66 75.35 70.29 64.31 61.59 59.24
76.99 76.72 76.51 77.21 77.35 77.22 67.88 65.77 65.51 73.57 75.60 75.69 76.43 76.89 76.48 76.18 76.67 77.04 77.05 75.69 74.25 74.59 73.31 71.31 71.61 72.02 73.20 74.19 75.59 75.14 74.36 74.96 75.72 76.39 76.13 72.10 74.52 73.80 74.21 70.09 62.88 60.98 58.93
74.81 75.60 75.86 76.31 76.70 77.18 65.74 63.54 65.84 73.15 73.42 74.57 75.69 76.00 75.68 77.18 71.51 67.64 74.84 75.57 76.36 76.62 71.47 67.61 68.54 67.88 67.41 66.27 69.01 74.54 72.77 71.24 69.71 70.49 71.77 70.14 69.87 71.73 72.79 68.76 62.72 60.01 58.14
71.16 74.13 74.78 75.73 72.20 76.27 67.87 63.31 64.02 73.94 73.39 73.12 73.77 74.62 68.04 71.64 66.20 62.87 73.36 74.78 73.66 74.19 76.34 76.63 72.82 69.12 66.85 69.61 64.77 71.09 73.62 71.59 71.19 70.20 72.19 69.81 70.40 70.87 69.34 73.72 67.15 61.29 59.21

GFSMA_sfc_wetblb_081.txt.gz
Wetbulb
70.36 71.24 70.30 71.19 72.34 70.19 69.43 70.52 71.12 72.51 70.95 70.17 70.62 71.32 69.96 70.39 71.24 72.38 72.27 75.12 75.98 76.15 74.34 74.10 73.74 73.22 73.38 73.61 73.00 72.84 72.69 72.90 72.84 73.33 73.62 74.21 73.82 73.22 72.67 72.70 72.38 71.76 70.81
71.91 67.71 69.79 72.12 71.10 71.45 70.54 71.32 71.42 70.61 70.07 69.38 69.75 70.01 69.90 70.43 69.98 71.68 73.29 73.49 76.13 75.70 75.05 74.13 73.53 73.66 73.76 73.52 74.16 73.22 73.26 73.34 73.58 73.84 73.87 73.46 73.68 73.20 72.79 73.08 73.03 71.99 71.29
71.69 71.75 71.30 71.54 71.40 71.17 70.51 70.80 71.41 72.30 69.98 70.77 70.26 70.13 70.27 70.50 69.38 70.04 71.58 71.96 73.84 76.07 75.48 74.42 74.57 74.11 73.41 73.33 73.68 74.19 74.40 74.75 74.24 74.25 74.11 73.84 73.52 73.26 73.04 72.75 72.72 72.89 72.02
69.30 68.71 72.73 70.19 71.89 72.70 69.38 69.46 71.29 68.71 69.38 67.97 69.02 69.98 69.33 70.66 69.97 70.47 70.75 71.07 71.96 72.77 75.46 75.95 75.81 75.38 74.25 74.11 74.55 74.67 75.11 75.57 75.61 75.57 75.59 74.88 74.34 73.99 73.46 73.07 72.47 72.58 72.97
72.53 71.49 73.43 69.82 73.01 73.57 71.86 70.04 69.97 70.17 69.18 69.01 69.66 70.35 69.77 70.13 69.21 72.28 71.46 71.36 70.69 71.53 72.18 75.27 76.42 76.29 75.69 75.37 75.31 75.62 76.00 76.07 75.94 76.25 76.40 76.37 76.00 75.39 74.94 74.39 73.89 73.20 73.10
74.15 72.36 71.89 72.60 72.80 71.70 69.69 69.21 69.58 70.70 68.63 68.95 69.26 69.13 68.88 69.79 70.12 69.65 69.47 72.49 72.10 71.75 71.89 71.59 73.83 73.98 75.99 76.55 77.11 77.09 76.78 76.72 76.62 76.59 76.42 76.17 76.25 76.27 76.00 74.95 74.55 74.00 73.47
74.36 73.52 72.10 71.17 71.26 70.70 69.58 69.33 71.48 68.59 71.28 68.02 69.08 67.51 69.47 69.56 69.01 69.02 69.77 70.16 70.29 72.58 71.81 71.49 72.22 71.99 72.40 75.74 76.75 76.76 76.88 77.31 77.22 77.03 76.72 76.22 76.40 76.34 76.16 75.78 75.19 74.67 74.02
74.19 73.91 71.57 71.06 71.63 71.43 72.08 71.44 70.40 69.89 69.85 68.81 66.38 67.00 64.25 66.01 67.15 67.49 69.26 69.87 68.81 70.59 71.03 71.30 72.81 72.45 71.40 71.84 73.45 76.12 76.48 76.83 77.34 77.47 77.37 76.47 75.94 75.86 75.78 75.57 75.38 75.37 74.66
74.41 74.03 71.72 72.77 70.85 71.55 71.07 70.49 69.92 68.52 69.28 66.56 67.48 67.49 64.67 64.51 64.21 65.47 66.62 67.26 67.18 69.04 69.71 70.85 70.92 71.25 71.51 73.09 74.65 75.48 76.42 75.67 76.20 76.61 76.35 76.30 75.87 75.74 76.06 76.00 75.56 75.37 75.50
73.70 74.28 73.89 72.82 71.09 69.88 69.53 72.32 73.42 71.14 70.21 67.14 67.56 70.66 68.69 68.40 64.70 61.53 66.06 65.77 67.44 68.93 67.31 68.36 71.15 71.24 71.81 71.97 76.16 75.72 76.19 75.29 74.59 74.53 75.21 75.79 75.90 76.39 77.05 76.69 75.78 75.42 75.43
74.26 74.46 73.42 73.55 71.63 71.07 71.00 70.55 71.47 71.59 71.64 70.35 67.47 70.05 68.16 70.26 69.63 67.11 60.94 62.39 66.83 67.88 67.24 69.65 69.77 70.33 71.51 72.93 72.12 72.53 75.36 72.92 72.58 73.36 74.37 74.50 74.90 76.47 77.40 77.13 76.72 76.19 75.86
74.04 74.43 74.59 73.19 72.74 71.18 71.42 70.61 71.29 71.23 70.76 72.07 72.23 69.87 70.70 66.30 66.49 67.38 63.54 62.87 63.96 66.73 67.47 68.91 68.96 70.27 71.65 72.59 74.72 75.05 74.89 73.07 72.67 72.63 72.76 73.16 73.69 74.97 76.35 76.50 76.12 75.70 75.35
72.24 71.81 73.18 73.08 73.27 73.25 71.93 71.63 72.49 71.40 71.72 69.92 72.81 69.99 71.24 70.67 70.81 68.78 68.28 65.94 64.17 66.11 68.31 69.39 70.43 72.35 73.49 72.52 71.99 75.16 75.76 73.51 72.66 71.74 71.05 71.56 72.08 72.80 74.24 74.34 73.89 74.07 73.94
71.95 72.95 74.01 73.74 73.32 72.90 72.85 72.67 71.57 72.38 72.13 70.58 68.84 70.07 71.43 70.44 72.01 70.21 68.80 68.09 66.84 67.41 67.70 68.45 71.61 71.11 73.36 74.40 74.79 75.86 74.37 73.17 74.07 71.85 70.49 70.63 70.50 71.12 72.51 71.55 71.45 71.71 71.73
73.15 72.57 72.74 73.55 73.54 73.52 73.15 73.10 71.47 71.47 71.69 71.51 71.30 71.34 70.31 70.63 69.99 71.52 70.65 69.68 67.81 64.32 65.13 69.25 67.86 71.56 73.23 74.29 73.73 74.83 74.69 74.60 72.25 73.87 71.53 70.00 69.54 70.23 71.07 70.04 69.91 69.74 69.44
71.69 70.64 69.82 70.43 72.67 73.22 74.67 72.90 72.04 71.64 71.21 71.37 70.30 69.85 71.41 70.16 69.72 71.74 71.72 70.81 69.57 67.39 65.39 70.18 71.84 73.65 75.18 75.55 75.44 75.36 75.66 74.24 73.00 71.28 72.02 70.38 69.70 69.92 70.08 69.31 68.65 67.97 67.40
69.49 69.34 69.13 68.16 70.01 72.55 73.17 72.66 72.15 72.10 71.37 70.83 71.98 72.21 71.71 72.95 71.30 72.23 72.43 71.04 71.12 70.80 68.74 70.10 71.92 74.27 72.30 72.97 74.94 75.44 76.06 75.51 74.74 72.11 70.58 70.73 69.42 69.33 69.20 68.36 67.28 66.25 65.06
71.45 69.71 69.35 67.62 68.64 71.62 73.07 72.86 71.97 72.23 71.92 71.28 71.32 71.86 70.54 73.72 72.08 72.94 71.48 70.97 70.76 70.39 69.20 66.63 68.92 69.26 69.89 71.29 72.57 75.57 75.49 77.43 75.03 73.30 69.93 69.86 68.27 68.22 67.16 66.16 64.78 63.63 62.17
70.28 68.42 67.45 68.45 71.18 71.82 72.70 73.30 73.09 73.12 72.39 72.11 71.79 71.83 71.89 71.59 71.48 71.38 70.55 71.65 71.37 73.26 71.86 70.68 69.92 70.85 72.09 71.14 70.66 72.47 74.78 74.91 75.91 74.95 68.88 68.08 67.21 67.09 65.44 63.93 62.38 60.28 58.27
73.81 73.32 73.29 73.11 73.45 73.45 72.82 73.76 73.17 72.43 72.95 72.88 72.98 73.37 72.95 71.59 71.97 71.31 70.89 70.87 71.71 70.49 71.17 70.03 69.25 69.13 68.93 70.56 71.64 71.90 71.05 71.34 71.68 74.73 71.80 69.58 68.18 67.09 65.46 62.82 61.73 59.64 56.84
74.70 74.37 73.77 74.16 73.90 73.97 74.97 73.67 73.32 72.46 72.61 72.31 73.11 73.35 73.62 74.15 73.28 72.67 72.48 71.40 72.08 70.96 70.46 69.94 69.24 69.21 69.99 70.73 71.33 72.35 70.41 71.09 70.19 70.36 70.24 71.89 69.33 68.26 66.15 63.63 63.10 62.58 58.21
73.97 74.69 73.39 73.79 73.46 75.10 70.28 68.78 72.26 73.52 73.29 72.17 71.28 71.99 73.42 73.03 72.45 69.96 69.83 70.43 72.67 72.04 70.32 70.28 70.17 70.40 70.18 71.04 71.84 70.71 71.22 69.18 67.81 71.75 70.77 70.75 70.66 70.17 69.84 65.73 63.69 61.91 59.42
72.54 73.31 73.73 74.05 72.84 73.40 68.17 66.03 67.40 73.26 74.07 73.38 72.55 72.66 73.15 74.66 72.11 73.96 68.87 67.29 67.38 67.43 68.98 70.24 69.28 68.96 68.61 69.26 69.70 68.61 68.68 69.43 69.61 71.73 71.17 71.05 72.19 71.08 73.07 69.07 63.22 61.73 59.82
69.93 72.41 72.34 73.09 73.47 74.37 67.60 66.15 66.25 67.77 69.68 72.89 74.12 74.22 73.57 72.61 72.11 73.05 73.29 71.73 70.22 70.57 68.90 68.83 69.87 70.83 69.46 69.88 69.94 70.16 70.44 70.54 71.54 72.90 73.21 70.41 72.41 71.20 73.53 70.75 63.53 61.86 60.10
67.93 69.89 72.59 72.61 72.28 72.74 66.63 63.24 64.82 69.09 69.52 70.19 72.28 72.85 73.64 73.35 69.77 66.27 71.70 72.66 73.11 73.36 69.91 65.66 66.47 66.17 65.41 64.58 66.99 71.56 70.47 68.80 68.61 69.14 68.76 68.24 69.04 66.58 67.46 69.30 64.58 61.91 59.90
66.06 66.96 69.05 70.11 70.06 72.45 67.16 62.26 63.54 70.20 68.47 71.09 70.39 71.27 66.77 70.58 65.67 64.24 71.01 71.74 70.55 71.96 72.93 74.17 69.74 68.31 65.80 67.69 64.00 68.21 70.40 68.06 68.52 68.55 70.26 67.79 67.83 66.18 64.78 68.41 63.42 60.23 58.27

GFSMA_sfc_wetblb_084.txt.gz
Wetbulb
68.71 70.31 70.41 71.08 71.90 68.84 68.00 69.71 70.15 71.25 69.33 70.32 69.88 69.57 69.30 69.71 70.64 71.77 71.53 74.44 75.87 75.21 73.62 73.42 73.22 72.97 73.18 73.24 72.71 72.68 72.84 72.96 72.95 73.18 73.63 73.88 73.75 73.33 72.50 72.53 72.31 71.42 70.52
69.79 68.80 69.05 70.83 70.78 69.76 68.92 69.47 70.32 69.68 68.20 68.60 68.69 68.97 68.96 70.02 70.84 71.65 71.75 71.96 75.21 75.51 74.24 73.88 73.69 73.70 74.16 74.14 74.57 73.68 73.33 73.22 73.51 73.57 73.65 73.31 73.20 73.35 72.92 72.80 73.41 72.29 71.52
70.44 68.44 68.93 69.67 69.40 69.26 70.21 69.90 70.39 69.81 68.58 69.52 68.40 68.54 68.68 68.82 70.08 71.44 72.43 71.98 73.33 75.13 74.31 74.30 74.22 73.91 73.54 73.41 73.49 73.79 74.08 74.04 74.05 74.18 74.19 73.76 73.59 73.41 73.11 72.99 72.54 73.13 72.61
70.88 69.88 70.33 69.79 70.98 72.12 69.10 69.55 68.84 68.09 68.63 67.21 68.05 68.70 68.08 68.72 68.92 69.31 70.59 70.79 71.50 72.47 74.65 75.17 75.50 74.91 74.07 74.09 74.31 74.72 75.04 75.54 75.42 74.95 75.07 75.02 74.49 74.16 74.04 73.41 73.06 72.54 72.91
69.08 69.66 71.18 69.42 72.09 71.38 68.54 69.07 68.64 68.88 69.00 67.76 68.62 69.00 68.88 68.42 68.08 70.33 69.66 69.60 69.90 71.10 70.93 73.86 76.18 76.08 75.21 75.47 75.46 75.56 76.16 76.42 76.13 76.08 76.31 76.38 76.38 76.13 75.61 74.98 74.38 73.88 72.73
73.41 70.95 70.07 70.96 72.92 70.60 69.21 68.32 69.33 69.45 67.40 67.16 68.75 67.92 68.00 68.54 68.39 68.70 69.67 70.93 69.69 70.57 69.96 70.90 72.19 74.09 75.98 76.15 77.16 77.30 77.23 77.22 76.73 76.66 76.59 76.18 76.16 76.28 76.27 76.15 75.35 74.60 74.06
73.06 70.45 71.49 70.95 70.45 69.52 68.66 68.88 68.21 67.50 68.76 67.18 67.41 65.98 67.57 67.73 67.87 68.71 68.43 69.98 70.37 71.24 70.72 70.76 70.32 71.75 71.62 75.48 75.93 76.58 76.61 77.04 77.40 77.46 76.98 76.33 76.13 76.10 76.04 75.73 75.64 75.55 74.85
72.65 72.91 71.68 70.44 69.99 70.02 69.97 70.31 68.89 68.65 68.43 67.74 64.79 65.06 62.22 63.50 65.22 66.22 68.00 68.76 68.32 70.56 71.48 71.40 70.89 71.19 71.06 71.03 71.75 75.58 76.51 76.65 76.62 77.54 77.26 76.23 75.70 75.75 75.56 75.39 75.00 75.33 75.53
73.23 71.55 71.69 72.07 70.91 70.87 70.04 69.16 68.06 67.22 67.42 66.03 66.79 65.37 62.48 61.09 62.20 64.03 65.59 67.12 67.27 67.66 69.13 69.79 70.64 72.09 71.69 71.16 73.48 74.18 75.90 75.05 76.31 76.83 76.51 76.31 75.75 75.87 76.31 76.13 75.47 75.29 75.22
72.72 73.05 72.18 71.35 70.49 69.04 69.33 70.80 71.92 70.31 68.37 67.01 66.04 68.86 67.24 66.30 62.03 59.51 63.91 65.12 65.03 67.33 67.33 67.96 69.59 70.02 70.08 70.35 73.87 75.22 74.83 74.79 75.49 75.00 75.44 75.72 75.83 76.50 77.23 76.82 76.08 75.35 75.25
72.66 72.86 72.69 71.13 69.40 68.83 69.40 69.32 71.09 69.74 70.66 69.15 67.42 68.43 68.05 68.77 67.29 63.08 59.72 61.94 64.62 66.46 66.89 66.84 67.45 69.47 69.83 70.62 71.50 72.19 74.91 74.18 73.21 73.56 74.42 74.53 74.75 76.08 77.21 77.01 76.70 76.17 75.79
72.03 73.39 72.69 71.77 71.91 70.96 70.87 69.36 69.56 70.06 69.64 70.07 70.19 68.60 67.94 65.18 65.67 66.07 62.50 60.93 61.69 64.10 66.34 66.46 67.52 68.81 69.41 70.94 73.85 73.82 73.93 73.11 72.06 72.35 72.61 73.03 73.61 74.48 76.13 76.06 75.63 75.53 75.13
71.05 71.10 72.15 71.69 70.98 70.93 70.26 70.22 71.12 70.53 69.98 68.25 69.77 68.59 69.66 69.07 69.18 67.87 66.98 64.12 62.95 64.76 66.09 67.66 67.70 69.41 70.89 71.72 71.87 74.16 74.56 72.90 71.50 70.79 70.56 71.40 72.01 72.80 73.89 73.47 73.70 74.03 74.01
70.77 71.84 72.60 72.40 72.21 72.10 71.49 71.09 70.39 70.70 70.61 70.54 68.09 68.71 69.35 68.63 69.48 69.21 66.94 65.30 64.12 65.35 66.02 66.93 70.27 69.46 70.97 71.61 72.63 74.27 73.50 72.04 71.50 70.52 69.84 69.73 70.26 71.13 72.36 71.56 71.84 71.96 71.16
71.36 71.94 73.19 72.73 72.61 71.77 71.39 71.89 70.24 70.04 70.72 70.02 69.84 70.19 69.16 68.81 68.32 70.57 69.27 68.47 65.39 62.38 63.31 68.27 67.81 70.98 72.75 73.11 73.53 72.87 74.03 72.67 71.52 70.15 69.64 68.59 69.12 69.80 70.88 69.98 69.69 69.36 68.68
72.64 71.61 71.85 72.50 72.40 72.38 72.02 72.04 71.12 70.09 69.76 69.52 68.69 68.34 69.02 70.48 68.29 70.31 70.61 69.73 68.29 65.75 63.46 67.66 70.60 72.74 73.75 73.66 74.19 74.12 74.40 72.78 72.04 70.36 69.47 68.71 68.19 69.08 70.05 69.07 68.44 67.65 67.05
71.20 70.72 69.87 69.31 69.95 71.05 72.37 72.12 70.67 70.85 70.29 69.54 69.29 70.86 70.25 71.28 70.53 70.93 70.45 69.58 69.41 69.02 66.13 68.15 71.03 71.27 70.49 69.72 71.11 72.32 74.12 74.53 74.16 70.80 69.49 68.47 67.44 67.91 68.77 68.02 67.16 66.32 65.19
70.18 69.61 68.29 67.54 67.49 69.69 71.39 71.65 70.92 71.82 70.81 70.02 70.20 69.63 70.47 71.42 70.45 71.33 70.42 69.92 70.09 70.12 68.43 66.85 67.84 68.97 69.59 70.59 71.16 70.56 73.18 75.73 74.79 72.44 68.72 66.99 66.53 66.68 66.79 65.90 64.99 64.13 62.68
70.66 69.74 68.22 67.31 66.87 68.51 70.27 71.95 71.65 71.43 71.04 71.14 70.64 69.99 70.51 69.85 69.24 69.84 69.77 69.02 69.56 71.37 70.37 69.50 68.67 69.98 70.50 68.95 69.98 71.01 71.28 72.89 73.11 71.54 68.74 66.50 66.26 65.81 65.59 64.07 62.66 61.05 58.69
70.33 69.04 67.67 67.41 67.82 68.80 70.85 71.91 72.23 71.41 71.95 71.90 71.30 71.29 71.15 70.88 69.98 69.42 69.80 69.13 69.34 69.38 68.96 68.72 68.21 67.93 68.17 69.60 71.14 71.14 69.62 70.42 70.94 72.75 69.91 68.43 67.41 66.79 66.36 63.68 62.52 61.35 57.67
72.36 70.26 69.94 70.35 70.21 71.85 72.49 71.53 72.34 71.18 70.72 70.98 71.95 72.43 72.43 72.64 70.86 69.94 71.27 70.01 69.41 69.46 68.79 68.63 68.52 68.30 69.24 69.66 69.57 70.98 69.11 69.56 69.25 68.96 70.18 69.58 68.97 68.21 67.91 65.32 65.74 64.50 60.47
71.00 72.18 71.78 72.15 72.61 74.25 69.24 68.56 71.73 71.76 70.46 70.78 70.49 71.02 71.61 71.25 70.89 68.92 68.31 68.53 70.07 69.51 69.00 68.82 68.07 68.16 68.43 69.51 70.57 69.87 68.45 66.34 64.45 69.57 69.35 69.14 69.81 69.79 70.03 68.03 66.28 63.88 61.31
68.86 70.53 71.51 71.50 71.78 72.17 67.89 66.31 67.41 70.84 71.79 71.68 71.72 71.17 70.83 72.81 70.87 72.15 69.59 66.77 66.70 66.61 68.47 69.98 68.67 68.20 67.84 68.65 68.18 66.37 66.34 66.50 66.41 69.21 69.68 69.51 70.82 70.85 71.48 71.03 64.72 63.05 61.18
66.90 67.87 69.63 70.75 70.98 72.50 65.78 64.36 65.34 68.08 69.35 71.90 72.86 72.26 71.51 71.60 71.60 71.22 70.98 71.00 70.85 69.71 68.62 68.62 69.89 71.02 69.82 70.63 67.78 67.38 66.00 67.28 68.90 70.21 71.51 68.95 68.97 69.01 70.58 69.97 66.08 63.36 60.93
63.18 64.66 65.92 68.09 68.88 70.69 64.03 61.50 63.62 68.41 68.27 68.38 69.76 71.95 73.32 73.32 68.69 64.32 70.17 71.08 71.58 72.53 69.27 63.67 64.56 64.67 64.08 63.58 65.99 68.05 67.35 67.44 67.20 67.60 68.63 68.20 68.54 66.36 65.93 66.39 67.68 61.28 59.43
62.54 63.65 64.27 65.85 64.75 67.71 64.27 61.50 62.90 68.54 68.59 69.40 70.18 70.12 65.39 69.52 64.91 63.17 68.69 70.49 69.66 70.81 71.35 72.34 71.73 65.85 64.07 66.09 62.29 67.73 69.21 66.91 66.50 67.02 68.31 67.34 66.34 65.74 64.41 66.10 66.30 62.84 59.70

GFSMA_sfc_wetblb_087.txt.gz
Wetbulb
68.42 69.28 70.00 70.13 71.05 68.74 67.65 68.82 69.56 70.11 69.36 69.21 71.32 69.67 68.65 68.80 69.48 71.34 71.76 74.08 74.70 74.10 73.05 72.81 72.78 73.15 72.99 73.42 73.43 73.04 73.17 73.17 73.04 73.29 73.63 73.65 73.54 73.25 72.65 72.53 72.68 71.86 70.87
68.71 69.20 68.62 69.61 69.99 69.28 68.58 68.15 69.50 69.23 67.41 67.15 68.49 68.32 68.41 68.91 69.98 70.73 70.84 70.72 74.57 75.31 74.48 73.63 73.67 73.49 73.94 74.57 74.12 74.19 73.41 73.42 73.47 73.64 73.62 73.56 73.28 73.14 73.16 72.86 72.90 73.33 72.01
69.15 67.61 67.96 69.21 68.90 68.67 69.79 69.49 69.84 68.46 67.78 68.30 67.21 67.57 68.22 68.78 69.56 70.47 70.92 71.05 71.63 74.62 74.31 74.21 74.24 73.80 73.64 73.61 73.43 73.77 74.07 74.48 74.41 74.24 74.31 74.43 73.98 73.78 73.33 73.03 72.96 72.62 73.08
70.61 69.46 69.27 69.09 70.28 70.98 68.60 68.55 67.87 67.50 67.34 66.60 67.18 67.54 67.57 68.25 68.42 69.64 70.85 70.94 70.56 71.65 73.17 75.13 74.96 74.88 74.24 74.15 74.26 74.58 75.39 75.94 75.87 75.22 75.24 75.19 75.27 75.24 74.89 74.19 73.23 72.84 72.55
70.31 69.96 69.97 69.35 70.86 70.47 67.16 68.39 67.94 68.26 67.89 66.83 67.61 67.73 67.47 67.90 67.47 69.45 68.83 68.97 69.01 70.39 69.98 72.56 75.63 76.00 75.27 75.34 75.83 76.16 76.65 76.90 76.65 76.45 76.33 76.40 76.53 76.40 76.38 76.00 75.35 74.53 73.68
69.85 70.57 70.84 69.02 71.63 69.94 68.83 67.65 67.96 68.45 66.82 66.40 67.79 67.40 66.01 68.03 67.81 67.23 68.34 69.67 68.75 69.00 69.62 69.49 69.77 72.14 75.53 75.74 76.58 76.85 76.74 77.42 77.28 77.11 76.88 76.60 76.38 76.47 76.32 76.01 75.94 75.54 74.77
72.04 70.34 69.89 70.46 69.99 69.15 68.12 68.69 68.47 66.74 67.25 66.42 66.31 65.37 65.30 67.27 66.94 67.61 67.93 68.60 69.61 70.02 69.85 69.79 70.02 70.16 71.13 74.25 75.62 76.47 75.93 76.68 77.54 77.50 77.39 76.70 76.25 75.84 75.61 75.54 75.38 75.73 75.84
71.72 71.83 70.49 69.39 68.95 69.15 68.50 69.64 68.65 67.40 67.10 67.00 64.22 63.80 61.21 62.20 64.44 65.30 66.31 67.80 68.15 69.56 70.68 70.90 70.61 70.15 70.00 70.45 71.69 75.26 75.84 76.30 76.54 77.05 77.46 76.20 75.85 75.71 75.72 75.78 75.47 75.40 75.42
71.96 72.30 70.71 70.61 69.51 70.34 69.13 68.77 67.60 66.37 65.34 65.91 65.09 64.54 61.36 59.48 61.42 62.61 64.51 66.44 66.96 66.79 67.59 69.38 70.03 70.46 70.93 70.93 72.34 73.06 75.12 74.84 76.18 76.83 76.71 76.28 75.70 75.84 76.71 76.29 75.71 75.21 75.20
72.12 71.97 71.20 71.19 69.68 68.45 69.20 69.86 72.22 69.35 67.26 66.40 65.74 67.93 66.26 65.02 60.20 58.71 62.58 64.23 64.55 65.08 66.58 67.32 68.40 69.04 69.31 69.47 72.04 74.32 74.79 74.22 75.26 76.09 75.57 75.84 75.95 76.12 77.30 77.04 76.09 75.54 75.27
71.93 72.73 71.49 70.12 69.17 68.09 68.70 69.26 69.38 69.28 69.70 68.11 67.19 67.53 66.39 66.45 65.92 60.96 58.91 61.23 62.62 65.14 66.47 66.18 66.51 67.07 68.21 69.27 69.40 71.58 73.58 73.97 73.54 73.95 74.25 74.80 75.00 75.57 76.75 77.01 76.44 75.96 75.68
71.06 72.07 72.09 70.49 69.42 68.49 68.87 68.83 70.05 69.10 68.66 69.75 68.29 68.59 66.72 65.13 65.86 65.06 62.51 60.34 60.10 63.10 65.23 66.06 65.83 66.87 67.92 68.66 72.57 74.28 74.05 72.91 72.28 72.05 72.57 73.20 73.80 74.30 75.73 75.73 75.48 75.38 74.90
70.21 71.01 71.11 70.57 70.46 70.17 70.63 69.58 69.67 70.12 68.92 67.35 68.18 67.78 68.63 68.04 68.37 66.97 65.84 63.91 61.87 63.68 65.33 66.85 66.92 67.25 70.12 68.99 70.89 73.61 73.75 71.93 71.34 70.40 70.26 71.08 72.25 72.69 73.98 73.57 73.62 73.83 73.24
70.23 71.31 71.42 71.54 70.85 71.12 70.02 69.87 70.39 70.18 69.92 69.95 68.33 68.60 68.72 68.77 68.30 68.66 66.52 64.32 63.17 63.60 64.86 65.93 69.12 69.18 70.01 71.54 72.29 73.58 73.44 71.58 70.71 69.66 69.23 69.44 70.14 70.79 72.50 71.67 71.66 71.62 70.61
70.62 70.79 71.51 72.02 71.44 71.21 70.50 70.83 69.88 69.03 69.74 69.37 68.81 68.91 68.61 69.68 68.86 69.14 68.93 67.53 64.19 61.53 62.37 67.25 68.17 70.74 72.22 72.04 72.88 73.32 72.62 71.82 71.02 70.34 68.97 68.34 68.53 69.46 71.28 70.39 69.84 69.34 68.78
69.90 70.75 71.57 72.11 71.64 71.46 70.33 70.38 70.24 69.48 69.01 68.83 68.28 67.76 67.35 70.19 69.57 70.64 69.54 68.83 66.96 64.57 62.73 66.27 69.48 72.19 72.75 71.59 72.39 72.31 72.43 71.89 71.35 69.87 68.91 67.92 67.76 68.64 69.86 69.64 68.99 68.09 67.20
69.79 71.70 70.95 71.09 71.19 71.17 71.30 70.95 70.44 70.27 69.42 68.62 68.52 69.06 69.71 69.83 70.12 71.09 70.84 68.96 68.87 67.99 65.16 66.93 69.95 70.08 69.83 69.85 70.80 70.86 71.79 72.21 73.33 70.53 67.65 67.70 66.93 67.24 68.28 68.39 67.69 66.92 66.27
70.16 69.45 70.00 69.23 68.96 69.20 70.34 70.93 70.91 70.96 69.91 69.10 69.17 68.48 68.99 70.78 69.21 70.11 70.30 69.97 69.26 69.36 67.95 66.50 67.75 68.55 69.10 69.92 70.10 70.22 72.05 73.69 72.36 70.36 66.88 67.27 66.46 65.70 66.01 66.16 65.31 64.63 63.80
69.47 69.11 68.99 68.01 67.58 66.90 69.06 70.68 71.10 70.59 70.13 69.92 69.45 69.33 69.05 69.37 68.24 67.97 68.98 68.64 68.37 69.74 69.40 68.39 67.69 69.10 69.47 68.48 69.77 71.19 70.78 70.76 71.74 71.35 68.24 67.42 66.75 65.43 64.76 64.12 63.18 61.68 59.55
70.37 69.51 68.59 68.11 67.13 66.85 67.94 69.82 70.91 70.59 70.70 70.99 71.19 70.18 68.92 69.44 69.43 69.03 68.57 68.56 68.24 68.12 67.87 67.87 67.22 67.33 67.87 69.60 70.23 69.96 69.47 69.33 70.08 71.42 69.21 68.27 67.80 67.12 65.86 64.17 63.63 62.81 59.32
69.61 71.19 69.66 68.44 67.81 67.75 69.31 68.79 70.65 71.16 70.20 70.03 70.62 71.31 71.27 70.98 70.28 69.43 69.99 69.27 68.58 67.89 67.78 66.99 66.81 67.02 67.62 67.51 67.56 69.31 68.80 68.75 68.25 67.31 67.68 69.50 68.65 68.73 68.75 66.84 67.72 66.82 63.06
67.92 68.10 69.95 70.28 70.18 71.75 67.59 66.92 69.73 70.94 71.12 70.29 69.72 70.00 70.69 70.58 70.14 67.78 67.07 67.58 69.68 69.23 68.07 67.44 67.38 66.84 66.66 67.45 68.35 68.32 67.15 65.04 62.75 66.65 68.19 67.90 69.06 69.33 70.09 69.54 67.69 65.30 63.57
65.85 66.21 67.22 69.68 70.47 70.87 66.28 64.80 67.35 71.05 71.35 70.84 70.39 70.60 70.79 72.46 69.69 70.83 68.70 66.61 66.39 65.54 66.80 69.80 68.67 68.42 67.91 68.31 67.80 66.10 64.96 64.84 64.10 66.44 68.00 67.15 68.99 69.46 70.44 70.10 65.64 64.46 62.75
62.44 63.10 64.02 65.12 67.74 69.63 63.56 62.07 64.14 67.47 68.95 69.47 70.81 71.47 70.94 70.95 70.29 70.36 70.58 70.07 70.19 70.37 68.94 68.05 69.73 71.30 70.47 70.86 68.52 68.01 66.10 64.68 66.19 67.71 69.69 66.92 67.45 67.28 68.95 68.75 65.08 64.15 61.87
61.07 61.95 63.35 63.86 64.58 64.98 62.29 60.84 62.61 67.30 68.12 68.57 68.79 69.46 71.44 71.86 68.00 64.02 68.48 69.80 70.29 70.95 68.61 63.21 64.46 64.24 63.29 62.68 65.14 67.11 65.96 65.41 67.43 67.06 69.23 67.60 66.77 66.17 65.90 66.76 66.76 61.81 59.83
59.73 61.66 62.17 63.24 62.59 64.17 61.82 59.42 60.62 67.23 67.96 68.28 69.47 69.65 64.30 67.08 63.68 61.77 67.83 69.99 69.43 70.18 70.93 70.68 70.43 66.08 63.14 65.50 62.14 66.61 69.25 66.86 67.86 67.24 68.35 67.54 65.60 65.43 64.16 65.27 66.24 66.43 64.59

GFSMA_sfc_wetblb_090.txt.gz
Wetbulb
70.00 70.97 71.22 71.78 72.23 70.15 70.39 70.85 71.65 71.53 70.17 70.45 72.90 71.78 71.02 70.82 70.93 72.24 73.17 73.90 74.16 74.08 73.28 72.81 72.77 73.06 73.16 73.80 74.62 74.27 73.87 73.52 73.27 73.16 73.50 73.46 73.29 72.78 73.35 72.59 72.68 72.51 71.62
70.28 70.78 70.23 71.30 71.29 71.65 70.95 70.78 71.09 70.50 69.85 69.72 71.35 70.92 70.44 70.53 71.14 71.90 72.61 72.26 73.81 74.58 75.26 73.94 73.88 73.63 73.77 74.09 73.96 73.82 73.92 73.97 74.02 74.10 74.08 74.05 73.73 73.35 73.20 73.23 72.94 73.04 72.98
70.61 70.17 70.07 70.89 71.00 71.09 71.42 71.60 71.39 70.69 70.09 69.99 69.80 70.06 70.62 70.62 70.95 71.51 71.79 71.96 72.35 73.95 74.48 74.19 74.23 74.27 74.02 74.01 73.84 74.06 74.65 75.17 74.91 74.86 75.04 74.91 74.99 74.67 74.16 73.73 73.40 73.06 72.87
71.99 71.34 71.00 70.81 72.30 72.67 70.84 70.72 70.45 70.19 69.54 69.67 69.87 70.13 70.24 70.43 70.69 71.22 71.97 72.47 72.41 72.02 72.75 74.12 75.09 75.19 74.65 74.79 74.84 75.42 76.27 76.52 76.58 76.40 76.38 76.20 76.12 75.83 75.25 75.10 74.34 73.94 73.12
71.54 72.16 71.77 71.32 72.55 71.98 70.18 70.63 70.36 70.63 70.41 69.48 69.53 70.36 70.41 70.26 70.49 70.56 70.93 71.40 71.32 71.88 72.04 72.03 73.55 75.15 75.22 75.68 76.09 77.04 77.27 77.43 77.34 77.34 77.01 76.91 76.86 76.56 75.98 75.95 75.95 75.37 74.63
70.96 72.71 72.53 72.03 73.48 71.92 71.01 71.06 70.71 70.97 70.20 69.22 68.74 69.25 69.17 69.84 70.85 69.90 70.23 71.04 71.47 71.48 71.43 72.04 72.35 72.35 73.38 74.97 75.86 76.09 76.53 77.27 77.46 77.23 77.19 77.16 76.58 76.37 76.19 75.99 75.83 76.09 75.59
73.35 72.60 71.57 72.69 72.12 72.23 71.00 71.95 71.77 70.12 70.37 70.07 69.22 69.22 68.30 69.16 69.62 70.16 70.57 70.75 71.62 72.24 72.47 72.52 72.59 72.76 72.70 73.15 74.15 74.58 75.64 76.34 77.24 77.71 77.13 76.61 76.18 75.92 75.93 76.07 75.81 75.64 75.62
73.38 72.32 71.62 71.58 71.47 71.49 71.47 72.23 71.34 69.99 69.58 69.70 68.29 66.71 65.02 66.65 68.25 68.25 68.50 69.91 70.54 71.31 72.02 73.15 73.39 73.73 73.75 73.36 73.82 75.57 76.05 75.97 76.71 77.19 77.53 76.18 75.98 75.64 76.26 76.24 75.68 75.46 75.34
72.40 73.86 72.38 71.95 71.74 72.37 71.55 71.84 70.59 70.47 68.89 69.43 68.83 68.44 65.96 64.35 64.49 67.19 68.71 69.08 70.30 70.36 70.90 71.11 71.86 73.06 73.59 73.56 73.91 73.90 74.21 74.68 75.75 77.18 77.05 76.19 75.75 75.75 76.59 76.52 75.86 75.38 75.12
73.25 73.20 72.70 72.55 72.12 71.26 72.36 72.58 73.44 71.82 70.59 69.48 69.60 69.85 69.28 68.51 65.94 63.92 67.34 67.84 68.63 69.17 70.03 70.99 71.43 71.92 72.57 72.59 73.26 73.59 72.96 73.57 74.94 75.95 76.05 76.26 75.95 76.08 76.98 77.17 76.02 75.59 75.27
73.30 73.45 72.63 72.59 71.75 71.09 71.69 72.63 72.53 72.49 72.01 70.84 69.97 69.94 69.88 68.75 68.36 65.32 65.35 66.01 67.91 68.84 69.90 70.49 70.71 70.95 71.43 71.81 72.64 73.11 73.33 73.08 73.10 74.08 74.40 75.17 75.27 75.79 76.65 76.58 76.35 76.01 75.53
72.88 73.35 73.05 72.06 71.80 70.93 71.44 71.99 73.18 72.32 71.77 72.29 70.88 71.30 70.80 69.48 70.17 68.27 66.89 66.48 64.60 68.17 69.19 70.49 70.55 70.93 71.47 72.35 72.95 74.11 74.20 72.83 72.24 72.23 72.56 73.26 74.18 74.29 75.44 75.35 75.30 75.20 74.50
71.99 72.64 73.35 72.45 72.26 72.50 72.23 71.62 72.64 73.12 71.72 71.20 71.22 71.22 71.42 70.81 71.10 69.88 68.65 67.82 66.17 68.03 70.12 71.77 72.40 72.09 72.96 73.92 73.85 73.61 73.92 71.82 71.24 70.52 70.39 70.92 72.05 72.82 73.83 73.51 73.23 73.30 72.25
71.96 73.27 73.29 73.07 72.70 72.41 71.81 72.20 72.58 72.53 72.80 72.34 71.87 72.16 71.52 70.91 71.23 71.18 70.27 68.36 67.64 67.54 68.89 71.20 72.71 73.68 74.91 75.79 75.13 74.10 75.65 71.03 70.74 69.71 69.33 69.24 69.81 70.93 71.85 72.64 71.92 71.54 70.15
71.97 72.67 72.86 72.91 73.03 72.83 72.59 72.29 72.24 72.13 72.34 71.98 72.14 71.82 71.35 71.64 71.82 71.55 71.87 70.84 68.68 66.70 67.51 71.54 73.16 75.70 76.37 76.25 75.53 76.37 75.99 72.31 70.40 69.63 68.53 67.80 68.49 69.41 70.19 71.47 70.47 69.59 68.71
72.14 71.66 72.30 72.66 72.46 72.70 72.70 72.49 72.35 71.89 71.90 71.36 71.13 71.01 71.22 71.62 72.68 73.19 72.29 71.85 69.95 68.83 68.17 70.06 72.99 75.09 74.71 74.45 74.88 75.30 74.90 71.62 70.95 69.65 67.60 67.28 67.99 68.54 68.96 70.11 69.53 68.76 67.80
70.34 70.75 71.85 72.56 72.64 72.09 72.87 72.07 72.37 72.28 71.51 71.30 71.30 71.35 72.01 72.65 72.69 73.43 73.08 71.85 72.09 71.38 69.98 71.43 72.54 73.92 74.71 74.96 75.42 75.93 75.97 76.47 75.79 68.63 67.07 67.04 67.23 67.04 67.80 68.23 68.14 67.64 67.09
71.23 70.86 71.51 72.01 72.18 72.32 72.73 72.81 72.30 72.99 71.72 71.42 71.37 71.13 71.15 71.60 72.47 72.95 73.23 72.83 72.41 72.56 71.72 71.10 72.24 72.66 73.67 74.57 74.41 74.76 75.08 75.15 75.00 70.98 67.11 66.29 66.41 66.04 65.48 65.32 65.26 64.86 64.36
71.84 70.73 70.85 70.36 70.12 70.04 70.93 71.83 72.67 71.81 71.98 71.45 72.01 71.43 71.86 71.53 71.73 71.45 71.37 71.45 71.43 71.70 72.38 71.26 71.13 72.27 72.66 72.69 73.62 75.34 75.58 75.81 75.06 71.39 68.22 67.17 67.19 66.33 64.81 63.63 62.79 61.80 60.31
71.74 71.20 70.95 70.46 70.26 69.66 69.15 70.14 71.75 72.14 71.85 71.88 71.52 72.50 72.22 71.67 72.04 72.37 71.77 71.86 71.37 71.17 71.35 70.75 70.69 70.66 71.18 73.11 73.16 72.51 72.68 74.02 73.68 73.82 70.24 68.51 68.10 67.77 66.48 64.70 63.85 63.36 60.11
69.24 71.01 71.56 70.89 70.45 69.59 69.32 69.74 70.89 71.80 72.36 72.34 72.47 72.91 72.98 71.99 69.75 70.57 72.84 73.05 72.02 71.44 71.05 71.01 70.41 70.68 71.06 71.15 71.35 72.59 71.85 72.35 72.57 71.66 71.00 73.17 73.20 72.95 73.41 69.31 69.70 67.84 64.04
67.71 68.99 69.19 70.69 71.26 72.00 67.04 65.59 69.38 72.03 72.65 72.41 72.19 72.95 73.03 70.47 70.41 67.31 66.77 67.33 71.28 72.74 72.48 71.05 71.45 70.86 72.22 71.90 72.29 71.97 71.50 70.20 68.78 71.75 72.08 71.41 72.64 73.03 73.70 74.44 68.88 65.82 64.07
64.77 64.90 65.71 66.55 67.87 69.71 63.11 62.89 65.07 69.67 72.20 72.91 73.10 72.79 72.71 73.25 71.49 72.93 67.99 65.75 66.04 65.50 68.34 73.48 72.08 72.52 72.58 73.53 72.92 72.47 71.07 69.96 69.73 71.46 71.08 71.24 73.53 72.79 74.39 73.67 65.88 64.66 63.09
63.09 63.43 63.93 65.24 65.95 66.77 62.14 60.76 62.67 68.17 69.72 71.21 72.34 72.93 73.03 73.39 73.42 72.66 73.21 72.76 73.26 73.38 72.17 70.24 71.71 73.01 74.00 74.50 73.67 74.09 73.10 71.44 70.42 70.81 72.16 69.88 73.49 72.27 74.44 74.08 65.80 63.16 61.71
60.74 61.33 63.09 63.41 64.50 64.74 54.83 55.22 60.24 67.02 69.62 70.17 71.37 71.34 71.86 72.37 67.90 63.86 71.36 71.57 72.41 72.88 69.28 63.27 64.53 64.68 63.79 62.74 66.88 71.62 70.33 70.21 70.17 71.56 72.49 71.67 72.87 71.65 72.66 72.70 73.34 64.09 60.93
58.62 61.23 61.62 60.91 58.85 60.65 53.48 52.86 57.08 61.74 64.23 67.99 70.66 71.41 65.24 66.98 62.30 59.51 68.43 70.62 70.48 71.92 72.66 73.35 73.63 69.66 65.19 68.45 61.72 68.92 71.67 70.15 70.27 69.85 73.62 71.01 71.95 70.82 69.92 72.93 72.15 72.73 73.61

GFSMA_sfc_wetblb_093.txt.gz
Wetbulb
74.36 75.30 75.28 75.84 75.04 75.11 75.22 75.51 75.82 74.73 74.18 74.55 76.48 75.90 75.37 74.39 73.40 73.85 74.49 73.75 73.70 74.30 74.30 73.60 73.30 73.49 73.68 73.93 74.34 74.05 73.93 73.73 73.76 73.61 73.87 73.78 73.70 73.33 73.37 73.41 72.88 73.08 72.96
75.03 74.82 74.92 75.28 75.29 75.48 75.77 75.96 75.44 74.64 73.99 74.92 75.51 75.85 75.39 74.90 74.18 74.26 74.55 74.31 72.99 74.07 74.55 74.53 74.13 74.00 73.98 74.10 74.10 74.10 74.14 74.33 74.81 74.56 74.68 74.70 74.81 74.59 74.12 73.67 73.61 73.24 73.31
74.75 75.24 74.98 74.48 75.12 76.57 76.13 76.72 75.49 75.34 74.31 74.18 74.23 75.42 75.53 74.94 74.86 74.76 75.47 75.76 75.31 72.87 73.90 74.62 74.28 74.46 74.58 74.54 74.83 74.96 75.36 75.64 75.57 75.67 75.58 75.51 75.49 75.52 75.58 75.20 74.36 73.82 73.28
75.97 75.75 75.09 75.20 76.42 76.06 75.80 75.31 74.83 74.46 74.21 74.81 75.01 75.24 75.51 75.40 75.47 75.48 76.00 76.24 76.44 75.63 74.13 72.76 74.11 74.90 75.26 75.28 75.81 76.21 77.31 77.44 77.44 77.32 77.29 76.86 76.53 76.26 76.49 76.24 75.83 75.41 74.15
75.78 76.29 75.80 75.62 77.01 74.89 74.99 75.46 75.12 75.58 74.96 74.84 74.49 75.38 75.60 75.29 75.83 74.99 75.33 75.62 76.17 76.05 76.02 75.22 72.95 73.64 74.06 75.35 76.23 76.55 77.17 77.63 77.72 77.70 77.67 77.60 77.19 76.54 76.11 76.11 75.96 76.41 75.78
75.38 76.80 76.43 76.17 77.55 76.69 75.81 75.69 75.72 75.77 74.92 74.11 72.91 73.62 74.83 75.36 76.09 76.20 75.63 75.68 76.56 76.27 76.36 76.22 76.73 76.62 73.84 74.59 75.20 75.78 76.14 77.52 77.66 77.77 77.77 77.24 76.46 76.36 76.49 76.53 76.18 75.75 76.08
75.72 77.30 76.03 76.18 76.63 76.13 75.58 76.57 75.98 75.04 74.15 74.68 73.46 73.82 74.18 74.81 75.63 75.97 76.29 76.22 75.67 76.32 76.38 76.82 76.82 76.75 77.02 75.40 74.71 74.93 76.03 76.75 77.36 77.73 77.67 76.46 76.41 76.16 76.63 76.66 76.38 76.15 75.77
76.88 76.85 76.30 75.98 76.22 75.43 76.00 76.19 75.75 74.39 74.09 73.82 71.83 72.74 69.40 70.87 72.97 73.24 74.59 74.93 75.71 76.54 76.24 76.00 76.35 76.91 77.42 76.87 76.95 75.88 75.59 75.58 76.82 77.48 77.59 76.55 76.19 75.96 76.55 76.69 76.30 76.02 75.75
76.24 76.99 76.42 76.31 76.61 76.65 75.33 75.99 75.69 75.33 72.54 74.21 73.98 72.05 70.15 67.63 70.40 72.94 73.26 74.81 75.82 75.86 76.11 75.70 76.00 76.52 77.06 76.72 76.66 77.18 75.09 74.16 75.87 77.18 77.30 76.64 76.11 76.06 76.81 76.77 76.16 75.83 75.79
75.79 76.47 76.50 76.42 76.88 76.75 76.25 76.48 77.08 75.93 75.77 73.37 75.06 74.21 74.45 73.81 70.28 68.68 72.76 73.82 74.51 74.71 75.39 75.41 75.39 75.96 76.26 75.99 76.72 75.39 73.46 74.43 74.96 75.89 76.38 76.50 76.33 76.36 77.27 76.71 76.14 75.84 75.79
76.64 76.61 76.39 76.57 76.10 75.74 76.81 76.84 76.75 77.05 75.88 74.55 74.07 74.91 74.93 74.55 74.81 72.75 69.20 70.72 73.72 74.31 75.30 75.63 75.28 75.55 76.03 76.67 77.20 76.04 74.86 74.18 73.98 74.78 74.96 75.05 75.51 75.37 76.53 76.05 76.14 75.69 75.19
76.16 76.72 76.24 76.57 76.14 75.81 76.06 76.41 76.86 76.33 76.22 75.90 74.94 74.71 73.86 72.95 72.86 72.89 72.39 73.26 70.90 73.57 74.57 75.74 75.76 75.97 77.02 78.16 77.56 74.21 74.78 73.34 72.82 73.09 73.13 73.64 74.24 74.92 75.00 75.22 74.93 74.71 73.58
76.33 76.14 76.68 76.23 75.54 76.08 75.75 76.25 77.27 76.64 75.63 75.01 75.22 74.21 74.93 74.36 75.47 74.61 73.88 73.20 71.62 73.78 74.92 76.36 76.83 77.73 77.13 79.00 78.93 75.03 75.85 72.51 71.69 71.00 70.71 71.63 72.50 73.55 73.93 74.33 73.53 72.65 71.69
77.43 77.53 77.05 76.97 76.50 76.53 76.06 76.24 75.31 76.14 77.08 76.48 75.11 76.44 75.91 75.56 75.22 74.87 74.24 73.23 72.12 73.11 74.87 75.67 78.33 78.71 78.99 78.29 77.33 75.29 77.39 72.57 70.74 69.77 69.24 69.62 70.22 71.45 72.56 73.53 72.52 71.78 69.66
75.34 76.33 76.92 76.77 76.89 76.61 76.36 75.77 74.82 75.67 76.42 76.05 75.75 76.35 75.37 75.71 76.81 76.04 76.13 75.66 73.02 70.06 71.79 75.33 76.52 78.52 77.92 78.60 76.95 78.37 79.35 72.82 70.32 69.77 68.23 67.73 68.90 69.86 71.00 71.83 71.59 70.54 69.52
75.66 75.89 76.12 76.25 76.53 76.68 76.60 76.35 75.61 75.75 75.78 75.41 75.14 75.33 75.53 75.04 75.88 76.89 76.80 76.34 75.69 73.51 70.62 75.33 76.63 77.23 78.29 77.72 77.04 78.46 78.64 73.28 71.46 69.41 67.65 67.25 68.43 69.42 69.78 70.26 70.85 70.13 69.15
74.81 75.14 75.64 75.40 75.99 76.09 76.20 76.00 76.37 75.93 75.24 75.57 75.39 75.16 75.39 76.44 74.89 75.80 76.76 76.00 75.31 75.18 71.74 74.18 75.82 77.20 77.82 77.89 77.40 77.77 77.54 78.82 77.23 69.59 68.24 67.19 66.88 67.94 68.70 69.02 68.89 68.92 68.45
75.17 75.09 75.00 75.27 75.25 75.42 76.43 76.11 75.36 74.86 75.27 75.03 75.39 75.01 74.67 74.55 75.77 76.17 75.37 76.50 75.64 76.02 73.18 72.85 74.76 74.19 75.87 77.47 77.49 77.67 77.03 76.73 77.65 73.26 68.66 67.00 66.32 66.74 66.05 65.94 65.33 65.59 65.34
75.93 75.65 75.27 74.97 75.21 75.04 75.30 75.72 75.85 75.57 75.13 75.58 75.31 75.46 75.11 75.36 75.30 74.51 75.10 74.26 74.10 74.59 74.45 73.43 72.97 74.93 75.46 76.07 76.59 77.20 77.41 77.63 76.19 72.21 68.95 67.19 67.90 67.57 66.00 64.56 63.69 62.12 60.73
75.69 75.80 75.81 75.45 74.64 74.59 74.22 73.86 74.21 74.98 75.18 75.55 75.83 75.85 75.85 75.58 75.42 76.10 75.44 75.82 75.17 74.66 74.83 74.24 73.69 74.03 74.76 76.73 76.53 75.02 74.46 76.10 76.19 76.90 73.67 69.59 68.38 69.05 67.55 65.52 64.99 64.96 60.79
73.49 75.25 75.46 75.31 75.11 74.21 73.63 73.60 73.48 73.61 74.10 74.89 75.43 75.68 76.11 74.58 71.49 72.13 74.70 76.58 76.63 75.49 73.60 73.09 72.76 73.26 73.29 73.33 73.83 74.63 74.67 75.56 76.73 76.42 75.14 75.48 74.79 75.46 74.87 70.67 71.78 68.63 64.92
71.09 71.95 72.99 73.08 73.11 71.65 64.09 65.03 69.66 73.68 74.63 74.93 75.21 76.14 76.30 72.07 72.37 67.64 67.01 67.30 72.16 75.63 74.71 72.62 72.37 72.59 74.81 74.97 75.02 74.49 73.99 73.34 71.66 76.00 75.14 73.72 74.68 74.30 74.89 74.95 68.83 66.52 63.94
67.91 67.97 68.50 70.15 70.40 69.23 60.28 61.11 64.41 74.06 74.81 76.12 76.27 76.77 76.41 75.66 73.64 76.27 69.61 66.23 66.79 65.62 67.50 75.69 73.99 75.11 75.35 77.18 76.75 75.92 75.63 74.69 73.75 74.89 75.40 72.45 74.33 73.59 75.57 74.88 67.36 65.33 63.21
65.50 66.19 66.59 67.55 65.28 59.30 56.12 58.82 61.95 71.73 73.42 74.44 75.12 75.45 76.32 76.31 76.05 75.37 76.12 75.82 76.29 77.08 76.26 74.06 74.80 75.85 77.03 77.59 77.74 76.91 76.06 75.64 75.44 75.18 77.50 71.97 74.24 73.71 75.71 76.34 67.98 65.12 63.06
63.39 64.60 65.04 67.19 61.23 56.38 53.27 55.00 65.07 70.11 70.97 71.63 72.70 73.66 74.16 74.33 61.04 60.61 72.97 74.68 75.45 75.80 71.21 65.07 65.27 65.03 64.36 63.37 66.73 74.23 73.71 72.99 71.96 73.01 76.02 73.90 74.08 74.10 75.23 75.44 76.21 67.15 63.29
62.61 62.98 61.50 60.83 57.30 54.77 51.98 51.89 57.16 61.61 61.61 65.98 69.91 67.68 60.88 58.48 56.07 56.73 66.62 71.74 72.44 74.37 74.55 75.70 75.97 72.77 68.34 73.04 63.17 71.98 74.62 72.84 72.74 72.22 75.64 73.42 73.64 74.04 72.38 75.07 75.93 76.42 76.56

GFSMA_sfc_wetblb_096.txt.gz
Wetbulb
75.83 75.89 76.62 76.12 76.31 76.25 76.42 76.29 75.68 75.80 75.69 76.07 76.08 75.78 75.14 74.67 73.68 73.05 72.42 73.89 73.63 74.01 74.21 73.49 73.42 73.34 73.58 73.66 74.15 73.99 73.91 74.34 74.32 74.55 74.73 74.69 74.53 74.49 73.94 73.48 73.53 73.05 73.31
76.44 75.82 76.24 76.21 75.82 76.33 76.21 76.33 76.02 75.36 75.17 75.06 75.41 75.37 75.08 74.37 75.14 74.42 73.13 73.42 73.71 73.87 73.82 74.07 73.79 73.90 73.94 74.11 74.41 74.73 74.70 74.84 75.14 75.53 75.44 75.38 75.37 75.66 75.53 75.20 74.31 73.88 73.32
77.53 77.28 76.09 76.32 76.23 77.17 77.96 76.77 76.30 75.86 74.20 74.20 74.85 75.31 75.30 75.39 75.27 75.71 75.77 75.01 74.33 73.34 73.78 74.03 74.24 74.41 74.55 75.00 75.49 75.84 76.28 76.50 76.43 76.34 76.56 76.56 76.45 76.55 76.56 76.33 75.92 75.26 74.34
77.70 77.46 75.76 75.79 77.29 78.16 77.24 75.76 75.38 74.07 74.32 74.11 74.94 75.43 75.20 75.63 75.78 75.90 75.91 77.38 76.95 76.46 74.24 73.59 73.11 74.07 74.87 75.70 76.23 76.66 77.25 77.98 77.96 77.73 77.58 77.40 77.13 76.82 76.81 77.04 76.43 76.38 75.65
77.64 76.99 76.42 76.84 78.39 77.29 76.64 76.39 75.10 75.94 74.85 75.11 74.41 74.98 75.22 75.40 75.65 74.79 75.55 77.25 76.31 77.85 77.48 75.25 74.13 74.18 74.45 75.24 75.94 76.58 76.82 77.90 77.99 78.04 78.04 77.51 76.62 76.30 76.69 76.89 76.49 76.11 76.29
77.64 77.59 76.64 77.49 78.35 77.69 75.89 75.83 76.68 76.29 76.13 74.98 73.13 73.33 74.77 75.70 76.28 75.82 75.26 75.94 76.39 77.10 77.54 78.60 79.01 77.21 75.61 74.91 75.48 75.54 76.18 77.36 77.90 77.90 78.01 77.16 76.81 76.31 76.84 77.06 76.84 76.51 76.11
77.20 78.54 76.51 77.39 78.24 77.02 76.95 78.21 76.72 75.81 73.75 75.16 73.28 72.41 72.78 74.20 74.71 75.40 76.33 76.68 75.68 76.55 77.16 77.77 79.13 78.42 77.87 76.94 76.07 75.80 76.01 76.41 77.34 77.59 77.88 76.84 76.56 76.28 77.04 77.10 76.58 76.31 75.98
77.86 77.77 77.42 76.65 77.96 75.90 77.93 77.74 77.23 74.75 74.43 75.45 72.40 72.65 69.22 70.33 72.61 73.61 75.27 75.37 76.00 75.82 76.09 77.45 78.39 78.72 78.62 78.24 77.28 76.90 76.05 75.03 76.54 77.30 77.76 76.81 76.43 76.26 77.14 76.85 76.57 76.20 75.86
77.73 77.90 77.51 77.92 77.32 77.47 75.54 77.83 77.13 76.40 72.57 75.20 76.55 73.08 69.24 68.20 70.55 72.79 73.75 74.29 75.42 75.53 76.72 77.24 77.95 78.56 78.87 78.52 78.66 77.43 75.19 75.05 75.93 76.89 77.36 77.28 76.48 76.48 77.37 76.56 76.28 75.98 75.83
77.20 77.29 77.83 77.64 77.88 77.41 77.51 77.44 77.44 77.17 77.13 73.65 75.38 75.95 77.02 76.02 70.28 68.10 71.71 72.86 74.74 74.63 76.19 77.07 77.21 77.28 79.01 78.55 77.04 76.16 74.63 75.76 75.59 76.61 76.73 76.12 76.27 76.11 77.02 76.20 75.98 75.71 75.61
77.64 77.22 78.08 77.88 78.07 76.64 78.05 78.35 77.99 78.05 76.81 75.47 74.34 76.23 76.84 76.63 76.58 71.79 68.34 69.70 72.92 74.98 76.47 76.75 77.11 78.05 78.73 79.31 78.86 75.56 75.70 75.36 75.08 75.46 75.60 75.84 75.73 75.79 75.90 75.79 75.52 74.99 74.05
77.03 77.29 77.58 77.96 78.18 77.83 77.39 77.25 78.88 77.60 77.52 77.08 76.58 76.62 74.63 73.65 73.18 73.42 72.13 72.34 71.55 73.31 76.38 77.09 77.80 78.31 78.71 79.08 77.86 75.87 76.16 74.80 73.65 73.24 73.36 73.83 74.56 75.29 75.61 75.77 74.98 74.09 72.81
76.78 76.93 78.04 77.99 77.01 78.11 77.67 77.96 77.34 77.88 77.45 76.82 76.89 75.74 76.79 75.80 76.25 75.70 74.34 72.25 72.00 74.09 75.36 76.91 78.43 79.40 78.03 79.43 79.08 76.44 77.88 73.66 72.52 71.19 71.02 72.03 72.83 73.68 74.88 75.61 74.64 73.50 71.58
75.35 77.57 76.72 76.82 77.39 77.55 77.71 78.06 76.40 75.68 76.78 76.19 75.99 77.27 75.94 77.00 77.02 76.19 75.02 73.64 71.27 71.90 74.16 76.24 78.69 79.54 80.12 79.13 77.20 75.85 78.13 72.64 71.36 70.47 69.52 69.48 70.60 71.73 73.36 74.48 74.26 73.43 71.70
76.81 76.85 76.55 76.28 76.40 77.07 77.57 77.97 75.64 76.69 77.52 76.79 76.43 76.69 75.74 75.88 76.47 77.08 76.87 75.86 73.50 70.36 72.17 76.17 75.25 79.05 78.56 79.36 77.01 78.32 78.66 73.02 71.83 70.33 68.15 68.00 69.39 70.92 71.66 72.80 72.94 71.94 70.89
77.89 77.07 76.59 76.40 76.47 76.60 77.80 78.16 76.32 76.98 77.10 76.27 75.58 76.08 76.34 74.63 75.21 75.64 75.58 75.42 75.34 73.53 70.71 75.83 75.58 77.25 78.38 77.80 77.52 78.14 77.70 74.08 72.75 70.45 68.65 68.45 68.45 70.27 70.61 71.54 71.78 71.66 70.52
77.35 77.47 77.20 76.23 76.40 75.90 76.39 77.06 76.91 76.62 76.49 76.39 76.71 76.14 76.17 76.93 74.61 74.21 74.96 75.08 73.97 73.81 71.77 73.28 76.13 77.24 78.61 78.06 78.22 78.68 77.71 77.43 75.99 70.97 69.74 69.43 68.05 68.80 69.66 70.15 69.98 69.99 69.81
77.77 77.46 77.20 77.15 76.95 76.34 76.83 76.39 75.72 75.71 75.95 75.23 75.11 75.79 75.50 74.54 76.10 76.31 74.68 76.72 76.18 75.93 73.26 74.25 76.15 74.80 77.22 78.12 78.10 78.51 76.97 76.27 76.28 72.98 69.80 68.64 67.85 67.53 67.18 66.66 66.65 66.43 66.16
76.49 75.83 76.16 76.00 76.71 76.79 76.27 77.00 77.11 76.45 75.82 75.39 75.39 75.36 75.50 75.55 75.70 74.55 74.84 74.01 73.77 73.80 74.61 72.87 72.78 74.05 75.35 76.61 77.10 78.96 77.62 78.05 77.03 73.23 70.00 68.03 68.90 68.97 67.32 65.32 64.26 62.97 61.26
76.79 76.01 76.24 76.23 76.32 77.11 76.97 76.96 76.71 76.70 76.35 75.80 76.06 75.68 75.27 75.42 75.88 76.06 76.14 76.14 76.12 75.36 75.65 73.15 72.58 72.20 73.41 76.88 75.91 74.01 73.02 74.67 75.27 76.13 74.92 71.85 70.51 70.78 68.32 66.08 65.36 65.01 61.55
76.11 76.91 76.99 77.15 77.44 76.94 76.24 76.51 76.26 76.03 75.66 75.47 75.89 76.28 76.17 75.04 72.01 72.71 75.09 77.26 77.46 74.98 72.97 71.51 71.57 71.71 72.02 73.07 74.37 73.76 73.12 73.82 76.20 76.08 74.94 75.75 74.69 73.71 73.94 69.29 70.71 68.73 65.93
74.43 75.58 75.52 76.07 76.54 75.83 62.48 64.61 70.69 76.14 76.29 75.88 75.92 76.81 76.95 73.72 72.80 68.85 67.77 68.01 71.51 76.23 74.96 73.56 72.54 72.81 75.95 75.42 75.50 74.25 73.89 72.56 71.50 76.00 75.53 73.60 74.49 73.58 73.74 74.42 69.55 67.02 65.33
72.15 72.01 73.20 74.13 69.23 67.65 57.56 59.99 64.07 74.88 76.79 76.70 76.65 76.68 75.90 74.79 74.19 76.15 70.04 66.94 67.21 65.91 67.53 76.59 74.29 74.63 76.41 78.13 76.86 75.88 76.47 75.06 74.07 75.13 75.32 72.76 75.21 74.30 74.67 74.61 68.53 67.17 65.42
71.36 71.79 71.03 71.13 66.03 59.44 54.65 56.84 61.41 73.05 75.62 76.32 76.50 76.46 76.41 76.02 64.38 69.25 76.00 75.80 76.15 76.81 77.21 75.53 76.02 76.85 77.67 78.27 79.10 77.83 77.18 77.43 76.85 76.42 77.96 72.27 74.59 74.15 75.71 75.91 67.81 67.26 65.16
69.33 69.53 70.34 67.01 63.28 58.80 52.41 53.28 62.71 73.23 73.56 74.58 72.65 67.76 70.12 68.78 57.50 57.99 73.33 75.29 75.74 76.08 72.00 65.27 65.36 64.83 64.19 63.83 67.38 74.68 73.75 72.98 72.25 73.09 75.81 73.47 73.72 73.67 74.63 74.97 75.82 67.48 65.50
66.53 67.45 67.19 64.18 57.87 59.69 50.81 51.31 56.79 67.13 68.44 70.39 71.94 68.04 57.97 58.81 53.61 54.25 67.55 70.86 71.79 73.55 73.36 72.98 74.27 73.15 69.22 73.26 64.43 74.46 75.70 73.45 73.22 72.47 76.12 74.72 74.61 74.72 72.76 75.41 75.45 76.01 76.75

GFSMA_sfc_wetblb_099.txt.gz
Wetbulb
75.73 75.97 77.40 76.18 76.54 77.01 77.07 75.54 74.94 75.26 75.35 74.85 73.97 73.93 72.72 73.01 72.58 71.20 70.37 74.20 73.82 73.89 73.98 73.47 73.39 73.15 73.26 73.48 73.92 74.19 74.49 74.84 74.88 75.37 75.56 75.44 75.31 75.23 75.06 74.57 73.84 73.57 73.05
76.24 75.71 75.15 76.89 75.01 77.64 77.68 75.28 75.83 74.83 74.99 73.44 74.31 74.24 73.30 73.32 74.31 72.89 71.48 72.93 74.08 73.53 73.80 74.02 73.67 73.92 74.08 74.19 74.74 75.28 75.66 75.80 75.99 76.31 76.42 76.42 76.33 76.26 76.11 76.02 75.76 74.91 74.09
77.87 78.04 76.00 75.77 75.01 76.44 77.26 76.68 75.51 75.29 73.05 72.73 74.27 74.66 73.79 74.48 74.60 75.29 74.12 74.10 73.58 74.03 74.25 74.06 74.30 74.51 74.55 74.88 75.70 76.29 76.69 77.23 76.98 76.99 77.37 77.40 77.46 77.06 77.03 76.60 76.34 75.96 75.54
77.41 78.65 75.27 75.86 76.15 77.94 74.89 76.05 73.88 72.99 72.94 73.27 73.75 74.03 73.83 74.24 74.99 75.67 75.77 76.51 76.32 75.17 74.52 74.72 74.41 74.77 74.99 75.67 76.44 76.96 77.26 77.84 77.62 77.39 77.75 77.55 76.96 76.51 76.85 77.01 76.78 76.48 76.05
77.77 76.60 78.07 76.26 78.10 75.86 75.75 76.21 73.37 76.36 73.60 73.04 73.38 73.76 74.46 73.84 75.21 74.58 76.11 76.64 76.66 77.07 76.37 75.97 76.13 75.69 75.40 75.85 76.24 76.35 76.66 77.40 78.14 77.61 77.74 77.39 76.48 76.34 76.93 77.34 77.04 76.69 76.29
77.42 77.50 76.35 76.92 76.60 77.01 74.94 75.48 78.15 74.66 74.73 73.86 72.24 72.73 73.62 74.19 75.12 74.78 75.50 76.06 76.61 77.05 75.94 77.79 78.10 76.97 77.04 76.49 76.04 75.42 76.20 77.46 77.77 77.71 77.78 76.98 76.80 76.39 77.01 77.19 76.99 76.69 76.34
77.60 78.37 76.59 76.89 77.32 78.12 77.32 76.51 75.50 76.10 72.55 74.20 74.18 71.83 72.21 73.84 74.43 74.39 75.58 75.82 75.87 75.20 76.31 77.59 77.82 78.22 77.52 77.97 76.68 76.16 75.52 76.06 77.30 77.40 77.77 76.73 76.59 76.85 77.37 77.16 76.61 76.41 76.26
77.97 77.61 78.79 76.84 77.94 75.84 77.05 77.08 77.42 75.06 72.37 74.01 72.57 72.35 68.31 70.73 72.54 73.13 74.44 74.92 75.89 74.61 75.61 76.91 77.62 78.58 78.91 77.63 78.41 76.17 76.34 75.08 76.56 77.44 77.89 77.19 76.42 76.54 77.29 76.86 76.48 76.21 76.01
77.37 78.19 77.95 76.91 77.47 78.45 75.54 77.05 76.38 76.98 73.92 73.34 76.72 74.10 70.08 69.27 69.74 72.50 73.65 74.28 75.39 74.31 75.22 76.45 76.45 77.67 78.53 77.96 78.28 76.91 76.06 76.01 76.54 77.57 77.69 77.61 76.73 76.29 77.31 76.53 76.16 75.73 75.66
77.05 77.37 77.62 77.64 78.44 77.96 80.09 77.88 76.51 78.37 77.39 72.40 72.83 74.43 76.50 76.08 71.44 67.92 71.38 73.12 74.14 73.95 75.30 75.69 75.60 77.13 78.24 77.87 79.11 75.86 75.91 76.54 75.96 76.87 77.22 77.32 76.81 76.17 76.53 76.15 75.82 75.32 74.66
77.51 76.68 77.51 77.66 77.80 76.77 78.05 79.90 77.58 78.65 75.53 75.62 74.75 73.47 75.95 73.55 75.09 71.54 68.97 69.83 72.87 73.79 74.55 75.14 75.33 76.41 77.69 78.06 78.20 76.18 76.62 76.21 75.51 75.52 75.12 75.69 76.40 76.87 76.52 76.60 75.53 74.94 73.68
76.30 77.38 77.55 77.90 78.44 78.30 77.96 77.26 78.46 77.90 79.41 78.18 76.78 76.62 73.38 71.71 72.57 74.28 71.03 71.35 71.01 72.75 73.83 74.68 75.56 76.56 77.00 77.72 78.12 77.47 78.20 75.99 74.38 73.57 73.25 73.95 74.68 75.57 76.98 76.93 76.15 75.17 73.77
73.81 77.77 77.89 77.50 77.26 78.29 77.74 78.12 78.28 78.01 77.38 77.48 78.26 75.57 74.16 74.42 74.65 74.71 73.44 72.69 70.24 72.37 73.42 74.74 75.71 77.05 77.40 77.82 78.10 76.63 79.81 74.33 72.95 71.84 71.07 71.70 72.88 73.56 74.68 76.50 76.50 75.27 73.83
75.06 78.38 77.39 77.45 77.38 77.95 77.73 77.80 76.25 75.69 78.26 76.13 76.78 79.08 75.95 75.03 75.39 74.69 74.06 72.66 70.89 70.47 73.20 75.73 75.96 77.31 78.09 78.50 77.33 76.29 77.08 73.19 72.47 70.91 69.64 69.96 70.98 72.33 73.17 74.62 75.68 75.20 74.27
76.20 77.24 76.93 76.69 77.17 77.36 77.63 78.06 75.47 76.34 75.88 77.17 77.26 77.38 76.12 74.84 74.29 75.25 75.29 74.28 72.41 68.33 71.38 68.51 74.82 72.54 76.47 77.77 77.13 78.10 78.05 73.52 72.45 71.31 69.01 69.05 69.74 71.36 72.21 73.03 73.36 73.36 72.34
76.65 77.28 76.32 76.53 76.55 76.67 77.07 77.65 77.52 77.76 77.13 76.14 75.65 78.03 77.04 75.13 75.42 74.42 74.48 74.57 74.03 72.32 69.80 73.75 75.98 77.71 78.79 78.09 78.00 79.06 78.05 74.13 73.54 72.00 69.54 70.08 70.10 70.64 71.46 72.05 71.95 71.85 71.58
77.28 76.50 77.00 76.60 76.68 76.66 77.01 77.84 77.87 76.96 76.86 77.10 77.49 76.89 76.12 78.39 74.66 74.16 75.31 74.54 73.82 73.39 71.10 72.98 74.79 77.62 79.21 78.71 78.45 79.42 78.37 79.05 76.19 71.67 70.69 70.32 70.22 69.58 70.97 70.94 70.86 70.32 70.26
76.78 76.78 76.94 76.92 77.10 76.48 77.52 77.37 76.15 76.05 76.23 75.66 75.55 75.83 75.36 74.68 78.27 78.32 74.17 77.01 74.77 76.08 73.08 73.61 75.05 73.97 76.96 80.06 80.57 81.10 77.59 76.55 76.60 73.04 71.53 70.35 69.96 68.04 68.06 67.92 67.63 67.16 66.34
76.70 76.31 76.81 76.68 76.24 77.04 77.18 77.26 77.22 76.74 76.18 76.02 75.70 75.74 75.41 75.61 76.82 75.37 76.76 74.93 73.83 73.60 74.85 72.71 72.45 73.96 74.62 75.03 76.51 79.17 79.86 78.61 76.79 73.28 70.87 69.49 69.98 68.54 67.67 66.13 65.18 64.08 62.27
76.23 76.39 76.66 77.03 76.69 76.75 76.05 76.94 76.67 76.58 76.43 76.07 76.11 76.26 75.82 75.46 76.38 77.00 75.26 78.23 76.56 74.92 74.80 72.98 72.10 72.92 73.32 76.51 75.16 74.15 73.31 74.53 74.28 75.19 74.62 72.19 72.06 70.21 68.31 66.28 65.99 65.20 61.80
75.87 76.39 76.43 76.82 76.84 76.29 73.25 72.38 76.87 76.56 76.77 76.22 76.43 76.34 76.59 75.47 72.49 72.60 74.79 78.16 77.40 75.77 73.49 72.80 71.33 71.22 71.39 73.63 73.47 73.31 73.72 73.85 76.06 75.83 74.84 74.85 74.90 74.75 74.48 68.65 70.91 69.08 65.47
74.61 75.79 75.87 76.27 75.71 68.93 61.45 62.84 68.65 76.49 76.38 76.43 75.67 76.62 77.69 73.80 72.90 69.60 68.79 68.65 71.46 75.25 75.01 73.27 72.41 72.19 75.37 74.92 74.46 74.20 74.16 72.26 70.70 76.23 75.31 74.72 75.73 75.08 75.13 75.91 70.66 67.95 65.61
74.30 73.89 74.31 72.27 69.09 64.83 56.55 58.43 63.30 71.96 75.58 77.13 77.34 77.21 75.70 74.47 73.66 76.16 70.32 67.39 67.90 66.48 67.93 75.80 74.12 75.12 75.93 77.46 77.89 76.66 76.10 75.11 73.64 75.64 75.99 74.57 76.19 75.43 75.89 75.29 68.83 66.98 66.51
71.69 72.73 72.56 70.41 66.62 59.08 53.98 55.63 59.04 70.25 74.56 76.14 75.80 75.88 76.31 73.69 64.10 65.78 72.50 75.23 75.77 76.49 75.12 74.83 76.23 76.35 77.91 79.11 78.41 77.81 77.45 77.05 76.66 77.06 77.90 73.96 76.23 74.93 76.03 75.97 66.98 67.29 66.95
70.91 71.42 71.16 69.06 65.91 59.44 52.20 53.14 60.92 73.27 74.82 74.21 71.85 69.81 73.26 71.05 55.65 56.07 70.32 73.73 75.36 76.62 70.45 65.59 66.59 65.54 64.26 63.95 67.90 74.17 73.20 71.80 71.63 73.30 76.59 74.16 74.72 75.27 76.03 76.90 77.17 67.50 64.81
69.39 69.42 66.49 66.80 59.09 61.61 50.93 51.34 55.94 64.07 69.85 68.20 73.43 65.02 55.43 57.28 52.82 52.39 62.05 69.08 71.05 72.95 72.25 71.92 71.39 72.19 69.84 73.42 65.32 72.85 76.13 73.57 74.14 72.10 75.26 74.05 74.57 74.73 72.85 76.17 76.90 77.62 78.16

GFSMA_sfc_wetblb_102.txt.gz
Wetbulb
77.13 74.73 71.35 72.74 71.52 71.71 73.73 75.37 74.41 75.01 75.13 74.96 73.44 72.58 71.88 72.24 70.33 69.71 71.54 75.03 74.86 74.08 73.52 73.24 73.24 73.13 73.27 73.79 74.34 74.72 75.15 75.41 76.00 75.96 76.22 76.26 76.28 76.29 76.10 75.69 74.85 74.16 73.90
75.18 73.42 71.44 74.49 74.88 73.35 76.39 73.43 72.05 72.05 74.65 73.30 74.16 74.12 72.74 73.44 74.07 69.68 70.61 72.84 75.28 74.93 73.79 74.04 73.77 74.01 74.26 74.79 75.22 75.83 76.61 77.04 77.37 77.50 77.56 77.55 77.27 76.92 76.39 76.48 75.98 75.73 75.30
73.72 72.22 73.32 75.30 76.68 77.39 77.06 77.97 77.12 75.17 73.53 73.75 74.38 74.79 74.26 74.37 74.86 73.45 71.04 70.91 73.13 75.58 75.35 74.87 74.84 75.02 74.97 75.09 75.90 76.88 77.78 77.99 78.10 77.85 77.83 77.96 77.96 77.60 77.27 76.54 76.34 76.49 76.37
76.04 74.73 75.48 76.02 78.53 78.77 78.21 74.70 75.65 75.17 74.12 73.90 72.75 74.28 74.28 73.96 75.32 75.64 75.56 73.41 72.75 72.53 75.40 76.32 76.38 76.52 76.06 75.99 76.69 77.63 77.55 77.83 77.95 77.97 77.85 77.98 77.24 76.91 77.30 77.53 77.17 76.24 76.57
75.15 78.29 74.40 76.52 78.23 77.65 71.34 73.22 74.09 74.79 74.38 71.96 73.28 74.24 74.41 73.77 75.13 75.08 75.89 76.50 76.06 74.50 74.27 75.70 76.13 76.43 76.84 76.70 77.48 77.25 76.96 77.57 78.02 77.78 77.76 77.41 77.08 76.89 77.32 77.52 77.12 77.07 76.52
78.64 77.83 77.96 78.17 75.59 77.69 72.18 77.18 75.34 73.89 76.65 71.28 72.21 73.30 74.16 74.82 75.10 74.94 75.52 75.65 76.12 76.22 75.41 75.31 75.07 75.15 76.71 78.31 77.78 76.86 76.96 77.86 78.01 77.96 77.74 76.91 76.58 76.84 77.27 77.17 76.92 76.75 76.47
79.36 79.38 78.12 78.12 74.74 74.50 77.31 77.25 76.62 76.12 75.67 76.11 75.92 73.55 72.95 73.89 74.16 74.44 75.26 74.81 75.53 75.85 75.70 77.06 77.49 76.47 74.77 77.63 77.80 76.72 77.32 77.11 77.80 78.17 77.74 76.79 76.54 76.43 77.02 76.77 76.59 76.54 76.34
79.01 78.87 77.45 76.95 71.91 75.02 78.63 78.01 78.49 76.79 74.50 75.21 72.79 72.44 69.53 71.49 72.34 73.06 74.86 74.84 74.69 73.94 75.48 77.58 76.81 76.87 77.03 76.16 76.30 76.90 76.41 76.94 77.76 78.42 78.22 77.26 76.62 76.29 76.95 76.54 76.29 76.21 76.11
78.80 77.26 77.52 74.95 76.49 74.33 74.54 77.59 78.49 77.43 74.43 74.15 76.52 73.44 69.23 66.88 69.88 72.02 73.12 74.28 74.02 74.72 74.89 75.74 76.35 77.35 77.19 77.63 77.10 76.22 75.45 76.17 77.47 78.16 78.59 77.97 77.17 76.63 76.67 76.92 76.24 75.99 75.79
77.13 78.40 78.10 76.32 76.44 72.79 72.63 76.35 78.83 77.88 77.45 74.51 73.95 74.55 76.26 72.94 70.54 68.98 72.39 72.93 74.47 74.23 75.23 76.05 75.47 76.77 77.47 77.47 78.72 76.55 75.40 75.75 76.30 77.05 77.22 77.67 77.70 77.65 77.46 77.53 76.69 76.11 75.13
77.87 77.13 78.57 78.22 77.70 75.94 74.81 72.85 76.04 78.72 77.95 76.13 74.20 74.73 74.26 75.13 75.23 69.07 68.66 69.78 72.59 74.28 73.42 74.60 74.68 75.73 77.02 77.02 76.89 75.23 75.88 75.47 75.47 75.21 75.08 75.63 76.21 76.98 78.04 77.72 77.36 76.38 75.40
77.55 79.31 77.09 79.78 79.54 73.58 74.52 77.34 78.52 78.43 78.86 77.81 76.80 74.99 67.88 66.15 64.21 67.56 69.34 69.96 70.94 72.48 73.98 74.43 73.35 75.44 76.45 76.73 77.88 76.33 77.76 75.24 74.29 73.60 73.32 73.74 74.49 75.05 76.20 77.91 78.02 77.10 75.91
71.00 73.98 79.81 78.04 77.79 77.92 77.19 78.32 77.61 78.49 78.29 77.04 77.52 75.84 69.22 67.06 66.72 67.32 71.47 68.95 69.06 70.75 71.49 70.28 70.91 71.09 71.04 71.29 72.45 76.00 77.12 74.12 73.11 71.68 70.75 71.29 72.57 73.69 74.67 75.94 77.47 77.33 76.50
71.42 74.39 77.29 77.76 78.35 78.30 78.23 78.38 78.03 77.19 77.97 77.37 76.94 77.26 76.96 74.82 73.48 75.12 72.80 68.53 67.92 66.73 65.49 68.09 70.30 71.06 70.29 69.04 71.10 72.67 76.05 73.56 72.66 70.77 69.78 69.52 70.45 71.61 72.85 73.63 74.88 75.36 75.21
71.51 70.44 68.10 76.38 77.40 76.18 77.48 76.73 77.54 77.08 73.37 72.31 74.76 77.47 76.99 74.81 73.48 74.66 74.50 73.87 70.10 64.66 60.52 63.25 65.08 70.28 69.07 69.51 69.60 77.24 78.02 74.05 72.86 71.68 69.23 69.94 70.34 70.55 71.76 72.21 72.75 72.73 72.82
68.35 69.40 69.99 74.37 77.12 76.81 77.85 78.87 77.70 76.44 75.89 73.34 74.87 76.16 76.29 76.19 75.53 74.14 74.68 73.02 72.67 69.88 65.72 66.05 66.54 71.12 69.16 71.71 70.97 78.21 77.92 74.18 73.39 73.22 69.84 71.95 72.39 70.99 70.77 71.60 71.53 71.20 71.36
69.99 69.57 73.61 76.56 75.71 77.75 78.24 77.54 77.72 77.28 75.16 74.77 75.96 75.58 75.00 76.84 75.54 74.84 74.22 72.91 72.88 72.46 70.29 71.18 71.37 70.75 70.39 70.62 76.93 77.92 78.39 77.40 76.13 71.02 71.02 71.93 72.51 71.46 70.18 70.58 70.32 69.92 69.79
76.96 77.62 78.41 76.54 76.98 76.29 76.55 76.58 76.52 76.28 75.62 75.11 75.51 76.51 76.05 74.00 75.99 76.95 75.74 74.99 74.86 74.95 73.33 71.22 73.29 74.05 74.81 76.84 77.16 78.27 77.90 76.61 75.64 74.16 70.16 70.04 71.78 69.28 68.55 68.03 68.03 67.41 66.54
78.02 77.90 78.06 76.06 75.15 76.21 75.56 75.92 76.67 76.09 75.77 76.03 76.32 75.69 75.81 74.90 75.22 75.12 75.46 74.76 74.02 73.87 73.08 72.38 71.49 72.52 72.59 73.21 72.93 75.02 76.40 75.59 77.41 73.25 68.79 68.99 68.69 67.42 67.15 65.93 65.14 64.32 62.68
74.81 74.49 76.96 75.50 75.28 76.74 75.96 75.92 76.12 75.83 76.07 76.48 76.50 77.07 76.61 76.25 75.12 75.30 74.48 74.72 74.09 73.94 73.46 72.82 72.66 72.44 72.21 73.13 74.65 71.81 70.07 74.33 74.22 75.79 73.84 71.57 71.46 69.34 67.55 65.50 64.80 64.63 62.14
73.13 73.79 74.44 75.77 70.42 69.30 66.25 67.79 70.73 73.61 74.31 75.71 76.50 75.82 76.17 72.99 71.71 71.17 74.79 75.16 74.53 73.57 72.54 71.48 70.93 71.32 72.08 72.44 72.15 73.22 73.22 72.75 73.24 74.09 72.91 74.07 73.64 73.57 73.28 70.67 68.89 68.45 65.85
72.02 72.59 72.32 73.45 69.29 65.30 60.17 61.26 64.88 73.47 75.37 74.89 75.59 76.68 77.28 72.71 73.15 68.83 68.49 68.52 70.73 73.46 72.70 73.28 72.63 71.23 72.08 73.14 73.72 73.84 73.29 72.20 70.91 75.62 74.03 72.77 74.09 74.10 74.88 74.43 71.81 68.94 67.09
70.68 70.41 70.92 68.25 61.76 58.27 55.87 57.64 61.15 69.04 74.03 74.89 74.79 75.44 74.66 71.21 65.93 67.71 70.76 67.89 67.66 66.74 67.08 72.56 72.20 72.69 73.12 74.23 75.17 73.76 73.70 73.50 72.58 73.80 73.35 72.12 74.55 73.80 74.97 75.44 68.14 67.94 67.85
69.28 69.84 69.47 67.02 62.91 55.59 53.88 55.62 59.80 67.78 72.34 75.03 74.91 74.51 73.90 65.14 58.92 58.94 66.23 72.87 74.89 75.74 74.58 72.80 72.33 74.18 75.70 76.11 74.85 74.54 74.03 73.70 74.13 74.26 74.87 71.43 73.90 73.46 75.25 75.64 68.87 67.80 66.01
68.09 70.01 70.54 67.63 63.26 55.20 52.39 53.04 60.81 68.09 74.59 73.30 69.57 60.89 66.83 60.66 55.46 55.15 65.85 68.10 70.56 73.30 68.57 65.38 64.90 63.53 63.07 62.87 65.79 71.55 70.90 71.31 69.91 71.22 73.66 72.70 72.89 72.59 74.01 74.44 74.59 67.02 64.01
70.92 68.16 66.84 65.03 60.91 57.19 51.52 51.68 53.58 63.12 64.66 64.26 66.60 61.44 55.00 54.31 52.71 52.77 59.09 62.30 65.50 66.83 63.68 63.10 65.09 66.61 67.51 70.25 66.04 69.81 71.90 70.72 70.65 69.66 73.99 70.43 68.96 69.77 67.70 72.39 73.23 74.23 75.46

GFSMA_sfc_wetblb_105.txt.gz
Wetbulb
70.75 69.47 66.83 68.60 69.60 70.55 69.90 69.83 71.09 70.60 70.94 70.09 68.63 68.46 68.26 67.58 67.82 69.99 71.12 74.38 75.15 74.56 73.96 73.64 73.56 73.67 73.89 74.05 74.29 74.85 75.45 75.73 76.42 76.12 76.30 76.39 76.53 76.36 75.96 75.80 75.58 74.76 73.98
70.85 70.75 67.60 68.14 69.99 70.47 70.43 70.21 67.88 68.68 69.62 69.11 69.49 68.66 68.91 68.13 66.23 68.51 70.85 72.09 75.56 75.66 75.15 74.43 74.41 74.51 74.76 75.01 75.22 75.99 76.81 77.53 77.59 77.36 77.60 77.57 77.42 76.94 76.49 76.28 76.13 75.81 75.63
69.15 68.25 69.28 69.04 71.70 71.70 71.67 69.63 69.00 70.10 69.61 70.30 68.98 69.29 69.40 69.73 66.92 67.18 68.65 70.08 72.79 76.02 75.87 75.69 76.15 76.27 75.57 75.53 75.96 76.88 77.81 77.82 77.95 77.72 77.62 77.55 77.47 77.07 77.15 76.64 76.42 75.99 76.09
70.72 70.98 70.27 70.59 72.03 74.35 73.71 72.98 72.18 69.54 68.99 68.79 68.60 68.65 70.19 70.51 70.74 67.89 68.70 69.03 69.93 70.66 74.50 76.36 76.46 76.50 76.78 76.39 77.01 77.91 77.62 77.28 77.29 77.46 77.24 77.24 76.74 76.82 77.25 77.36 77.09 76.79 76.31
73.44 73.75 72.45 71.64 74.21 72.41 69.29 70.57 69.67 70.22 69.01 69.29 69.76 69.53 68.94 69.75 70.57 72.41 70.51 70.19 69.79 70.38 70.58 74.35 75.93 76.18 76.57 77.08 78.08 77.96 77.41 77.09 77.23 77.35 77.18 76.85 76.41 76.69 76.99 77.29 77.08 76.96 76.76
74.16 74.02 74.03 70.98 69.47 72.49 71.57 71.99 70.22 73.14 71.83 67.92 71.19 69.75 68.94 70.14 70.66 70.96 71.76 72.69 71.79 71.32 71.33 71.55 73.04 73.79 76.13 77.60 78.39 77.58 77.13 77.22 77.08 77.30 77.16 76.51 75.97 76.44 76.84 76.71 76.71 76.73 76.58
74.31 73.72 73.56 70.87 65.49 71.41 71.83 72.29 72.40 72.22 71.51 71.38 69.56 68.76 67.26 68.73 70.13 70.49 72.04 72.02 71.87 72.66 72.32 72.69 72.25 72.66 73.36 76.57 77.17 76.85 76.88 76.80 76.87 77.64 77.31 76.45 75.95 75.80 76.56 76.11 76.20 76.30 76.23
73.71 74.44 72.93 71.82 71.27 71.47 72.01 71.95 71.74 72.55 70.18 69.64 67.62 68.22 63.57 66.00 68.64 69.71 70.60 72.21 70.99 72.19 72.55 73.99 74.77 73.99 72.47 73.31 74.40 76.70 75.79 76.17 77.16 77.88 78.01 76.99 76.20 75.81 76.09 75.86 75.62 75.62 75.67
73.99 73.83 71.81 71.52 70.82 69.43 66.31 68.95 72.54 71.97 70.65 70.50 70.23 69.15 65.03 63.97 64.76 66.83 67.39 69.86 69.27 70.36 71.26 73.05 73.77 73.77 74.52 73.72 75.94 75.53 74.99 74.77 76.30 77.35 77.68 77.46 76.89 76.50 75.92 76.52 75.61 75.16 74.91
74.21 74.26 70.97 71.27 70.02 65.17 63.17 68.12 73.96 73.15 72.37 70.81 71.34 71.63 70.67 69.40 65.62 63.12 67.73 68.72 68.84 70.60 70.06 71.39 72.87 73.20 73.56 73.58 75.28 75.02 75.24 74.27 75.13 76.02 76.46 76.71 76.76 76.91 77.26 76.75 76.24 75.59 74.41
74.47 73.94 74.16 73.52 70.66 69.53 70.87 71.21 70.64 73.66 73.30 72.00 71.56 69.58 68.50 67.40 65.30 66.86 63.93 65.86 68.59 70.43 70.35 69.62 70.95 69.77 71.17 73.02 71.70 72.11 73.33 74.43 74.00 74.53 74.55 75.07 75.70 76.61 77.39 77.72 76.88 76.09 75.53
72.03 72.57 74.07 73.22 71.24 67.76 66.15 69.87 73.20 73.22 73.28 72.53 71.14 68.13 65.76 63.91 63.05 66.37 64.83 63.44 64.49 68.20 70.17 70.57 69.79 69.79 69.92 69.76 68.54 71.08 71.79 72.55 73.16 73.09 72.67 72.59 73.67 75.17 76.19 77.13 77.94 77.25 76.30
69.29 70.39 71.72 72.84 72.35 69.75 69.18 72.09 71.76 71.86 73.12 72.49 72.96 69.22 66.54 65.61 65.14 66.55 68.17 67.15 62.57 66.72 67.47 68.99 70.13 69.38 70.46 68.82 67.90 70.16 71.46 70.24 72.13 71.79 70.80 70.52 71.48 72.36 73.58 74.96 76.59 77.44 76.67
71.11 71.71 72.26 72.43 72.87 73.24 73.14 72.69 71.91 72.47 72.06 70.71 70.52 71.85 70.36 69.48 66.61 66.86 66.91 63.53 61.62 65.92 67.17 65.63 68.03 68.39 68.32 69.04 68.84 70.58 70.21 69.10 73.31 71.45 70.49 69.60 70.09 70.91 71.53 72.37 73.53 74.73 74.78
72.03 71.33 70.05 68.38 69.91 73.01 73.79 72.82 72.02 70.89 70.37 69.50 66.92 70.90 71.93 72.24 72.19 70.92 69.93 65.72 67.51 62.90 62.91 63.51 63.98 68.51 68.86 69.07 69.15 68.66 69.17 69.82 72.72 72.39 70.90 69.68 70.40 70.20 70.43 70.70 71.49 72.26 72.40
69.53 70.38 68.20 68.41 69.77 73.32 72.61 72.35 72.26 71.85 70.77 67.53 67.12 71.62 70.67 71.59 70.99 70.92 70.58 69.38 69.35 65.59 64.21 65.49 66.19 68.50 68.97 69.28 69.83 70.48 70.37 71.81 72.61 73.41 71.61 69.06 69.54 70.81 70.17 69.78 70.19 70.58 70.75
67.56 66.92 68.96 70.74 72.81 73.29 72.95 72.03 72.00 71.83 71.09 71.29 71.26 71.37 70.79 71.44 72.36 72.01 71.21 70.95 69.89 70.10 67.21 69.03 68.27 67.91 68.22 68.42 69.17 70.88 73.29 74.08 74.39 71.41 70.31 68.86 67.88 70.25 69.79 69.12 68.78 68.77 69.25
70.24 69.82 72.14 73.20 72.75 72.87 72.47 72.63 72.81 72.60 71.33 70.91 71.26 70.50 70.67 72.69 70.47 70.23 71.04 70.40 69.22 69.74 68.18 65.74 68.87 69.84 67.97 70.35 71.45 71.85 74.79 76.90 75.61 73.88 69.06 67.91 68.02 69.17 68.50 67.56 66.69 66.34 66.08
72.21 73.09 72.67 72.32 72.48 72.37 71.88 72.48 72.83 72.46 72.11 72.11 71.60 71.57 71.44 71.58 70.89 70.20 69.33 68.75 70.24 71.09 69.58 68.37 68.25 68.87 69.04 71.20 72.30 71.34 70.71 73.25 74.44 73.26 70.60 69.01 66.93 66.88 67.00 65.79 64.57 63.69 62.35
70.88 71.86 72.58 73.13 72.07 69.74 69.33 69.72 71.20 71.84 71.94 72.72 72.82 72.11 72.15 71.48 70.49 70.43 70.27 70.03 70.30 68.52 69.29 68.61 68.38 68.45 69.78 71.26 71.65 70.51 71.48 72.10 71.00 74.34 72.56 70.76 69.99 69.04 67.61 65.57 65.04 64.51 62.20
70.51 71.98 72.41 69.36 68.30 65.74 63.83 65.05 66.68 69.43 72.44 71.55 72.28 72.65 71.87 71.56 70.44 69.55 70.79 70.14 69.74 68.64 68.27 67.64 67.36 67.83 67.92 68.74 69.08 70.87 70.26 70.72 71.01 71.10 71.48 72.53 72.48 73.03 73.08 71.21 72.07 69.91 65.56
68.94 70.89 69.34 67.02 63.72 60.19 57.48 59.09 61.41 65.00 70.47 72.41 71.61 71.31 71.09 66.48 66.97 67.09 67.69 67.20 67.73 67.82 67.31 68.25 68.08 67.94 68.14 69.15 70.75 70.60 70.35 69.72 68.55 71.73 71.29 71.74 72.61 72.55 73.67 74.47 71.86 70.01 68.56
68.70 69.77 64.42 58.79 54.13 53.23 55.46 57.12 60.50 62.14 67.61 70.10 70.59 70.93 69.80 63.18 60.55 62.31 66.15 68.12 67.96 66.39 67.15 68.34 67.74 68.50 69.15 69.90 70.75 70.10 69.87 69.88 69.65 71.78 71.50 70.30 72.17 71.27 73.53 74.52 70.36 68.69 66.75
67.78 66.03 63.46 60.28 54.34 51.99 54.25 55.58 60.67 64.71 67.35 68.80 65.85 67.85 62.58 56.94 55.26 56.42 63.67 67.50 69.30 66.66 66.44 67.32 68.08 68.32 68.55 68.74 68.77 70.16 70.72 70.39 70.97 70.92 70.64 67.86 70.31 69.19 71.01 71.96 69.26 67.20 64.95
66.77 66.39 64.07 59.62 53.63 50.37 52.76 53.57 59.26 62.59 67.49 62.01 56.75 58.39 55.19 52.22 54.45 55.94 59.02 59.93 63.38 64.75 63.76 61.44 61.20 61.35 61.41 61.30 62.77 65.48 66.08 66.93 67.06 67.67 70.09 69.36 69.58 66.82 66.85 68.49 70.65 67.05 64.79
66.75 63.04 62.09 59.37 55.85 50.14 51.78 51.78 55.27 55.59 57.81 62.49 59.43 55.81 55.17 51.50 51.96 52.42 52.59 54.89 57.91 59.79 57.03 57.36 59.76 62.39 63.46 65.36 64.16 66.48 67.69 66.66 66.48 65.69 69.74 67.85 66.11 64.94 65.13 68.01 70.14 71.48 71.28

GFSMA_sfc_wetblb_108.txt.gz
Wetbulb
69.38 66.88 65.14 66.73 67.89 68.86 69.70 69.43 69.06 70.44 70.95 70.50 70.50 69.22 66.47 66.90 67.19 69.40 70.17 74.69 74.88 74.24 73.57 73.55 73.71 73.87 73.90 74.11 74.51 75.10 75.57 76.07 76.36 76.27 76.55 76.59 76.35 75.90 75.90 75.57 75.22 75.02 74.17
69.48 66.93 65.77 67.16 68.50 70.02 69.74 69.34 69.27 66.39 68.19 68.68 66.78 67.24 67.01 66.81 67.62 68.80 70.12 70.75 74.99 74.81 74.52 74.51 74.35 74.45 74.67 74.99 75.53 75.92 76.59 77.29 77.53 77.25 77.48 77.31 77.33 77.01 76.28 76.05 75.65 75.37 74.87
69.41 68.39 67.86 68.75 69.81 71.21 70.51 69.94 69.32 68.99 69.21 69.20 67.54 67.71 67.14 65.78 66.63 67.61 69.34 69.73 71.33 75.27 74.83 75.17 76.07 76.32 75.45 75.54 76.05 77.04 77.85 78.01 77.76 77.61 77.28 77.11 77.06 76.60 76.63 76.70 76.58 76.25 75.70
68.23 68.18 68.16 70.00 71.08 68.98 72.71 71.62 70.47 70.37 69.51 68.35 66.81 67.83 68.17 66.84 65.57 66.12 67.28 68.23 69.36 70.57 72.97 76.29 76.62 76.51 76.27 76.24 77.16 78.08 78.02 77.32 77.23 77.23 76.92 76.92 76.42 76.53 76.73 76.90 77.00 76.90 76.50
72.32 71.72 70.93 70.55 71.52 72.01 68.98 69.79 68.74 69.27 68.64 67.40 68.12 68.17 68.83 68.43 68.35 67.79 67.11 67.27 67.52 69.15 68.74 72.50 75.83 75.99 76.20 76.52 78.11 78.72 78.03 77.07 77.07 77.20 77.04 76.51 76.01 76.12 76.58 76.80 76.46 76.51 75.37
73.31 72.94 71.53 69.63 67.42 71.20 70.69 71.81 70.34 71.35 69.68 67.82 70.08 69.51 68.03 68.29 69.02 69.53 68.19 69.65 68.88 69.48 69.12 69.96 70.90 73.54 75.78 76.89 77.31 78.17 77.80 77.38 76.81 77.10 77.04 76.56 75.60 75.69 76.35 76.10 76.14 76.16 76.01
73.45 72.43 72.26 69.60 68.92 70.58 70.74 71.17 71.20 71.45 70.65 69.34 67.35 67.61 66.20 67.64 68.58 69.48 70.41 70.77 70.27 70.95 70.40 70.82 70.50 71.34 72.00 76.08 76.17 77.02 77.83 77.80 77.01 77.25 77.25 76.56 75.85 75.31 75.47 75.55 75.49 75.66 75.48
72.80 72.73 71.69 70.48 70.57 69.88 68.17 69.34 71.98 71.49 70.34 68.26 67.58 66.11 62.30 65.12 66.87 69.07 69.64 71.09 70.43 71.19 71.95 72.09 73.00 73.07 73.04 72.65 74.72 76.71 76.57 76.19 76.91 78.00 77.64 76.99 76.39 75.71 75.09 75.42 74.87 75.01 75.04
73.08 72.46 71.14 71.05 69.73 67.89 63.46 66.85 71.77 71.49 69.58 70.24 70.06 67.70 63.37 61.66 63.86 65.18 66.79 68.89 68.68 69.81 70.68 72.67 72.36 73.15 73.32 72.97 72.69 73.18 74.94 73.10 75.78 76.59 77.58 76.79 76.22 76.23 75.95 75.25 75.02 74.47 74.12
72.41 72.93 70.31 70.91 69.12 64.06 66.27 69.13 71.72 71.90 70.65 69.58 70.23 70.53 67.16 67.01 64.28 62.22 66.40 68.19 69.15 69.15 69.58 70.42 70.43 72.53 72.11 72.29 74.03 73.23 72.53 72.18 73.53 74.54 76.17 76.85 76.27 76.30 76.65 76.73 75.70 74.65 73.68
72.24 73.72 69.53 71.49 69.17 68.91 69.88 71.06 71.70 71.54 72.12 70.20 68.28 66.96 66.37 65.28 66.76 64.55 61.81 62.08 66.89 68.79 69.26 69.58 70.14 70.78 71.35 68.41 67.94 71.31 72.21 71.40 71.76 72.48 73.45 75.15 75.61 75.87 77.02 77.33 76.75 75.93 74.57
70.97 71.27 73.12 72.23 71.24 69.47 67.76 68.00 71.70 72.00 71.74 71.41 69.08 66.38 64.62 63.86 64.31 65.80 62.13 61.35 62.38 66.91 68.88 69.36 69.59 69.73 70.85 70.72 70.49 72.41 71.82 70.83 70.50 71.02 71.21 72.97 73.75 74.11 74.84 75.68 76.92 77.38 76.65
69.22 69.62 71.18 71.48 69.84 68.88 64.84 69.67 70.50 70.05 71.56 71.00 71.09 68.12 64.58 65.16 64.79 65.77 66.37 65.62 62.12 64.78 67.65 68.51 69.75 69.72 70.72 69.78 68.96 71.32 71.11 70.17 69.71 69.12 69.04 71.70 72.04 72.09 72.77 73.91 74.51 76.32 77.25
69.13 70.74 71.27 71.82 71.93 72.00 71.04 71.84 70.56 70.87 70.99 69.58 68.77 69.03 70.62 67.05 65.93 67.63 65.84 63.14 61.12 62.94 65.77 64.87 67.23 68.85 68.73 68.49 68.71 71.94 69.36 69.33 68.84 67.97 68.77 70.26 70.50 70.24 71.37 71.81 72.13 73.49 74.69
71.07 70.48 71.33 69.63 69.01 71.49 71.74 71.60 70.52 69.94 70.08 68.62 66.43 69.93 70.20 70.86 70.01 68.60 68.10 65.86 66.24 62.64 62.88 64.78 63.98 66.20 68.33 69.00 69.49 69.11 68.31 68.82 69.01 68.73 68.78 69.04 68.78 69.43 69.81 70.52 70.11 70.91 71.85
70.52 70.76 69.71 68.26 68.12 69.78 71.69 71.22 71.11 70.88 70.10 69.67 66.00 69.40 69.20 69.81 69.97 69.94 68.97 67.49 68.60 65.73 63.38 66.29 65.70 65.62 68.86 69.97 69.54 68.87 68.56 70.25 70.12 69.06 69.13 68.51 67.90 68.56 69.29 69.42 69.23 69.36 70.11
68.11 68.90 68.02 67.86 69.72 71.44 71.69 71.02 70.69 71.04 70.08 69.66 69.97 69.72 69.85 69.49 69.87 70.67 70.27 69.95 68.21 67.86 65.29 67.13 67.60 67.96 67.59 68.05 69.60 69.36 70.54 71.08 73.54 70.24 68.01 67.31 66.69 67.27 67.71 68.13 68.19 67.65 67.97
67.18 65.94 67.27 69.99 71.71 71.89 71.54 71.20 71.02 72.26 70.69 69.92 69.89 69.97 69.97 71.41 69.14 69.62 69.27 68.47 68.53 68.55 66.86 64.31 66.89 68.38 68.12 68.99 69.85 70.14 72.44 74.57 73.24 71.25 67.60 66.75 66.62 65.96 65.61 65.64 65.55 64.71 64.34
70.82 69.75 71.06 71.15 71.51 71.36 71.05 71.15 71.09 71.21 70.91 71.18 70.79 69.89 70.38 70.06 69.81 69.44 68.25 67.46 69.01 69.45 68.55 67.41 67.25 68.32 68.63 69.95 70.48 71.99 72.06 71.89 73.84 72.16 69.77 68.44 67.65 67.00 65.85 64.50 63.67 62.62 60.47
69.17 69.84 70.55 71.13 69.00 66.91 67.20 67.70 69.50 70.06 71.31 72.02 71.87 71.85 70.87 70.81 69.71 69.39 69.59 68.75 69.29 67.66 67.61 66.69 66.24 66.49 68.18 69.69 69.99 69.13 70.15 70.68 70.79 73.32 71.35 69.88 68.69 68.80 67.60 66.07 65.76 65.65 62.57
69.31 69.58 68.60 67.45 65.56 64.44 63.20 63.36 66.04 67.09 70.35 70.77 71.87 72.03 69.97 69.18 67.70 67.61 69.07 68.79 68.96 67.21 67.03 65.77 65.57 66.06 66.17 66.93 67.14 69.39 69.19 69.89 70.31 70.37 70.53 71.72 72.22 72.23 72.59 70.04 70.81 69.05 63.81
68.26 69.10 67.11 64.21 60.97 58.83 57.59 59.05 60.93 64.15 67.27 70.25 70.68 71.06 67.18 65.60 66.53 65.18 65.18 66.01 67.56 67.44 65.93 66.24 66.51 66.19 66.38 67.70 69.07 69.14 68.87 68.19 67.16 70.82 70.03 70.79 71.48 70.91 71.70 71.99 67.37 66.16 63.85
68.24 64.11 58.96 55.24 52.44 53.65 56.27 58.03 60.82 62.41 66.69 69.23 68.40 69.05 65.51 60.43 59.03 60.92 64.64 67.07 66.84 66.07 66.16 66.82 66.08 66.12 66.91 68.44 69.28 68.15 67.25 67.54 67.81 70.33 70.17 68.82 69.94 69.38 69.76 70.46 65.67 64.93 63.70
65.62 61.25 58.39 54.90 52.03 51.86 55.06 57.72 63.02 65.97 65.80 63.08 64.86 61.63 57.11 54.52 54.98 58.37 61.53 63.02 66.46 64.26 63.00 63.09 62.35 64.39 65.08 65.46 64.66 65.29 65.39 67.43 68.96 69.95 69.63 66.21 69.06 68.32 67.30 67.21 65.21 64.59 62.96
64.20 62.26 58.95 55.14 51.06 49.25 53.36 56.28 61.28 66.28 61.37 56.42 55.97 53.96 52.50 51.40 54.07 55.59 55.63 57.52 59.85 60.52 59.27 58.78 58.76 58.98 59.11 59.46 61.71 64.12 65.53 65.26 63.99 66.33 68.81 67.22 66.85 66.04 65.06 66.04 68.65 64.43 63.26
65.13 62.34 58.39 54.81 52.78 48.99 51.94 53.17 54.12 57.77 60.06 58.96 56.53 55.37 54.74 51.08 51.75 52.15 51.88 51.97 53.59 55.56 54.68 57.27 58.85 58.81 58.59 58.77 60.22 62.06 63.60 63.39 63.08 62.94 63.37 62.88 63.91 63.61 63.32 66.42 67.18 69.02 67.60

GFSMA_sfc_wetblb_111.txt.gz
Wetbulb
68.67 65.35 64.67 66.45 67.45 68.67 68.89 68.91 68.79 68.72 66.80 68.60 68.08 69.99 67.78 66.61 67.43 69.57 70.30 75.11 75.08 73.86 73.62 73.53 73.58 73.84 74.23 74.39 74.95 75.28 75.86 76.29 76.77 76.63 76.56 76.54 76.17 75.82 75.59 75.19 74.91 74.71 74.48
68.46 66.49 65.80 67.50 68.26 69.10 69.60 68.86 68.58 68.25 66.73 68.09 66.07 66.34 66.32 66.49 66.69 67.43 68.82 69.36 74.24 74.21 74.21 74.09 74.45 74.59 74.78 75.19 75.50 75.89 76.43 76.90 77.09 77.04 77.35 77.30 77.20 76.57 76.44 76.44 76.07 75.52 74.99
68.79 67.16 67.39 68.89 69.81 68.60 70.77 70.82 69.97 68.46 68.26 68.99 66.48 66.08 65.98 66.10 66.55 66.86 68.25 68.78 69.86 74.05 74.56 74.74 75.51 76.17 75.40 75.54 76.12 77.16 77.57 77.68 77.30 77.27 77.10 76.97 76.92 76.80 76.44 76.59 76.95 76.12 74.35
68.85 68.70 68.75 69.09 69.69 65.43 70.97 69.00 69.15 69.41 69.25 67.86 66.18 66.21 66.30 65.03 64.85 65.21 66.29 67.41 68.07 69.55 71.78 75.33 76.49 76.47 76.13 75.79 76.92 78.26 78.30 77.62 77.04 77.17 76.97 76.82 76.61 76.49 76.67 76.74 76.03 76.29 76.14
69.42 70.79 70.96 70.03 69.93 70.49 70.43 69.51 69.13 68.38 68.06 67.12 67.33 67.22 67.62 67.46 65.81 66.44 65.70 65.97 66.20 68.35 68.04 70.61 74.23 75.73 76.09 76.69 78.27 78.38 78.42 77.76 77.11 77.01 77.32 77.02 76.46 75.86 76.24 76.71 76.08 75.65 75.48
72.19 71.46 69.92 68.66 69.09 70.29 70.30 70.33 69.42 70.32 68.30 66.77 69.20 68.70 67.23 67.46 68.21 68.58 66.58 67.64 67.31 67.38 68.28 68.38 69.36 71.36 74.68 75.71 77.08 77.28 78.20 77.90 77.41 77.28 77.22 77.07 76.49 75.76 75.49 76.19 75.71 75.80 75.92
72.66 71.16 70.26 65.98 68.82 69.63 69.39 71.19 70.75 69.68 67.72 67.87 66.70 65.89 65.34 67.03 67.08 68.85 69.55 69.53 69.76 69.61 69.81 69.84 70.21 71.13 71.90 74.93 75.76 76.74 75.81 76.11 77.00 77.55 77.22 76.92 76.72 76.19 75.06 75.42 75.01 75.28 75.18
72.02 71.74 70.54 69.93 69.97 67.48 66.72 70.28 71.11 69.66 69.33 69.05 67.64 63.88 61.39 64.31 66.54 67.53 68.95 69.69 69.66 70.09 70.99 71.85 72.36 72.70 72.78 72.84 73.87 75.77 74.48 74.82 76.22 76.97 77.20 76.72 76.44 76.17 75.62 74.69 74.96 74.71 74.43
72.97 71.63 70.79 69.07 68.71 66.15 63.40 68.18 70.55 70.41 68.12 69.51 68.83 66.64 62.74 60.75 62.98 65.75 67.59 68.59 68.78 69.13 70.70 71.66 73.07 73.22 73.18 73.35 73.87 73.85 74.56 72.78 74.21 75.38 75.96 76.04 76.04 75.99 75.91 75.64 75.06 74.66 74.16
72.05 72.25 70.40 69.67 67.35 63.83 67.17 69.30 71.39 71.23 69.33 67.59 68.13 68.00 66.18 66.36 63.39 60.76 65.43 67.02 68.17 68.35 68.92 70.31 71.43 72.42 72.93 72.71 73.56 73.98 73.69 72.53 72.78 73.64 73.87 74.46 75.46 75.97 76.32 76.24 75.73 74.65 74.24
71.46 72.78 69.34 70.34 68.13 68.51 69.34 70.11 70.95 71.03 70.86 68.23 66.49 65.91 65.38 64.77 65.24 63.71 60.80 61.91 65.06 67.86 68.55 69.05 69.81 70.68 72.00 71.54 68.39 69.10 72.13 71.98 71.86 72.11 72.63 72.40 73.69 75.56 75.46 76.53 76.52 75.94 75.34
70.38 71.11 71.99 70.72 70.23 69.40 68.06 68.56 70.79 71.08 70.73 69.70 66.89 64.81 64.01 62.93 62.95 63.93 61.65 60.50 62.15 64.98 67.97 69.05 68.83 69.25 70.72 70.93 72.16 72.45 72.28 71.24 70.58 70.54 70.62 70.81 72.27 74.94 75.07 74.68 75.46 76.64 76.97
69.05 69.62 71.05 71.11 69.57 68.26 67.05 67.05 69.94 69.43 70.43 70.18 68.97 67.05 64.71 63.92 64.15 65.15 65.13 63.99 61.63 62.21 66.13 68.22 68.71 69.39 69.70 69.13 68.81 71.07 71.46 70.13 69.47 68.72 68.47 69.43 70.92 72.90 73.61 73.42 73.75 73.91 76.19
69.11 69.66 70.47 71.48 70.80 70.48 68.16 70.73 70.20 70.10 70.59 69.16 67.72 68.90 68.76 66.43 65.42 67.34 65.67 62.69 62.26 62.66 65.12 65.19 66.61 67.86 68.57 68.09 69.07 71.52 69.54 68.85 68.42 68.01 68.27 68.81 69.19 70.41 71.70 71.61 72.04 72.45 73.68
69.59 69.85 70.97 70.58 70.87 71.21 71.10 70.71 69.90 69.10 69.19 68.35 66.72 67.70 69.92 69.39 67.81 66.72 66.94 65.26 65.06 60.97 62.20 65.17 63.86 65.72 67.17 67.95 69.15 69.45 68.51 68.61 68.32 68.70 68.29 67.65 67.63 68.65 69.61 70.12 70.46 69.92 70.88
70.23 68.42 69.74 69.15 68.47 68.90 70.49 71.07 70.38 70.10 69.10 68.49 65.71 67.63 68.23 69.27 69.29 69.09 68.52 66.83 67.14 64.99 62.15 65.35 65.96 65.31 67.30 69.30 70.35 69.71 68.62 69.65 69.51 68.96 67.98 66.40 67.02 67.85 68.26 69.02 69.41 69.15 69.02
68.71 68.86 69.23 67.88 66.92 69.15 70.55 70.69 70.28 70.48 69.64 68.57 69.32 69.28 68.83 69.09 68.58 69.38 68.95 68.78 67.50 66.42 64.52 65.61 67.14 67.34 67.18 68.32 69.45 70.47 71.61 71.76 72.10 69.39 67.81 66.73 66.97 67.05 67.18 67.09 67.22 67.41 67.58
67.50 66.45 67.21 66.64 68.94 70.99 70.86 70.79 70.16 71.73 70.37 69.45 69.03 68.64 69.03 71.35 68.88 68.29 68.64 68.17 67.70 67.83 66.45 63.48 65.87 67.77 68.02 68.71 69.40 69.51 72.08 73.78 71.89 71.02 67.44 67.18 66.64 66.23 65.84 65.77 65.48 64.93 63.66
68.15 67.78 68.14 69.20 70.33 70.60 70.31 70.41 70.87 71.19 71.12 70.95 70.43 69.88 69.81 69.86 69.11 69.33 67.91 67.43 67.92 68.95 67.52 66.33 66.18 67.39 67.83 68.63 69.42 69.91 71.02 71.08 72.82 71.76 69.40 68.46 67.15 66.50 65.91 64.58 63.71 62.42 60.19
68.44 69.57 69.95 70.24 69.47 67.48 67.82 67.99 69.14 69.72 70.16 70.93 71.27 71.13 70.93 70.51 69.31 69.06 69.26 68.66 68.43 67.82 66.63 65.75 65.14 65.37 66.69 68.12 68.62 68.09 68.90 69.91 70.44 72.34 71.12 69.34 68.60 68.75 67.79 65.63 66.02 64.87 60.95
69.47 69.27 68.94 67.32 65.74 65.24 63.42 62.90 64.97 66.49 67.73 69.14 71.37 71.65 70.12 69.12 67.88 67.21 69.51 68.91 68.33 66.96 66.85 65.50 65.09 65.25 65.86 66.17 66.13 68.27 67.99 68.99 69.12 69.75 69.73 70.43 70.66 70.71 70.22 68.08 68.96 66.64 63.72
68.82 69.59 67.00 64.75 62.12 62.38 59.27 58.97 61.41 63.82 66.83 69.86 70.12 68.76 67.84 66.60 64.95 63.90 64.54 65.28 66.45 66.51 65.75 65.38 65.22 65.18 65.63 66.64 67.81 67.86 67.52 65.87 65.06 70.16 68.96 69.58 70.33 69.32 69.10 68.09 64.89 64.38 63.03
68.09 64.22 60.38 57.14 54.39 54.02 56.76 58.26 60.46 62.18 66.52 68.96 69.82 69.06 64.19 59.03 59.69 62.12 64.64 64.31 63.68 63.91 65.17 67.34 66.10 66.01 65.66 67.73 64.76 64.13 64.03 65.02 65.24 68.13 68.92 67.41 68.68 68.05 68.10 67.84 63.77 63.11 62.77
63.41 58.21 54.76 53.30 52.16 53.72 56.54 59.71 64.10 65.89 64.96 65.63 64.71 63.85 59.87 55.38 55.19 57.99 60.61 65.20 62.67 59.79 59.55 60.00 58.41 59.70 60.86 61.68 61.61 63.20 63.52 64.56 66.13 67.17 64.48 64.51 66.80 64.87 66.60 65.92 63.57 62.01 60.99
60.18 57.13 54.49 51.90 50.10 50.42 54.32 57.11 63.12 61.68 59.83 58.02 57.56 57.72 54.58 51.35 53.97 55.36 54.72 56.58 57.24 55.47 57.72 58.42 58.67 57.77 57.54 57.97 59.67 61.98 62.70 61.75 61.25 64.54 56.44 59.77 63.95 61.54 63.89 65.27 66.26 58.92 58.64
61.59 58.19 55.16 51.33 51.49 48.15 52.17 52.76 59.26 58.84 54.60 54.89 56.58 54.99 54.71 51.51 51.48 51.94 51.00 51.81 52.36 53.31 54.99 55.45 55.24 55.86 55.95 55.95 57.49 55.38 56.45 55.94 59.79 54.32 53.28 56.26 53.12 57.36 56.33 62.72 63.21 57.92 59.11

GFSMA_sfc_wetblb_114.txt.gz
Wetbulb
69.31 66.79 67.47 69.02 69.90 70.81 71.19 70.96 70.29 70.19 69.32 69.99 69.64 71.82 68.66 69.27 69.89 70.66 72.11 74.03 74.46 74.41 73.72 73.30 73.41 73.92 74.30 74.74 75.22 75.75 76.17 76.57 76.88 76.52 77.02 76.82 76.60 76.20 76.18 76.28 75.12 75.23 75.01
69.57 67.76 67.93 69.93 70.87 71.15 71.20 71.06 70.89 70.18 69.83 70.26 69.08 69.02 70.07 68.94 69.27 69.81 71.00 70.81 74.54 74.07 74.03 74.11 74.39 74.72 74.94 75.15 75.74 76.43 76.96 76.54 76.99 76.86 76.74 76.40 76.61 76.91 76.28 76.53 76.63 76.50 75.72
69.96 68.80 68.52 70.51 71.18 69.62 72.40 71.99 71.73 71.42 71.62 71.76 69.72 68.94 68.61 68.69 68.92 68.59 69.22 69.61 70.59 73.30 74.43 74.56 75.20 76.15 75.77 75.70 76.22 77.41 77.93 77.68 77.32 77.15 77.21 77.00 76.73 76.88 76.18 75.68 76.46 76.51 76.40
70.48 69.74 70.17 70.80 71.13 69.43 72.39 72.26 71.90 71.21 71.38 70.88 69.63 69.36 69.11 68.35 68.19 68.04 68.31 69.45 69.98 69.97 71.13 73.25 75.95 76.59 75.72 76.22 77.22 78.11 78.28 77.62 77.10 77.23 77.28 77.23 77.18 76.78 76.45 75.32 76.05 76.20 76.00
70.53 70.71 72.07 71.95 72.37 72.94 72.74 72.22 72.65 71.01 70.83 69.77 69.77 70.03 70.23 69.91 68.78 67.71 68.10 68.56 68.82 69.97 70.16 70.63 72.61 74.39 75.30 76.63 77.50 77.93 78.09 77.20 76.96 76.84 77.20 77.31 77.08 76.68 76.30 75.93 75.75 75.70 75.67
72.54 72.74 71.88 70.73 72.15 73.02 72.75 72.55 72.41 71.94 70.54 70.24 69.83 70.16 69.84 70.22 70.63 71.29 71.09 70.81 70.02 70.79 70.82 71.44 71.97 72.22 74.15 75.49 76.73 76.73 77.67 77.28 76.79 76.97 77.00 76.76 76.86 76.81 76.23 75.73 75.55 75.62 75.55
73.16 72.47 71.49 69.37 72.25 71.95 71.08 73.42 72.62 71.47 71.18 70.51 70.59 69.23 68.63 69.52 70.22 71.32 71.05 71.26 72.14 72.94 72.70 73.03 73.17 73.70 73.68 74.84 75.51 76.15 76.44 76.43 77.25 77.42 76.90 76.35 76.30 76.00 76.10 75.53 75.20 75.25 75.02
73.27 72.40 71.43 71.03 71.98 70.08 71.55 73.17 73.00 71.48 71.19 71.09 70.51 66.61 65.41 67.20 68.79 69.67 71.28 71.26 71.42 72.13 73.00 74.02 74.43 74.66 75.44 75.24 74.92 76.13 75.54 73.70 75.92 76.68 76.32 75.80 75.90 75.50 75.38 75.57 75.02 75.12 74.55
73.26 73.05 72.22 71.85 71.34 68.93 70.32 72.32 73.62 72.29 71.06 70.44 70.36 69.67 66.71 65.19 66.45 69.87 69.95 70.50 70.56 71.79 72.50 73.53 74.58 75.12 75.35 75.07 75.03 74.70 74.82 73.75 73.56 73.67 75.40 75.17 74.85 75.70 75.22 75.40 75.54 75.16 74.55
72.94 72.52 72.35 71.02 69.70 67.25 71.43 72.65 73.40 73.28 71.71 70.67 70.61 68.85 69.03 70.09 66.78 65.71 69.12 69.02 70.02 70.36 71.30 72.06 72.95 73.48 73.92 74.18 72.38 72.18 71.13 72.78 72.98 72.48 73.21 73.66 74.10 75.50 76.25 75.42 75.50 75.59 74.79
72.78 73.70 72.00 71.86 69.79 71.49 72.12 73.35 73.53 73.76 73.22 70.54 70.28 69.70 68.67 68.21 67.93 67.77 65.94 66.90 68.35 69.77 71.59 71.85 71.59 72.27 72.80 73.05 73.72 71.92 72.19 72.25 71.15 71.82 71.97 72.97 73.36 74.11 75.84 75.96 75.62 75.88 75.92
71.64 72.81 72.78 71.05 72.12 71.79 71.30 72.35 73.60 73.43 73.23 71.24 68.95 68.66 68.70 68.46 68.06 68.12 67.10 65.78 66.16 69.25 70.11 71.16 71.79 72.03 73.16 72.25 72.09 72.56 72.58 71.54 70.60 70.35 70.32 71.43 72.61 73.18 74.47 74.93 74.53 75.42 76.96
70.84 71.59 72.86 72.68 72.07 72.02 70.71 69.54 72.63 72.60 72.86 73.03 71.93 70.45 68.72 67.31 67.96 69.23 69.12 67.72 66.00 66.99 69.05 71.69 72.27 71.86 72.35 71.57 71.22 71.13 72.48 70.46 69.52 68.44 68.69 70.14 70.86 71.53 72.65 73.78 73.77 73.85 74.97
71.01 71.76 71.62 73.17 72.57 71.74 69.46 70.53 72.33 72.09 72.63 72.15 71.45 72.38 72.15 69.88 68.89 70.63 69.61 68.20 67.77 67.80 68.93 70.20 71.04 71.34 70.86 70.98 71.29 71.73 72.27 69.18 68.62 67.95 68.13 68.32 68.97 69.93 70.98 71.98 72.26 72.63 72.96
71.13 71.29 71.98 72.70 72.57 72.98 72.68 72.74 72.32 71.76 71.94 71.23 70.48 71.02 72.60 72.63 69.57 69.73 70.18 69.89 69.77 67.24 67.59 69.59 68.90 70.54 71.65 72.88 72.93 74.22 73.38 69.82 68.74 68.63 67.72 66.81 67.73 68.67 69.42 70.18 70.26 70.38 70.46
71.01 70.81 71.31 71.41 71.54 71.44 72.51 72.94 72.95 72.54 71.64 70.94 69.10 70.77 71.97 72.30 72.18 71.49 70.97 69.76 70.19 69.14 67.46 69.37 70.33 70.54 72.27 72.33 73.17 74.28 74.28 71.29 70.56 68.94 67.54 67.12 67.47 68.03 68.29 68.42 68.63 68.78 69.07
71.44 70.93 70.45 70.96 69.97 70.27 71.76 72.12 72.20 72.40 71.77 71.59 71.77 71.30 71.94 71.86 71.20 71.65 71.66 71.15 70.10 69.28 67.95 69.76 70.43 71.70 72.09 72.84 73.97 74.23 75.05 75.27 74.73 68.27 67.62 67.20 66.55 66.89 67.33 67.62 67.13 66.89 66.58
69.83 69.94 70.64 70.05 69.19 70.33 72.64 72.54 71.87 72.75 72.01 71.43 71.37 71.41 71.32 71.77 71.90 71.53 71.18 71.71 71.07 70.56 69.68 68.58 69.47 71.30 71.70 72.80 73.01 73.70 73.89 74.53 74.89 70.61 67.55 66.84 66.13 66.09 65.93 65.58 64.93 63.65 61.51
69.86 69.24 68.20 68.51 69.83 72.50 72.68 72.63 72.24 71.73 72.71 72.51 72.68 71.90 71.92 71.92 71.69 71.91 71.17 70.79 70.00 70.69 70.33 69.57 69.41 70.70 70.93 71.74 72.46 73.08 73.55 74.15 74.02 71.35 69.16 68.20 67.02 66.65 65.58 63.91 63.51 61.19 59.20
69.84 70.50 70.73 71.43 71.82 71.34 71.10 70.75 70.59 71.10 71.23 72.09 72.76 72.62 72.66 72.72 72.31 71.77 71.14 71.18 70.94 70.86 69.43 69.26 68.53 68.39 69.33 71.04 71.26 70.84 71.42 72.49 71.77 73.58 71.79 69.75 69.10 68.48 67.15 64.60 64.73 63.83 60.92
69.97 69.50 69.91 69.93 68.75 68.52 66.56 66.02 67.68 68.25 69.22 70.85 71.75 72.75 72.06 70.15 68.01 68.28 71.65 71.24 71.00 70.77 70.08 69.15 67.90 68.52 68.99 69.34 69.83 70.86 70.49 70.42 70.89 72.80 71.86 73.08 73.94 73.24 71.07 68.09 67.43 64.36 61.29
69.10 69.55 68.31 67.12 66.71 65.31 59.15 59.83 61.78 65.13 67.58 69.70 70.94 71.64 68.80 66.93 66.06 64.12 65.40 65.58 67.48 70.17 69.60 68.98 68.49 68.91 69.37 69.99 70.18 67.24 68.72 67.71 66.85 70.92 70.41 72.08 71.95 69.98 70.35 66.58 63.21 61.72 59.67
68.47 68.22 65.82 62.32 59.19 57.68 57.64 58.51 60.91 62.93 66.92 69.07 70.27 68.99 65.69 62.60 62.29 65.20 64.11 63.25 62.88 62.72 64.99 69.92 68.93 68.26 66.41 67.70 64.86 65.81 67.16 67.88 68.06 61.32 68.10 70.66 68.98 66.34 69.38 62.07 60.69 60.15 57.89
66.52 63.21 58.47 56.00 56.18 57.15 56.29 59.34 63.27 66.77 66.78 63.89 64.06 64.02 60.82 59.55 60.07 59.74 67.08 65.85 61.61 61.79 62.13 62.19 63.12 62.56 61.60 61.62 64.34 66.35 66.66 67.81 69.43 59.33 59.17 64.15 65.15 63.36 68.81 66.34 58.89 57.99 56.44
61.47 58.79 57.03 55.63 55.38 54.24 53.64 58.29 63.48 63.26 60.51 58.74 58.15 58.91 57.64 54.85 53.79 55.44 61.01 62.50 59.69 59.79 58.46 57.61 57.75 56.93 56.07 56.01 57.63 63.92 61.58 65.09 65.58 60.94 54.26 59.85 57.98 59.56 64.76 64.97 61.10 58.24 53.31
60.58 57.08 54.62 53.68 52.01 52.79 52.30 53.22 59.95 59.44 56.85 57.15 58.06 57.07 54.44 53.85 52.61 52.80 56.83 58.12 58.45 57.93 59.30 58.27 57.07 56.23 56.29 55.97 56.03 57.97 59.81 62.43 63.26 56.40 53.62 56.24 54.38 56.06 56.69 63.53 59.36 56.97 57.24

GFSMA_sfc_wetblb_117.txt.gz
Wetbulb
74.15 72.43 73.31 74.46 75.30 76.14 76.09 76.05 75.64 75.22 75.00 74.14 73.72 75.05 73.69 72.88 72.59 72.40 73.49 73.26 74.22 74.36 74.11 73.71 73.77 74.40 74.80 75.26 75.66 76.11 76.54 76.96 77.21 77.03 76.67 76.58 76.37 76.31 76.20 76.15 76.38 76.27 76.29
75.23 73.90 73.44 75.10 75.72 76.04 76.74 76.64 76.23 75.67 75.66 74.27 73.56 74.00 74.14 73.01 72.43 72.26 72.94 73.53 74.22 74.83 73.86 74.25 74.66 75.29 75.46 75.76 76.03 76.61 77.26 77.55 77.79 77.14 77.13 77.32 77.07 76.59 76.33 76.30 76.18 76.38 76.62
75.07 75.23 73.86 75.17 74.91 73.97 76.79 76.89 76.74 77.06 76.58 74.19 73.85 73.46 73.12 72.73 72.08 72.06 72.83 73.45 73.64 72.36 73.72 74.51 75.12 75.84 75.82 76.23 76.54 77.30 78.53 78.41 78.10 77.71 77.78 77.81 77.58 77.30 76.84 76.21 75.89 75.30 75.85
75.17 74.99 75.27 75.13 74.80 75.37 77.33 77.25 76.94 76.05 75.66 74.35 74.08 73.68 73.47 73.81 73.48 73.13 73.38 73.71 74.45 73.83 73.43 72.31 73.60 75.35 75.75 76.32 77.22 78.37 78.47 78.30 77.56 77.59 77.62 77.70 77.88 77.66 77.20 76.72 76.36 75.42 75.29
74.51 75.40 75.85 75.95 77.15 77.61 77.92 77.53 77.44 76.58 74.48 74.00 73.93 74.37 74.70 75.25 74.85 73.66 74.04 74.42 74.49 73.53 74.64 74.69 73.35 74.21 74.87 76.46 78.02 78.26 77.88 78.00 77.21 77.20 77.44 77.65 77.46 77.18 77.13 76.50 76.15 75.39 75.24
75.37 76.84 76.38 75.77 77.56 77.74 77.60 76.90 77.14 76.54 75.68 75.36 73.42 74.02 75.65 75.98 76.12 76.50 76.21 76.06 76.50 75.29 75.98 76.50 76.43 76.32 74.37 75.04 77.19 77.60 77.65 77.57 77.05 77.46 77.34 77.03 76.82 76.72 77.00 76.50 75.97 75.45 75.02
76.93 77.35 76.23 75.26 77.38 76.49 77.10 77.92 76.95 76.43 75.61 76.11 74.84 74.15 74.90 75.38 75.22 75.26 75.78 75.90 76.09 76.71 76.99 77.21 77.54 77.32 77.64 75.40 75.71 76.19 76.37 76.14 77.43 77.40 76.88 76.30 76.43 76.12 75.89 76.05 75.78 75.47 74.87
76.94 76.68 76.34 75.43 77.01 76.13 77.74 77.80 77.59 75.99 75.80 75.89 74.16 72.56 69.92 71.62 73.85 75.23 76.04 75.51 75.62 75.97 76.29 77.10 77.67 78.01 78.61 78.61 77.77 75.72 76.66 74.99 74.65 74.50 75.35 76.07 75.65 75.83 75.41 75.24 75.70 75.73 75.27
76.76 76.54 76.43 76.65 76.65 75.01 76.38 77.71 77.43 76.39 74.79 74.57 75.18 74.03 70.29 69.18 72.71 74.85 74.86 75.99 75.66 76.11 77.21 76.97 77.21 77.99 78.12 78.18 77.71 76.90 75.46 73.25 73.53 73.52 73.79 75.38 75.42 75.60 75.97 74.99 75.44 75.82 75.65
76.54 76.50 76.07 75.68 76.02 73.58 76.28 77.42 77.54 77.08 76.92 74.45 74.78 74.15 74.99 74.68 71.61 70.30 73.86 74.96 75.11 75.04 76.13 76.94 76.36 76.56 76.95 77.11 75.33 74.25 72.36 72.98 73.13 72.55 72.90 73.35 74.80 74.30 76.28 75.68 75.33 75.52 75.87
76.54 76.46 76.51 75.92 74.56 74.27 76.76 77.53 77.63 77.73 76.56 74.79 74.47 74.38 74.12 73.31 73.40 71.75 69.23 72.21 73.61 73.67 74.94 75.94 76.22 76.06 76.51 75.80 75.77 75.00 72.93 72.48 72.27 72.36 72.09 72.59 73.88 74.86 75.45 75.93 75.36 75.68 76.30
75.01 76.65 76.79 75.65 76.08 75.93 75.73 77.03 77.93 77.11 77.21 75.55 74.89 74.86 73.91 72.34 72.09 71.62 70.66 72.26 71.03 73.83 73.52 73.75 74.59 75.27 76.45 75.87 75.22 72.44 72.70 72.27 71.39 70.94 70.89 71.81 72.31 73.30 74.56 75.95 74.63 74.41 75.18
75.31 76.03 77.19 75.65 76.15 76.57 75.79 75.10 76.88 76.82 76.93 76.60 76.67 75.44 74.84 72.55 73.65 74.42 73.26 72.55 71.40 73.43 73.15 76.12 75.54 76.06 76.18 76.52 76.25 72.47 73.87 71.90 70.54 69.55 69.66 70.36 70.99 71.59 72.73 74.56 74.24 74.60 74.35
74.47 75.82 76.20 77.02 77.33 76.47 75.96 75.01 74.97 76.09 76.15 76.48 75.86 76.89 76.54 74.93 74.75 75.33 74.00 72.00 70.76 72.50 73.93 73.83 76.48 76.08 76.17 76.61 75.68 73.21 77.30 70.92 69.57 69.03 68.76 68.32 69.48 70.96 71.74 72.18 72.78 73.13 73.33
74.76 75.29 75.27 75.76 76.65 76.44 75.93 76.08 74.69 75.57 76.15 75.90 75.37 75.07 75.77 76.46 74.84 75.07 74.66 73.62 71.34 67.65 69.14 73.38 73.33 75.99 76.15 77.40 75.38 78.24 77.53 71.26 70.51 69.59 68.00 67.57 68.29 69.35 70.01 70.08 70.30 70.48 70.80
75.17 75.59 74.85 75.03 75.93 76.35 76.58 76.48 76.69 76.60 76.04 75.39 74.82 73.99 75.07 75.79 75.70 75.55 74.99 74.45 73.68 71.82 68.87 73.61 74.11 75.10 76.04 76.38 76.55 77.19 76.74 73.30 71.21 69.05 68.42 67.90 67.82 68.82 68.98 68.64 68.01 67.55 67.52
74.96 74.38 74.86 74.83 75.03 75.25 75.43 75.79 76.37 76.24 75.78 75.58 75.54 74.85 75.15 76.58 74.49 74.53 75.00 74.63 73.94 73.47 70.66 71.77 74.35 75.06 75.92 76.33 76.95 76.84 76.66 76.88 76.39 68.99 68.15 67.40 66.78 67.09 67.42 67.11 66.07 65.42 65.00
74.80 74.79 74.68 74.21 74.29 74.76 74.65 75.14 75.20 75.18 75.36 75.20 75.24 75.35 74.93 74.37 75.54 76.78 74.69 75.02 74.24 74.76 72.41 71.79 73.92 73.74 75.04 75.93 75.73 76.11 75.38 75.38 76.20 70.71 67.89 66.96 66.18 65.73 65.06 64.72 63.68 62.54 61.92
74.49 73.87 73.45 73.06 74.26 74.08 74.18 75.40 76.32 75.90 75.42 75.45 75.51 75.35 75.07 75.01 75.41 74.60 76.63 76.60 74.65 74.04 75.03 72.72 72.34 74.04 73.70 73.76 73.95 75.38 75.84 76.34 74.48 72.11 68.84 68.37 66.82 65.91 64.47 63.06 61.55 59.55 57.40
74.05 74.18 74.30 74.57 74.20 74.42 75.73 75.84 75.24 75.19 75.05 75.00 75.24 75.75 75.84 75.46 75.34 75.64 75.60 75.77 74.76 75.40 75.45 73.88 73.57 72.56 72.84 74.61 74.15 73.22 72.74 74.44 73.22 75.79 72.52 70.71 69.07 67.01 64.71 60.93 60.63 58.74 56.29
73.50 74.06 73.84 73.68 74.40 74.17 73.67 73.11 73.95 73.75 73.90 73.87 74.76 75.32 75.73 69.94 67.36 67.65 71.88 75.27 75.00 75.13 74.85 74.24 73.99 72.64 74.40 71.94 73.73 73.32 71.31 72.16 74.92 72.27 75.73 73.28 72.29 71.75 69.55 63.41 61.34 58.05 56.84
71.40 73.00 72.58 69.02 68.60 70.12 60.39 60.54 64.05 71.13 71.94 72.48 73.38 74.38 72.32 68.71 67.18 65.90 66.12 66.59 68.91 73.53 73.69 73.73 73.46 72.23 72.80 72.30 72.94 69.72 70.18 70.08 70.24 68.04 72.69 70.41 71.54 66.83 66.70 62.45 56.91 55.91 55.38
69.52 70.86 69.45 67.07 66.26 62.22 58.19 59.33 60.50 67.80 69.63 71.75 72.67 74.16 70.60 65.87 66.61 68.05 64.49 63.13 62.64 62.18 64.38 72.81 72.48 72.24 70.14 71.43 68.29 69.67 71.87 71.46 71.03 64.43 69.26 73.77 69.69 68.42 66.12 60.65 55.93 54.45 53.88
69.12 68.17 65.10 61.76 60.14 58.80 55.69 58.77 62.47 68.07 70.64 69.16 67.52 69.38 67.82 62.00 60.66 62.29 67.49 64.71 63.58 64.13 66.33 67.56 68.11 64.60 63.90 65.27 68.83 70.72 72.14 72.06 67.41 64.47 63.84 67.66 66.10 67.19 68.00 61.78 54.71 53.62 52.71
67.47 63.75 60.61 58.70 59.06 57.88 54.01 58.91 65.15 67.80 65.85 61.36 60.68 61.01 63.12 59.60 54.61 55.62 64.63 64.47 62.57 61.91 57.55 57.19 56.92 56.74 56.18 56.53 60.17 67.57 67.31 67.08 68.36 65.33 58.75 63.16 62.79 62.49 66.83 65.05 61.09 53.57 52.09
63.95 61.06 59.62 58.20 55.22 57.72 52.61 54.17 63.01 68.39 65.90 63.49 61.14 59.36 54.05 57.00 52.37 52.72 62.78 64.64 63.48 63.60 62.77 62.24 61.65 59.96 60.52 59.10 57.37 61.48 64.10 64.81 65.81 62.97 54.77 58.83 60.38 59.22 60.80 63.75 59.32 57.62 57.57

GFSMA_sfc_wetblb_120.txt.gz
Wetbulb
73.92 74.78 75.13 75.91 77.06 76.99 77.20 77.70 77.18 76.31 75.91 74.92 75.34 74.51 73.10 73.24 72.74 73.86 74.03 73.24 73.35 73.87 74.41 74.28 74.47 74.75 75.32 75.70 76.19 76.59 77.04 77.52 78.05 77.40 77.18 77.03 76.77 76.64 76.34 76.41 76.52 76.69 76.65
76.13 75.12 75.91 75.69 76.72 78.11 77.96 77.76 76.96 76.21 75.13 74.80 75.22 74.83 73.56 73.43 73.65 74.31 74.71 74.56 74.76 74.94 74.52 74.62 75.01 75.45 75.89 76.09 76.64 76.79 77.39 77.94 78.34 78.10 78.06 77.44 77.31 76.66 76.25 76.17 76.23 76.16 76.34
76.67 77.84 75.83 76.50 76.55 78.18 78.44 77.69 77.13 76.56 74.46 74.32 74.97 75.28 75.15 74.63 73.97 73.95 75.08 75.44 74.31 73.05 74.16 74.89 75.33 75.84 76.06 76.16 76.82 77.39 78.61 78.96 78.55 78.29 78.13 78.13 78.06 77.23 75.94 76.18 76.12 75.54 75.23
77.66 77.37 76.39 76.44 77.74 78.68 78.00 76.92 75.95 74.53 74.62 74.07 73.89 74.12 74.95 75.36 75.69 75.34 75.80 77.13 77.45 76.72 74.44 74.94 74.63 74.94 75.22 76.03 76.99 78.28 78.88 78.46 78.35 77.97 77.84 78.15 77.42 77.31 76.70 76.62 76.02 75.07 74.92
76.86 78.07 76.47 77.06 79.80 79.13 79.02 77.92 75.97 75.79 74.07 73.83 73.53 74.71 75.27 75.30 75.94 75.41 76.38 76.77 77.08 76.60 77.70 75.61 74.72 74.95 74.88 75.80 77.17 78.26 78.16 78.34 77.90 77.75 78.00 77.75 77.58 77.43 77.32 76.92 76.10 75.34 74.74
77.09 78.16 76.58 78.45 78.69 78.11 77.89 77.65 77.94 77.63 76.98 76.29 74.08 74.16 76.16 75.45 76.47 77.35 76.84 76.29 77.73 77.78 77.59 79.05 78.55 78.37 75.73 75.95 76.09 76.74 77.08 77.55 77.63 78.00 77.46 76.90 76.73 76.93 77.13 77.18 76.33 75.65 74.72
78.07 78.62 76.76 77.63 78.83 77.97 78.01 79.15 77.44 77.22 75.78 77.82 74.47 74.05 74.60 75.16 74.85 75.46 76.23 76.28 77.05 76.88 77.85 78.70 78.90 78.75 78.53 76.61 76.55 75.99 76.38 75.00 75.67 75.68 76.03 76.07 76.18 76.11 76.63 76.35 76.24 75.48 75.05
77.63 77.87 78.52 77.37 78.36 77.68 79.51 79.05 78.58 76.09 76.91 78.30 74.46 73.88 69.41 71.56 72.83 74.64 76.13 76.30 76.24 76.93 76.88 77.82 78.53 79.40 79.85 79.20 78.80 75.39 75.89 75.11 74.95 75.08 75.14 74.97 75.53 75.58 75.55 76.41 75.66 75.44 75.39
77.45 78.26 78.07 77.90 78.58 77.29 77.08 78.90 78.54 77.28 74.71 77.66 77.61 74.11 69.69 69.28 72.13 74.44 75.69 76.01 77.93 76.75 77.50 78.50 78.26 79.67 80.37 79.23 78.65 78.29 74.29 71.90 73.16 74.14 74.39 74.48 74.83 75.25 75.63 76.50 75.57 75.66 75.62
77.24 77.59 77.46 77.98 78.45 77.23 78.10 78.43 78.94 78.36 78.00 75.53 76.71 76.94 77.20 76.43 70.70 70.13 74.25 75.54 76.46 76.15 77.95 77.03 78.11 78.70 79.42 78.23 76.58 76.71 73.05 72.68 73.38 73.61 73.64 74.18 74.55 74.93 75.58 76.84 76.34 75.35 75.76
77.72 76.90 78.04 77.98 77.59 75.93 77.66 78.74 78.26 79.10 77.85 75.45 74.60 76.23 76.48 75.30 76.16 71.91 69.25 73.20 75.02 76.05 75.73 76.19 76.82 76.75 78.49 77.39 77.23 75.40 73.07 72.57 72.76 72.49 72.84 73.73 73.98 74.70 75.77 76.61 77.45 75.82 75.19
75.88 77.69 77.71 78.23 78.00 77.63 77.05 77.42 78.75 78.24 78.23 77.40 76.24 76.23 74.07 72.68 72.60 72.05 70.72 72.12 72.30 74.75 75.52 76.48 76.29 76.85 78.48 78.27 76.84 73.59 73.96 72.84 72.43 71.51 71.32 72.19 72.89 73.80 75.38 76.61 76.85 75.82 74.91
74.84 76.86 77.64 77.52 76.88 78.23 77.75 77.59 78.48 78.37 77.87 77.12 77.60 75.79 76.53 74.80 74.69 74.30 72.61 72.03 71.03 73.73 74.90 76.88 77.45 78.31 77.99 78.60 77.87 74.78 75.89 72.96 71.30 70.21 70.17 70.60 71.56 72.66 73.30 74.75 75.88 75.67 75.22
74.79 76.26 76.55 76.99 77.27 77.68 77.47 77.68 76.23 76.37 76.90 76.61 77.24 77.52 75.49 76.03 75.71 75.47 73.71 72.35 69.89 70.98 73.31 74.31 77.17 77.26 77.77 77.74 75.94 74.90 76.53 71.66 71.04 69.96 69.01 69.34 70.10 71.15 71.84 71.90 71.82 72.27 72.54
77.59 77.44 77.19 76.81 76.61 76.96 77.04 77.52 75.70 76.13 76.99 77.21 76.53 77.11 76.11 74.84 75.73 74.95 75.05 74.07 71.47 67.40 67.32 73.45 72.50 77.67 76.70 76.73 75.66 77.99 77.81 71.29 71.47 70.22 69.03 68.58 69.14 69.84 69.92 69.66 69.11 68.75 69.52
77.47 77.14 77.14 77.21 77.36 77.32 77.61 78.20 76.50 77.21 76.91 76.07 75.37 76.16 76.52 75.00 75.71 75.62 74.92 74.36 73.83 71.80 68.99 71.74 73.51 75.18 77.11 76.23 76.22 77.67 77.48 74.26 71.31 70.06 69.29 68.62 68.11 68.71 68.25 67.77 67.13 67.00 67.17
77.53 77.17 77.53 77.29 77.15 77.12 77.54 77.89 77.47 76.69 76.52 76.41 76.52 76.06 76.21 77.45 75.27 74.38 74.32 74.32 73.70 73.52 70.88 71.83 73.43 76.17 76.61 76.48 76.71 77.21 76.87 76.88 75.78 68.81 68.83 67.44 66.51 66.42 66.02 65.04 64.33 64.26 64.39
77.89 77.51 77.42 77.04 76.63 76.76 77.16 77.05 76.50 76.10 75.97 75.53 75.58 75.82 75.24 74.94 76.55 76.56 74.73 75.52 74.92 75.63 73.02 72.34 74.68 73.83 75.77 76.83 76.77 76.75 76.28 75.64 76.44 69.86 67.93 66.15 64.35 62.62 60.95 60.29 59.68 59.16 59.27
77.15 76.61 76.66 76.44 76.29 76.31 76.44 76.64 76.83 76.21 76.22 75.90 75.69 75.72 75.44 75.62 75.50 75.66 77.11 74.56 73.98 75.12 76.30 73.58 72.73 74.55 75.35 75.25 75.33 76.57 77.06 77.43 76.02 71.36 67.21 64.58 61.57 60.64 59.98 59.11 58.27 57.01 55.65
76.76 76.49 76.63 76.75 76.42 76.05 76.15 76.53 76.32 76.01 75.92 75.87 76.61 75.95 75.76 75.52 75.71 75.82 75.58 76.23 72.84 74.97 75.89 73.56 73.86 73.83 73.77 75.77 74.90 73.49 72.93 75.68 74.53 75.94 71.22 69.95 66.18 62.91 60.30 57.84 58.08 57.08 55.18
75.91 76.08 75.82 75.71 76.15 76.21 75.38 75.88 75.97 75.74 75.63 75.52 76.21 76.32 75.79 73.96 68.28 70.37 76.30 75.30 73.74 74.01 72.33 71.98 71.88 72.60 74.20 71.83 73.90 73.26 72.24 73.16 76.87 73.46 78.72 69.91 68.98 71.13 64.96 60.20 59.55 55.95 55.42
75.05 75.14 74.89 74.83 74.52 74.35 60.50 60.31 64.43 73.29 74.72 74.58 74.64 75.24 75.44 69.11 68.25 66.80 67.47 67.65 69.64 74.83 74.13 73.84 73.00 71.87 74.05 75.08 74.92 71.95 71.33 71.36 72.24 73.47 76.79 72.26 71.31 68.15 64.22 58.21 54.55 54.38 54.42
73.92 73.06 74.13 73.70 71.18 71.42 58.50 58.92 60.41 67.76 72.54 73.53 74.36 74.91 74.13 72.89 70.68 73.01 64.31 62.82 62.38 62.40 63.54 68.27 73.08 74.14 73.46 73.27 71.36 71.82 73.92 73.59 72.81 69.41 71.77 72.41 72.33 68.22 64.12 56.67 54.30 54.00 53.74
71.12 71.35 71.81 70.59 70.37 67.96 56.34 58.72 62.49 66.51 71.32 73.70 72.27 73.37 73.91 71.56 64.20 64.44 68.75 67.20 67.41 62.90 64.67 68.78 71.28 67.02 66.87 66.76 70.47 72.44 72.67 73.24 71.23 69.38 67.76 71.22 69.93 68.99 66.36 59.79 54.71 54.19 53.35
70.04 67.72 64.49 61.74 61.01 59.59 54.31 57.88 63.77 69.92 68.92 65.99 63.49 66.70 65.77 63.95 54.08 55.95 66.56 69.89 65.27 61.54 56.83 57.04 57.03 57.09 56.56 56.95 60.61 68.54 68.95 67.39 70.66 70.19 63.38 65.12 67.76 64.51 67.76 66.67 58.19 54.07 52.81
65.70 62.54 59.76 59.26 57.83 60.61 54.61 54.59 61.51 70.06 69.00 68.93 67.61 63.24 54.34 61.37 54.60 53.68 66.30 68.09 66.55 67.21 64.80 63.18 62.95 61.27 62.16 61.27 59.73 64.88 64.74 64.92 66.19 66.55 59.28 61.17 63.70 60.80 60.63 67.63 64.28 61.24 60.27

GFSMA_sfc_wetblb_123.txt.gz
Wetbulb
74.22 74.41 74.81 74.90 77.33 74.27 74.52 74.87 75.19 75.47 75.12 75.25 74.24 73.26 72.81 72.87 73.38 73.34 72.98 73.76 73.72 74.23 74.68 74.76 74.87 75.15 75.59 76.02 76.38 76.78 77.16 77.77 78.44 77.98 77.63 77.69 77.60 77.37 77.04 76.62 76.15 76.68 76.78
75.60 74.52 74.97 74.61 74.57 75.67 75.04 75.02 76.28 75.70 74.40 74.26 73.78 73.31 72.99 73.37 74.20 74.27 74.00 73.64 74.66 74.84 75.04 74.92 75.25 75.72 76.19 76.27 76.57 77.19 77.61 78.36 78.74 78.60 78.43 77.96 77.35 76.72 77.41 76.60 75.96 76.07 75.91
76.83 76.72 74.91 75.99 74.49 76.45 77.10 76.02 76.27 75.96 73.82 73.23 74.29 74.33 73.72 74.10 74.29 74.81 74.67 74.65 74.58 75.77 75.58 75.71 75.88 75.98 76.34 76.52 76.74 77.37 78.75 79.25 78.94 78.46 78.36 77.28 77.42 77.02 77.09 76.77 75.75 75.66 75.17
77.19 77.76 74.98 75.43 76.13 77.01 75.34 74.56 74.93 74.47 73.70 72.93 73.10 73.84 73.96 74.39 75.13 75.27 75.31 75.93 75.79 75.64 75.59 76.75 76.92 76.86 76.10 76.16 76.71 77.63 78.83 78.59 78.58 78.07 78.28 78.11 77.74 77.35 77.16 76.82 76.41 75.77 74.85
76.97 77.49 76.69 76.36 78.44 75.57 75.53 75.44 74.54 74.70 73.83 72.80 72.70 73.48 73.76 74.14 75.24 74.91 75.56 76.17 76.13 75.58 76.59 76.06 76.70 76.36 76.33 76.45 77.45 78.17 78.13 78.34 78.07 77.86 77.93 77.27 76.98 76.97 77.20 77.21 76.65 76.15 75.14
77.14 78.00 76.27 77.36 78.83 75.49 77.10 77.96 79.58 76.30 75.23 74.05 72.78 73.06 73.65 73.91 74.85 75.07 75.49 75.79 75.78 76.32 76.70 77.99 77.59 76.79 76.57 78.06 78.06 77.32 77.22 77.22 76.96 77.45 77.06 76.35 76.08 76.36 76.27 76.41 76.13 76.19 75.73
77.74 78.49 76.19 77.24 76.60 77.63 76.56 77.51 76.72 77.29 75.71 75.59 73.46 72.69 73.44 73.96 73.96 74.38 74.70 74.60 75.94 75.39 76.48 76.65 78.33 79.23 77.51 77.61 77.95 76.77 76.67 76.82 75.75 76.43 76.97 76.33 75.86 75.76 75.77 76.32 76.05 75.97 76.01
77.90 77.41 78.81 76.75 77.18 76.49 79.15 78.15 76.61 75.31 74.75 76.08 74.08 72.09 69.49 70.46 71.78 72.82 74.38 74.28 74.85 75.46 75.27 76.91 78.13 78.88 79.77 78.81 79.65 77.45 76.64 76.36 76.02 75.84 76.13 76.05 75.64 75.67 75.57 75.62 76.50 75.64 76.01
77.53 77.98 78.05 78.05 78.28 78.41 76.66 77.98 78.44 78.33 71.60 75.03 77.67 73.82 70.90 68.78 70.78 72.17 73.84 74.14 75.93 75.31 75.89 76.47 77.19 78.45 79.40 78.73 79.01 78.77 75.83 74.07 73.84 74.47 75.35 75.90 75.74 75.84 75.92 76.07 76.47 76.18 76.20
77.11 77.30 77.83 77.82 78.52 77.71 78.55 77.51 77.16 78.46 78.30 73.88 74.43 74.46 76.89 75.46 70.62 67.15 65.79 69.90 75.10 75.37 76.23 76.45 76.08 77.09 78.06 77.65 76.52 76.76 73.85 72.77 73.68 73.60 74.11 74.59 75.54 75.34 75.74 76.50 77.05 76.74 75.88
77.48 76.69 77.72 77.81 77.95 76.49 77.81 78.64 78.14 78.65 77.80 75.15 74.04 73.85 76.05 73.61 75.51 70.87 68.41 68.32 69.55 71.62 75.59 76.03 75.44 75.91 77.11 77.77 77.09 74.09 73.40 73.03 73.32 73.55 73.18 73.77 74.39 75.25 76.14 76.88 77.57 77.56 75.57
75.87 77.24 77.39 78.10 78.33 77.88 77.47 77.51 78.65 78.52 78.56 78.32 76.52 76.02 73.01 72.27 70.89 71.48 69.84 71.94 68.92 73.40 73.62 75.70 75.96 75.99 76.65 77.05 76.49 74.76 74.97 74.23 72.98 72.01 71.90 72.42 73.75 74.72 75.24 75.75 77.08 77.40 76.19
73.33 77.59 78.36 78.14 77.37 78.28 78.27 78.14 78.66 78.54 77.95 77.15 78.34 75.93 75.19 73.91 73.88 73.11 71.88 70.49 70.70 71.87 72.61 74.42 72.00 76.31 76.41 80.01 75.97 76.98 74.71 73.16 71.77 71.32 70.69 71.34 72.19 72.94 73.67 74.12 74.47 75.43 75.91
74.88 77.63 77.59 77.49 77.57 77.95 77.78 78.30 76.66 76.06 78.32 76.15 77.43 78.39 75.75 74.66 74.65 73.82 72.49 70.96 68.91 69.51 71.86 74.71 72.92 75.57 75.25 76.78 76.11 75.79 73.29 72.97 71.92 70.58 69.80 69.95 70.50 71.02 71.20 71.19 71.27 71.15 71.65
75.72 77.09 77.12 77.47 77.47 77.44 77.60 78.22 76.12 76.56 76.99 77.37 76.56 77.79 76.38 74.20 72.98 73.80 73.32 72.41 70.21 66.68 67.07 73.02 72.12 77.27 74.61 75.21 77.00 77.30 76.59 71.89 72.17 71.09 69.67 69.40 69.50 69.43 69.07 68.79 68.40 68.48 68.62
77.71 77.35 77.34 77.12 77.44 77.40 77.85 78.81 77.50 78.46 77.14 76.17 75.42 77.88 77.79 75.38 75.29 75.02 73.73 73.71 73.25 72.32 68.50 71.31 72.04 74.59 77.12 75.52 75.53 77.05 76.31 74.82 71.35 70.73 69.02 67.82 67.44 66.75 66.17 65.79 65.59 65.53 66.04
77.58 77.29 77.98 78.01 77.50 77.16 77.45 78.35 77.36 77.87 77.48 77.07 77.01 76.28 76.51 77.72 74.91 74.08 74.88 74.97 73.22 71.98 70.16 72.41 73.67 77.24 77.12 75.73 76.70 77.26 76.42 76.27 73.53 69.09 67.13 65.50 63.93 63.06 62.60 62.23 62.05 62.28 63.05
78.91 78.63 78.03 77.91 77.67 77.64 77.87 77.45 76.73 76.28 76.17 75.27 75.96 77.33 75.59 74.82 77.63 78.13 74.39 77.18 75.93 76.65 73.18 74.33 74.85 73.53 76.09 77.47 77.16 76.82 76.35 75.04 74.79 67.15 64.33 62.49 61.53 60.78 60.07 59.50 58.76 58.45 58.93
77.30 77.03 77.62 77.54 77.46 77.26 77.18 77.21 77.27 76.66 76.45 75.99 76.30 76.10 76.16 76.87 77.48 75.38 76.08 74.78 74.34 74.68 76.03 74.31 71.84 74.61 73.72 73.65 76.62 77.80 77.98 78.75 72.33 64.77 62.40 61.44 60.69 59.93 58.73 57.88 57.09 55.94 55.10
77.27 76.81 76.98 76.91 76.71 76.42 76.49 76.84 76.79 76.45 76.19 76.00 77.29 76.14 76.27 76.10 75.31 74.52 76.91 78.05 77.31 74.95 71.60 71.68 72.58 71.55 73.35 75.08 71.81 71.64 69.98 72.66 71.27 71.66 70.53 64.89 62.48 60.75 59.14 57.39 57.33 56.48 54.99
76.64 76.60 76.25 76.48 76.70 75.80 74.71 76.34 76.28 76.00 75.83 75.66 76.08 76.10 76.81 74.22 69.84 70.54 73.30 75.92 75.14 72.45 70.91 70.48 70.91 70.84 71.27 71.34 71.58 70.98 71.50 73.15 73.78 73.18 72.59 69.03 64.41 65.64 62.18 58.76 58.76 55.42 55.23
76.17 76.17 76.09 75.46 75.47 75.05 62.53 63.43 66.42 73.87 74.95 75.09 74.69 75.34 76.03 71.43 69.56 67.28 68.07 68.03 70.10 74.43 74.41 74.69 72.67 72.53 74.19 75.22 75.47 72.97 71.76 71.75 71.43 74.49 76.62 73.80 69.19 65.98 61.88 56.44 54.22 53.91 54.29
76.24 75.39 74.89 73.52 72.93 66.99 60.36 59.65 61.29 69.85 73.55 74.86 74.78 75.27 74.88 74.52 72.01 73.86 64.00 63.65 63.28 63.24 64.61 67.89 72.92 72.60 71.42 68.84 69.66 72.74 74.20 74.54 74.18 71.09 72.81 73.72 71.09 63.79 59.08 54.34 54.80 54.74 54.20
74.00 73.26 71.66 70.30 70.96 59.54 57.37 59.41 63.68 70.48 71.57 72.11 70.39 70.45 74.00 73.32 65.21 67.71 71.89 70.85 69.19 67.35 65.25 68.29 70.41 68.63 67.08 66.26 68.33 71.70 73.67 73.78 73.30 70.84 70.62 71.31 69.58 65.38 62.34 56.98 55.17 54.81 53.64
72.65 70.33 67.11 64.91 63.27 59.56 55.23 57.41 62.39 70.48 70.70 67.87 65.12 63.10 67.53 67.30 55.52 55.71 63.21 68.63 66.46 65.72 58.05 57.53 57.36 57.69 57.79 58.35 61.35 66.93 68.07 69.57 71.20 73.14 65.85 64.99 69.25 67.63 67.66 61.35 55.87 54.66 53.47
69.05 63.03 60.73 59.56 59.74 59.29 52.97 53.95 56.46 64.75 68.70 67.86 64.73 61.71 56.26 61.38 57.67 55.21 59.99 69.63 68.49 68.18 64.15 64.02 64.87 62.60 61.01 62.94 61.11 65.90 64.54 62.67 64.69 64.25 60.12 61.38 65.30 62.48 59.67 64.46 61.50 56.48 55.41